<?xml version="1.0" encoding="UTF-8" standalone="no" ?>
<gpx xmlns="http://www.topografix.com/GPX/1/1" xmlns:xsi="http://www.w3.org/2001/XMLSchema-instance" xsi:schemaLocation="http://www.topografix.com/GPX/1/1 http://www.topografix.com/GPX/1/1/gpx.xsd" version="1.1" creator="VisuGPX - https://www.visugpx.com">
  <metadata>
    <name>La Sûre par St Joseph de Rivière</name>
    <desc><![CDATA[Au départ de St Joseph de Rivière monter au Cul de Lampe rejoindre l'arête nord de la Sûre, Descendre sur la Combe des Veaux , remonter sur l'épaule de Jusson et descente sur la placette]]></desc>
  </metadata>
  <trk>
    <name><![CDATA[2010-12-04T08:44:15Z]]></name>
    <trkseg>
      <trkpt lat="45.3795" lon="5.7073">
        <ele>484.4</ele>
        <time>2010-12-04T08:44:15Z</time>
      </trkpt>
      <trkpt lat="45.37948" lon="5.70729">
        <ele>498</ele>
        <time>2010-12-04T08:44:29Z</time>
      </trkpt>
      <trkpt lat="45.37949" lon="5.70727">
        <ele>498</ele>
        <time>2010-12-04T08:44:37Z</time>
      </trkpt>
      <trkpt lat="45.37947" lon="5.70726">
        <ele>498.2</ele>
        <time>2010-12-04T08:44:41Z</time>
      </trkpt>
      <trkpt lat="45.37948" lon="5.70725">
        <ele>497.8</ele>
        <time>2010-12-04T08:45:09Z</time>
      </trkpt>
      <trkpt lat="45.3795" lon="5.70722">
        <ele>497.8</ele>
        <time>2010-12-04T08:45:13Z</time>
      </trkpt>
      <trkpt lat="45.37949" lon="5.70727">
        <ele>497.2</ele>
        <time>2010-12-04T08:45:24Z</time>
      </trkpt>
      <trkpt lat="45.37949" lon="5.70727">
        <ele>497.2</ele>
        <time>2010-12-04T08:45:30Z</time>
      </trkpt>
      <trkpt lat="45.37946" lon="5.70732">
        <ele>496.4</ele>
        <time>2010-12-04T08:45:48Z</time>
      </trkpt>
      <trkpt lat="45.37946" lon="5.70732">
        <ele>496.4</ele>
        <time>2010-12-04T08:45:49Z</time>
      </trkpt>
      <trkpt lat="45.37944" lon="5.70732">
        <ele>495.2</ele>
        <time>2010-12-04T08:46:14Z</time>
      </trkpt>
      <trkpt lat="45.37945" lon="5.70732">
        <ele>493.6</ele>
        <time>2010-12-04T08:46:46Z</time>
      </trkpt>
      <trkpt lat="45.37944" lon="5.7073">
        <ele>493.2</ele>
        <time>2010-12-04T08:47:00Z</time>
      </trkpt>
      <trkpt lat="45.37947" lon="5.7073">
        <ele>493.4</ele>
        <time>2010-12-04T08:47:34Z</time>
      </trkpt>
      <trkpt lat="45.37949" lon="5.70731">
        <ele>493.4</ele>
        <time>2010-12-04T08:47:37Z</time>
      </trkpt>
      <trkpt lat="45.37953" lon="5.70731">
        <ele>493.4</ele>
        <time>2010-12-04T08:47:45Z</time>
      </trkpt>
      <trkpt lat="45.37954" lon="5.70734">
        <ele>493.2</ele>
        <time>2010-12-04T08:47:51Z</time>
      </trkpt>
      <trkpt lat="45.37957" lon="5.70738">
        <ele>493.2</ele>
        <time>2010-12-04T08:47:55Z</time>
      </trkpt>
      <trkpt lat="45.37963" lon="5.70747">
        <ele>492.8</ele>
        <time>2010-12-04T08:48:02Z</time>
      </trkpt>
      <trkpt lat="45.37966" lon="5.70753">
        <ele>492.8</ele>
        <time>2010-12-04T08:48:07Z</time>
      </trkpt>
      <trkpt lat="45.37967" lon="5.70755">
        <ele>492.6</ele>
        <time>2010-12-04T08:48:09Z</time>
      </trkpt>
      <trkpt lat="45.3797" lon="5.70759">
        <ele>492.4</ele>
        <time>2010-12-04T08:48:15Z</time>
      </trkpt>
      <trkpt lat="45.37974" lon="5.7077">
        <ele>492.4</ele>
        <time>2010-12-04T08:48:24Z</time>
      </trkpt>
      <trkpt lat="45.37975" lon="5.70776">
        <ele>492.6</ele>
        <time>2010-12-04T08:48:30Z</time>
      </trkpt>
      <trkpt lat="45.37975" lon="5.70778">
        <ele>492.6</ele>
        <time>2010-12-04T08:48:31Z</time>
      </trkpt>
      <trkpt lat="45.37977" lon="5.70779">
        <ele>492.8</ele>
        <time>2010-12-04T08:48:33Z</time>
      </trkpt>
      <trkpt lat="45.37978" lon="5.70783">
        <ele>493</ele>
        <time>2010-12-04T08:48:36Z</time>
      </trkpt>
      <trkpt lat="45.37978" lon="5.70789">
        <ele>493.2</ele>
        <time>2010-12-04T08:48:41Z</time>
      </trkpt>
      <trkpt lat="45.37979" lon="5.70791">
        <ele>493.2</ele>
        <time>2010-12-04T08:48:43Z</time>
      </trkpt>
      <trkpt lat="45.3798" lon="5.70795">
        <ele>493.6</ele>
        <time>2010-12-04T08:48:47Z</time>
      </trkpt>
      <trkpt lat="45.3798" lon="5.70801">
        <ele>494</ele>
        <time>2010-12-04T08:48:52Z</time>
      </trkpt>
      <trkpt lat="45.37979" lon="5.70805">
        <ele>494</ele>
        <time>2010-12-04T08:48:54Z</time>
      </trkpt>
      <trkpt lat="45.37979" lon="5.70807">
        <ele>494</ele>
        <time>2010-12-04T08:48:56Z</time>
      </trkpt>
      <trkpt lat="45.3798" lon="5.70811">
        <ele>494.6</ele>
        <time>2010-12-04T08:48:59Z</time>
      </trkpt>
      <trkpt lat="45.37979" lon="5.7082">
        <ele>495.2</ele>
        <time>2010-12-04T08:49:06Z</time>
      </trkpt>
      <trkpt lat="45.37979" lon="5.70822">
        <ele>495.4</ele>
        <time>2010-12-04T08:49:08Z</time>
      </trkpt>
      <trkpt lat="45.3798" lon="5.70827">
        <ele>495.6</ele>
        <time>2010-12-04T08:49:12Z</time>
      </trkpt>
      <trkpt lat="45.37981" lon="5.70832">
        <ele>496</ele>
        <time>2010-12-04T08:49:16Z</time>
      </trkpt>
      <trkpt lat="45.37981" lon="5.70833">
        <ele>496</ele>
        <time>2010-12-04T08:49:17Z</time>
      </trkpt>
      <trkpt lat="45.37981" lon="5.70843">
        <ele>496</ele>
        <time>2010-12-04T08:49:24Z</time>
      </trkpt>
      <trkpt lat="45.3798" lon="5.70851">
        <ele>496.2</ele>
        <time>2010-12-04T08:49:31Z</time>
      </trkpt>
      <trkpt lat="45.37979" lon="5.70852">
        <ele>496.2</ele>
        <time>2010-12-04T08:49:37Z</time>
      </trkpt>
      <trkpt lat="45.37979" lon="5.70855">
        <ele>496.6</ele>
        <time>2010-12-04T08:49:49Z</time>
      </trkpt>
      <trkpt lat="45.37979" lon="5.70857">
        <ele>496.8</ele>
        <time>2010-12-04T08:49:51Z</time>
      </trkpt>
      <trkpt lat="45.3798" lon="5.70865">
        <ele>497.4</ele>
        <time>2010-12-04T08:49:58Z</time>
      </trkpt>
      <trkpt lat="45.37979" lon="5.70872">
        <ele>498.2</ele>
        <time>2010-12-04T08:50:05Z</time>
      </trkpt>
      <trkpt lat="45.37979" lon="5.70877">
        <ele>498.8</ele>
        <time>2010-12-04T08:50:10Z</time>
      </trkpt>
      <trkpt lat="45.37978" lon="5.70878">
        <ele>498.8</ele>
        <time>2010-12-04T08:50:11Z</time>
      </trkpt>
      <trkpt lat="45.37977" lon="5.70884">
        <ele>498.8</ele>
        <time>2010-12-04T08:50:16Z</time>
      </trkpt>
      <trkpt lat="45.37977" lon="5.7089">
        <ele>498.8</ele>
        <time>2010-12-04T08:50:22Z</time>
      </trkpt>
      <trkpt lat="45.37977" lon="5.70892">
        <ele>499</ele>
        <time>2010-12-04T08:50:24Z</time>
      </trkpt>
      <trkpt lat="45.37975" lon="5.709">
        <ele>499.2</ele>
        <time>2010-12-04T08:50:31Z</time>
      </trkpt>
      <trkpt lat="45.37975" lon="5.70902">
        <ele>500</ele>
        <time>2010-12-04T08:50:36Z</time>
      </trkpt>
      <trkpt lat="45.37975" lon="5.70904">
        <ele>500.4</ele>
        <time>2010-12-04T08:50:39Z</time>
      </trkpt>
      <trkpt lat="45.3797" lon="5.70908">
        <ele>501.2</ele>
        <time>2010-12-04T08:50:45Z</time>
      </trkpt>
      <trkpt lat="45.37966" lon="5.7091">
        <ele>501.6</ele>
        <time>2010-12-04T08:50:48Z</time>
      </trkpt>
      <trkpt lat="45.37965" lon="5.7091">
        <ele>501.8</ele>
        <time>2010-12-04T08:50:50Z</time>
      </trkpt>
      <trkpt lat="45.37962" lon="5.70909">
        <ele>502.4</ele>
        <time>2010-12-04T08:50:54Z</time>
      </trkpt>
      <trkpt lat="45.37959" lon="5.70908">
        <ele>502.8</ele>
        <time>2010-12-04T08:50:57Z</time>
      </trkpt>
      <trkpt lat="45.37955" lon="5.70904">
        <ele>503.4</ele>
        <time>2010-12-04T08:51:02Z</time>
      </trkpt>
      <trkpt lat="45.37948" lon="5.70902">
        <ele>503.8</ele>
        <time>2010-12-04T08:51:09Z</time>
      </trkpt>
      <trkpt lat="45.37946" lon="5.70897">
        <ele>504</ele>
        <time>2010-12-04T08:51:15Z</time>
      </trkpt>
      <trkpt lat="45.37945" lon="5.70897">
        <ele>504.2</ele>
        <time>2010-12-04T08:51:16Z</time>
      </trkpt>
      <trkpt lat="45.37944" lon="5.70895">
        <ele>504.6</ele>
        <time>2010-12-04T08:51:21Z</time>
      </trkpt>
      <trkpt lat="45.37945" lon="5.70893">
        <ele>506.6</ele>
        <time>2010-12-04T08:51:42Z</time>
      </trkpt>
      <trkpt lat="45.37946" lon="5.70892">
        <ele>507</ele>
        <time>2010-12-04T08:51:46Z</time>
      </trkpt>
      <trkpt lat="45.37947" lon="5.70894">
        <ele>508</ele>
        <time>2010-12-04T08:51:53Z</time>
      </trkpt>
      <trkpt lat="45.37947" lon="5.70894">
        <ele>510.2</ele>
        <time>2010-12-04T08:52:11Z</time>
      </trkpt>
      <trkpt lat="45.37941" lon="5.70895">
        <ele>515.4</ele>
        <time>2010-12-04T08:53:11Z</time>
      </trkpt>
      <trkpt lat="45.37938" lon="5.70895">
        <ele>515.4</ele>
        <time>2010-12-04T08:53:14Z</time>
      </trkpt>
      <trkpt lat="45.37936" lon="5.70897">
        <ele>515.6</ele>
        <time>2010-12-04T08:53:19Z</time>
      </trkpt>
      <trkpt lat="45.37935" lon="5.70897">
        <ele>515.6</ele>
        <time>2010-12-04T08:53:20Z</time>
      </trkpt>
      <trkpt lat="45.37933" lon="5.70898">
        <ele>515.8</ele>
        <time>2010-12-04T08:53:24Z</time>
      </trkpt>
      <trkpt lat="45.37927" lon="5.709">
        <ele>516</ele>
        <time>2010-12-04T08:53:32Z</time>
      </trkpt>
      <trkpt lat="45.37925" lon="5.709">
        <ele>516.2</ele>
        <time>2010-12-04T08:53:34Z</time>
      </trkpt>
      <trkpt lat="45.37924" lon="5.709">
        <ele>516.2</ele>
        <time>2010-12-04T08:53:36Z</time>
      </trkpt>
      <trkpt lat="45.37921" lon="5.70899">
        <ele>517</ele>
        <time>2010-12-04T08:53:41Z</time>
      </trkpt>
      <trkpt lat="45.3792" lon="5.70899">
        <ele>517.4</ele>
        <time>2010-12-04T08:53:45Z</time>
      </trkpt>
      <trkpt lat="45.37919" lon="5.70899">
        <ele>518.2</ele>
        <time>2010-12-04T08:53:49Z</time>
      </trkpt>
      <trkpt lat="45.37918" lon="5.70899">
        <ele>518.4</ele>
        <time>2010-12-04T08:53:50Z</time>
      </trkpt>
      <trkpt lat="45.37914" lon="5.70899">
        <ele>519.8</ele>
        <time>2010-12-04T08:53:56Z</time>
      </trkpt>
      <trkpt lat="45.37911" lon="5.70899">
        <ele>520.6</ele>
        <time>2010-12-04T08:54:00Z</time>
      </trkpt>
      <trkpt lat="45.37909" lon="5.70896">
        <ele>521.4</ele>
        <time>2010-12-04T08:54:04Z</time>
      </trkpt>
      <trkpt lat="45.37908" lon="5.70895">
        <ele>523.2</ele>
        <time>2010-12-04T08:54:10Z</time>
      </trkpt>
      <trkpt lat="45.37904" lon="5.70894">
        <ele>524</ele>
        <time>2010-12-04T08:54:14Z</time>
      </trkpt>
      <trkpt lat="45.379" lon="5.70893">
        <ele>524.8</ele>
        <time>2010-12-04T08:54:18Z</time>
      </trkpt>
      <trkpt lat="45.37899" lon="5.70893">
        <ele>524.8</ele>
        <time>2010-12-04T08:54:19Z</time>
      </trkpt>
      <trkpt lat="45.37895" lon="5.70892">
        <ele>525.2</ele>
        <time>2010-12-04T08:54:23Z</time>
      </trkpt>
      <trkpt lat="45.37895" lon="5.70892">
        <ele>525.4</ele>
        <time>2010-12-04T08:54:24Z</time>
      </trkpt>
      <trkpt lat="45.37892" lon="5.70891">
        <ele>525.8</ele>
        <time>2010-12-04T08:54:28Z</time>
      </trkpt>
      <trkpt lat="45.3789" lon="5.70889">
        <ele>526.2</ele>
        <time>2010-12-04T08:54:32Z</time>
      </trkpt>
      <trkpt lat="45.37887" lon="5.70889">
        <ele>526.8</ele>
        <time>2010-12-04T08:54:36Z</time>
      </trkpt>
      <trkpt lat="45.37888" lon="5.70888">
        <ele>527.8</ele>
        <time>2010-12-04T08:54:46Z</time>
      </trkpt>
      <trkpt lat="45.37889" lon="5.70889">
        <ele>530.8</ele>
        <time>2010-12-04T08:55:02Z</time>
      </trkpt>
      <trkpt lat="45.37888" lon="5.70889">
        <ele>531</ele>
        <time>2010-12-04T08:55:03Z</time>
      </trkpt>
      <trkpt lat="45.37888" lon="5.70889">
        <ele>531</ele>
        <time>2010-12-04T08:55:04Z</time>
      </trkpt>
      <trkpt lat="45.37887" lon="5.70888">
        <ele>531.6</ele>
        <time>2010-12-04T08:55:08Z</time>
      </trkpt>
      <trkpt lat="45.37882" lon="5.70886">
        <ele>532.6</ele>
        <time>2010-12-04T08:55:16Z</time>
      </trkpt>
      <trkpt lat="45.37879" lon="5.70885">
        <ele>533</ele>
        <time>2010-12-04T08:55:21Z</time>
      </trkpt>
      <trkpt lat="45.37875" lon="5.70884">
        <ele>533.4</ele>
        <time>2010-12-04T08:55:26Z</time>
      </trkpt>
      <trkpt lat="45.37871" lon="5.70883">
        <ele>533.6</ele>
        <time>2010-12-04T08:55:31Z</time>
      </trkpt>
      <trkpt lat="45.37871" lon="5.70883">
        <ele>533.8</ele>
        <time>2010-12-04T08:55:32Z</time>
      </trkpt>
      <trkpt lat="45.37868" lon="5.70883">
        <ele>534</ele>
        <time>2010-12-04T08:55:36Z</time>
      </trkpt>
      <trkpt lat="45.37865" lon="5.70882">
        <ele>534</ele>
        <time>2010-12-04T08:55:40Z</time>
      </trkpt>
      <trkpt lat="45.37862" lon="5.70881">
        <ele>534.2</ele>
        <time>2010-12-04T08:55:44Z</time>
      </trkpt>
      <trkpt lat="45.37857" lon="5.7088">
        <ele>534.4</ele>
        <time>2010-12-04T08:55:51Z</time>
      </trkpt>
      <trkpt lat="45.37854" lon="5.70878">
        <ele>534.8</ele>
        <time>2010-12-04T08:55:57Z</time>
      </trkpt>
      <trkpt lat="45.37854" lon="5.70878">
        <ele>535</ele>
        <time>2010-12-04T08:55:58Z</time>
      </trkpt>
      <trkpt lat="45.37852" lon="5.70878">
        <ele>535.4</ele>
        <time>2010-12-04T08:56:01Z</time>
      </trkpt>
      <trkpt lat="45.3785" lon="5.70877">
        <ele>535.8</ele>
        <time>2010-12-04T08:56:05Z</time>
      </trkpt>
      <trkpt lat="45.37847" lon="5.70874">
        <ele>536.6</ele>
        <time>2010-12-04T08:56:10Z</time>
      </trkpt>
      <trkpt lat="45.37843" lon="5.70872">
        <ele>537.4</ele>
        <time>2010-12-04T08:56:15Z</time>
      </trkpt>
      <trkpt lat="45.3784" lon="5.70872">
        <ele>537.8</ele>
        <time>2010-12-04T08:56:19Z</time>
      </trkpt>
      <trkpt lat="45.37837" lon="5.70871">
        <ele>538.6</ele>
        <time>2010-12-04T08:56:24Z</time>
      </trkpt>
      <trkpt lat="45.37836" lon="5.7087">
        <ele>539</ele>
        <time>2010-12-04T08:56:26Z</time>
      </trkpt>
      <trkpt lat="45.37835" lon="5.7087">
        <ele>539.2</ele>
        <time>2010-12-04T08:56:28Z</time>
      </trkpt>
      <trkpt lat="45.37832" lon="5.70868">
        <ele>540</ele>
        <time>2010-12-04T08:56:33Z</time>
      </trkpt>
      <trkpt lat="45.3783" lon="5.70867">
        <ele>541</ele>
        <time>2010-12-04T08:56:38Z</time>
      </trkpt>
      <trkpt lat="45.37828" lon="5.70865">
        <ele>542</ele>
        <time>2010-12-04T08:56:42Z</time>
      </trkpt>
      <trkpt lat="45.37825" lon="5.70864">
        <ele>543</ele>
        <time>2010-12-04T08:56:46Z</time>
      </trkpt>
      <trkpt lat="45.37821" lon="5.70863">
        <ele>544.2</ele>
        <time>2010-12-04T08:56:52Z</time>
      </trkpt>
      <trkpt lat="45.37818" lon="5.70861">
        <ele>545.4</ele>
        <time>2010-12-04T08:56:57Z</time>
      </trkpt>
      <trkpt lat="45.37818" lon="5.7086">
        <ele>545.8</ele>
        <time>2010-12-04T08:56:58Z</time>
      </trkpt>
      <trkpt lat="45.37814" lon="5.70859">
        <ele>547.2</ele>
        <time>2010-12-04T08:57:04Z</time>
      </trkpt>
      <trkpt lat="45.37811" lon="5.70859">
        <ele>548.2</ele>
        <time>2010-12-04T08:57:10Z</time>
      </trkpt>
      <trkpt lat="45.37808" lon="5.7086">
        <ele>549</ele>
        <time>2010-12-04T08:57:15Z</time>
      </trkpt>
      <trkpt lat="45.37804" lon="5.70859">
        <ele>549.8</ele>
        <time>2010-12-04T08:57:20Z</time>
      </trkpt>
      <trkpt lat="45.37801" lon="5.70858">
        <ele>550.4</ele>
        <time>2010-12-04T08:57:25Z</time>
      </trkpt>
      <trkpt lat="45.378" lon="5.70858">
        <ele>550.6</ele>
        <time>2010-12-04T08:57:26Z</time>
      </trkpt>
      <trkpt lat="45.37797" lon="5.70858">
        <ele>551</ele>
        <time>2010-12-04T08:57:31Z</time>
      </trkpt>
      <trkpt lat="45.37794" lon="5.70858">
        <ele>551.6</ele>
        <time>2010-12-04T08:57:37Z</time>
      </trkpt>
      <trkpt lat="45.37792" lon="5.70857">
        <ele>552</ele>
        <time>2010-12-04T08:57:42Z</time>
      </trkpt>
      <trkpt lat="45.3779" lon="5.70857">
        <ele>552.4</ele>
        <time>2010-12-04T08:57:46Z</time>
      </trkpt>
      <trkpt lat="45.37787" lon="5.70854">
        <ele>553.2</ele>
        <time>2010-12-04T08:57:52Z</time>
      </trkpt>
      <trkpt lat="45.37784" lon="5.70854">
        <ele>553.8</ele>
        <time>2010-12-04T08:57:57Z</time>
      </trkpt>
      <trkpt lat="45.37783" lon="5.70852">
        <ele>554.8</ele>
        <time>2010-12-04T08:58:03Z</time>
      </trkpt>
      <trkpt lat="45.37782" lon="5.70852">
        <ele>554.8</ele>
        <time>2010-12-04T08:58:04Z</time>
      </trkpt>
      <trkpt lat="45.37779" lon="5.70852">
        <ele>555.4</ele>
        <time>2010-12-04T08:58:09Z</time>
      </trkpt>
      <trkpt lat="45.37775" lon="5.70852">
        <ele>555.6</ele>
        <time>2010-12-04T08:58:14Z</time>
      </trkpt>
      <trkpt lat="45.3777" lon="5.70845">
        <ele>557.8</ele>
        <time>2010-12-04T08:58:27Z</time>
      </trkpt>
      <trkpt lat="45.37769" lon="5.70844">
        <ele>558.6</ele>
        <time>2010-12-04T08:58:32Z</time>
      </trkpt>
      <trkpt lat="45.37766" lon="5.70845">
        <ele>560.6</ele>
        <time>2010-12-04T08:58:44Z</time>
      </trkpt>
      <trkpt lat="45.37765" lon="5.70844">
        <ele>560.8</ele>
        <time>2010-12-04T08:58:45Z</time>
      </trkpt>
      <trkpt lat="45.37761" lon="5.70845">
        <ele>561.2</ele>
        <time>2010-12-04T08:58:50Z</time>
      </trkpt>
      <trkpt lat="45.37758" lon="5.70847">
        <ele>561.8</ele>
        <time>2010-12-04T08:58:55Z</time>
      </trkpt>
      <trkpt lat="45.37756" lon="5.70845">
        <ele>562.6</ele>
        <time>2010-12-04T08:59:00Z</time>
      </trkpt>
      <trkpt lat="45.37752" lon="5.70841">
        <ele>564</ele>
        <time>2010-12-04T08:59:07Z</time>
      </trkpt>
      <trkpt lat="45.37749" lon="5.70842">
        <ele>565</ele>
        <time>2010-12-04T08:59:12Z</time>
      </trkpt>
      <trkpt lat="45.37747" lon="5.70842">
        <ele>566</ele>
        <time>2010-12-04T08:59:16Z</time>
      </trkpt>
      <trkpt lat="45.37744" lon="5.70842">
        <ele>566.2</ele>
        <time>2010-12-04T08:59:18Z</time>
      </trkpt>
      <trkpt lat="45.37737" lon="5.70841">
        <ele>567.4</ele>
        <time>2010-12-04T08:59:24Z</time>
      </trkpt>
      <trkpt lat="45.37731" lon="5.70838">
        <ele>569.2</ele>
        <time>2010-12-04T08:59:30Z</time>
      </trkpt>
      <trkpt lat="45.3773" lon="5.70838">
        <ele>569.4</ele>
        <time>2010-12-04T08:59:31Z</time>
      </trkpt>
      <trkpt lat="45.37726" lon="5.70839">
        <ele>570.4</ele>
        <time>2010-12-04T08:59:36Z</time>
      </trkpt>
      <trkpt lat="45.37722" lon="5.70839">
        <ele>571.6</ele>
        <time>2010-12-04T08:59:42Z</time>
      </trkpt>
      <trkpt lat="45.37719" lon="5.70841">
        <ele>572</ele>
        <time>2010-12-04T08:59:44Z</time>
      </trkpt>
      <trkpt lat="45.37717" lon="5.7084">
        <ele>572.6</ele>
        <time>2010-12-04T08:59:47Z</time>
      </trkpt>
      <trkpt lat="45.37713" lon="5.7084">
        <ele>573.4</ele>
        <time>2010-12-04T08:59:52Z</time>
      </trkpt>
      <trkpt lat="45.37711" lon="5.7084">
        <ele>574.2</ele>
        <time>2010-12-04T08:59:56Z</time>
      </trkpt>
      <trkpt lat="45.37708" lon="5.7084">
        <ele>575.2</ele>
        <time>2010-12-04T09:00:01Z</time>
      </trkpt>
      <trkpt lat="45.37705" lon="5.70839">
        <ele>576.4</ele>
        <time>2010-12-04T09:00:05Z</time>
      </trkpt>
      <trkpt lat="45.37703" lon="5.70841">
        <ele>577</ele>
        <time>2010-12-04T09:00:09Z</time>
      </trkpt>
      <trkpt lat="45.37699" lon="5.70842">
        <ele>578.4</ele>
        <time>2010-12-04T09:00:17Z</time>
      </trkpt>
      <trkpt lat="45.37696" lon="5.70843">
        <ele>580</ele>
        <time>2010-12-04T09:00:24Z</time>
      </trkpt>
      <trkpt lat="45.37695" lon="5.70841">
        <ele>580.4</ele>
        <time>2010-12-04T09:00:25Z</time>
      </trkpt>
      <trkpt lat="45.37692" lon="5.7084">
        <ele>581.8</ele>
        <time>2010-12-04T09:00:28Z</time>
      </trkpt>
      <trkpt lat="45.3769" lon="5.7084">
        <ele>583</ele>
        <time>2010-12-04T09:00:32Z</time>
      </trkpt>
      <trkpt lat="45.37686" lon="5.70843">
        <ele>584.4</ele>
        <time>2010-12-04T09:00:38Z</time>
      </trkpt>
      <trkpt lat="45.37684" lon="5.70842">
        <ele>585.8</ele>
        <time>2010-12-04T09:00:43Z</time>
      </trkpt>
      <trkpt lat="45.37681" lon="5.70841">
        <ele>587.8</ele>
        <time>2010-12-04T09:00:49Z</time>
      </trkpt>
      <trkpt lat="45.37678" lon="5.70841">
        <ele>589</ele>
        <time>2010-12-04T09:00:53Z</time>
      </trkpt>
      <trkpt lat="45.37676" lon="5.70842">
        <ele>589.2</ele>
        <time>2010-12-04T09:00:55Z</time>
      </trkpt>
      <trkpt lat="45.37675" lon="5.70843">
        <ele>589.2</ele>
        <time>2010-12-04T09:00:56Z</time>
      </trkpt>
      <trkpt lat="45.37673" lon="5.70843">
        <ele>589.6</ele>
        <time>2010-12-04T09:00:58Z</time>
      </trkpt>
      <trkpt lat="45.37669" lon="5.70845">
        <ele>590.6</ele>
        <time>2010-12-04T09:01:04Z</time>
      </trkpt>
      <trkpt lat="45.37665" lon="5.70848">
        <ele>591</ele>
        <time>2010-12-04T09:01:09Z</time>
      </trkpt>
      <trkpt lat="45.37664" lon="5.70849">
        <ele>591.2</ele>
        <time>2010-12-04T09:01:10Z</time>
      </trkpt>
      <trkpt lat="45.37661" lon="5.70848">
        <ele>591.4</ele>
        <time>2010-12-04T09:01:14Z</time>
      </trkpt>
      <trkpt lat="45.37659" lon="5.70849">
        <ele>591.8</ele>
        <time>2010-12-04T09:01:18Z</time>
      </trkpt>
      <trkpt lat="45.37655" lon="5.70847">
        <ele>593</ele>
        <time>2010-12-04T09:01:25Z</time>
      </trkpt>
      <trkpt lat="45.37654" lon="5.70847">
        <ele>593.2</ele>
        <time>2010-12-04T09:01:26Z</time>
      </trkpt>
      <trkpt lat="45.37653" lon="5.70847">
        <ele>593.4</ele>
        <time>2010-12-04T09:01:30Z</time>
      </trkpt>
      <trkpt lat="45.37651" lon="5.70848">
        <ele>593.8</ele>
        <time>2010-12-04T09:01:34Z</time>
      </trkpt>
      <trkpt lat="45.37648" lon="5.70848">
        <ele>594.2</ele>
        <time>2010-12-04T09:01:38Z</time>
      </trkpt>
      <trkpt lat="45.37644" lon="5.70849">
        <ele>594.8</ele>
        <time>2010-12-04T09:01:44Z</time>
      </trkpt>
      <trkpt lat="45.37641" lon="5.70849">
        <ele>595.8</ele>
        <time>2010-12-04T09:01:49Z</time>
      </trkpt>
      <trkpt lat="45.37637" lon="5.7085">
        <ele>597.2</ele>
        <time>2010-12-04T09:01:56Z</time>
      </trkpt>
      <trkpt lat="45.37634" lon="5.7085">
        <ele>599.2</ele>
        <time>2010-12-04T09:02:03Z</time>
      </trkpt>
      <trkpt lat="45.37631" lon="5.7085">
        <ele>600.6</ele>
        <time>2010-12-04T09:02:07Z</time>
      </trkpt>
      <trkpt lat="45.37628" lon="5.7085">
        <ele>602</ele>
        <time>2010-12-04T09:02:11Z</time>
      </trkpt>
      <trkpt lat="45.37625" lon="5.7085">
        <ele>603.8</ele>
        <time>2010-12-04T09:02:16Z</time>
      </trkpt>
      <trkpt lat="45.37622" lon="5.70851">
        <ele>605.2</ele>
        <time>2010-12-04T09:02:21Z</time>
      </trkpt>
      <trkpt lat="45.3762" lon="5.70852">
        <ele>606.4</ele>
        <time>2010-12-04T09:02:25Z</time>
      </trkpt>
      <trkpt lat="45.37616" lon="5.70852">
        <ele>607.6</ele>
        <time>2010-12-04T09:02:29Z</time>
      </trkpt>
      <trkpt lat="45.37612" lon="5.70853">
        <ele>608.8</ele>
        <time>2010-12-04T09:02:35Z</time>
      </trkpt>
      <trkpt lat="45.3761" lon="5.70853">
        <ele>609.6</ele>
        <time>2010-12-04T09:02:38Z</time>
      </trkpt>
      <trkpt lat="45.37607" lon="5.70853">
        <ele>610.8</ele>
        <time>2010-12-04T09:02:43Z</time>
      </trkpt>
      <trkpt lat="45.37604" lon="5.70852">
        <ele>611.4</ele>
        <time>2010-12-04T09:02:46Z</time>
      </trkpt>
      <trkpt lat="45.37604" lon="5.70854">
        <ele>611.6</ele>
        <time>2010-12-04T09:02:48Z</time>
      </trkpt>
      <trkpt lat="45.37604" lon="5.70856">
        <ele>611.4</ele>
        <time>2010-12-04T09:02:49Z</time>
      </trkpt>
      <trkpt lat="45.37601" lon="5.70857">
        <ele>612</ele>
        <time>2010-12-04T09:02:52Z</time>
      </trkpt>
      <trkpt lat="45.37598" lon="5.70858">
        <ele>612.4</ele>
        <time>2010-12-04T09:02:57Z</time>
      </trkpt>
      <trkpt lat="45.37595" lon="5.70859">
        <ele>613.2</ele>
        <time>2010-12-04T09:03:03Z</time>
      </trkpt>
      <trkpt lat="45.37593" lon="5.7086">
        <ele>614</ele>
        <time>2010-12-04T09:03:08Z</time>
      </trkpt>
      <trkpt lat="45.37592" lon="5.70863">
        <ele>614.6</ele>
        <time>2010-12-04T09:03:12Z</time>
      </trkpt>
      <trkpt lat="45.3759" lon="5.70864">
        <ele>615.4</ele>
        <time>2010-12-04T09:03:16Z</time>
      </trkpt>
      <trkpt lat="45.37589" lon="5.70864">
        <ele>615.6</ele>
        <time>2010-12-04T09:03:17Z</time>
      </trkpt>
      <trkpt lat="45.37588" lon="5.70865">
        <ele>616.2</ele>
        <time>2010-12-04T09:03:20Z</time>
      </trkpt>
      <trkpt lat="45.37585" lon="5.70867">
        <ele>617</ele>
        <time>2010-12-04T09:03:24Z</time>
      </trkpt>
      <trkpt lat="45.37582" lon="5.70868">
        <ele>618.2</ele>
        <time>2010-12-04T09:03:30Z</time>
      </trkpt>
      <trkpt lat="45.37579" lon="5.7087">
        <ele>619.4</ele>
        <time>2010-12-04T09:03:35Z</time>
      </trkpt>
      <trkpt lat="45.37575" lon="5.70872">
        <ele>620.8</ele>
        <time>2010-12-04T09:03:42Z</time>
      </trkpt>
      <trkpt lat="45.37574" lon="5.70876">
        <ele>621.4</ele>
        <time>2010-12-04T09:03:46Z</time>
      </trkpt>
      <trkpt lat="45.37574" lon="5.70876">
        <ele>621.6</ele>
        <time>2010-12-04T09:03:47Z</time>
      </trkpt>
      <trkpt lat="45.37573" lon="5.70879">
        <ele>622</ele>
        <time>2010-12-04T09:03:50Z</time>
      </trkpt>
      <trkpt lat="45.3757" lon="5.70884">
        <ele>622.8</ele>
        <time>2010-12-04T09:03:56Z</time>
      </trkpt>
      <trkpt lat="45.37567" lon="5.70886">
        <ele>623.2</ele>
        <time>2010-12-04T09:04:00Z</time>
      </trkpt>
      <trkpt lat="45.37565" lon="5.70887">
        <ele>623.8</ele>
        <time>2010-12-04T09:04:03Z</time>
      </trkpt>
      <trkpt lat="45.37564" lon="5.70888">
        <ele>623.8</ele>
        <time>2010-12-04T09:04:04Z</time>
      </trkpt>
      <trkpt lat="45.3756" lon="5.70892">
        <ele>624.6</ele>
        <time>2010-12-04T09:04:10Z</time>
      </trkpt>
      <trkpt lat="45.3756" lon="5.70893">
        <ele>624.6</ele>
        <time>2010-12-04T09:04:11Z</time>
      </trkpt>
      <trkpt lat="45.37555" lon="5.70895">
        <ele>626</ele>
        <time>2010-12-04T09:04:17Z</time>
      </trkpt>
      <trkpt lat="45.37552" lon="5.70897">
        <ele>627.2</ele>
        <time>2010-12-04T09:04:22Z</time>
      </trkpt>
      <trkpt lat="45.37549" lon="5.70899">
        <ele>628.2</ele>
        <time>2010-12-04T09:04:27Z</time>
      </trkpt>
      <trkpt lat="45.37547" lon="5.70901">
        <ele>629.2</ele>
        <time>2010-12-04T09:04:31Z</time>
      </trkpt>
      <trkpt lat="45.37545" lon="5.70903">
        <ele>630</ele>
        <time>2010-12-04T09:04:35Z</time>
      </trkpt>
      <trkpt lat="45.37544" lon="5.70904">
        <ele>630.2</ele>
        <time>2010-12-04T09:04:36Z</time>
      </trkpt>
      <trkpt lat="45.3754" lon="5.70906">
        <ele>631.6</ele>
        <time>2010-12-04T09:04:42Z</time>
      </trkpt>
      <trkpt lat="45.37537" lon="5.70907">
        <ele>632.6</ele>
        <time>2010-12-04T09:04:46Z</time>
      </trkpt>
      <trkpt lat="45.37531" lon="5.70907">
        <ele>635.2</ele>
        <time>2010-12-04T09:04:53Z</time>
      </trkpt>
      <trkpt lat="45.37528" lon="5.70911">
        <ele>636.8</ele>
        <time>2010-12-04T09:04:59Z</time>
      </trkpt>
      <trkpt lat="45.37527" lon="5.70912">
        <ele>637.2</ele>
        <time>2010-12-04T09:05:01Z</time>
      </trkpt>
      <trkpt lat="45.37526" lon="5.70914">
        <ele>638.2</ele>
        <time>2010-12-04T09:05:05Z</time>
      </trkpt>
      <trkpt lat="45.37525" lon="5.70916">
        <ele>638.2</ele>
        <time>2010-12-04T09:05:06Z</time>
      </trkpt>
      <trkpt lat="45.37523" lon="5.70917">
        <ele>638.6</ele>
        <time>2010-12-04T09:05:08Z</time>
      </trkpt>
      <trkpt lat="45.37521" lon="5.70917">
        <ele>639.6</ele>
        <time>2010-12-04T09:05:11Z</time>
      </trkpt>
      <trkpt lat="45.37516" lon="5.70921">
        <ele>640.6</ele>
        <time>2010-12-04T09:05:17Z</time>
      </trkpt>
      <trkpt lat="45.37513" lon="5.70923">
        <ele>641</ele>
        <time>2010-12-04T09:05:22Z</time>
      </trkpt>
      <trkpt lat="45.37512" lon="5.70925">
        <ele>641.2</ele>
        <time>2010-12-04T09:05:24Z</time>
      </trkpt>
      <trkpt lat="45.37512" lon="5.7093">
        <ele>641.6</ele>
        <time>2010-12-04T09:05:28Z</time>
      </trkpt>
      <trkpt lat="45.37512" lon="5.70932">
        <ele>641.2</ele>
        <time>2010-12-04T09:05:29Z</time>
      </trkpt>
      <trkpt lat="45.37512" lon="5.70935">
        <ele>641.4</ele>
        <time>2010-12-04T09:05:31Z</time>
      </trkpt>
      <trkpt lat="45.37511" lon="5.70936">
        <ele>641.6</ele>
        <time>2010-12-04T09:05:33Z</time>
      </trkpt>
      <trkpt lat="45.37509" lon="5.70939">
        <ele>641.8</ele>
        <time>2010-12-04T09:05:37Z</time>
      </trkpt>
      <trkpt lat="45.37507" lon="5.7094">
        <ele>642.2</ele>
        <time>2010-12-04T09:05:40Z</time>
      </trkpt>
      <trkpt lat="45.37505" lon="5.70941">
        <ele>643.2</ele>
        <time>2010-12-04T09:05:44Z</time>
      </trkpt>
      <trkpt lat="45.37502" lon="5.70944">
        <ele>644.6</ele>
        <time>2010-12-04T09:05:50Z</time>
      </trkpt>
      <trkpt lat="45.37501" lon="5.70945">
        <ele>644.8</ele>
        <time>2010-12-04T09:05:51Z</time>
      </trkpt>
      <trkpt lat="45.37498" lon="5.70946">
        <ele>645.4</ele>
        <time>2010-12-04T09:05:54Z</time>
      </trkpt>
      <trkpt lat="45.37497" lon="5.70947">
        <ele>646</ele>
        <time>2010-12-04T09:05:56Z</time>
      </trkpt>
      <trkpt lat="45.37496" lon="5.70947">
        <ele>646.2</ele>
        <time>2010-12-04T09:05:57Z</time>
      </trkpt>
      <trkpt lat="45.37496" lon="5.70949">
        <ele>645.8</ele>
        <time>2010-12-04T09:05:58Z</time>
      </trkpt>
      <trkpt lat="45.37496" lon="5.70953">
        <ele>645.8</ele>
        <time>2010-12-04T09:06:02Z</time>
      </trkpt>
      <trkpt lat="45.37495" lon="5.70953">
        <ele>645.8</ele>
        <time>2010-12-04T09:06:03Z</time>
      </trkpt>
      <trkpt lat="45.37495" lon="5.70958">
        <ele>645.8</ele>
        <time>2010-12-04T09:06:07Z</time>
      </trkpt>
      <trkpt lat="45.37492" lon="5.7096">
        <ele>646</ele>
        <time>2010-12-04T09:06:12Z</time>
      </trkpt>
      <trkpt lat="45.37489" lon="5.7096">
        <ele>646.2</ele>
        <time>2010-12-04T09:06:14Z</time>
      </trkpt>
      <trkpt lat="45.37489" lon="5.70961">
        <ele>646.2</ele>
        <time>2010-12-04T09:06:15Z</time>
      </trkpt>
      <trkpt lat="45.37488" lon="5.7096">
        <ele>646.6</ele>
        <time>2010-12-04T09:06:16Z</time>
      </trkpt>
      <trkpt lat="45.37488" lon="5.70962">
        <ele>646.8</ele>
        <time>2010-12-04T09:06:20Z</time>
      </trkpt>
      <trkpt lat="45.37487" lon="5.70964">
        <ele>647</ele>
        <time>2010-12-04T09:06:24Z</time>
      </trkpt>
      <trkpt lat="45.37485" lon="5.70966">
        <ele>647.4</ele>
        <time>2010-12-04T09:06:28Z</time>
      </trkpt>
      <trkpt lat="45.37483" lon="5.70967">
        <ele>647.4</ele>
        <time>2010-12-04T09:06:29Z</time>
      </trkpt>
      <trkpt lat="45.37483" lon="5.70968">
        <ele>648.2</ele>
        <time>2010-12-04T09:06:32Z</time>
      </trkpt>
      <trkpt lat="45.37481" lon="5.70969">
        <ele>648.8</ele>
        <time>2010-12-04T09:06:36Z</time>
      </trkpt>
      <trkpt lat="45.37479" lon="5.70974">
        <ele>649</ele>
        <time>2010-12-04T09:06:45Z</time>
      </trkpt>
      <trkpt lat="45.37478" lon="5.70974">
        <ele>649.2</ele>
        <time>2010-12-04T09:06:52Z</time>
      </trkpt>
      <trkpt lat="45.37479" lon="5.7097">
        <ele>652</ele>
        <time>2010-12-04T09:07:03Z</time>
      </trkpt>
      <trkpt lat="45.37476" lon="5.7097">
        <ele>653</ele>
        <time>2010-12-04T09:07:07Z</time>
      </trkpt>
      <trkpt lat="45.37479" lon="5.70974">
        <ele>658.4</ele>
        <time>2010-12-04T09:07:51Z</time>
      </trkpt>
      <trkpt lat="45.37477" lon="5.70975">
        <ele>658.6</ele>
        <time>2010-12-04T09:07:53Z</time>
      </trkpt>
      <trkpt lat="45.37475" lon="5.70977">
        <ele>658.4</ele>
        <time>2010-12-04T09:07:56Z</time>
      </trkpt>
      <trkpt lat="45.37473" lon="5.70978">
        <ele>658.4</ele>
        <time>2010-12-04T09:07:58Z</time>
      </trkpt>
      <trkpt lat="45.37473" lon="5.70978">
        <ele>658.4</ele>
        <time>2010-12-04T09:07:59Z</time>
      </trkpt>
      <trkpt lat="45.37471" lon="5.7098">
        <ele>658.6</ele>
        <time>2010-12-04T09:08:03Z</time>
      </trkpt>
      <trkpt lat="45.37469" lon="5.70981">
        <ele>658.6</ele>
        <time>2010-12-04T09:08:05Z</time>
      </trkpt>
      <trkpt lat="45.37468" lon="5.70982">
        <ele>658.8</ele>
        <time>2010-12-04T09:08:06Z</time>
      </trkpt>
      <trkpt lat="45.37467" lon="5.70983">
        <ele>658.8</ele>
        <time>2010-12-04T09:08:08Z</time>
      </trkpt>
      <trkpt lat="45.37466" lon="5.70983">
        <ele>658.8</ele>
        <time>2010-12-04T09:08:09Z</time>
      </trkpt>
      <trkpt lat="45.37464" lon="5.70984">
        <ele>659.4</ele>
        <time>2010-12-04T09:08:12Z</time>
      </trkpt>
      <trkpt lat="45.37462" lon="5.70985">
        <ele>659.8</ele>
        <time>2010-12-04T09:08:14Z</time>
      </trkpt>
      <trkpt lat="45.3746" lon="5.70987">
        <ele>660.4</ele>
        <time>2010-12-04T09:08:17Z</time>
      </trkpt>
      <trkpt lat="45.37459" lon="5.70987">
        <ele>660.8</ele>
        <time>2010-12-04T09:08:18Z</time>
      </trkpt>
      <trkpt lat="45.37457" lon="5.70989">
        <ele>661.8</ele>
        <time>2010-12-04T09:08:22Z</time>
      </trkpt>
      <trkpt lat="45.37456" lon="5.70989">
        <ele>662</ele>
        <time>2010-12-04T09:08:23Z</time>
      </trkpt>
      <trkpt lat="45.37454" lon="5.70992">
        <ele>663.2</ele>
        <time>2010-12-04T09:08:27Z</time>
      </trkpt>
      <trkpt lat="45.37451" lon="5.70994">
        <ele>664.4</ele>
        <time>2010-12-04T09:08:31Z</time>
      </trkpt>
      <trkpt lat="45.37448" lon="5.70997">
        <ele>665.8</ele>
        <time>2010-12-04T09:08:36Z</time>
      </trkpt>
      <trkpt lat="45.37443" lon="5.71003">
        <ele>667.6</ele>
        <time>2010-12-04T09:08:43Z</time>
      </trkpt>
      <trkpt lat="45.37442" lon="5.71005">
        <ele>667.8</ele>
        <time>2010-12-04T09:08:44Z</time>
      </trkpt>
      <trkpt lat="45.37442" lon="5.71006">
        <ele>668.2</ele>
        <time>2010-12-04T09:08:45Z</time>
      </trkpt>
      <trkpt lat="45.37441" lon="5.71007">
        <ele>669</ele>
        <time>2010-12-04T09:08:47Z</time>
      </trkpt>
      <trkpt lat="45.37441" lon="5.71008">
        <ele>669</ele>
        <time>2010-12-04T09:08:48Z</time>
      </trkpt>
      <trkpt lat="45.37439" lon="5.71015">
        <ele>669.2</ele>
        <time>2010-12-04T09:08:53Z</time>
      </trkpt>
      <trkpt lat="45.37438" lon="5.7102">
        <ele>669.2</ele>
        <time>2010-12-04T09:08:57Z</time>
      </trkpt>
      <trkpt lat="45.37438" lon="5.71021">
        <ele>669</ele>
        <time>2010-12-04T09:08:58Z</time>
      </trkpt>
      <trkpt lat="45.37437" lon="5.71025">
        <ele>669.2</ele>
        <time>2010-12-04T09:09:02Z</time>
      </trkpt>
      <trkpt lat="45.37435" lon="5.71028">
        <ele>669.4</ele>
        <time>2010-12-04T09:09:06Z</time>
      </trkpt>
      <trkpt lat="45.37434" lon="5.7103">
        <ele>669.4</ele>
        <time>2010-12-04T09:09:08Z</time>
      </trkpt>
      <trkpt lat="45.37436" lon="5.71034">
        <ele>670</ele>
        <time>2010-12-04T09:09:15Z</time>
      </trkpt>
      <trkpt lat="45.37435" lon="5.71037">
        <ele>670.2</ele>
        <time>2010-12-04T09:09:19Z</time>
      </trkpt>
      <trkpt lat="45.37434" lon="5.7104">
        <ele>670.6</ele>
        <time>2010-12-04T09:09:23Z</time>
      </trkpt>
      <trkpt lat="45.37433" lon="5.71042">
        <ele>670.4</ele>
        <time>2010-12-04T09:09:24Z</time>
      </trkpt>
      <trkpt lat="45.37432" lon="5.71044">
        <ele>670.8</ele>
        <time>2010-12-04T09:09:28Z</time>
      </trkpt>
      <trkpt lat="45.37432" lon="5.7105">
        <ele>670.8</ele>
        <time>2010-12-04T09:09:33Z</time>
      </trkpt>
      <trkpt lat="45.37431" lon="5.71053">
        <ele>671.6</ele>
        <time>2010-12-04T09:09:39Z</time>
      </trkpt>
      <trkpt lat="45.37431" lon="5.71054">
        <ele>671.4</ele>
        <time>2010-12-04T09:09:40Z</time>
      </trkpt>
      <trkpt lat="45.37431" lon="5.71056">
        <ele>671.6</ele>
        <time>2010-12-04T09:09:43Z</time>
      </trkpt>
      <trkpt lat="45.37431" lon="5.7106">
        <ele>672</ele>
        <time>2010-12-04T09:09:47Z</time>
      </trkpt>
      <trkpt lat="45.3743" lon="5.71063">
        <ele>672.6</ele>
        <time>2010-12-04T09:09:50Z</time>
      </trkpt>
      <trkpt lat="45.37431" lon="5.71065">
        <ele>672.6</ele>
        <time>2010-12-04T09:09:51Z</time>
      </trkpt>
      <trkpt lat="45.3743" lon="5.71069">
        <ele>672.8</ele>
        <time>2010-12-04T09:09:55Z</time>
      </trkpt>
      <trkpt lat="45.3743" lon="5.71071">
        <ele>672.6</ele>
        <time>2010-12-04T09:09:57Z</time>
      </trkpt>
      <trkpt lat="45.37429" lon="5.71072">
        <ele>672.6</ele>
        <time>2010-12-04T09:09:59Z</time>
      </trkpt>
      <trkpt lat="45.37429" lon="5.71075">
        <ele>672.6</ele>
        <time>2010-12-04T09:10:03Z</time>
      </trkpt>
      <trkpt lat="45.37429" lon="5.71077">
        <ele>673</ele>
        <time>2010-12-04T09:10:07Z</time>
      </trkpt>
      <trkpt lat="45.37431" lon="5.71079">
        <ele>673.4</ele>
        <time>2010-12-04T09:10:12Z</time>
      </trkpt>
      <trkpt lat="45.37432" lon="5.71081">
        <ele>673.2</ele>
        <time>2010-12-04T09:10:14Z</time>
      </trkpt>
      <trkpt lat="45.37433" lon="5.71082">
        <ele>673.6</ele>
        <time>2010-12-04T09:10:17Z</time>
      </trkpt>
      <trkpt lat="45.37435" lon="5.71085">
        <ele>674.2</ele>
        <time>2010-12-04T09:10:23Z</time>
      </trkpt>
      <trkpt lat="45.37439" lon="5.71089">
        <ele>674.8</ele>
        <time>2010-12-04T09:10:28Z</time>
      </trkpt>
      <trkpt lat="45.37444" lon="5.71093">
        <ele>675.8</ele>
        <time>2010-12-04T09:10:34Z</time>
      </trkpt>
      <trkpt lat="45.37445" lon="5.71094">
        <ele>676.4</ele>
        <time>2010-12-04T09:10:37Z</time>
      </trkpt>
      <trkpt lat="45.37446" lon="5.71096">
        <ele>676.6</ele>
        <time>2010-12-04T09:10:39Z</time>
      </trkpt>
      <trkpt lat="45.37447" lon="5.71097">
        <ele>676.6</ele>
        <time>2010-12-04T09:10:40Z</time>
      </trkpt>
      <trkpt lat="45.37448" lon="5.71099">
        <ele>676.8</ele>
        <time>2010-12-04T09:10:41Z</time>
      </trkpt>
      <trkpt lat="45.3745" lon="5.711">
        <ele>677.2</ele>
        <time>2010-12-04T09:10:44Z</time>
      </trkpt>
      <trkpt lat="45.37453" lon="5.71103">
        <ele>677.8</ele>
        <time>2010-12-04T09:10:48Z</time>
      </trkpt>
      <trkpt lat="45.37454" lon="5.71105">
        <ele>678</ele>
        <time>2010-12-04T09:10:50Z</time>
      </trkpt>
      <trkpt lat="45.37455" lon="5.71106">
        <ele>678.4</ele>
        <time>2010-12-04T09:10:51Z</time>
      </trkpt>
      <trkpt lat="45.37457" lon="5.71112">
        <ele>679</ele>
        <time>2010-12-04T09:10:56Z</time>
      </trkpt>
      <trkpt lat="45.37457" lon="5.71113">
        <ele>679.2</ele>
        <time>2010-12-04T09:10:57Z</time>
      </trkpt>
      <trkpt lat="45.37459" lon="5.71114">
        <ele>679.4</ele>
        <time>2010-12-04T09:10:58Z</time>
      </trkpt>
      <trkpt lat="45.3746" lon="5.71116">
        <ele>679.8</ele>
        <time>2010-12-04T09:11:00Z</time>
      </trkpt>
      <trkpt lat="45.37461" lon="5.71118">
        <ele>680</ele>
        <time>2010-12-04T09:11:01Z</time>
      </trkpt>
      <trkpt lat="45.37462" lon="5.71124">
        <ele>680.2</ele>
        <time>2010-12-04T09:11:05Z</time>
      </trkpt>
      <trkpt lat="45.37463" lon="5.71127">
        <ele>680.6</ele>
        <time>2010-12-04T09:11:07Z</time>
      </trkpt>
      <trkpt lat="45.37463" lon="5.71131">
        <ele>680.8</ele>
        <time>2010-12-04T09:11:10Z</time>
      </trkpt>
      <trkpt lat="45.37462" lon="5.71136">
        <ele>681</ele>
        <time>2010-12-04T09:11:14Z</time>
      </trkpt>
      <trkpt lat="45.37462" lon="5.71138">
        <ele>681.2</ele>
        <time>2010-12-04T09:11:16Z</time>
      </trkpt>
      <trkpt lat="45.37463" lon="5.7114">
        <ele>681.4</ele>
        <time>2010-12-04T09:11:19Z</time>
      </trkpt>
      <trkpt lat="45.37462" lon="5.71147">
        <ele>682.2</ele>
        <time>2010-12-04T09:11:23Z</time>
      </trkpt>
      <trkpt lat="45.37464" lon="5.71148">
        <ele>683.8</ele>
        <time>2010-12-04T09:11:27Z</time>
      </trkpt>
      <trkpt lat="45.37463" lon="5.71148">
        <ele>684</ele>
        <time>2010-12-04T09:11:28Z</time>
      </trkpt>
      <trkpt lat="45.3746" lon="5.7115">
        <ele>684.6</ele>
        <time>2010-12-04T09:11:31Z</time>
      </trkpt>
      <trkpt lat="45.37459" lon="5.71151">
        <ele>685.4</ele>
        <time>2010-12-04T09:11:34Z</time>
      </trkpt>
      <trkpt lat="45.37458" lon="5.71154">
        <ele>686.4</ele>
        <time>2010-12-04T09:11:40Z</time>
      </trkpt>
      <trkpt lat="45.37459" lon="5.71156">
        <ele>686.6</ele>
        <time>2010-12-04T09:11:43Z</time>
      </trkpt>
      <trkpt lat="45.37459" lon="5.71157">
        <ele>686.8</ele>
        <time>2010-12-04T09:11:44Z</time>
      </trkpt>
      <trkpt lat="45.37459" lon="5.71163">
        <ele>687</ele>
        <time>2010-12-04T09:11:48Z</time>
      </trkpt>
      <trkpt lat="45.37461" lon="5.71165">
        <ele>687.2</ele>
        <time>2010-12-04T09:11:50Z</time>
      </trkpt>
      <trkpt lat="45.37462" lon="5.71167">
        <ele>687.4</ele>
        <time>2010-12-04T09:11:52Z</time>
      </trkpt>
      <trkpt lat="45.37463" lon="5.71171">
        <ele>687.6</ele>
        <time>2010-12-04T09:11:56Z</time>
      </trkpt>
      <trkpt lat="45.37464" lon="5.71173">
        <ele>687.6</ele>
        <time>2010-12-04T09:11:58Z</time>
      </trkpt>
      <trkpt lat="45.37464" lon="5.71177">
        <ele>687.6</ele>
        <time>2010-12-04T09:12:01Z</time>
      </trkpt>
      <trkpt lat="45.37466" lon="5.71179">
        <ele>687.8</ele>
        <time>2010-12-04T09:12:04Z</time>
      </trkpt>
      <trkpt lat="45.37466" lon="5.7118">
        <ele>688</ele>
        <time>2010-12-04T09:12:05Z</time>
      </trkpt>
      <trkpt lat="45.37466" lon="5.71181">
        <ele>688</ele>
        <time>2010-12-04T09:12:07Z</time>
      </trkpt>
      <trkpt lat="45.37465" lon="5.71186">
        <ele>688.6</ele>
        <time>2010-12-04T09:12:12Z</time>
      </trkpt>
      <trkpt lat="45.37467" lon="5.71187">
        <ele>689.2</ele>
        <time>2010-12-04T09:12:15Z</time>
      </trkpt>
      <trkpt lat="45.37468" lon="5.7119">
        <ele>689.8</ele>
        <time>2010-12-04T09:12:18Z</time>
      </trkpt>
      <trkpt lat="45.3747" lon="5.71193">
        <ele>690.6</ele>
        <time>2010-12-04T09:12:22Z</time>
      </trkpt>
      <trkpt lat="45.3747" lon="5.71197">
        <ele>691.2</ele>
        <time>2010-12-04T09:12:26Z</time>
      </trkpt>
      <trkpt lat="45.3747" lon="5.71201">
        <ele>692.8</ele>
        <time>2010-12-04T09:12:31Z</time>
      </trkpt>
      <trkpt lat="45.37468" lon="5.71202">
        <ele>694</ele>
        <time>2010-12-04T09:12:39Z</time>
      </trkpt>
      <trkpt lat="45.37467" lon="5.71202">
        <ele>694.2</ele>
        <time>2010-12-04T09:12:40Z</time>
      </trkpt>
      <trkpt lat="45.37463" lon="5.71202">
        <ele>694.6</ele>
        <time>2010-12-04T09:12:43Z</time>
      </trkpt>
      <trkpt lat="45.37461" lon="5.71202">
        <ele>694.8</ele>
        <time>2010-12-04T09:12:45Z</time>
      </trkpt>
      <trkpt lat="45.3746" lon="5.71201">
        <ele>695</ele>
        <time>2010-12-04T09:12:47Z</time>
      </trkpt>
      <trkpt lat="45.37458" lon="5.71199">
        <ele>695.2</ele>
        <time>2010-12-04T09:12:50Z</time>
      </trkpt>
      <trkpt lat="45.37454" lon="5.71198">
        <ele>695.2</ele>
        <time>2010-12-04T09:12:54Z</time>
      </trkpt>
      <trkpt lat="45.37454" lon="5.71196">
        <ele>695.4</ele>
        <time>2010-12-04T09:12:56Z</time>
      </trkpt>
      <trkpt lat="45.37454" lon="5.71197">
        <ele>695.2</ele>
        <time>2010-12-04T09:13:01Z</time>
      </trkpt>
      <trkpt lat="45.37451" lon="5.71195">
        <ele>695.2</ele>
        <time>2010-12-04T09:13:03Z</time>
      </trkpt>
      <trkpt lat="45.3745" lon="5.71193">
        <ele>695.2</ele>
        <time>2010-12-04T09:13:04Z</time>
      </trkpt>
      <trkpt lat="45.37448" lon="5.71191">
        <ele>695.4</ele>
        <time>2010-12-04T09:13:06Z</time>
      </trkpt>
      <trkpt lat="45.37447" lon="5.7119">
        <ele>695.4</ele>
        <time>2010-12-04T09:13:07Z</time>
      </trkpt>
      <trkpt lat="45.37445" lon="5.71188">
        <ele>695.8</ele>
        <time>2010-12-04T09:13:09Z</time>
      </trkpt>
      <trkpt lat="45.37442" lon="5.71187">
        <ele>696.2</ele>
        <time>2010-12-04T09:13:12Z</time>
      </trkpt>
      <trkpt lat="45.3744" lon="5.71187">
        <ele>696.4</ele>
        <time>2010-12-04T09:13:14Z</time>
      </trkpt>
      <trkpt lat="45.37439" lon="5.71187">
        <ele>696.8</ele>
        <time>2010-12-04T09:13:15Z</time>
      </trkpt>
      <trkpt lat="45.37436" lon="5.71186">
        <ele>697</ele>
        <time>2010-12-04T09:13:19Z</time>
      </trkpt>
      <trkpt lat="45.37434" lon="5.71185">
        <ele>697</ele>
        <time>2010-12-04T09:13:22Z</time>
      </trkpt>
      <trkpt lat="45.37432" lon="5.71185">
        <ele>697</ele>
        <time>2010-12-04T09:13:24Z</time>
      </trkpt>
      <trkpt lat="45.3743" lon="5.71182">
        <ele>697</ele>
        <time>2010-12-04T09:13:29Z</time>
      </trkpt>
      <trkpt lat="45.37424" lon="5.71179">
        <ele>697.2</ele>
        <time>2010-12-04T09:13:35Z</time>
      </trkpt>
      <trkpt lat="45.37423" lon="5.71179">
        <ele>697.2</ele>
        <time>2010-12-04T09:13:36Z</time>
      </trkpt>
      <trkpt lat="45.37419" lon="5.71177">
        <ele>697.6</ele>
        <time>2010-12-04T09:13:40Z</time>
      </trkpt>
      <trkpt lat="45.37416" lon="5.71175">
        <ele>698</ele>
        <time>2010-12-04T09:13:44Z</time>
      </trkpt>
      <trkpt lat="45.37416" lon="5.71175">
        <ele>698.2</ele>
        <time>2010-12-04T09:13:45Z</time>
      </trkpt>
      <trkpt lat="45.37415" lon="5.71174">
        <ele>698.4</ele>
        <time>2010-12-04T09:13:46Z</time>
      </trkpt>
      <trkpt lat="45.37411" lon="5.71173">
        <ele>699.4</ele>
        <time>2010-12-04T09:13:51Z</time>
      </trkpt>
      <trkpt lat="45.37406" lon="5.7117">
        <ele>700.2</ele>
        <time>2010-12-04T09:13:57Z</time>
      </trkpt>
      <trkpt lat="45.37405" lon="5.71169">
        <ele>700.2</ele>
        <time>2010-12-04T09:13:58Z</time>
      </trkpt>
      <trkpt lat="45.37399" lon="5.71166">
        <ele>700.8</ele>
        <time>2010-12-04T09:14:03Z</time>
      </trkpt>
      <trkpt lat="45.37396" lon="5.71164">
        <ele>701.2</ele>
        <time>2010-12-04T09:14:06Z</time>
      </trkpt>
      <trkpt lat="45.37393" lon="5.71162">
        <ele>701.6</ele>
        <time>2010-12-04T09:14:09Z</time>
      </trkpt>
      <trkpt lat="45.37392" lon="5.71161">
        <ele>701.6</ele>
        <time>2010-12-04T09:14:10Z</time>
      </trkpt>
      <trkpt lat="45.3739" lon="5.71158">
        <ele>702.2</ele>
        <time>2010-12-04T09:14:14Z</time>
      </trkpt>
      <trkpt lat="45.37385" lon="5.71155">
        <ele>703.2</ele>
        <time>2010-12-04T09:14:20Z</time>
      </trkpt>
      <trkpt lat="45.37383" lon="5.71155">
        <ele>703.2</ele>
        <time>2010-12-04T09:14:21Z</time>
      </trkpt>
      <trkpt lat="45.37378" lon="5.71153">
        <ele>703.6</ele>
        <time>2010-12-04T09:14:25Z</time>
      </trkpt>
      <trkpt lat="45.37371" lon="5.71152">
        <ele>704.4</ele>
        <time>2010-12-04T09:14:30Z</time>
      </trkpt>
      <trkpt lat="45.37368" lon="5.71152">
        <ele>705.2</ele>
        <time>2010-12-04T09:14:34Z</time>
      </trkpt>
      <trkpt lat="45.37365" lon="5.71152">
        <ele>705.4</ele>
        <time>2010-12-04T09:14:36Z</time>
      </trkpt>
      <trkpt lat="45.37362" lon="5.71152">
        <ele>705.6</ele>
        <time>2010-12-04T09:14:38Z</time>
      </trkpt>
      <trkpt lat="45.37362" lon="5.71151">
        <ele>705.8</ele>
        <time>2010-12-04T09:14:39Z</time>
      </trkpt>
      <trkpt lat="45.37358" lon="5.71149">
        <ele>706</ele>
        <time>2010-12-04T09:14:44Z</time>
      </trkpt>
      <trkpt lat="45.37352" lon="5.71146">
        <ele>706.2</ele>
        <time>2010-12-04T09:14:49Z</time>
      </trkpt>
      <trkpt lat="45.37348" lon="5.71144">
        <ele>706.4</ele>
        <time>2010-12-04T09:14:54Z</time>
      </trkpt>
      <trkpt lat="45.37346" lon="5.71142">
        <ele>706.4</ele>
        <time>2010-12-04T09:14:56Z</time>
      </trkpt>
      <trkpt lat="45.37343" lon="5.71141">
        <ele>706.8</ele>
        <time>2010-12-04T09:14:59Z</time>
      </trkpt>
      <trkpt lat="45.37338" lon="5.71138">
        <ele>707</ele>
        <time>2010-12-04T09:15:03Z</time>
      </trkpt>
      <trkpt lat="45.37337" lon="5.71137">
        <ele>707</ele>
        <time>2010-12-04T09:15:04Z</time>
      </trkpt>
      <trkpt lat="45.37336" lon="5.71137">
        <ele>707</ele>
        <time>2010-12-04T09:15:05Z</time>
      </trkpt>
      <trkpt lat="45.37331" lon="5.71134">
        <ele>707.2</ele>
        <time>2010-12-04T09:15:09Z</time>
      </trkpt>
      <trkpt lat="45.37324" lon="5.71129">
        <ele>707</ele>
        <time>2010-12-04T09:15:14Z</time>
      </trkpt>
      <trkpt lat="45.37319" lon="5.71125">
        <ele>707.2</ele>
        <time>2010-12-04T09:15:19Z</time>
      </trkpt>
      <trkpt lat="45.37317" lon="5.71123">
        <ele>707.4</ele>
        <time>2010-12-04T09:15:21Z</time>
      </trkpt>
      <trkpt lat="45.37315" lon="5.71121">
        <ele>707.6</ele>
        <time>2010-12-04T09:15:23Z</time>
      </trkpt>
      <trkpt lat="45.37314" lon="5.71121">
        <ele>707.6</ele>
        <time>2010-12-04T09:15:24Z</time>
      </trkpt>
      <trkpt lat="45.37312" lon="5.7112">
        <ele>707.8</ele>
        <time>2010-12-04T09:15:25Z</time>
      </trkpt>
      <trkpt lat="45.37308" lon="5.71117">
        <ele>707.8</ele>
        <time>2010-12-04T09:15:29Z</time>
      </trkpt>
      <trkpt lat="45.37303" lon="5.71112">
        <ele>708.4</ele>
        <time>2010-12-04T09:15:35Z</time>
      </trkpt>
      <trkpt lat="45.37297" lon="5.71107">
        <ele>709</ele>
        <time>2010-12-04T09:15:41Z</time>
      </trkpt>
      <trkpt lat="45.37292" lon="5.71105">
        <ele>709</ele>
        <time>2010-12-04T09:15:46Z</time>
      </trkpt>
      <trkpt lat="45.37291" lon="5.71104">
        <ele>709.2</ele>
        <time>2010-12-04T09:15:47Z</time>
      </trkpt>
      <trkpt lat="45.37288" lon="5.71103">
        <ele>709.2</ele>
        <time>2010-12-04T09:15:50Z</time>
      </trkpt>
      <trkpt lat="45.37285" lon="5.71099">
        <ele>709.8</ele>
        <time>2010-12-04T09:15:53Z</time>
      </trkpt>
      <trkpt lat="45.37281" lon="5.71097">
        <ele>710.4</ele>
        <time>2010-12-04T09:15:57Z</time>
      </trkpt>
      <trkpt lat="45.37279" lon="5.71097">
        <ele>710.6</ele>
        <time>2010-12-04T09:15:58Z</time>
      </trkpt>
      <trkpt lat="45.37276" lon="5.71097">
        <ele>710.8</ele>
        <time>2010-12-04T09:16:00Z</time>
      </trkpt>
      <trkpt lat="45.37274" lon="5.71096">
        <ele>711.2</ele>
        <time>2010-12-04T09:16:02Z</time>
      </trkpt>
      <trkpt lat="45.37266" lon="5.71095">
        <ele>712</ele>
        <time>2010-12-04T09:16:08Z</time>
      </trkpt>
      <trkpt lat="45.37261" lon="5.71094">
        <ele>712.6</ele>
        <time>2010-12-04T09:16:14Z</time>
      </trkpt>
      <trkpt lat="45.37259" lon="5.71093">
        <ele>712.6</ele>
        <time>2010-12-04T09:16:16Z</time>
      </trkpt>
      <trkpt lat="45.37256" lon="5.71094">
        <ele>712.8</ele>
        <time>2010-12-04T09:16:19Z</time>
      </trkpt>
      <trkpt lat="45.37247" lon="5.71095">
        <ele>713</ele>
        <time>2010-12-04T09:16:26Z</time>
      </trkpt>
      <trkpt lat="45.37243" lon="5.71095">
        <ele>713</ele>
        <time>2010-12-04T09:16:29Z</time>
      </trkpt>
      <trkpt lat="45.37239" lon="5.71096">
        <ele>713.4</ele>
        <time>2010-12-04T09:16:31Z</time>
      </trkpt>
      <trkpt lat="45.37238" lon="5.71095">
        <ele>713.8</ele>
        <time>2010-12-04T09:16:34Z</time>
      </trkpt>
      <trkpt lat="45.37236" lon="5.71096">
        <ele>714.2</ele>
        <time>2010-12-04T09:16:36Z</time>
      </trkpt>
      <trkpt lat="45.37232" lon="5.71098">
        <ele>714.8</ele>
        <time>2010-12-04T09:16:40Z</time>
      </trkpt>
      <trkpt lat="45.37225" lon="5.71104">
        <ele>715.2</ele>
        <time>2010-12-04T09:16:46Z</time>
      </trkpt>
      <trkpt lat="45.37224" lon="5.71105">
        <ele>715.4</ele>
        <time>2010-12-04T09:16:47Z</time>
      </trkpt>
      <trkpt lat="45.37221" lon="5.71105">
        <ele>716.2</ele>
        <time>2010-12-04T09:16:50Z</time>
      </trkpt>
      <trkpt lat="45.37219" lon="5.71108">
        <ele>716.8</ele>
        <time>2010-12-04T09:16:53Z</time>
      </trkpt>
      <trkpt lat="45.37218" lon="5.71109">
        <ele>716.8</ele>
        <time>2010-12-04T09:16:54Z</time>
      </trkpt>
      <trkpt lat="45.37213" lon="5.71116">
        <ele>716.8</ele>
        <time>2010-12-04T09:17:00Z</time>
      </trkpt>
      <trkpt lat="45.37213" lon="5.71117">
        <ele>716.8</ele>
        <time>2010-12-04T09:17:01Z</time>
      </trkpt>
      <trkpt lat="45.37211" lon="5.71118">
        <ele>717</ele>
        <time>2010-12-04T09:17:03Z</time>
      </trkpt>
      <trkpt lat="45.37209" lon="5.71122">
        <ele>717</ele>
        <time>2010-12-04T09:17:06Z</time>
      </trkpt>
      <trkpt lat="45.37203" lon="5.71127">
        <ele>716.8</ele>
        <time>2010-12-04T09:17:12Z</time>
      </trkpt>
      <trkpt lat="45.37202" lon="5.71127">
        <ele>716.8</ele>
        <time>2010-12-04T09:17:13Z</time>
      </trkpt>
      <trkpt lat="45.37199" lon="5.71129">
        <ele>716.8</ele>
        <time>2010-12-04T09:17:17Z</time>
      </trkpt>
      <trkpt lat="45.37195" lon="5.7113">
        <ele>717.4</ele>
        <time>2010-12-04T09:17:21Z</time>
      </trkpt>
      <trkpt lat="45.37194" lon="5.7113">
        <ele>717.6</ele>
        <time>2010-12-04T09:17:22Z</time>
      </trkpt>
      <trkpt lat="45.37193" lon="5.71131">
        <ele>717.8</ele>
        <time>2010-12-04T09:17:23Z</time>
      </trkpt>
      <trkpt lat="45.37191" lon="5.71132">
        <ele>718</ele>
        <time>2010-12-04T09:17:25Z</time>
      </trkpt>
      <trkpt lat="45.3719" lon="5.71134">
        <ele>718</ele>
        <time>2010-12-04T09:17:27Z</time>
      </trkpt>
      <trkpt lat="45.37185" lon="5.71135">
        <ele>718.4</ele>
        <time>2010-12-04T09:17:31Z</time>
      </trkpt>
      <trkpt lat="45.3718" lon="5.71136">
        <ele>719.2</ele>
        <time>2010-12-04T09:17:36Z</time>
      </trkpt>
      <trkpt lat="45.37179" lon="5.71137">
        <ele>719.4</ele>
        <time>2010-12-04T09:17:38Z</time>
      </trkpt>
      <trkpt lat="45.37178" lon="5.71137">
        <ele>719.6</ele>
        <time>2010-12-04T09:17:39Z</time>
      </trkpt>
      <trkpt lat="45.37177" lon="5.71138">
        <ele>719.6</ele>
        <time>2010-12-04T09:17:40Z</time>
      </trkpt>
      <trkpt lat="45.37175" lon="5.71139">
        <ele>719.8</ele>
        <time>2010-12-04T09:17:42Z</time>
      </trkpt>
      <trkpt lat="45.37171" lon="5.7114">
        <ele>720</ele>
        <time>2010-12-04T09:17:45Z</time>
      </trkpt>
      <trkpt lat="45.37166" lon="5.71141">
        <ele>720.6</ele>
        <time>2010-12-04T09:17:50Z</time>
      </trkpt>
      <trkpt lat="45.37166" lon="5.71141">
        <ele>720.6</ele>
        <time>2010-12-04T09:17:51Z</time>
      </trkpt>
      <trkpt lat="45.37165" lon="5.71141">
        <ele>720.8</ele>
        <time>2010-12-04T09:17:52Z</time>
      </trkpt>
      <trkpt lat="45.37163" lon="5.71142">
        <ele>720.8</ele>
        <time>2010-12-04T09:17:54Z</time>
      </trkpt>
      <trkpt lat="45.3716" lon="5.71143">
        <ele>721.2</ele>
        <time>2010-12-04T09:17:57Z</time>
      </trkpt>
      <trkpt lat="45.37157" lon="5.71144">
        <ele>721.6</ele>
        <time>2010-12-04T09:18:00Z</time>
      </trkpt>
      <trkpt lat="45.37154" lon="5.71145">
        <ele>722.2</ele>
        <time>2010-12-04T09:18:04Z</time>
      </trkpt>
      <trkpt lat="45.37149" lon="5.71146">
        <ele>723.2</ele>
        <time>2010-12-04T09:18:09Z</time>
      </trkpt>
      <trkpt lat="45.37142" lon="5.71149">
        <ele>724.2</ele>
        <time>2010-12-04T09:18:15Z</time>
      </trkpt>
      <trkpt lat="45.3714" lon="5.71151">
        <ele>724.2</ele>
        <time>2010-12-04T09:18:16Z</time>
      </trkpt>
      <trkpt lat="45.37135" lon="5.71154">
        <ele>725.2</ele>
        <time>2010-12-04T09:18:21Z</time>
      </trkpt>
      <trkpt lat="45.37131" lon="5.71158">
        <ele>725.8</ele>
        <time>2010-12-04T09:18:26Z</time>
      </trkpt>
      <trkpt lat="45.37125" lon="5.71161">
        <ele>727</ele>
        <time>2010-12-04T09:18:32Z</time>
      </trkpt>
      <trkpt lat="45.37124" lon="5.71163">
        <ele>727.2</ele>
        <time>2010-12-04T09:18:33Z</time>
      </trkpt>
      <trkpt lat="45.37122" lon="5.71165">
        <ele>727.8</ele>
        <time>2010-12-04T09:18:36Z</time>
      </trkpt>
      <trkpt lat="45.37121" lon="5.71166">
        <ele>728.2</ele>
        <time>2010-12-04T09:18:38Z</time>
      </trkpt>
      <trkpt lat="45.3712" lon="5.71168">
        <ele>728.6</ele>
        <time>2010-12-04T09:18:40Z</time>
      </trkpt>
      <trkpt lat="45.37115" lon="5.71173">
        <ele>730</ele>
        <time>2010-12-04T09:18:46Z</time>
      </trkpt>
      <trkpt lat="45.37113" lon="5.71176">
        <ele>730.4</ele>
        <time>2010-12-04T09:18:49Z</time>
      </trkpt>
      <trkpt lat="45.37111" lon="5.71177">
        <ele>730.8</ele>
        <time>2010-12-04T09:18:51Z</time>
      </trkpt>
      <trkpt lat="45.3711" lon="5.71178">
        <ele>731.2</ele>
        <time>2010-12-04T09:18:52Z</time>
      </trkpt>
      <trkpt lat="45.37107" lon="5.7118">
        <ele>732.2</ele>
        <time>2010-12-04T09:18:55Z</time>
      </trkpt>
      <trkpt lat="45.37106" lon="5.71181">
        <ele>732.6</ele>
        <time>2010-12-04T09:18:56Z</time>
      </trkpt>
      <trkpt lat="45.37102" lon="5.71181">
        <ele>733.4</ele>
        <time>2010-12-04T09:18:59Z</time>
      </trkpt>
      <trkpt lat="45.371" lon="5.71183">
        <ele>734.2</ele>
        <time>2010-12-04T09:19:01Z</time>
      </trkpt>
      <trkpt lat="45.37099" lon="5.71184">
        <ele>734.6</ele>
        <time>2010-12-04T09:19:03Z</time>
      </trkpt>
      <trkpt lat="45.37098" lon="5.71185">
        <ele>734.8</ele>
        <time>2010-12-04T09:19:04Z</time>
      </trkpt>
      <trkpt lat="45.37095" lon="5.71187">
        <ele>735.4</ele>
        <time>2010-12-04T09:19:07Z</time>
      </trkpt>
      <trkpt lat="45.37093" lon="5.71188">
        <ele>736.2</ele>
        <time>2010-12-04T09:19:09Z</time>
      </trkpt>
      <trkpt lat="45.37087" lon="5.71193">
        <ele>737.8</ele>
        <time>2010-12-04T09:19:16Z</time>
      </trkpt>
      <trkpt lat="45.37085" lon="5.71199">
        <ele>738.8</ele>
        <time>2010-12-04T09:19:22Z</time>
      </trkpt>
      <trkpt lat="45.37082" lon="5.71202">
        <ele>739.2</ele>
        <time>2010-12-04T09:19:26Z</time>
      </trkpt>
      <trkpt lat="45.37081" lon="5.71203">
        <ele>739.2</ele>
        <time>2010-12-04T09:19:27Z</time>
      </trkpt>
      <trkpt lat="45.37078" lon="5.71203">
        <ele>739.8</ele>
        <time>2010-12-04T09:19:31Z</time>
      </trkpt>
      <trkpt lat="45.37075" lon="5.71206">
        <ele>740.2</ele>
        <time>2010-12-04T09:19:36Z</time>
      </trkpt>
      <trkpt lat="45.37073" lon="5.71209">
        <ele>740.6</ele>
        <time>2010-12-04T09:19:41Z</time>
      </trkpt>
      <trkpt lat="45.3707" lon="5.71213">
        <ele>740.8</ele>
        <time>2010-12-04T09:19:45Z</time>
      </trkpt>
      <trkpt lat="45.37069" lon="5.71216">
        <ele>741</ele>
        <time>2010-12-04T09:19:49Z</time>
      </trkpt>
      <trkpt lat="45.37067" lon="5.71221">
        <ele>741.4</ele>
        <time>2010-12-04T09:19:53Z</time>
      </trkpt>
      <trkpt lat="45.37064" lon="5.71225">
        <ele>742.4</ele>
        <time>2010-12-04T09:19:57Z</time>
      </trkpt>
      <trkpt lat="45.3706" lon="5.71228">
        <ele>743</ele>
        <time>2010-12-04T09:20:00Z</time>
      </trkpt>
      <trkpt lat="45.37057" lon="5.71228">
        <ele>744.4</ele>
        <time>2010-12-04T09:20:03Z</time>
      </trkpt>
      <trkpt lat="45.37057" lon="5.71229">
        <ele>744.6</ele>
        <time>2010-12-04T09:20:04Z</time>
      </trkpt>
      <trkpt lat="45.37054" lon="5.71233">
        <ele>745.4</ele>
        <time>2010-12-04T09:20:08Z</time>
      </trkpt>
      <trkpt lat="45.37054" lon="5.71235">
        <ele>745.6</ele>
        <time>2010-12-04T09:20:09Z</time>
      </trkpt>
      <trkpt lat="45.37053" lon="5.71238">
        <ele>745.8</ele>
        <time>2010-12-04T09:20:11Z</time>
      </trkpt>
      <trkpt lat="45.37051" lon="5.71243">
        <ele>746</ele>
        <time>2010-12-04T09:20:14Z</time>
      </trkpt>
      <trkpt lat="45.37048" lon="5.71247">
        <ele>746.2</ele>
        <time>2010-12-04T09:20:18Z</time>
      </trkpt>
      <trkpt lat="45.37046" lon="5.71249">
        <ele>746.2</ele>
        <time>2010-12-04T09:20:20Z</time>
      </trkpt>
      <trkpt lat="45.37045" lon="5.71254">
        <ele>746.4</ele>
        <time>2010-12-04T09:20:23Z</time>
      </trkpt>
      <trkpt lat="45.3704" lon="5.71258">
        <ele>747.2</ele>
        <time>2010-12-04T09:20:27Z</time>
      </trkpt>
      <trkpt lat="45.37039" lon="5.71259">
        <ele>747.4</ele>
        <time>2010-12-04T09:20:28Z</time>
      </trkpt>
      <trkpt lat="45.37039" lon="5.7126">
        <ele>747.4</ele>
        <time>2010-12-04T09:20:29Z</time>
      </trkpt>
      <trkpt lat="45.37035" lon="5.71265">
        <ele>747.6</ele>
        <time>2010-12-04T09:20:33Z</time>
      </trkpt>
      <trkpt lat="45.37029" lon="5.71272">
        <ele>748.2</ele>
        <time>2010-12-04T09:20:39Z</time>
      </trkpt>
      <trkpt lat="45.37025" lon="5.71275">
        <ele>748.6</ele>
        <time>2010-12-04T09:20:42Z</time>
      </trkpt>
      <trkpt lat="45.37023" lon="5.71277">
        <ele>748.6</ele>
        <time>2010-12-04T09:20:44Z</time>
      </trkpt>
      <trkpt lat="45.37018" lon="5.71281">
        <ele>749.4</ele>
        <time>2010-12-04T09:20:48Z</time>
      </trkpt>
      <trkpt lat="45.37016" lon="5.71283">
        <ele>749.8</ele>
        <time>2010-12-04T09:20:50Z</time>
      </trkpt>
      <trkpt lat="45.37012" lon="5.71287">
        <ele>750.4</ele>
        <time>2010-12-04T09:20:55Z</time>
      </trkpt>
      <trkpt lat="45.37011" lon="5.7129">
        <ele>750.8</ele>
        <time>2010-12-04T09:20:57Z</time>
      </trkpt>
      <trkpt lat="45.37008" lon="5.71292">
        <ele>751</ele>
        <time>2010-12-04T09:21:00Z</time>
      </trkpt>
      <trkpt lat="45.37006" lon="5.71293">
        <ele>751.2</ele>
        <time>2010-12-04T09:21:02Z</time>
      </trkpt>
      <trkpt lat="45.37004" lon="5.71295">
        <ele>751.6</ele>
        <time>2010-12-04T09:21:04Z</time>
      </trkpt>
      <trkpt lat="45.37001" lon="5.71305">
        <ele>751.4</ele>
        <time>2010-12-04T09:21:10Z</time>
      </trkpt>
      <trkpt lat="45.36998" lon="5.71308">
        <ele>751.4</ele>
        <time>2010-12-04T09:21:13Z</time>
      </trkpt>
      <trkpt lat="45.36998" lon="5.71309">
        <ele>751.6</ele>
        <time>2010-12-04T09:21:14Z</time>
      </trkpt>
      <trkpt lat="45.36996" lon="5.71309">
        <ele>751.8</ele>
        <time>2010-12-04T09:21:15Z</time>
      </trkpt>
      <trkpt lat="45.36994" lon="5.7131">
        <ele>752.6</ele>
        <time>2010-12-04T09:21:18Z</time>
      </trkpt>
      <trkpt lat="45.36992" lon="5.71311">
        <ele>753.2</ele>
        <time>2010-12-04T09:21:19Z</time>
      </trkpt>
      <trkpt lat="45.36991" lon="5.71312">
        <ele>753.4</ele>
        <time>2010-12-04T09:21:20Z</time>
      </trkpt>
      <trkpt lat="45.36989" lon="5.71315">
        <ele>754.4</ele>
        <time>2010-12-04T09:21:23Z</time>
      </trkpt>
      <trkpt lat="45.36988" lon="5.71317">
        <ele>755.2</ele>
        <time>2010-12-04T09:21:25Z</time>
      </trkpt>
      <trkpt lat="45.36986" lon="5.7132">
        <ele>756</ele>
        <time>2010-12-04T09:21:27Z</time>
      </trkpt>
      <trkpt lat="45.36986" lon="5.71322">
        <ele>756.4</ele>
        <time>2010-12-04T09:21:28Z</time>
      </trkpt>
      <trkpt lat="45.36985" lon="5.71325">
        <ele>757.8</ele>
        <time>2010-12-04T09:21:31Z</time>
      </trkpt>
      <trkpt lat="45.36983" lon="5.71328">
        <ele>758.6</ele>
        <time>2010-12-04T09:21:33Z</time>
      </trkpt>
      <trkpt lat="45.36982" lon="5.71343">
        <ele>757.8</ele>
        <time>2010-12-04T09:21:38Z</time>
      </trkpt>
      <trkpt lat="45.36982" lon="5.71346">
        <ele>757.8</ele>
        <time>2010-12-04T09:21:39Z</time>
      </trkpt>
      <trkpt lat="45.36981" lon="5.71352">
        <ele>757.8</ele>
        <time>2010-12-04T09:21:42Z</time>
      </trkpt>
      <trkpt lat="45.36981" lon="5.71354">
        <ele>757.8</ele>
        <time>2010-12-04T09:21:43Z</time>
      </trkpt>
      <trkpt lat="45.3698" lon="5.7136">
        <ele>757.4</ele>
        <time>2010-12-04T09:21:46Z</time>
      </trkpt>
      <trkpt lat="45.36979" lon="5.7137">
        <ele>757</ele>
        <time>2010-12-04T09:21:51Z</time>
      </trkpt>
      <trkpt lat="45.36978" lon="5.71379">
        <ele>756.6</ele>
        <time>2010-12-04T09:21:56Z</time>
      </trkpt>
      <trkpt lat="45.36978" lon="5.7138">
        <ele>756.4</ele>
        <time>2010-12-04T09:21:57Z</time>
      </trkpt>
      <trkpt lat="45.36975" lon="5.71386">
        <ele>756.2</ele>
        <time>2010-12-04T09:22:01Z</time>
      </trkpt>
      <trkpt lat="45.36974" lon="5.7139">
        <ele>756</ele>
        <time>2010-12-04T09:22:03Z</time>
      </trkpt>
      <trkpt lat="45.36974" lon="5.71395">
        <ele>755.8</ele>
        <time>2010-12-04T09:22:06Z</time>
      </trkpt>
      <trkpt lat="45.36971" lon="5.71401">
        <ele>755.8</ele>
        <time>2010-12-04T09:22:10Z</time>
      </trkpt>
      <trkpt lat="45.3697" lon="5.71404">
        <ele>755.6</ele>
        <time>2010-12-04T09:22:12Z</time>
      </trkpt>
      <trkpt lat="45.36969" lon="5.71406">
        <ele>755.6</ele>
        <time>2010-12-04T09:22:14Z</time>
      </trkpt>
      <trkpt lat="45.36967" lon="5.71412">
        <ele>755.4</ele>
        <time>2010-12-04T09:22:18Z</time>
      </trkpt>
      <trkpt lat="45.36966" lon="5.71414">
        <ele>755.4</ele>
        <time>2010-12-04T09:22:19Z</time>
      </trkpt>
      <trkpt lat="45.36965" lon="5.71421">
        <ele>755.2</ele>
        <time>2010-12-04T09:22:23Z</time>
      </trkpt>
      <trkpt lat="45.36961" lon="5.71426">
        <ele>755</ele>
        <time>2010-12-04T09:22:27Z</time>
      </trkpt>
      <trkpt lat="45.3696" lon="5.71428">
        <ele>755</ele>
        <time>2010-12-04T09:22:28Z</time>
      </trkpt>
      <trkpt lat="45.36956" lon="5.71433">
        <ele>755</ele>
        <time>2010-12-04T09:22:33Z</time>
      </trkpt>
      <trkpt lat="45.36955" lon="5.71433">
        <ele>755</ele>
        <time>2010-12-04T09:22:34Z</time>
      </trkpt>
      <trkpt lat="45.36948" lon="5.71436">
        <ele>755.4</ele>
        <time>2010-12-04T09:22:38Z</time>
      </trkpt>
      <trkpt lat="45.36945" lon="5.71438">
        <ele>756</ele>
        <time>2010-12-04T09:22:41Z</time>
      </trkpt>
      <trkpt lat="45.36944" lon="5.71439">
        <ele>756.2</ele>
        <time>2010-12-04T09:22:42Z</time>
      </trkpt>
      <trkpt lat="45.36942" lon="5.71439">
        <ele>756.6</ele>
        <time>2010-12-04T09:22:43Z</time>
      </trkpt>
      <trkpt lat="45.36935" lon="5.7144">
        <ele>757.6</ele>
        <time>2010-12-04T09:22:48Z</time>
      </trkpt>
      <trkpt lat="45.36929" lon="5.71445">
        <ele>758.8</ele>
        <time>2010-12-04T09:22:53Z</time>
      </trkpt>
      <trkpt lat="45.36928" lon="5.71446">
        <ele>759</ele>
        <time>2010-12-04T09:22:54Z</time>
      </trkpt>
      <trkpt lat="45.36927" lon="5.71446">
        <ele>759.4</ele>
        <time>2010-12-04T09:22:55Z</time>
      </trkpt>
      <trkpt lat="45.36923" lon="5.71447">
        <ele>760.2</ele>
        <time>2010-12-04T09:22:58Z</time>
      </trkpt>
      <trkpt lat="45.36917" lon="5.71447">
        <ele>762</ele>
        <time>2010-12-04T09:23:03Z</time>
      </trkpt>
      <trkpt lat="45.36909" lon="5.71446">
        <ele>763.4</ele>
        <time>2010-12-04T09:23:09Z</time>
      </trkpt>
      <trkpt lat="45.36901" lon="5.71445">
        <ele>764.2</ele>
        <time>2010-12-04T09:23:17Z</time>
      </trkpt>
      <trkpt lat="45.36896" lon="5.71444">
        <ele>764.2</ele>
        <time>2010-12-04T09:23:21Z</time>
      </trkpt>
      <trkpt lat="45.3689" lon="5.71445">
        <ele>764.2</ele>
        <time>2010-12-04T09:23:26Z</time>
      </trkpt>
      <trkpt lat="45.36882" lon="5.71448">
        <ele>765</ele>
        <time>2010-12-04T09:23:32Z</time>
      </trkpt>
      <trkpt lat="45.36879" lon="5.71448">
        <ele>765.6</ele>
        <time>2010-12-04T09:23:34Z</time>
      </trkpt>
      <trkpt lat="45.36877" lon="5.71449">
        <ele>766</ele>
        <time>2010-12-04T09:23:36Z</time>
      </trkpt>
      <trkpt lat="45.36874" lon="5.71455">
        <ele>766.6</ele>
        <time>2010-12-04T09:23:40Z</time>
      </trkpt>
      <trkpt lat="45.3687" lon="5.7146">
        <ele>767.8</ele>
        <time>2010-12-04T09:23:44Z</time>
      </trkpt>
      <trkpt lat="45.36866" lon="5.71464">
        <ele>768.8</ele>
        <time>2010-12-04T09:23:48Z</time>
      </trkpt>
      <trkpt lat="45.36863" lon="5.71469">
        <ele>769.6</ele>
        <time>2010-12-04T09:23:52Z</time>
      </trkpt>
      <trkpt lat="45.3686" lon="5.71472">
        <ele>770.6</ele>
        <time>2010-12-04T09:23:55Z</time>
      </trkpt>
      <trkpt lat="45.36858" lon="5.71474">
        <ele>771.2</ele>
        <time>2010-12-04T09:23:57Z</time>
      </trkpt>
      <trkpt lat="45.36857" lon="5.71476">
        <ele>771.6</ele>
        <time>2010-12-04T09:23:59Z</time>
      </trkpt>
      <trkpt lat="45.36856" lon="5.71477">
        <ele>772</ele>
        <time>2010-12-04T09:24:00Z</time>
      </trkpt>
      <trkpt lat="45.36852" lon="5.7148">
        <ele>772.8</ele>
        <time>2010-12-04T09:24:03Z</time>
      </trkpt>
      <trkpt lat="45.36852" lon="5.71481">
        <ele>773</ele>
        <time>2010-12-04T09:24:04Z</time>
      </trkpt>
      <trkpt lat="45.36847" lon="5.71485">
        <ele>774.4</ele>
        <time>2010-12-04T09:24:08Z</time>
      </trkpt>
      <trkpt lat="45.36845" lon="5.71489">
        <ele>774.4</ele>
        <time>2010-12-04T09:24:10Z</time>
      </trkpt>
      <trkpt lat="45.3684" lon="5.71491">
        <ele>775.8</ele>
        <time>2010-12-04T09:24:14Z</time>
      </trkpt>
      <trkpt lat="45.36838" lon="5.71492">
        <ele>776</ele>
        <time>2010-12-04T09:24:15Z</time>
      </trkpt>
      <trkpt lat="45.36832" lon="5.71494">
        <ele>777.6</ele>
        <time>2010-12-04T09:24:20Z</time>
      </trkpt>
      <trkpt lat="45.36827" lon="5.71499">
        <ele>778.2</ele>
        <time>2010-12-04T09:24:25Z</time>
      </trkpt>
      <trkpt lat="45.3682" lon="5.71501">
        <ele>779.2</ele>
        <time>2010-12-04T09:24:30Z</time>
      </trkpt>
      <trkpt lat="45.36812" lon="5.71503">
        <ele>779.8</ele>
        <time>2010-12-04T09:24:35Z</time>
      </trkpt>
      <trkpt lat="45.36809" lon="5.71505">
        <ele>779.8</ele>
        <time>2010-12-04T09:24:37Z</time>
      </trkpt>
      <trkpt lat="45.36807" lon="5.71506">
        <ele>780</ele>
        <time>2010-12-04T09:24:38Z</time>
      </trkpt>
      <trkpt lat="45.36806" lon="5.71506">
        <ele>780.2</ele>
        <time>2010-12-04T09:24:39Z</time>
      </trkpt>
      <trkpt lat="45.36801" lon="5.71509">
        <ele>779.8</ele>
        <time>2010-12-04T09:24:43Z</time>
      </trkpt>
      <trkpt lat="45.36799" lon="5.71509">
        <ele>779.8</ele>
        <time>2010-12-04T09:24:45Z</time>
      </trkpt>
      <trkpt lat="45.3679" lon="5.7151">
        <ele>779.8</ele>
        <time>2010-12-04T09:24:51Z</time>
      </trkpt>
      <trkpt lat="45.36784" lon="5.71513">
        <ele>779.8</ele>
        <time>2010-12-04T09:24:55Z</time>
      </trkpt>
      <trkpt lat="45.36778" lon="5.71515">
        <ele>780</ele>
        <time>2010-12-04T09:24:58Z</time>
      </trkpt>
      <trkpt lat="45.36775" lon="5.71518">
        <ele>779.8</ele>
        <time>2010-12-04T09:25:00Z</time>
      </trkpt>
      <trkpt lat="45.36773" lon="5.71521">
        <ele>779.6</ele>
        <time>2010-12-04T09:25:02Z</time>
      </trkpt>
      <trkpt lat="45.3677" lon="5.71522">
        <ele>779.6</ele>
        <time>2010-12-04T09:25:04Z</time>
      </trkpt>
      <trkpt lat="45.36768" lon="5.71524">
        <ele>779.6</ele>
        <time>2010-12-04T09:25:06Z</time>
      </trkpt>
      <trkpt lat="45.36761" lon="5.71528">
        <ele>779.8</ele>
        <time>2010-12-04T09:25:10Z</time>
      </trkpt>
      <trkpt lat="45.36758" lon="5.71533">
        <ele>779.6</ele>
        <time>2010-12-04T09:25:13Z</time>
      </trkpt>
      <trkpt lat="45.36755" lon="5.71534">
        <ele>779.6</ele>
        <time>2010-12-04T09:25:15Z</time>
      </trkpt>
      <trkpt lat="45.36751" lon="5.71537">
        <ele>779.2</ele>
        <time>2010-12-04T09:25:18Z</time>
      </trkpt>
      <trkpt lat="45.36749" lon="5.71537">
        <ele>779.2</ele>
        <time>2010-12-04T09:25:20Z</time>
      </trkpt>
      <trkpt lat="45.36746" lon="5.71536">
        <ele>779</ele>
        <time>2010-12-04T09:25:22Z</time>
      </trkpt>
      <trkpt lat="45.36745" lon="5.71536">
        <ele>778.8</ele>
        <time>2010-12-04T09:25:23Z</time>
      </trkpt>
      <trkpt lat="45.36743" lon="5.71534">
        <ele>778.6</ele>
        <time>2010-12-04T09:25:25Z</time>
      </trkpt>
      <trkpt lat="45.36741" lon="5.71531">
        <ele>778.2</ele>
        <time>2010-12-04T09:25:28Z</time>
      </trkpt>
      <trkpt lat="45.3674" lon="5.71529">
        <ele>778.2</ele>
        <time>2010-12-04T09:25:29Z</time>
      </trkpt>
      <trkpt lat="45.3674" lon="5.71528">
        <ele>778</ele>
        <time>2010-12-04T09:25:30Z</time>
      </trkpt>
      <trkpt lat="45.36738" lon="5.71525">
        <ele>777</ele>
        <time>2010-12-04T09:25:35Z</time>
      </trkpt>
      <trkpt lat="45.36738" lon="5.71519">
        <ele>776.2</ele>
        <time>2010-12-04T09:25:40Z</time>
      </trkpt>
      <trkpt lat="45.36735" lon="5.71511">
        <ele>775.2</ele>
        <time>2010-12-04T09:25:45Z</time>
      </trkpt>
      <trkpt lat="45.36735" lon="5.7151">
        <ele>775.2</ele>
        <time>2010-12-04T09:25:46Z</time>
      </trkpt>
      <trkpt lat="45.36734" lon="5.71509">
        <ele>775</ele>
        <time>2010-12-04T09:25:47Z</time>
      </trkpt>
      <trkpt lat="45.3673" lon="5.71504">
        <ele>774.2</ele>
        <time>2010-12-04T09:25:51Z</time>
      </trkpt>
      <trkpt lat="45.36724" lon="5.71498">
        <ele>773.2</ele>
        <time>2010-12-04T09:25:57Z</time>
      </trkpt>
      <trkpt lat="45.36721" lon="5.71496">
        <ele>773</ele>
        <time>2010-12-04T09:25:59Z</time>
      </trkpt>
      <trkpt lat="45.36719" lon="5.71495">
        <ele>772.6</ele>
        <time>2010-12-04T09:26:01Z</time>
      </trkpt>
      <trkpt lat="45.36718" lon="5.71494">
        <ele>772.4</ele>
        <time>2010-12-04T09:26:02Z</time>
      </trkpt>
      <trkpt lat="45.36712" lon="5.71491">
        <ele>771.8</ele>
        <time>2010-12-04T09:26:06Z</time>
      </trkpt>
      <trkpt lat="45.36709" lon="5.7149">
        <ele>771.4</ele>
        <time>2010-12-04T09:26:09Z</time>
      </trkpt>
      <trkpt lat="45.36706" lon="5.71491">
        <ele>771.2</ele>
        <time>2010-12-04T09:26:11Z</time>
      </trkpt>
      <trkpt lat="45.36701" lon="5.71492">
        <ele>770.8</ele>
        <time>2010-12-04T09:26:14Z</time>
      </trkpt>
      <trkpt lat="45.36699" lon="5.71492">
        <ele>770.6</ele>
        <time>2010-12-04T09:26:15Z</time>
      </trkpt>
      <trkpt lat="45.36687" lon="5.71486">
        <ele>770.6</ele>
        <time>2010-12-04T09:26:21Z</time>
      </trkpt>
      <trkpt lat="45.36683" lon="5.71486">
        <ele>770.4</ele>
        <time>2010-12-04T09:26:25Z</time>
      </trkpt>
      <trkpt lat="45.36681" lon="5.71486">
        <ele>770.4</ele>
        <time>2010-12-04T09:26:26Z</time>
      </trkpt>
      <trkpt lat="45.36673" lon="5.71479">
        <ele>770.4</ele>
        <time>2010-12-04T09:26:32Z</time>
      </trkpt>
      <trkpt lat="45.36672" lon="5.71476">
        <ele>770.4</ele>
        <time>2010-12-04T09:26:34Z</time>
      </trkpt>
      <trkpt lat="45.3667" lon="5.71472">
        <ele>770.2</ele>
        <time>2010-12-04T09:26:37Z</time>
      </trkpt>
      <trkpt lat="45.36669" lon="5.7147">
        <ele>770.2</ele>
        <time>2010-12-04T09:26:38Z</time>
      </trkpt>
      <trkpt lat="45.3667" lon="5.71467">
        <ele>770.2</ele>
        <time>2010-12-04T09:26:40Z</time>
      </trkpt>
      <trkpt lat="45.36669" lon="5.71461">
        <ele>770.2</ele>
        <time>2010-12-04T09:26:43Z</time>
      </trkpt>
      <trkpt lat="45.3667" lon="5.71455">
        <ele>770</ele>
        <time>2010-12-04T09:26:47Z</time>
      </trkpt>
      <trkpt lat="45.36669" lon="5.71452">
        <ele>770</ele>
        <time>2010-12-04T09:26:49Z</time>
      </trkpt>
      <trkpt lat="45.36668" lon="5.71449">
        <ele>769.8</ele>
        <time>2010-12-04T09:26:54Z</time>
      </trkpt>
      <trkpt lat="45.36667" lon="5.71448">
        <ele>769</ele>
        <time>2010-12-04T09:27:06Z</time>
      </trkpt>
      <trkpt lat="45.36664" lon="5.71446">
        <ele>768.8</ele>
        <time>2010-12-04T09:27:16Z</time>
      </trkpt>
      <trkpt lat="45.36663" lon="5.71447">
        <ele>768.8</ele>
        <time>2010-12-04T09:27:20Z</time>
      </trkpt>
      <trkpt lat="45.36665" lon="5.71448">
        <ele>768.8</ele>
        <time>2010-12-04T09:27:26Z</time>
      </trkpt>
      <trkpt lat="45.36669" lon="5.71452">
        <ele>768.4</ele>
        <time>2010-12-04T09:27:31Z</time>
      </trkpt>
      <trkpt lat="45.36673" lon="5.71454">
        <ele>768.2</ele>
        <time>2010-12-04T09:27:36Z</time>
      </trkpt>
      <trkpt lat="45.36675" lon="5.71455">
        <ele>768</ele>
        <time>2010-12-04T09:27:38Z</time>
      </trkpt>
      <trkpt lat="45.36677" lon="5.71456">
        <ele>768</ele>
        <time>2010-12-04T09:27:40Z</time>
      </trkpt>
      <trkpt lat="45.36676" lon="5.71457">
        <ele>767.8</ele>
        <time>2010-12-04T09:27:44Z</time>
      </trkpt>
      <trkpt lat="45.36672" lon="5.71452">
        <ele>768.4</ele>
        <time>2010-12-04T09:28:47Z</time>
      </trkpt>
      <trkpt lat="45.36675" lon="5.71451">
        <ele>768.2</ele>
        <time>2010-12-04T09:28:50Z</time>
      </trkpt>
      <trkpt lat="45.36678" lon="5.71451">
        <ele>768</ele>
        <time>2010-12-04T09:28:52Z</time>
      </trkpt>
      <trkpt lat="45.36679" lon="5.71452">
        <ele>767.8</ele>
        <time>2010-12-04T09:28:54Z</time>
      </trkpt>
      <trkpt lat="45.36677" lon="5.71449">
        <ele>767.8</ele>
        <time>2010-12-04T09:28:57Z</time>
      </trkpt>
      <trkpt lat="45.36673" lon="5.71444">
        <ele>767.6</ele>
        <time>2010-12-04T09:29:01Z</time>
      </trkpt>
      <trkpt lat="45.3667" lon="5.71435">
        <ele>767</ele>
        <time>2010-12-04T09:29:07Z</time>
      </trkpt>
      <trkpt lat="45.36669" lon="5.71428">
        <ele>766.6</ele>
        <time>2010-12-04T09:29:11Z</time>
      </trkpt>
      <trkpt lat="45.36669" lon="5.71425">
        <ele>766.4</ele>
        <time>2010-12-04T09:29:13Z</time>
      </trkpt>
      <trkpt lat="45.3667" lon="5.71416">
        <ele>765.8</ele>
        <time>2010-12-04T09:29:18Z</time>
      </trkpt>
      <trkpt lat="45.3667" lon="5.71409">
        <ele>765.6</ele>
        <time>2010-12-04T09:29:22Z</time>
      </trkpt>
      <trkpt lat="45.3667" lon="5.71402">
        <ele>765.4</ele>
        <time>2010-12-04T09:29:25Z</time>
      </trkpt>
      <trkpt lat="45.36669" lon="5.71398">
        <ele>765.4</ele>
        <time>2010-12-04T09:29:27Z</time>
      </trkpt>
      <trkpt lat="45.36669" lon="5.71397">
        <ele>765.2</ele>
        <time>2010-12-04T09:29:28Z</time>
      </trkpt>
      <trkpt lat="45.36671" lon="5.71389">
        <ele>764.8</ele>
        <time>2010-12-04T09:29:33Z</time>
      </trkpt>
      <trkpt lat="45.36671" lon="5.71381">
        <ele>764.6</ele>
        <time>2010-12-04T09:29:37Z</time>
      </trkpt>
      <trkpt lat="45.36671" lon="5.71379">
        <ele>764.6</ele>
        <time>2010-12-04T09:29:38Z</time>
      </trkpt>
      <trkpt lat="45.3667" lon="5.71376">
        <ele>764.6</ele>
        <time>2010-12-04T09:29:39Z</time>
      </trkpt>
      <trkpt lat="45.3667" lon="5.71371">
        <ele>764.2</ele>
        <time>2010-12-04T09:29:42Z</time>
      </trkpt>
      <trkpt lat="45.3667" lon="5.71369">
        <ele>764.2</ele>
        <time>2010-12-04T09:29:43Z</time>
      </trkpt>
      <trkpt lat="45.36672" lon="5.71358">
        <ele>763.8</ele>
        <time>2010-12-04T09:29:49Z</time>
      </trkpt>
      <trkpt lat="45.36675" lon="5.7135">
        <ele>763.4</ele>
        <time>2010-12-04T09:29:54Z</time>
      </trkpt>
      <trkpt lat="45.36675" lon="5.71348">
        <ele>763.4</ele>
        <time>2010-12-04T09:29:55Z</time>
      </trkpt>
      <trkpt lat="45.36674" lon="5.71336">
        <ele>763</ele>
        <time>2010-12-04T09:30:01Z</time>
      </trkpt>
      <trkpt lat="45.36674" lon="5.71334">
        <ele>763</ele>
        <time>2010-12-04T09:30:02Z</time>
      </trkpt>
      <trkpt lat="45.36674" lon="5.71327">
        <ele>762.8</ele>
        <time>2010-12-04T09:30:06Z</time>
      </trkpt>
      <trkpt lat="45.36674" lon="5.71323">
        <ele>762.6</ele>
        <time>2010-12-04T09:30:08Z</time>
      </trkpt>
      <trkpt lat="45.36674" lon="5.71317">
        <ele>762.4</ele>
        <time>2010-12-04T09:30:11Z</time>
      </trkpt>
      <trkpt lat="45.36671" lon="5.71305">
        <ele>762</ele>
        <time>2010-12-04T09:30:17Z</time>
      </trkpt>
      <trkpt lat="45.36668" lon="5.71298">
        <ele>761.8</ele>
        <time>2010-12-04T09:30:21Z</time>
      </trkpt>
      <trkpt lat="45.36666" lon="5.71296">
        <ele>761.6</ele>
        <time>2010-12-04T09:30:23Z</time>
      </trkpt>
      <trkpt lat="45.3666" lon="5.7129">
        <ele>761.2</ele>
        <time>2010-12-04T09:30:29Z</time>
      </trkpt>
      <trkpt lat="45.36657" lon="5.71289">
        <ele>761</ele>
        <time>2010-12-04T09:30:32Z</time>
      </trkpt>
      <trkpt lat="45.36656" lon="5.71289">
        <ele>761</ele>
        <time>2010-12-04T09:30:33Z</time>
      </trkpt>
      <trkpt lat="45.36651" lon="5.71289">
        <ele>760.8</ele>
        <time>2010-12-04T09:30:37Z</time>
      </trkpt>
      <trkpt lat="45.36649" lon="5.7129">
        <ele>760.8</ele>
        <time>2010-12-04T09:30:39Z</time>
      </trkpt>
      <trkpt lat="45.36645" lon="5.71292">
        <ele>760.8</ele>
        <time>2010-12-04T09:30:43Z</time>
      </trkpt>
      <trkpt lat="45.36639" lon="5.71296">
        <ele>760.8</ele>
        <time>2010-12-04T09:30:49Z</time>
      </trkpt>
      <trkpt lat="45.36634" lon="5.713">
        <ele>760.8</ele>
        <time>2010-12-04T09:30:54Z</time>
      </trkpt>
      <trkpt lat="45.36633" lon="5.71301">
        <ele>760.8</ele>
        <time>2010-12-04T09:30:55Z</time>
      </trkpt>
      <trkpt lat="45.3663" lon="5.71303">
        <ele>760.8</ele>
        <time>2010-12-04T09:30:58Z</time>
      </trkpt>
      <trkpt lat="45.36628" lon="5.71304">
        <ele>760.8</ele>
        <time>2010-12-04T09:31:00Z</time>
      </trkpt>
      <trkpt lat="45.36622" lon="5.71305">
        <ele>761.4</ele>
        <time>2010-12-04T09:31:05Z</time>
      </trkpt>
      <trkpt lat="45.36621" lon="5.71305">
        <ele>761.4</ele>
        <time>2010-12-04T09:31:06Z</time>
      </trkpt>
      <trkpt lat="45.36616" lon="5.71306">
        <ele>761.8</ele>
        <time>2010-12-04T09:31:10Z</time>
      </trkpt>
      <trkpt lat="45.36615" lon="5.71306">
        <ele>762</ele>
        <time>2010-12-04T09:31:11Z</time>
      </trkpt>
      <trkpt lat="45.36611" lon="5.71306">
        <ele>762.4</ele>
        <time>2010-12-04T09:31:15Z</time>
      </trkpt>
      <trkpt lat="45.36606" lon="5.71305">
        <ele>763</ele>
        <time>2010-12-04T09:31:21Z</time>
      </trkpt>
      <trkpt lat="45.366" lon="5.71305">
        <ele>763.2</ele>
        <time>2010-12-04T09:31:26Z</time>
      </trkpt>
      <trkpt lat="45.36599" lon="5.71306">
        <ele>763.2</ele>
        <time>2010-12-04T09:31:27Z</time>
      </trkpt>
      <trkpt lat="45.36598" lon="5.71306">
        <ele>763.4</ele>
        <time>2010-12-04T09:31:28Z</time>
      </trkpt>
      <trkpt lat="45.36595" lon="5.71306">
        <ele>763.6</ele>
        <time>2010-12-04T09:31:31Z</time>
      </trkpt>
      <trkpt lat="45.36593" lon="5.71305">
        <ele>763.8</ele>
        <time>2010-12-04T09:31:32Z</time>
      </trkpt>
      <trkpt lat="45.36591" lon="5.71305">
        <ele>764</ele>
        <time>2010-12-04T09:31:34Z</time>
      </trkpt>
      <trkpt lat="45.36587" lon="5.71305">
        <ele>764.6</ele>
        <time>2010-12-04T09:31:37Z</time>
      </trkpt>
      <trkpt lat="45.36583" lon="5.71305">
        <ele>764.6</ele>
        <time>2010-12-04T09:31:41Z</time>
      </trkpt>
      <trkpt lat="45.3658" lon="5.71305">
        <ele>764.6</ele>
        <time>2010-12-04T09:31:46Z</time>
      </trkpt>
      <trkpt lat="45.36574" lon="5.71307">
        <ele>764.4</ele>
        <time>2010-12-04T09:31:51Z</time>
      </trkpt>
      <trkpt lat="45.36571" lon="5.71305">
        <ele>764.4</ele>
        <time>2010-12-04T09:31:55Z</time>
      </trkpt>
      <trkpt lat="45.36563" lon="5.71303">
        <ele>764.2</ele>
        <time>2010-12-04T09:32:01Z</time>
      </trkpt>
      <trkpt lat="45.36562" lon="5.71302">
        <ele>764.4</ele>
        <time>2010-12-04T09:32:03Z</time>
      </trkpt>
      <trkpt lat="45.3656" lon="5.71303">
        <ele>764.4</ele>
        <time>2010-12-04T09:32:05Z</time>
      </trkpt>
      <trkpt lat="45.36558" lon="5.71304">
        <ele>764.4</ele>
        <time>2010-12-04T09:32:07Z</time>
      </trkpt>
      <trkpt lat="45.36551" lon="5.71304">
        <ele>764.6</ele>
        <time>2010-12-04T09:32:13Z</time>
      </trkpt>
      <trkpt lat="45.36546" lon="5.71301">
        <ele>765.4</ele>
        <time>2010-12-04T09:32:17Z</time>
      </trkpt>
      <trkpt lat="45.36543" lon="5.71299">
        <ele>766</ele>
        <time>2010-12-04T09:32:18Z</time>
      </trkpt>
      <trkpt lat="45.36541" lon="5.71297">
        <ele>766.4</ele>
        <time>2010-12-04T09:32:19Z</time>
      </trkpt>
      <trkpt lat="45.36539" lon="5.71295">
        <ele>767</ele>
        <time>2010-12-04T09:32:23Z</time>
      </trkpt>
      <trkpt lat="45.36537" lon="5.71295">
        <ele>767</ele>
        <time>2010-12-04T09:32:26Z</time>
      </trkpt>
      <trkpt lat="45.36532" lon="5.71292">
        <ele>767.2</ele>
        <time>2010-12-04T09:32:32Z</time>
      </trkpt>
      <trkpt lat="45.36528" lon="5.71288">
        <ele>767.4</ele>
        <time>2010-12-04T09:32:35Z</time>
      </trkpt>
      <trkpt lat="45.36526" lon="5.71287">
        <ele>767.6</ele>
        <time>2010-12-04T09:32:36Z</time>
      </trkpt>
      <trkpt lat="45.36525" lon="5.71286">
        <ele>768</ele>
        <time>2010-12-04T09:32:38Z</time>
      </trkpt>
      <trkpt lat="45.36514" lon="5.71278">
        <ele>769.8</ele>
        <time>2010-12-04T09:32:44Z</time>
      </trkpt>
      <trkpt lat="45.36509" lon="5.71278">
        <ele>770.2</ele>
        <time>2010-12-04T09:32:48Z</time>
      </trkpt>
      <trkpt lat="45.36507" lon="5.71277">
        <ele>770.6</ele>
        <time>2010-12-04T09:32:49Z</time>
      </trkpt>
      <trkpt lat="45.36507" lon="5.71279">
        <ele>770.8</ele>
        <time>2010-12-04T09:32:51Z</time>
      </trkpt>
      <trkpt lat="45.36502" lon="5.71279">
        <ele>771.4</ele>
        <time>2010-12-04T09:32:54Z</time>
      </trkpt>
      <trkpt lat="45.36495" lon="5.71279">
        <ele>772.4</ele>
        <time>2010-12-04T09:32:58Z</time>
      </trkpt>
      <trkpt lat="45.36491" lon="5.71278">
        <ele>773.2</ele>
        <time>2010-12-04T09:33:00Z</time>
      </trkpt>
      <trkpt lat="45.36485" lon="5.71278">
        <ele>774.6</ele>
        <time>2010-12-04T09:33:03Z</time>
      </trkpt>
      <trkpt lat="45.36477" lon="5.71275">
        <ele>777</ele>
        <time>2010-12-04T09:33:07Z</time>
      </trkpt>
      <trkpt lat="45.36473" lon="5.71273">
        <ele>779</ele>
        <time>2010-12-04T09:33:11Z</time>
      </trkpt>
      <trkpt lat="45.36471" lon="5.71272">
        <ele>780</ele>
        <time>2010-12-04T09:33:13Z</time>
      </trkpt>
      <trkpt lat="45.36466" lon="5.71272">
        <ele>782.2</ele>
        <time>2010-12-04T09:33:18Z</time>
      </trkpt>
      <trkpt lat="45.36467" lon="5.71272">
        <ele>783.2</ele>
        <time>2010-12-04T09:33:23Z</time>
      </trkpt>
      <trkpt lat="45.36468" lon="5.71275">
        <ele>783.2</ele>
        <time>2010-12-04T09:33:25Z</time>
      </trkpt>
      <trkpt lat="45.36466" lon="5.71276">
        <ele>783.2</ele>
        <time>2010-12-04T09:33:28Z</time>
      </trkpt>
      <trkpt lat="45.36464" lon="5.71276">
        <ele>783</ele>
        <time>2010-12-04T09:33:30Z</time>
      </trkpt>
      <trkpt lat="45.36461" lon="5.71277">
        <ele>782.8</ele>
        <time>2010-12-04T09:33:33Z</time>
      </trkpt>
      <trkpt lat="45.3646" lon="5.71276">
        <ele>783</ele>
        <time>2010-12-04T09:33:34Z</time>
      </trkpt>
      <trkpt lat="45.36457" lon="5.71276">
        <ele>782.8</ele>
        <time>2010-12-04T09:33:37Z</time>
      </trkpt>
      <trkpt lat="45.36454" lon="5.71276">
        <ele>782.8</ele>
        <time>2010-12-04T09:33:39Z</time>
      </trkpt>
      <trkpt lat="45.36453" lon="5.71275">
        <ele>782.8</ele>
        <time>2010-12-04T09:33:40Z</time>
      </trkpt>
      <trkpt lat="45.36453" lon="5.71278">
        <ele>782.4</ele>
        <time>2010-12-04T09:33:43Z</time>
      </trkpt>
      <trkpt lat="45.36447" lon="5.71281">
        <ele>781.8</ele>
        <time>2010-12-04T09:33:50Z</time>
      </trkpt>
      <trkpt lat="45.36442" lon="5.71282">
        <ele>781.4</ele>
        <time>2010-12-04T09:33:54Z</time>
      </trkpt>
      <trkpt lat="45.36439" lon="5.71281">
        <ele>781.2</ele>
        <time>2010-12-04T09:33:57Z</time>
      </trkpt>
      <trkpt lat="45.36438" lon="5.71281">
        <ele>781.2</ele>
        <time>2010-12-04T09:33:58Z</time>
      </trkpt>
      <trkpt lat="45.36432" lon="5.71279">
        <ele>780.8</ele>
        <time>2010-12-04T09:34:03Z</time>
      </trkpt>
      <trkpt lat="45.36424" lon="5.71281">
        <ele>780.6</ele>
        <time>2010-12-04T09:34:09Z</time>
      </trkpt>
      <trkpt lat="45.36421" lon="5.71281">
        <ele>780.6</ele>
        <time>2010-12-04T09:34:12Z</time>
      </trkpt>
      <trkpt lat="45.36419" lon="5.71282">
        <ele>780.6</ele>
        <time>2010-12-04T09:34:14Z</time>
      </trkpt>
      <trkpt lat="45.36415" lon="5.71283">
        <ele>780.6</ele>
        <time>2010-12-04T09:34:18Z</time>
      </trkpt>
      <trkpt lat="45.36411" lon="5.71281">
        <ele>780.8</ele>
        <time>2010-12-04T09:34:20Z</time>
      </trkpt>
      <trkpt lat="45.36407" lon="5.71281">
        <ele>780.8</ele>
        <time>2010-12-04T09:34:22Z</time>
      </trkpt>
      <trkpt lat="45.36402" lon="5.71282">
        <ele>781.2</ele>
        <time>2010-12-04T09:34:26Z</time>
      </trkpt>
      <trkpt lat="45.364" lon="5.71282">
        <ele>781.6</ele>
        <time>2010-12-04T09:34:27Z</time>
      </trkpt>
      <trkpt lat="45.36392" lon="5.71281">
        <ele>782.8</ele>
        <time>2010-12-04T09:34:32Z</time>
      </trkpt>
      <trkpt lat="45.3639" lon="5.71283">
        <ele>783</ele>
        <time>2010-12-04T09:34:37Z</time>
      </trkpt>
      <trkpt lat="45.36389" lon="5.71285">
        <ele>783.2</ele>
        <time>2010-12-04T09:34:40Z</time>
      </trkpt>
      <trkpt lat="45.36389" lon="5.71286">
        <ele>783</ele>
        <time>2010-12-04T09:34:41Z</time>
      </trkpt>
      <trkpt lat="45.36387" lon="5.71288">
        <ele>782.8</ele>
        <time>2010-12-04T09:34:45Z</time>
      </trkpt>
      <trkpt lat="45.36385" lon="5.71288">
        <ele>782.8</ele>
        <time>2010-12-04T09:34:46Z</time>
      </trkpt>
      <trkpt lat="45.3638" lon="5.7129">
        <ele>782.8</ele>
        <time>2010-12-04T09:34:51Z</time>
      </trkpt>
      <trkpt lat="45.36373" lon="5.71289">
        <ele>782.8</ele>
        <time>2010-12-04T09:34:54Z</time>
      </trkpt>
      <trkpt lat="45.36371" lon="5.71291">
        <ele>782.8</ele>
        <time>2010-12-04T09:34:56Z</time>
      </trkpt>
      <trkpt lat="45.36366" lon="5.7129">
        <ele>782.8</ele>
        <time>2010-12-04T09:34:58Z</time>
      </trkpt>
      <trkpt lat="45.3636" lon="5.71293">
        <ele>782.6</ele>
        <time>2010-12-04T09:35:03Z</time>
      </trkpt>
      <trkpt lat="45.36351" lon="5.71292">
        <ele>783.4</ele>
        <time>2010-12-04T09:35:08Z</time>
      </trkpt>
      <trkpt lat="45.36347" lon="5.71294">
        <ele>783.8</ele>
        <time>2010-12-04T09:35:11Z</time>
      </trkpt>
      <trkpt lat="45.36345" lon="5.71296">
        <ele>783.8</ele>
        <time>2010-12-04T09:35:14Z</time>
      </trkpt>
      <trkpt lat="45.36339" lon="5.71295">
        <ele>784.6</ele>
        <time>2010-12-04T09:35:18Z</time>
      </trkpt>
      <trkpt lat="45.36338" lon="5.71294">
        <ele>784.8</ele>
        <time>2010-12-04T09:35:19Z</time>
      </trkpt>
      <trkpt lat="45.3633" lon="5.71293">
        <ele>785.2</ele>
        <time>2010-12-04T09:35:24Z</time>
      </trkpt>
      <trkpt lat="45.36324" lon="5.71293">
        <ele>785.2</ele>
        <time>2010-12-04T09:35:27Z</time>
      </trkpt>
      <trkpt lat="45.36322" lon="5.71294">
        <ele>785</ele>
        <time>2010-12-04T09:35:29Z</time>
      </trkpt>
      <trkpt lat="45.36316" lon="5.71296">
        <ele>784.6</ele>
        <time>2010-12-04T09:35:34Z</time>
      </trkpt>
      <trkpt lat="45.3631" lon="5.71298">
        <ele>784</ele>
        <time>2010-12-04T09:35:39Z</time>
      </trkpt>
      <trkpt lat="45.36303" lon="5.71298">
        <ele>783.2</ele>
        <time>2010-12-04T09:35:44Z</time>
      </trkpt>
      <trkpt lat="45.36301" lon="5.71299">
        <ele>783</ele>
        <time>2010-12-04T09:35:46Z</time>
      </trkpt>
      <trkpt lat="45.36296" lon="5.71298">
        <ele>782.6</ele>
        <time>2010-12-04T09:35:49Z</time>
      </trkpt>
      <trkpt lat="45.36292" lon="5.71298">
        <ele>782.2</ele>
        <time>2010-12-04T09:35:52Z</time>
      </trkpt>
      <trkpt lat="45.36291" lon="5.71299">
        <ele>782.2</ele>
        <time>2010-12-04T09:35:53Z</time>
      </trkpt>
      <trkpt lat="45.36287" lon="5.71297">
        <ele>782.2</ele>
        <time>2010-12-04T09:35:55Z</time>
      </trkpt>
      <trkpt lat="45.36286" lon="5.71297">
        <ele>782</ele>
        <time>2010-12-04T09:35:56Z</time>
      </trkpt>
      <trkpt lat="45.36279" lon="5.71297">
        <ele>781.6</ele>
        <time>2010-12-04T09:36:01Z</time>
      </trkpt>
      <trkpt lat="45.36274" lon="5.71297">
        <ele>781.2</ele>
        <time>2010-12-04T09:36:05Z</time>
      </trkpt>
      <trkpt lat="45.36272" lon="5.71296">
        <ele>781.2</ele>
        <time>2010-12-04T09:36:06Z</time>
      </trkpt>
      <trkpt lat="45.36265" lon="5.71295">
        <ele>781</ele>
        <time>2010-12-04T09:36:11Z</time>
      </trkpt>
      <trkpt lat="45.36253" lon="5.71293">
        <ele>781</ele>
        <time>2010-12-04T09:36:17Z</time>
      </trkpt>
      <trkpt lat="45.36246" lon="5.71292">
        <ele>781.6</ele>
        <time>2010-12-04T09:36:21Z</time>
      </trkpt>
      <trkpt lat="45.3624" lon="5.71295">
        <ele>781.6</ele>
        <time>2010-12-04T09:36:26Z</time>
      </trkpt>
      <trkpt lat="45.36234" lon="5.71296">
        <ele>782</ele>
        <time>2010-12-04T09:36:30Z</time>
      </trkpt>
      <trkpt lat="45.36232" lon="5.71297">
        <ele>782.2</ele>
        <time>2010-12-04T09:36:31Z</time>
      </trkpt>
      <trkpt lat="45.36228" lon="5.71298">
        <ele>782.2</ele>
        <time>2010-12-04T09:36:35Z</time>
      </trkpt>
      <trkpt lat="45.36224" lon="5.71297">
        <ele>783</ele>
        <time>2010-12-04T09:36:37Z</time>
      </trkpt>
      <trkpt lat="45.36219" lon="5.71295">
        <ele>783.4</ele>
        <time>2010-12-04T09:36:41Z</time>
      </trkpt>
      <trkpt lat="45.36219" lon="5.71295">
        <ele>783.4</ele>
        <time>2010-12-04T09:36:42Z</time>
      </trkpt>
      <trkpt lat="45.36219" lon="5.71296">
        <ele>783.2</ele>
        <time>2010-12-04T09:36:43Z</time>
      </trkpt>
      <trkpt lat="45.36215" lon="5.71296">
        <ele>783.4</ele>
        <time>2010-12-04T09:36:45Z</time>
      </trkpt>
      <trkpt lat="45.36211" lon="5.71296">
        <ele>783.8</ele>
        <time>2010-12-04T09:36:47Z</time>
      </trkpt>
      <trkpt lat="45.36211" lon="5.71298">
        <ele>783.8</ele>
        <time>2010-12-04T09:36:50Z</time>
      </trkpt>
      <trkpt lat="45.36208" lon="5.71298">
        <ele>784</ele>
        <time>2010-12-04T09:36:53Z</time>
      </trkpt>
      <trkpt lat="45.36208" lon="5.713">
        <ele>783.8</ele>
        <time>2010-12-04T09:36:55Z</time>
      </trkpt>
      <trkpt lat="45.36198" lon="5.71297">
        <ele>784.8</ele>
        <time>2010-12-04T09:37:00Z</time>
      </trkpt>
      <trkpt lat="45.36195" lon="5.71295">
        <ele>785.4</ele>
        <time>2010-12-04T09:37:01Z</time>
      </trkpt>
      <trkpt lat="45.36189" lon="5.71297">
        <ele>785.6</ele>
        <time>2010-12-04T09:37:05Z</time>
      </trkpt>
      <trkpt lat="45.36181" lon="5.713">
        <ele>786</ele>
        <time>2010-12-04T09:37:11Z</time>
      </trkpt>
      <trkpt lat="45.36179" lon="5.71301">
        <ele>786</ele>
        <time>2010-12-04T09:37:13Z</time>
      </trkpt>
      <trkpt lat="45.36177" lon="5.71301">
        <ele>786.2</ele>
        <time>2010-12-04T09:37:14Z</time>
      </trkpt>
      <trkpt lat="45.36169" lon="5.7131">
        <ele>786.2</ele>
        <time>2010-12-04T09:37:21Z</time>
      </trkpt>
      <trkpt lat="45.36163" lon="5.71307">
        <ele>786.8</ele>
        <time>2010-12-04T09:37:23Z</time>
      </trkpt>
      <trkpt lat="45.3616" lon="5.7131">
        <ele>786.6</ele>
        <time>2010-12-04T09:37:26Z</time>
      </trkpt>
      <trkpt lat="45.36159" lon="5.71311">
        <ele>786.4</ele>
        <time>2010-12-04T09:37:27Z</time>
      </trkpt>
      <trkpt lat="45.36155" lon="5.71313">
        <ele>786.4</ele>
        <time>2010-12-04T09:37:31Z</time>
      </trkpt>
      <trkpt lat="45.36148" lon="5.71315">
        <ele>786</ele>
        <time>2010-12-04T09:37:37Z</time>
      </trkpt>
      <trkpt lat="45.36146" lon="5.71315">
        <ele>786</ele>
        <time>2010-12-04T09:37:38Z</time>
      </trkpt>
      <trkpt lat="45.3614" lon="5.71315">
        <ele>785.8</ele>
        <time>2010-12-04T09:37:42Z</time>
      </trkpt>
      <trkpt lat="45.36139" lon="5.71316">
        <ele>785.8</ele>
        <time>2010-12-04T09:37:44Z</time>
      </trkpt>
      <trkpt lat="45.36138" lon="5.71316">
        <ele>785.8</ele>
        <time>2010-12-04T09:37:45Z</time>
      </trkpt>
      <trkpt lat="45.36129" lon="5.71317">
        <ele>785.8</ele>
        <time>2010-12-04T09:37:50Z</time>
      </trkpt>
      <trkpt lat="45.36128" lon="5.71318">
        <ele>785.8</ele>
        <time>2010-12-04T09:37:51Z</time>
      </trkpt>
      <trkpt lat="45.36123" lon="5.71318">
        <ele>785.6</ele>
        <time>2010-12-04T09:37:54Z</time>
      </trkpt>
      <trkpt lat="45.36122" lon="5.71318">
        <ele>785.6</ele>
        <time>2010-12-04T09:37:55Z</time>
      </trkpt>
      <trkpt lat="45.36116" lon="5.71319">
        <ele>785.6</ele>
        <time>2010-12-04T09:37:59Z</time>
      </trkpt>
      <trkpt lat="45.3611" lon="5.71323">
        <ele>785.4</ele>
        <time>2010-12-04T09:38:04Z</time>
      </trkpt>
      <trkpt lat="45.36107" lon="5.71324">
        <ele>785.4</ele>
        <time>2010-12-04T09:38:06Z</time>
      </trkpt>
      <trkpt lat="45.36105" lon="5.71325">
        <ele>785.4</ele>
        <time>2010-12-04T09:38:08Z</time>
      </trkpt>
      <trkpt lat="45.36102" lon="5.71328">
        <ele>785.2</ele>
        <time>2010-12-04T09:38:11Z</time>
      </trkpt>
      <trkpt lat="45.36101" lon="5.71328">
        <ele>785.2</ele>
        <time>2010-12-04T09:38:12Z</time>
      </trkpt>
      <trkpt lat="45.36096" lon="5.7133">
        <ele>785.2</ele>
        <time>2010-12-04T09:38:16Z</time>
      </trkpt>
      <trkpt lat="45.36093" lon="5.71333">
        <ele>784.8</ele>
        <time>2010-12-04T09:38:19Z</time>
      </trkpt>
      <trkpt lat="45.36092" lon="5.71334">
        <ele>784.8</ele>
        <time>2010-12-04T09:38:20Z</time>
      </trkpt>
      <trkpt lat="45.3609" lon="5.71334">
        <ele>784.8</ele>
        <time>2010-12-04T09:38:21Z</time>
      </trkpt>
      <trkpt lat="45.36083" lon="5.71334">
        <ele>784.8</ele>
        <time>2010-12-04T09:38:26Z</time>
      </trkpt>
      <trkpt lat="45.36081" lon="5.71335">
        <ele>784.6</ele>
        <time>2010-12-04T09:38:29Z</time>
      </trkpt>
      <trkpt lat="45.36077" lon="5.71336">
        <ele>784.6</ele>
        <time>2010-12-04T09:38:32Z</time>
      </trkpt>
      <trkpt lat="45.36076" lon="5.71337">
        <ele>784.6</ele>
        <time>2010-12-04T09:38:33Z</time>
      </trkpt>
      <trkpt lat="45.36075" lon="5.71337">
        <ele>784.4</ele>
        <time>2010-12-04T09:38:34Z</time>
      </trkpt>
      <trkpt lat="45.36072" lon="5.71338">
        <ele>784.2</ele>
        <time>2010-12-04T09:38:37Z</time>
      </trkpt>
      <trkpt lat="45.3607" lon="5.71338">
        <ele>784.4</ele>
        <time>2010-12-04T09:38:38Z</time>
      </trkpt>
      <trkpt lat="45.36063" lon="5.71341">
        <ele>784.2</ele>
        <time>2010-12-04T09:38:44Z</time>
      </trkpt>
      <trkpt lat="45.36058" lon="5.71342">
        <ele>784</ele>
        <time>2010-12-04T09:38:47Z</time>
      </trkpt>
      <trkpt lat="45.36056" lon="5.71344">
        <ele>783.8</ele>
        <time>2010-12-04T09:38:50Z</time>
      </trkpt>
      <trkpt lat="45.36055" lon="5.71343">
        <ele>784</ele>
        <time>2010-12-04T09:38:51Z</time>
      </trkpt>
      <trkpt lat="45.36052" lon="5.71343">
        <ele>783.8</ele>
        <time>2010-12-04T09:38:54Z</time>
      </trkpt>
      <trkpt lat="45.36046" lon="5.71342">
        <ele>783.8</ele>
        <time>2010-12-04T09:39:00Z</time>
      </trkpt>
      <trkpt lat="45.36044" lon="5.7134">
        <ele>783.8</ele>
        <time>2010-12-04T09:39:01Z</time>
      </trkpt>
      <trkpt lat="45.36042" lon="5.71338">
        <ele>783.6</ele>
        <time>2010-12-04T09:39:03Z</time>
      </trkpt>
      <trkpt lat="45.36041" lon="5.71338">
        <ele>783.6</ele>
        <time>2010-12-04T09:39:05Z</time>
      </trkpt>
      <trkpt lat="45.36039" lon="5.71332">
        <ele>783.2</ele>
        <time>2010-12-04T09:39:10Z</time>
      </trkpt>
      <trkpt lat="45.3604" lon="5.71327">
        <ele>782.6</ele>
        <time>2010-12-04T09:39:15Z</time>
      </trkpt>
      <trkpt lat="45.3604" lon="5.71326">
        <ele>782.6</ele>
        <time>2010-12-04T09:39:16Z</time>
      </trkpt>
      <trkpt lat="45.3604" lon="5.7132">
        <ele>782.2</ele>
        <time>2010-12-04T09:39:20Z</time>
      </trkpt>
      <trkpt lat="45.36039" lon="5.71313">
        <ele>782</ele>
        <time>2010-12-04T09:39:24Z</time>
      </trkpt>
      <trkpt lat="45.36039" lon="5.71311">
        <ele>782</ele>
        <time>2010-12-04T09:39:25Z</time>
      </trkpt>
      <trkpt lat="45.36038" lon="5.71303">
        <ele>781.6</ele>
        <time>2010-12-04T09:39:30Z</time>
      </trkpt>
      <trkpt lat="45.36039" lon="5.71302">
        <ele>781.6</ele>
        <time>2010-12-04T09:39:31Z</time>
      </trkpt>
      <trkpt lat="45.36038" lon="5.71293">
        <ele>781.4</ele>
        <time>2010-12-04T09:39:37Z</time>
      </trkpt>
      <trkpt lat="45.36039" lon="5.7129">
        <ele>781.4</ele>
        <time>2010-12-04T09:39:39Z</time>
      </trkpt>
      <trkpt lat="45.36039" lon="5.71286">
        <ele>781.4</ele>
        <time>2010-12-04T09:39:42Z</time>
      </trkpt>
      <trkpt lat="45.36039" lon="5.71285">
        <ele>781.4</ele>
        <time>2010-12-04T09:39:43Z</time>
      </trkpt>
      <trkpt lat="45.36039" lon="5.71284">
        <ele>781.4</ele>
        <time>2010-12-04T09:39:44Z</time>
      </trkpt>
      <trkpt lat="45.3604" lon="5.71278">
        <ele>781.6</ele>
        <time>2010-12-04T09:39:48Z</time>
      </trkpt>
      <trkpt lat="45.3604" lon="5.7127">
        <ele>781.8</ele>
        <time>2010-12-04T09:39:54Z</time>
      </trkpt>
      <trkpt lat="45.3604" lon="5.71269">
        <ele>781.8</ele>
        <time>2010-12-04T09:39:55Z</time>
      </trkpt>
      <trkpt lat="45.3604" lon="5.71263">
        <ele>782.2</ele>
        <time>2010-12-04T09:40:00Z</time>
      </trkpt>
      <trkpt lat="45.3604" lon="5.71261">
        <ele>782.2</ele>
        <time>2010-12-04T09:40:02Z</time>
      </trkpt>
      <trkpt lat="45.3604" lon="5.71259">
        <ele>782.2</ele>
        <time>2010-12-04T09:40:04Z</time>
      </trkpt>
      <trkpt lat="45.36039" lon="5.71258">
        <ele>782.4</ele>
        <time>2010-12-04T09:40:12Z</time>
      </trkpt>
      <trkpt lat="45.36039" lon="5.71255">
        <ele>782.6</ele>
        <time>2010-12-04T09:40:17Z</time>
      </trkpt>
      <trkpt lat="45.36039" lon="5.71253">
        <ele>782.8</ele>
        <time>2010-12-04T09:40:18Z</time>
      </trkpt>
      <trkpt lat="45.3604" lon="5.71245">
        <ele>783.6</ele>
        <time>2010-12-04T09:40:23Z</time>
      </trkpt>
      <trkpt lat="45.3604" lon="5.71243">
        <ele>783.8</ele>
        <time>2010-12-04T09:40:24Z</time>
      </trkpt>
      <trkpt lat="45.36041" lon="5.71237">
        <ele>784.8</ele>
        <time>2010-12-04T09:40:28Z</time>
      </trkpt>
      <trkpt lat="45.36041" lon="5.71236">
        <ele>785</ele>
        <time>2010-12-04T09:40:29Z</time>
      </trkpt>
      <trkpt lat="45.36044" lon="5.71234">
        <ele>785.4</ele>
        <time>2010-12-04T09:40:32Z</time>
      </trkpt>
      <trkpt lat="45.36047" lon="5.71231">
        <ele>785.6</ele>
        <time>2010-12-04T09:40:36Z</time>
      </trkpt>
      <trkpt lat="45.36049" lon="5.71223">
        <ele>786</ele>
        <time>2010-12-04T09:40:42Z</time>
      </trkpt>
      <trkpt lat="45.36051" lon="5.71218">
        <ele>786.2</ele>
        <time>2010-12-04T09:40:46Z</time>
      </trkpt>
      <trkpt lat="45.36051" lon="5.71216">
        <ele>786.4</ele>
        <time>2010-12-04T09:40:48Z</time>
      </trkpt>
      <trkpt lat="45.36051" lon="5.71213">
        <ele>786.6</ele>
        <time>2010-12-04T09:40:50Z</time>
      </trkpt>
      <trkpt lat="45.36054" lon="5.71204">
        <ele>787</ele>
        <time>2010-12-04T09:40:57Z</time>
      </trkpt>
      <trkpt lat="45.36054" lon="5.71202">
        <ele>787</ele>
        <time>2010-12-04T09:40:58Z</time>
      </trkpt>
      <trkpt lat="45.36055" lon="5.71198">
        <ele>787.2</ele>
        <time>2010-12-04T09:41:02Z</time>
      </trkpt>
      <trkpt lat="45.36055" lon="5.71196">
        <ele>787.2</ele>
        <time>2010-12-04T09:41:03Z</time>
      </trkpt>
      <trkpt lat="45.36056" lon="5.71193">
        <ele>787.2</ele>
        <time>2010-12-04T09:41:06Z</time>
      </trkpt>
      <trkpt lat="45.36056" lon="5.71191">
        <ele>787.2</ele>
        <time>2010-12-04T09:41:07Z</time>
      </trkpt>
      <trkpt lat="45.36057" lon="5.71186">
        <ele>787.6</ele>
        <time>2010-12-04T09:41:11Z</time>
      </trkpt>
      <trkpt lat="45.36058" lon="5.71179">
        <ele>788</ele>
        <time>2010-12-04T09:41:15Z</time>
      </trkpt>
      <trkpt lat="45.36058" lon="5.71176">
        <ele>788</ele>
        <time>2010-12-04T09:41:17Z</time>
      </trkpt>
      <trkpt lat="45.36059" lon="5.71166">
        <ele>788.6</ele>
        <time>2010-12-04T09:41:25Z</time>
      </trkpt>
      <trkpt lat="45.36059" lon="5.71165">
        <ele>788.8</ele>
        <time>2010-12-04T09:41:26Z</time>
      </trkpt>
      <trkpt lat="45.36059" lon="5.71159">
        <ele>789</ele>
        <time>2010-12-04T09:41:30Z</time>
      </trkpt>
      <trkpt lat="45.36058" lon="5.71158">
        <ele>789.2</ele>
        <time>2010-12-04T09:41:31Z</time>
      </trkpt>
      <trkpt lat="45.36057" lon="5.71155">
        <ele>789.6</ele>
        <time>2010-12-04T09:41:34Z</time>
      </trkpt>
      <trkpt lat="45.36057" lon="5.71156">
        <ele>790</ele>
        <time>2010-12-04T09:41:40Z</time>
      </trkpt>
      <trkpt lat="45.36056" lon="5.71154">
        <ele>790.6</ele>
        <time>2010-12-04T09:41:46Z</time>
      </trkpt>
      <trkpt lat="45.36056" lon="5.71158">
        <ele>794</ele>
        <time>2010-12-04T09:42:11Z</time>
      </trkpt>
      <trkpt lat="45.36053" lon="5.71156">
        <ele>794.2</ele>
        <time>2010-12-04T09:42:25Z</time>
      </trkpt>
      <trkpt lat="45.36055" lon="5.71155">
        <ele>794.4</ele>
        <time>2010-12-04T09:42:32Z</time>
      </trkpt>
      <trkpt lat="45.36056" lon="5.71154">
        <ele>794.4</ele>
        <time>2010-12-04T09:42:36Z</time>
      </trkpt>
      <trkpt lat="45.36055" lon="5.7115">
        <ele>794.6</ele>
        <time>2010-12-04T09:42:41Z</time>
      </trkpt>
      <trkpt lat="45.36055" lon="5.71146">
        <ele>794.8</ele>
        <time>2010-12-04T09:42:46Z</time>
      </trkpt>
      <trkpt lat="45.36057" lon="5.71136">
        <ele>796.4</ele>
        <time>2010-12-04T09:42:55Z</time>
      </trkpt>
      <trkpt lat="45.36057" lon="5.71133">
        <ele>796.8</ele>
        <time>2010-12-04T09:42:58Z</time>
      </trkpt>
      <trkpt lat="45.36053" lon="5.71123">
        <ele>799</ele>
        <time>2010-12-04T09:43:09Z</time>
      </trkpt>
      <trkpt lat="45.36053" lon="5.7112">
        <ele>799.6</ele>
        <time>2010-12-04T09:43:12Z</time>
      </trkpt>
      <trkpt lat="45.36053" lon="5.71118">
        <ele>800</ele>
        <time>2010-12-04T09:43:14Z</time>
      </trkpt>
      <trkpt lat="45.36052" lon="5.71113">
        <ele>801</ele>
        <time>2010-12-04T09:43:17Z</time>
      </trkpt>
      <trkpt lat="45.36053" lon="5.71111">
        <ele>801.6</ele>
        <time>2010-12-04T09:43:21Z</time>
      </trkpt>
      <trkpt lat="45.36056" lon="5.7111">
        <ele>802.2</ele>
        <time>2010-12-04T09:43:24Z</time>
      </trkpt>
      <trkpt lat="45.36058" lon="5.71109">
        <ele>802.6</ele>
        <time>2010-12-04T09:43:26Z</time>
      </trkpt>
      <trkpt lat="45.3606" lon="5.71108">
        <ele>802.8</ele>
        <time>2010-12-04T09:43:28Z</time>
      </trkpt>
      <trkpt lat="45.36059" lon="5.71106">
        <ele>803.4</ele>
        <time>2010-12-04T09:43:30Z</time>
      </trkpt>
      <trkpt lat="45.36061" lon="5.71106">
        <ele>803.2</ele>
        <time>2010-12-04T09:43:32Z</time>
      </trkpt>
      <trkpt lat="45.36061" lon="5.71102">
        <ele>803</ele>
        <time>2010-12-04T09:43:42Z</time>
      </trkpt>
      <trkpt lat="45.36062" lon="5.71103">
        <ele>802.8</ele>
        <time>2010-12-04T09:43:47Z</time>
      </trkpt>
      <trkpt lat="45.36062" lon="5.71105">
        <ele>802.8</ele>
        <time>2010-12-04T09:43:52Z</time>
      </trkpt>
      <trkpt lat="45.36061" lon="5.71105">
        <ele>802.8</ele>
        <time>2010-12-04T09:43:53Z</time>
      </trkpt>
      <trkpt lat="45.36057" lon="5.71104">
        <ele>803.4</ele>
        <time>2010-12-04T09:43:56Z</time>
      </trkpt>
      <trkpt lat="45.36052" lon="5.71103">
        <ele>805.2</ele>
        <time>2010-12-04T09:44:01Z</time>
      </trkpt>
      <trkpt lat="45.36049" lon="5.71106">
        <ele>806</ele>
        <time>2010-12-04T09:44:07Z</time>
      </trkpt>
      <trkpt lat="45.36049" lon="5.71105">
        <ele>806.6</ele>
        <time>2010-12-04T09:44:12Z</time>
      </trkpt>
      <trkpt lat="45.36048" lon="5.71104">
        <ele>807</ele>
        <time>2010-12-04T09:44:13Z</time>
      </trkpt>
      <trkpt lat="45.36046" lon="5.711">
        <ele>808.4</ele>
        <time>2010-12-04T09:44:15Z</time>
      </trkpt>
      <trkpt lat="45.36046" lon="5.71098">
        <ele>808.8</ele>
        <time>2010-12-04T09:44:16Z</time>
      </trkpt>
      <trkpt lat="45.36047" lon="5.71096">
        <ele>809.2</ele>
        <time>2010-12-04T09:44:18Z</time>
      </trkpt>
      <trkpt lat="45.36047" lon="5.71096">
        <ele>809.4</ele>
        <time>2010-12-04T09:44:19Z</time>
      </trkpt>
      <trkpt lat="45.3605" lon="5.71092">
        <ele>811.2</ele>
        <time>2010-12-04T09:44:25Z</time>
      </trkpt>
      <trkpt lat="45.36049" lon="5.71091">
        <ele>811.8</ele>
        <time>2010-12-04T09:44:26Z</time>
      </trkpt>
      <trkpt lat="45.36049" lon="5.71089">
        <ele>812.8</ele>
        <time>2010-12-04T09:44:29Z</time>
      </trkpt>
      <trkpt lat="45.36046" lon="5.7109">
        <ele>815.4</ele>
        <time>2010-12-04T09:44:36Z</time>
      </trkpt>
      <trkpt lat="45.36043" lon="5.71091">
        <ele>817</ele>
        <time>2010-12-04T09:44:40Z</time>
      </trkpt>
      <trkpt lat="45.36042" lon="5.71091">
        <ele>817.4</ele>
        <time>2010-12-04T09:44:41Z</time>
      </trkpt>
      <trkpt lat="45.36042" lon="5.71092">
        <ele>817.4</ele>
        <time>2010-12-04T09:44:42Z</time>
      </trkpt>
      <trkpt lat="45.36041" lon="5.71093">
        <ele>818</ele>
        <time>2010-12-04T09:44:45Z</time>
      </trkpt>
      <trkpt lat="45.3604" lon="5.7109">
        <ele>818.8</ele>
        <time>2010-12-04T09:44:50Z</time>
      </trkpt>
      <trkpt lat="45.36042" lon="5.71089">
        <ele>818.8</ele>
        <time>2010-12-04T09:44:54Z</time>
      </trkpt>
      <trkpt lat="45.36044" lon="5.71094">
        <ele>818.4</ele>
        <time>2010-12-04T09:45:01Z</time>
      </trkpt>
      <trkpt lat="45.36039" lon="5.71099">
        <ele>818.4</ele>
        <time>2010-12-04T09:45:13Z</time>
      </trkpt>
      <trkpt lat="45.36036" lon="5.71098">
        <ele>818.6</ele>
        <time>2010-12-04T09:45:16Z</time>
      </trkpt>
      <trkpt lat="45.36036" lon="5.71094">
        <ele>818.6</ele>
        <time>2010-12-04T09:45:21Z</time>
      </trkpt>
      <trkpt lat="45.36037" lon="5.7109">
        <ele>819</ele>
        <time>2010-12-04T09:45:25Z</time>
      </trkpt>
      <trkpt lat="45.36037" lon="5.71087">
        <ele>818.8</ele>
        <time>2010-12-04T09:45:29Z</time>
      </trkpt>
      <trkpt lat="45.36037" lon="5.71085">
        <ele>819</ele>
        <time>2010-12-04T09:45:30Z</time>
      </trkpt>
      <trkpt lat="45.36037" lon="5.7108">
        <ele>819.8</ele>
        <time>2010-12-04T09:45:34Z</time>
      </trkpt>
      <trkpt lat="45.36036" lon="5.71076">
        <ele>820.8</ele>
        <time>2010-12-04T09:45:38Z</time>
      </trkpt>
      <trkpt lat="45.36037" lon="5.71076">
        <ele>820.8</ele>
        <time>2010-12-04T09:45:39Z</time>
      </trkpt>
      <trkpt lat="45.3604" lon="5.71074">
        <ele>821.2</ele>
        <time>2010-12-04T09:45:45Z</time>
      </trkpt>
      <trkpt lat="45.3604" lon="5.71076">
        <ele>820.8</ele>
        <time>2010-12-04T09:45:57Z</time>
      </trkpt>
      <trkpt lat="45.36035" lon="5.71078">
        <ele>821.8</ele>
        <time>2010-12-04T09:46:06Z</time>
      </trkpt>
      <trkpt lat="45.36034" lon="5.71078">
        <ele>822</ele>
        <time>2010-12-04T09:46:07Z</time>
      </trkpt>
      <trkpt lat="45.36032" lon="5.71078">
        <ele>822.4</ele>
        <time>2010-12-04T09:46:09Z</time>
      </trkpt>
      <trkpt lat="45.36031" lon="5.71078">
        <ele>822.6</ele>
        <time>2010-12-04T09:46:10Z</time>
      </trkpt>
      <trkpt lat="45.3603" lon="5.71079">
        <ele>823</ele>
        <time>2010-12-04T09:46:12Z</time>
      </trkpt>
      <trkpt lat="45.36028" lon="5.7108">
        <ele>823.8</ele>
        <time>2010-12-04T09:46:15Z</time>
      </trkpt>
      <trkpt lat="45.36027" lon="5.7108">
        <ele>823.8</ele>
        <time>2010-12-04T09:46:16Z</time>
      </trkpt>
      <trkpt lat="45.36025" lon="5.71082">
        <ele>824.6</ele>
        <time>2010-12-04T09:46:19Z</time>
      </trkpt>
      <trkpt lat="45.36024" lon="5.71081">
        <ele>825</ele>
        <time>2010-12-04T09:46:20Z</time>
      </trkpt>
      <trkpt lat="45.3602" lon="5.71081">
        <ele>827</ele>
        <time>2010-12-04T09:46:23Z</time>
      </trkpt>
      <trkpt lat="45.36017" lon="5.71082">
        <ele>829.2</ele>
        <time>2010-12-04T09:46:27Z</time>
      </trkpt>
      <trkpt lat="45.36015" lon="5.71081">
        <ele>830.6</ele>
        <time>2010-12-04T09:46:30Z</time>
      </trkpt>
      <trkpt lat="45.36014" lon="5.71084">
        <ele>831.8</ele>
        <time>2010-12-04T09:46:33Z</time>
      </trkpt>
      <trkpt lat="45.36013" lon="5.71084">
        <ele>832.6</ele>
        <time>2010-12-04T09:46:34Z</time>
      </trkpt>
      <trkpt lat="45.36012" lon="5.71087">
        <ele>834.2</ele>
        <time>2010-12-04T09:46:38Z</time>
      </trkpt>
      <trkpt lat="45.36013" lon="5.71095">
        <ele>834.4</ele>
        <time>2010-12-04T09:46:44Z</time>
      </trkpt>
      <trkpt lat="45.36013" lon="5.71096">
        <ele>834.4</ele>
        <time>2010-12-04T09:46:45Z</time>
      </trkpt>
      <trkpt lat="45.36009" lon="5.71105">
        <ele>834.8</ele>
        <time>2010-12-04T09:46:55Z</time>
      </trkpt>
      <trkpt lat="45.36008" lon="5.71108">
        <ele>834.8</ele>
        <time>2010-12-04T09:46:58Z</time>
      </trkpt>
      <trkpt lat="45.36007" lon="5.7111">
        <ele>834.8</ele>
        <time>2010-12-04T09:47:00Z</time>
      </trkpt>
      <trkpt lat="45.36007" lon="5.71112">
        <ele>834.8</ele>
        <time>2010-12-04T09:47:01Z</time>
      </trkpt>
      <trkpt lat="45.36008" lon="5.71115">
        <ele>834.6</ele>
        <time>2010-12-04T09:47:03Z</time>
      </trkpt>
      <trkpt lat="45.36008" lon="5.71117">
        <ele>834.4</ele>
        <time>2010-12-04T09:47:04Z</time>
      </trkpt>
      <trkpt lat="45.36005" lon="5.71117">
        <ele>834.4</ele>
        <time>2010-12-04T09:47:07Z</time>
      </trkpt>
      <trkpt lat="45.36004" lon="5.71118">
        <ele>834.4</ele>
        <time>2010-12-04T09:47:08Z</time>
      </trkpt>
      <trkpt lat="45.35999" lon="5.71119">
        <ele>834.4</ele>
        <time>2010-12-04T09:47:12Z</time>
      </trkpt>
      <trkpt lat="45.35996" lon="5.7112">
        <ele>835</ele>
        <time>2010-12-04T09:47:18Z</time>
      </trkpt>
      <trkpt lat="45.35992" lon="5.71123">
        <ele>836.4</ele>
        <time>2010-12-04T09:47:23Z</time>
      </trkpt>
      <trkpt lat="45.35991" lon="5.71123">
        <ele>836.6</ele>
        <time>2010-12-04T09:47:24Z</time>
      </trkpt>
      <trkpt lat="45.35989" lon="5.71123">
        <ele>837.6</ele>
        <time>2010-12-04T09:47:27Z</time>
      </trkpt>
      <trkpt lat="45.35986" lon="5.71123">
        <ele>838.8</ele>
        <time>2010-12-04T09:47:30Z</time>
      </trkpt>
      <trkpt lat="45.35986" lon="5.71124">
        <ele>839.2</ele>
        <time>2010-12-04T09:47:31Z</time>
      </trkpt>
      <trkpt lat="45.35982" lon="5.71131">
        <ele>841</ele>
        <time>2010-12-04T09:47:40Z</time>
      </trkpt>
      <trkpt lat="45.35976" lon="5.71133">
        <ele>844.4</ele>
        <time>2010-12-04T09:47:50Z</time>
      </trkpt>
      <trkpt lat="45.35975" lon="5.71133">
        <ele>845</ele>
        <time>2010-12-04T09:47:51Z</time>
      </trkpt>
      <trkpt lat="45.35974" lon="5.71133">
        <ele>845.6</ele>
        <time>2010-12-04T09:47:52Z</time>
      </trkpt>
      <trkpt lat="45.35973" lon="5.71133">
        <ele>846.4</ele>
        <time>2010-12-04T09:47:54Z</time>
      </trkpt>
      <trkpt lat="45.35971" lon="5.71134">
        <ele>847.2</ele>
        <time>2010-12-04T09:47:58Z</time>
      </trkpt>
      <trkpt lat="45.35965" lon="5.71137">
        <ele>851.8</ele>
        <time>2010-12-04T09:48:08Z</time>
      </trkpt>
      <trkpt lat="45.35964" lon="5.71138">
        <ele>852.8</ele>
        <time>2010-12-04T09:48:10Z</time>
      </trkpt>
      <trkpt lat="45.35963" lon="5.71138">
        <ele>853.6</ele>
        <time>2010-12-04T09:48:11Z</time>
      </trkpt>
      <trkpt lat="45.35961" lon="5.71141">
        <ele>855.4</ele>
        <time>2010-12-04T09:48:14Z</time>
      </trkpt>
      <trkpt lat="45.35962" lon="5.71141">
        <ele>858.8</ele>
        <time>2010-12-04T09:48:20Z</time>
      </trkpt>
      <trkpt lat="45.3596" lon="5.71142">
        <ele>862.4</ele>
        <time>2010-12-04T09:48:27Z</time>
      </trkpt>
      <trkpt lat="45.35957" lon="5.71143">
        <ele>864.4</ele>
        <time>2010-12-04T09:48:31Z</time>
      </trkpt>
      <trkpt lat="45.35955" lon="5.71146">
        <ele>865.8</ele>
        <time>2010-12-04T09:48:34Z</time>
      </trkpt>
      <trkpt lat="45.35952" lon="5.71149">
        <ele>869</ele>
        <time>2010-12-04T09:48:42Z</time>
      </trkpt>
      <trkpt lat="45.3595" lon="5.7115">
        <ele>869.8</ele>
        <time>2010-12-04T09:48:46Z</time>
      </trkpt>
      <trkpt lat="45.35946" lon="5.71151">
        <ele>871.8</ele>
        <time>2010-12-04T09:48:52Z</time>
      </trkpt>
      <trkpt lat="45.35952" lon="5.71152">
        <ele>871.4</ele>
        <time>2010-12-04T09:48:59Z</time>
      </trkpt>
      <trkpt lat="45.35953" lon="5.7115">
        <ele>871.4</ele>
        <time>2010-12-04T09:49:02Z</time>
      </trkpt>
      <trkpt lat="45.35953" lon="5.7115">
        <ele>871.2</ele>
        <time>2010-12-04T09:49:03Z</time>
      </trkpt>
      <trkpt lat="45.35954" lon="5.71149">
        <ele>871.2</ele>
        <time>2010-12-04T09:49:04Z</time>
      </trkpt>
      <trkpt lat="45.35954" lon="5.71147">
        <ele>871</ele>
        <time>2010-12-04T09:49:06Z</time>
      </trkpt>
      <trkpt lat="45.35955" lon="5.71146">
        <ele>871</ele>
        <time>2010-12-04T09:49:08Z</time>
      </trkpt>
      <trkpt lat="45.35956" lon="5.71143">
        <ele>870.6</ele>
        <time>2010-12-04T09:49:11Z</time>
      </trkpt>
      <trkpt lat="45.35952" lon="5.71145">
        <ele>870.4</ele>
        <time>2010-12-04T09:49:18Z</time>
      </trkpt>
      <trkpt lat="45.3595" lon="5.71146">
        <ele>871</ele>
        <time>2010-12-04T09:49:21Z</time>
      </trkpt>
      <trkpt lat="45.35948" lon="5.71148">
        <ele>871.8</ele>
        <time>2010-12-04T09:49:25Z</time>
      </trkpt>
      <trkpt lat="45.35946" lon="5.71149">
        <ele>873</ele>
        <time>2010-12-04T09:49:29Z</time>
      </trkpt>
      <trkpt lat="45.35948" lon="5.71144">
        <ele>872.6</ele>
        <time>2010-12-04T09:49:54Z</time>
      </trkpt>
      <trkpt lat="45.35949" lon="5.71144">
        <ele>871.2</ele>
        <time>2010-12-04T09:50:06Z</time>
      </trkpt>
      <trkpt lat="45.35951" lon="5.71143">
        <ele>871</ele>
        <time>2010-12-04T09:50:09Z</time>
      </trkpt>
      <trkpt lat="45.35949" lon="5.7114">
        <ele>870.8</ele>
        <time>2010-12-04T09:50:12Z</time>
      </trkpt>
      <trkpt lat="45.35949" lon="5.71138">
        <ele>870.8</ele>
        <time>2010-12-04T09:50:14Z</time>
      </trkpt>
      <trkpt lat="45.35947" lon="5.71132">
        <ele>870.8</ele>
        <time>2010-12-04T09:50:20Z</time>
      </trkpt>
      <trkpt lat="45.35943" lon="5.71133">
        <ele>871.4</ele>
        <time>2010-12-04T09:50:28Z</time>
      </trkpt>
      <trkpt lat="45.35943" lon="5.71135">
        <ele>871.8</ele>
        <time>2010-12-04T09:50:30Z</time>
      </trkpt>
      <trkpt lat="45.3594" lon="5.71137">
        <ele>872.2</ele>
        <time>2010-12-04T09:50:32Z</time>
      </trkpt>
      <trkpt lat="45.35939" lon="5.71139">
        <ele>873.6</ele>
        <time>2010-12-04T09:50:35Z</time>
      </trkpt>
      <trkpt lat="45.35938" lon="5.7114">
        <ele>874</ele>
        <time>2010-12-04T09:50:36Z</time>
      </trkpt>
      <trkpt lat="45.35937" lon="5.71142">
        <ele>875.8</ele>
        <time>2010-12-04T09:50:42Z</time>
      </trkpt>
      <trkpt lat="45.35935" lon="5.71144">
        <ele>877.4</ele>
        <time>2010-12-04T09:50:47Z</time>
      </trkpt>
      <trkpt lat="45.35933" lon="5.71144">
        <ele>878.8</ele>
        <time>2010-12-04T09:50:50Z</time>
      </trkpt>
      <trkpt lat="45.35931" lon="5.71146">
        <ele>880.4</ele>
        <time>2010-12-04T09:50:58Z</time>
      </trkpt>
      <trkpt lat="45.35929" lon="5.71147">
        <ele>881.2</ele>
        <time>2010-12-04T09:51:00Z</time>
      </trkpt>
      <trkpt lat="45.3593" lon="5.71152">
        <ele>882.6</ele>
        <time>2010-12-04T09:51:07Z</time>
      </trkpt>
      <trkpt lat="45.35924" lon="5.71152">
        <ele>883.8</ele>
        <time>2010-12-04T09:51:09Z</time>
      </trkpt>
      <trkpt lat="45.3592" lon="5.71153">
        <ele>885.6</ele>
        <time>2010-12-04T09:51:12Z</time>
      </trkpt>
      <trkpt lat="45.35919" lon="5.71153">
        <ele>888.8</ele>
        <time>2010-12-04T09:51:16Z</time>
      </trkpt>
      <trkpt lat="45.3592" lon="5.71156">
        <ele>890</ele>
        <time>2010-12-04T09:51:20Z</time>
      </trkpt>
      <trkpt lat="45.35919" lon="5.71158">
        <ele>891</ele>
        <time>2010-12-04T09:51:22Z</time>
      </trkpt>
      <trkpt lat="45.35919" lon="5.71159">
        <ele>891.2</ele>
        <time>2010-12-04T09:51:23Z</time>
      </trkpt>
      <trkpt lat="45.35919" lon="5.7116">
        <ele>892.2</ele>
        <time>2010-12-04T09:51:25Z</time>
      </trkpt>
      <trkpt lat="45.35931" lon="5.71171">
        <ele>892.2</ele>
        <time>2010-12-04T09:51:37Z</time>
      </trkpt>
      <trkpt lat="45.35933" lon="5.71176">
        <ele>892</ele>
        <time>2010-12-04T09:51:40Z</time>
      </trkpt>
      <trkpt lat="45.35933" lon="5.71177">
        <ele>891.8</ele>
        <time>2010-12-04T09:51:42Z</time>
      </trkpt>
      <trkpt lat="45.35931" lon="5.7118">
        <ele>891.6</ele>
        <time>2010-12-04T09:51:47Z</time>
      </trkpt>
      <trkpt lat="45.35931" lon="5.71181">
        <ele>891.6</ele>
        <time>2010-12-04T09:51:48Z</time>
      </trkpt>
      <trkpt lat="45.35929" lon="5.71184">
        <ele>891.2</ele>
        <time>2010-12-04T09:51:51Z</time>
      </trkpt>
      <trkpt lat="45.35929" lon="5.71188">
        <ele>890.8</ele>
        <time>2010-12-04T09:51:55Z</time>
      </trkpt>
      <trkpt lat="45.35929" lon="5.7119">
        <ele>890.4</ele>
        <time>2010-12-04T09:51:58Z</time>
      </trkpt>
      <trkpt lat="45.35927" lon="5.7119">
        <ele>890.2</ele>
        <time>2010-12-04T09:52:00Z</time>
      </trkpt>
      <trkpt lat="45.35925" lon="5.71192">
        <ele>889.8</ele>
        <time>2010-12-04T09:52:03Z</time>
      </trkpt>
      <trkpt lat="45.35926" lon="5.71192">
        <ele>889.8</ele>
        <time>2010-12-04T09:52:05Z</time>
      </trkpt>
      <trkpt lat="45.35926" lon="5.71195">
        <ele>889.4</ele>
        <time>2010-12-04T09:52:08Z</time>
      </trkpt>
      <trkpt lat="45.35925" lon="5.71196">
        <ele>889.2</ele>
        <time>2010-12-04T09:52:10Z</time>
      </trkpt>
      <trkpt lat="45.35922" lon="5.71198">
        <ele>889</ele>
        <time>2010-12-04T09:52:12Z</time>
      </trkpt>
      <trkpt lat="45.35917" lon="5.71198">
        <ele>888.8</ele>
        <time>2010-12-04T09:52:20Z</time>
      </trkpt>
      <trkpt lat="45.35912" lon="5.71202">
        <ele>888.8</ele>
        <time>2010-12-04T09:52:29Z</time>
      </trkpt>
      <trkpt lat="45.3591" lon="5.71204">
        <ele>889</ele>
        <time>2010-12-04T09:52:32Z</time>
      </trkpt>
      <trkpt lat="45.35907" lon="5.71214">
        <ele>888.2</ele>
        <time>2010-12-04T09:52:42Z</time>
      </trkpt>
      <trkpt lat="45.35907" lon="5.71216">
        <ele>888</ele>
        <time>2010-12-04T09:52:44Z</time>
      </trkpt>
      <trkpt lat="45.35905" lon="5.71218">
        <ele>888</ele>
        <time>2010-12-04T09:52:47Z</time>
      </trkpt>
      <trkpt lat="45.35905" lon="5.71221">
        <ele>887.8</ele>
        <time>2010-12-04T09:52:53Z</time>
      </trkpt>
      <trkpt lat="45.35901" lon="5.71225">
        <ele>887.8</ele>
        <time>2010-12-04T09:52:58Z</time>
      </trkpt>
      <trkpt lat="45.359" lon="5.71225">
        <ele>888.2</ele>
        <time>2010-12-04T09:52:59Z</time>
      </trkpt>
      <trkpt lat="45.35899" lon="5.71228">
        <ele>888.6</ele>
        <time>2010-12-04T09:53:01Z</time>
      </trkpt>
      <trkpt lat="45.35897" lon="5.7123">
        <ele>889.2</ele>
        <time>2010-12-04T09:53:03Z</time>
      </trkpt>
      <trkpt lat="45.35897" lon="5.71231">
        <ele>889.2</ele>
        <time>2010-12-04T09:53:04Z</time>
      </trkpt>
      <trkpt lat="45.35896" lon="5.71232">
        <ele>889.4</ele>
        <time>2010-12-04T09:53:06Z</time>
      </trkpt>
      <trkpt lat="45.35895" lon="5.71233">
        <ele>889.4</ele>
        <time>2010-12-04T09:53:07Z</time>
      </trkpt>
      <trkpt lat="45.35893" lon="5.71234">
        <ele>890.4</ele>
        <time>2010-12-04T09:53:09Z</time>
      </trkpt>
      <trkpt lat="45.35894" lon="5.71236">
        <ele>890.8</ele>
        <time>2010-12-04T09:53:11Z</time>
      </trkpt>
      <trkpt lat="45.35896" lon="5.71241">
        <ele>891.2</ele>
        <time>2010-12-04T09:53:20Z</time>
      </trkpt>
      <trkpt lat="45.35894" lon="5.71241">
        <ele>892</ele>
        <time>2010-12-04T09:53:23Z</time>
      </trkpt>
      <trkpt lat="45.35889" lon="5.71245">
        <ele>893.2</ele>
        <time>2010-12-04T09:53:29Z</time>
      </trkpt>
      <trkpt lat="45.35886" lon="5.71248">
        <ele>893.6</ele>
        <time>2010-12-04T09:53:32Z</time>
      </trkpt>
      <trkpt lat="45.35885" lon="5.71248">
        <ele>894</ele>
        <time>2010-12-04T09:53:33Z</time>
      </trkpt>
      <trkpt lat="45.35882" lon="5.71249">
        <ele>894.2</ele>
        <time>2010-12-04T09:53:35Z</time>
      </trkpt>
      <trkpt lat="45.3588" lon="5.71253">
        <ele>894</ele>
        <time>2010-12-04T09:53:39Z</time>
      </trkpt>
      <trkpt lat="45.3588" lon="5.71254">
        <ele>894</ele>
        <time>2010-12-04T09:53:40Z</time>
      </trkpt>
      <trkpt lat="45.3588" lon="5.71256">
        <ele>894</ele>
        <time>2010-12-04T09:53:41Z</time>
      </trkpt>
      <trkpt lat="45.35878" lon="5.71257">
        <ele>894.6</ele>
        <time>2010-12-04T09:53:43Z</time>
      </trkpt>
      <trkpt lat="45.35877" lon="5.71258">
        <ele>895</ele>
        <time>2010-12-04T09:53:44Z</time>
      </trkpt>
      <trkpt lat="45.35875" lon="5.71265">
        <ele>895.2</ele>
        <time>2010-12-04T09:53:51Z</time>
      </trkpt>
      <trkpt lat="45.35877" lon="5.71268">
        <ele>895.6</ele>
        <time>2010-12-04T09:53:54Z</time>
      </trkpt>
      <trkpt lat="45.35878" lon="5.71269">
        <ele>896</ele>
        <time>2010-12-04T09:53:55Z</time>
      </trkpt>
      <trkpt lat="45.3588" lon="5.71271">
        <ele>896.2</ele>
        <time>2010-12-04T09:53:57Z</time>
      </trkpt>
      <trkpt lat="45.35875" lon="5.71272">
        <ele>896.6</ele>
        <time>2010-12-04T09:53:59Z</time>
      </trkpt>
      <trkpt lat="45.35875" lon="5.71275">
        <ele>896.4</ele>
        <time>2010-12-04T09:54:01Z</time>
      </trkpt>
      <trkpt lat="45.35875" lon="5.71276">
        <ele>896.4</ele>
        <time>2010-12-04T09:54:02Z</time>
      </trkpt>
      <trkpt lat="45.35878" lon="5.7128">
        <ele>896.8</ele>
        <time>2010-12-04T09:54:05Z</time>
      </trkpt>
      <trkpt lat="45.35875" lon="5.71282">
        <ele>896.6</ele>
        <time>2010-12-04T09:54:08Z</time>
      </trkpt>
      <trkpt lat="45.35875" lon="5.71282">
        <ele>896.6</ele>
        <time>2010-12-04T09:54:09Z</time>
      </trkpt>
      <trkpt lat="45.35874" lon="5.71284">
        <ele>897.2</ele>
        <time>2010-12-04T09:54:15Z</time>
      </trkpt>
      <trkpt lat="45.35872" lon="5.71284">
        <ele>897.6</ele>
        <time>2010-12-04T09:54:17Z</time>
      </trkpt>
      <trkpt lat="45.35872" lon="5.71286">
        <ele>897.6</ele>
        <time>2010-12-04T09:54:19Z</time>
      </trkpt>
      <trkpt lat="45.35864" lon="5.71292">
        <ele>900.4</ele>
        <time>2010-12-04T09:54:30Z</time>
      </trkpt>
      <trkpt lat="45.35863" lon="5.71294">
        <ele>901.8</ele>
        <time>2010-12-04T09:54:33Z</time>
      </trkpt>
      <trkpt lat="45.35859" lon="5.71302">
        <ele>910.2</ele>
        <time>2010-12-04T09:54:45Z</time>
      </trkpt>
      <trkpt lat="45.3587" lon="5.71302">
        <ele>912.2</ele>
        <time>2010-12-04T09:54:53Z</time>
      </trkpt>
      <trkpt lat="45.3587" lon="5.71304">
        <ele>913.2</ele>
        <time>2010-12-04T09:54:56Z</time>
      </trkpt>
      <trkpt lat="45.35871" lon="5.71306">
        <ele>914</ele>
        <time>2010-12-04T09:55:00Z</time>
      </trkpt>
      <trkpt lat="45.35872" lon="5.71309">
        <ele>914.4</ele>
        <time>2010-12-04T09:55:03Z</time>
      </trkpt>
      <trkpt lat="45.3588" lon="5.7131">
        <ele>914.4</ele>
        <time>2010-12-04T09:55:09Z</time>
      </trkpt>
      <trkpt lat="45.35874" lon="5.71315">
        <ele>914.2</ele>
        <time>2010-12-04T09:55:15Z</time>
      </trkpt>
      <trkpt lat="45.35873" lon="5.71318">
        <ele>914</ele>
        <time>2010-12-04T09:55:21Z</time>
      </trkpt>
      <trkpt lat="45.35872" lon="5.7132">
        <ele>914</ele>
        <time>2010-12-04T09:55:24Z</time>
      </trkpt>
      <trkpt lat="45.35873" lon="5.71323">
        <ele>914</ele>
        <time>2010-12-04T09:55:28Z</time>
      </trkpt>
      <trkpt lat="45.35874" lon="5.71325">
        <ele>914</ele>
        <time>2010-12-04T09:55:31Z</time>
      </trkpt>
      <trkpt lat="45.35876" lon="5.71327">
        <ele>914</ele>
        <time>2010-12-04T09:55:33Z</time>
      </trkpt>
      <trkpt lat="45.35876" lon="5.71328">
        <ele>914</ele>
        <time>2010-12-04T09:55:34Z</time>
      </trkpt>
      <trkpt lat="45.35877" lon="5.71329">
        <ele>914</ele>
        <time>2010-12-04T09:55:36Z</time>
      </trkpt>
      <trkpt lat="45.35876" lon="5.71332">
        <ele>914</ele>
        <time>2010-12-04T09:55:42Z</time>
      </trkpt>
      <trkpt lat="45.35876" lon="5.71333">
        <ele>914.2</ele>
        <time>2010-12-04T09:55:46Z</time>
      </trkpt>
      <trkpt lat="45.35877" lon="5.71336">
        <ele>914.4</ele>
        <time>2010-12-04T09:55:49Z</time>
      </trkpt>
      <trkpt lat="45.35877" lon="5.71337">
        <ele>914.4</ele>
        <time>2010-12-04T09:55:50Z</time>
      </trkpt>
      <trkpt lat="45.35878" lon="5.71339">
        <ele>915</ele>
        <time>2010-12-04T09:55:53Z</time>
      </trkpt>
      <trkpt lat="45.35877" lon="5.71344">
        <ele>916.2</ele>
        <time>2010-12-04T09:55:59Z</time>
      </trkpt>
      <trkpt lat="45.35875" lon="5.71344">
        <ele>916.4</ele>
        <time>2010-12-04T09:56:00Z</time>
      </trkpt>
      <trkpt lat="45.35877" lon="5.71347">
        <ele>916.4</ele>
        <time>2010-12-04T09:56:03Z</time>
      </trkpt>
      <trkpt lat="45.35874" lon="5.71348">
        <ele>916.4</ele>
        <time>2010-12-04T09:56:05Z</time>
      </trkpt>
      <trkpt lat="45.35872" lon="5.71349">
        <ele>918</ele>
        <time>2010-12-04T09:56:19Z</time>
      </trkpt>
      <trkpt lat="45.35869" lon="5.71351">
        <ele>920</ele>
        <time>2010-12-04T09:56:29Z</time>
      </trkpt>
      <trkpt lat="45.35868" lon="5.7135">
        <ele>920.4</ele>
        <time>2010-12-04T09:56:32Z</time>
      </trkpt>
      <trkpt lat="45.35867" lon="5.7135">
        <ele>920.4</ele>
        <time>2010-12-04T09:56:35Z</time>
      </trkpt>
      <trkpt lat="45.35868" lon="5.7135">
        <ele>921.6</ele>
        <time>2010-12-04T09:56:45Z</time>
      </trkpt>
      <trkpt lat="45.35869" lon="5.71351">
        <ele>921.8</ele>
        <time>2010-12-04T09:56:48Z</time>
      </trkpt>
      <trkpt lat="45.35866" lon="5.71351">
        <ele>922.8</ele>
        <time>2010-12-04T09:56:51Z</time>
      </trkpt>
      <trkpt lat="45.35863" lon="5.71351">
        <ele>922.6</ele>
        <time>2010-12-04T09:56:53Z</time>
      </trkpt>
      <trkpt lat="45.35862" lon="5.7135">
        <ele>923.8</ele>
        <time>2010-12-04T09:56:58Z</time>
      </trkpt>
      <trkpt lat="45.3586" lon="5.71347">
        <ele>925.2</ele>
        <time>2010-12-04T09:57:04Z</time>
      </trkpt>
      <trkpt lat="45.3586" lon="5.71348">
        <ele>925.8</ele>
        <time>2010-12-04T09:57:11Z</time>
      </trkpt>
      <trkpt lat="45.3586" lon="5.71351">
        <ele>926.4</ele>
        <time>2010-12-04T09:57:16Z</time>
      </trkpt>
      <trkpt lat="45.35859" lon="5.71353">
        <ele>926.6</ele>
        <time>2010-12-04T09:57:19Z</time>
      </trkpt>
      <trkpt lat="45.35857" lon="5.71355">
        <ele>927</ele>
        <time>2010-12-04T09:57:23Z</time>
      </trkpt>
      <trkpt lat="45.35856" lon="5.71359">
        <ele>927.2</ele>
        <time>2010-12-04T09:57:28Z</time>
      </trkpt>
      <trkpt lat="45.35856" lon="5.71363">
        <ele>927.4</ele>
        <time>2010-12-04T09:57:33Z</time>
      </trkpt>
      <trkpt lat="45.35855" lon="5.71366">
        <ele>927.6</ele>
        <time>2010-12-04T09:57:37Z</time>
      </trkpt>
      <trkpt lat="45.35856" lon="5.71369">
        <ele>927.4</ele>
        <time>2010-12-04T09:57:42Z</time>
      </trkpt>
      <trkpt lat="45.35854" lon="5.7137">
        <ele>927.6</ele>
        <time>2010-12-04T09:57:45Z</time>
      </trkpt>
      <trkpt lat="45.35851" lon="5.71373">
        <ele>928.6</ele>
        <time>2010-12-04T09:57:50Z</time>
      </trkpt>
      <trkpt lat="45.35849" lon="5.71373">
        <ele>929</ele>
        <time>2010-12-04T09:57:53Z</time>
      </trkpt>
      <trkpt lat="45.35847" lon="5.71373">
        <ele>929.6</ele>
        <time>2010-12-04T09:57:55Z</time>
      </trkpt>
      <trkpt lat="45.35844" lon="5.71373">
        <ele>930.2</ele>
        <time>2010-12-04T09:57:57Z</time>
      </trkpt>
      <trkpt lat="45.35842" lon="5.71372">
        <ele>931.4</ele>
        <time>2010-12-04T09:58:00Z</time>
      </trkpt>
      <trkpt lat="45.35841" lon="5.71373">
        <ele>931.6</ele>
        <time>2010-12-04T09:58:02Z</time>
      </trkpt>
      <trkpt lat="45.3584" lon="5.71376">
        <ele>932.6</ele>
        <time>2010-12-04T09:58:08Z</time>
      </trkpt>
      <trkpt lat="45.35833" lon="5.71376">
        <ele>934.8</ele>
        <time>2010-12-04T09:58:17Z</time>
      </trkpt>
      <trkpt lat="45.35832" lon="5.71376">
        <ele>935</ele>
        <time>2010-12-04T09:58:18Z</time>
      </trkpt>
      <trkpt lat="45.35833" lon="5.71379">
        <ele>936.4</ele>
        <time>2010-12-04T09:58:24Z</time>
      </trkpt>
      <trkpt lat="45.35828" lon="5.71384">
        <ele>938.4</ele>
        <time>2010-12-04T09:58:35Z</time>
      </trkpt>
      <trkpt lat="45.35827" lon="5.71384">
        <ele>939.2</ele>
        <time>2010-12-04T09:58:37Z</time>
      </trkpt>
      <trkpt lat="45.35818" lon="5.71391">
        <ele>944.6</ele>
        <time>2010-12-04T09:58:58Z</time>
      </trkpt>
      <trkpt lat="45.35819" lon="5.71397">
        <ele>949</ele>
        <time>2010-12-04T09:59:09Z</time>
      </trkpt>
      <trkpt lat="45.35815" lon="5.71397">
        <ele>949.2</ele>
        <time>2010-12-04T09:59:10Z</time>
      </trkpt>
      <trkpt lat="45.35814" lon="5.71398">
        <ele>949.8</ele>
        <time>2010-12-04T09:59:12Z</time>
      </trkpt>
      <trkpt lat="45.35818" lon="5.71396">
        <ele>952.4</ele>
        <time>2010-12-04T09:59:22Z</time>
      </trkpt>
      <trkpt lat="45.35814" lon="5.71396">
        <ele>953</ele>
        <time>2010-12-04T09:59:25Z</time>
      </trkpt>
      <trkpt lat="45.35811" lon="5.71402">
        <ele>952.8</ele>
        <time>2010-12-04T09:59:42Z</time>
      </trkpt>
      <trkpt lat="45.35809" lon="5.71401">
        <ele>964.4</ele>
        <time>2010-12-04T10:00:19Z</time>
      </trkpt>
      <trkpt lat="45.35807" lon="5.71402">
        <ele>964.4</ele>
        <time>2010-12-04T10:00:22Z</time>
      </trkpt>
      <trkpt lat="45.35807" lon="5.71403">
        <ele>964.6</ele>
        <time>2010-12-04T10:00:23Z</time>
      </trkpt>
      <trkpt lat="45.3581" lon="5.71405">
        <ele>964.8</ele>
        <time>2010-12-04T10:00:25Z</time>
      </trkpt>
      <trkpt lat="45.35814" lon="5.71406">
        <ele>965</ele>
        <time>2010-12-04T10:00:27Z</time>
      </trkpt>
      <trkpt lat="45.35815" lon="5.7141">
        <ele>965.6</ele>
        <time>2010-12-04T10:00:33Z</time>
      </trkpt>
      <trkpt lat="45.35807" lon="5.71411">
        <ele>965.2</ele>
        <time>2010-12-04T10:00:39Z</time>
      </trkpt>
      <trkpt lat="45.35804" lon="5.71414">
        <ele>964.8</ele>
        <time>2010-12-04T10:00:42Z</time>
      </trkpt>
      <trkpt lat="45.35807" lon="5.71419">
        <ele>964.2</ele>
        <time>2010-12-04T10:00:49Z</time>
      </trkpt>
      <trkpt lat="45.35811" lon="5.71421">
        <ele>963.8</ele>
        <time>2010-12-04T10:00:54Z</time>
      </trkpt>
      <trkpt lat="45.35811" lon="5.71424">
        <ele>964</ele>
        <time>2010-12-04T10:00:56Z</time>
      </trkpt>
      <trkpt lat="45.35812" lon="5.71425">
        <ele>963.8</ele>
        <time>2010-12-04T10:00:58Z</time>
      </trkpt>
      <trkpt lat="45.35811" lon="5.71426">
        <ele>963.8</ele>
        <time>2010-12-04T10:00:59Z</time>
      </trkpt>
      <trkpt lat="45.35803" lon="5.71428">
        <ele>964</ele>
        <time>2010-12-04T10:01:02Z</time>
      </trkpt>
      <trkpt lat="45.3581" lon="5.71427">
        <ele>964</ele>
        <time>2010-12-04T10:01:06Z</time>
      </trkpt>
      <trkpt lat="45.35804" lon="5.71429">
        <ele>963.8</ele>
        <time>2010-12-04T10:01:14Z</time>
      </trkpt>
      <trkpt lat="45.35804" lon="5.71428">
        <ele>964.2</ele>
        <time>2010-12-04T10:01:17Z</time>
      </trkpt>
      <trkpt lat="45.35804" lon="5.71427">
        <ele>964.2</ele>
        <time>2010-12-04T10:01:19Z</time>
      </trkpt>
      <trkpt lat="45.35805" lon="5.71425">
        <ele>965</ele>
        <time>2010-12-04T10:01:22Z</time>
      </trkpt>
      <trkpt lat="45.35808" lon="5.71423">
        <ele>965.6</ele>
        <time>2010-12-04T10:01:25Z</time>
      </trkpt>
      <trkpt lat="45.35805" lon="5.71424">
        <ele>965.6</ele>
        <time>2010-12-04T10:01:27Z</time>
      </trkpt>
      <trkpt lat="45.35802" lon="5.71425">
        <ele>965.4</ele>
        <time>2010-12-04T10:01:30Z</time>
      </trkpt>
      <trkpt lat="45.35802" lon="5.71427">
        <ele>965.6</ele>
        <time>2010-12-04T10:01:33Z</time>
      </trkpt>
      <trkpt lat="45.35795" lon="5.71424">
        <ele>966.8</ele>
        <time>2010-12-04T10:01:46Z</time>
      </trkpt>
      <trkpt lat="45.35793" lon="5.71421">
        <ele>967.4</ele>
        <time>2010-12-04T10:01:49Z</time>
      </trkpt>
      <trkpt lat="45.35793" lon="5.7142">
        <ele>967.4</ele>
        <time>2010-12-04T10:01:50Z</time>
      </trkpt>
      <trkpt lat="45.35794" lon="5.71419">
        <ele>967.4</ele>
        <time>2010-12-04T10:01:51Z</time>
      </trkpt>
      <trkpt lat="45.35792" lon="5.71418">
        <ele>967.6</ele>
        <time>2010-12-04T10:01:53Z</time>
      </trkpt>
      <trkpt lat="45.35791" lon="5.71413">
        <ele>968</ele>
        <time>2010-12-04T10:01:56Z</time>
      </trkpt>
      <trkpt lat="45.35791" lon="5.71412">
        <ele>968.2</ele>
        <time>2010-12-04T10:01:58Z</time>
      </trkpt>
      <trkpt lat="45.35788" lon="5.71409">
        <ele>968.6</ele>
        <time>2010-12-04T10:02:01Z</time>
      </trkpt>
      <trkpt lat="45.35786" lon="5.71407">
        <ele>968.6</ele>
        <time>2010-12-04T10:02:02Z</time>
      </trkpt>
      <trkpt lat="45.35787" lon="5.71405">
        <ele>968.8</ele>
        <time>2010-12-04T10:02:06Z</time>
      </trkpt>
      <trkpt lat="45.35784" lon="5.71401">
        <ele>969</ele>
        <time>2010-12-04T10:02:12Z</time>
      </trkpt>
      <trkpt lat="45.35786" lon="5.71399">
        <ele>969.6</ele>
        <time>2010-12-04T10:02:17Z</time>
      </trkpt>
      <trkpt lat="45.35785" lon="5.714">
        <ele>969.8</ele>
        <time>2010-12-04T10:02:22Z</time>
      </trkpt>
      <trkpt lat="45.35785" lon="5.71398">
        <ele>970.4</ele>
        <time>2010-12-04T10:02:26Z</time>
      </trkpt>
      <trkpt lat="45.35782" lon="5.71398">
        <ele>970.6</ele>
        <time>2010-12-04T10:02:31Z</time>
      </trkpt>
      <trkpt lat="45.3578" lon="5.71397">
        <ele>971</ele>
        <time>2010-12-04T10:02:34Z</time>
      </trkpt>
      <trkpt lat="45.35778" lon="5.71396">
        <ele>971.6</ele>
        <time>2010-12-04T10:02:36Z</time>
      </trkpt>
      <trkpt lat="45.35777" lon="5.71395">
        <ele>972.4</ele>
        <time>2010-12-04T10:02:39Z</time>
      </trkpt>
      <trkpt lat="45.35774" lon="5.71395">
        <ele>972.6</ele>
        <time>2010-12-04T10:02:42Z</time>
      </trkpt>
      <trkpt lat="45.35773" lon="5.71397">
        <ele>972.8</ele>
        <time>2010-12-04T10:02:44Z</time>
      </trkpt>
      <trkpt lat="45.35772" lon="5.71397">
        <ele>973</ele>
        <time>2010-12-04T10:02:45Z</time>
      </trkpt>
      <trkpt lat="45.35772" lon="5.71399">
        <ele>973</ele>
        <time>2010-12-04T10:02:46Z</time>
      </trkpt>
      <trkpt lat="45.35771" lon="5.714">
        <ele>973.4</ele>
        <time>2010-12-04T10:02:51Z</time>
      </trkpt>
      <trkpt lat="45.35765" lon="5.71392">
        <ele>973.2</ele>
        <time>2010-12-04T10:03:18Z</time>
      </trkpt>
      <trkpt lat="45.35768" lon="5.71391">
        <ele>973.2</ele>
        <time>2010-12-04T10:03:23Z</time>
      </trkpt>
      <trkpt lat="45.35766" lon="5.71393">
        <ele>974.4</ele>
        <time>2010-12-04T10:03:32Z</time>
      </trkpt>
      <trkpt lat="45.35767" lon="5.71396">
        <ele>975.2</ele>
        <time>2010-12-04T10:03:38Z</time>
      </trkpt>
      <trkpt lat="45.35767" lon="5.71396">
        <ele>975.2</ele>
        <time>2010-12-04T10:03:39Z</time>
      </trkpt>
      <trkpt lat="45.35758" lon="5.71399">
        <ele>977.4</ele>
        <time>2010-12-04T10:03:45Z</time>
      </trkpt>
      <trkpt lat="45.35758" lon="5.71399">
        <ele>977.8</ele>
        <time>2010-12-04T10:03:47Z</time>
      </trkpt>
      <trkpt lat="45.35757" lon="5.71397">
        <ele>977.6</ele>
        <time>2010-12-04T10:03:50Z</time>
      </trkpt>
      <trkpt lat="45.35758" lon="5.71393">
        <ele>977.8</ele>
        <time>2010-12-04T10:03:54Z</time>
      </trkpt>
      <trkpt lat="45.35762" lon="5.71386">
        <ele>978.6</ele>
        <time>2010-12-04T10:04:03Z</time>
      </trkpt>
      <trkpt lat="45.35762" lon="5.71383">
        <ele>978.6</ele>
        <time>2010-12-04T10:04:06Z</time>
      </trkpt>
      <trkpt lat="45.35759" lon="5.71379">
        <ele>978.8</ele>
        <time>2010-12-04T10:04:08Z</time>
      </trkpt>
      <trkpt lat="45.35757" lon="5.71377">
        <ele>979</ele>
        <time>2010-12-04T10:04:09Z</time>
      </trkpt>
      <trkpt lat="45.35756" lon="5.71375">
        <ele>980</ele>
        <time>2010-12-04T10:04:12Z</time>
      </trkpt>
      <trkpt lat="45.35755" lon="5.71371">
        <ele>981.4</ele>
        <time>2010-12-04T10:04:17Z</time>
      </trkpt>
      <trkpt lat="45.35757" lon="5.71368">
        <ele>982.6</ele>
        <time>2010-12-04T10:04:21Z</time>
      </trkpt>
      <trkpt lat="45.3576" lon="5.71365">
        <ele>983.4</ele>
        <time>2010-12-04T10:04:23Z</time>
      </trkpt>
      <trkpt lat="45.35759" lon="5.71363">
        <ele>984.6</ele>
        <time>2010-12-04T10:04:26Z</time>
      </trkpt>
      <trkpt lat="45.35758" lon="5.71362">
        <ele>984.8</ele>
        <time>2010-12-04T10:04:27Z</time>
      </trkpt>
      <trkpt lat="45.35756" lon="5.71361">
        <ele>985.4</ele>
        <time>2010-12-04T10:04:30Z</time>
      </trkpt>
      <trkpt lat="45.35754" lon="5.71357">
        <ele>985.8</ele>
        <time>2010-12-04T10:04:33Z</time>
      </trkpt>
      <trkpt lat="45.35754" lon="5.71354">
        <ele>986.6</ele>
        <time>2010-12-04T10:04:36Z</time>
      </trkpt>
      <trkpt lat="45.35755" lon="5.71351">
        <ele>987</ele>
        <time>2010-12-04T10:04:39Z</time>
      </trkpt>
      <trkpt lat="45.35757" lon="5.7134">
        <ele>989</ele>
        <time>2010-12-04T10:04:51Z</time>
      </trkpt>
      <trkpt lat="45.35757" lon="5.71337">
        <ele>989.8</ele>
        <time>2010-12-04T10:04:54Z</time>
      </trkpt>
      <trkpt lat="45.35757" lon="5.71336">
        <ele>989.8</ele>
        <time>2010-12-04T10:04:55Z</time>
      </trkpt>
      <trkpt lat="45.35755" lon="5.71333">
        <ele>990.4</ele>
        <time>2010-12-04T10:04:58Z</time>
      </trkpt>
      <trkpt lat="45.35756" lon="5.71331">
        <ele>990.8</ele>
        <time>2010-12-04T10:05:01Z</time>
      </trkpt>
      <trkpt lat="45.35753" lon="5.71329">
        <ele>991.2</ele>
        <time>2010-12-04T10:05:04Z</time>
      </trkpt>
      <trkpt lat="45.3575" lon="5.71335">
        <ele>993.4</ele>
        <time>2010-12-04T10:05:18Z</time>
      </trkpt>
      <trkpt lat="45.35749" lon="5.71339">
        <ele>994</ele>
        <time>2010-12-04T10:05:23Z</time>
      </trkpt>
      <trkpt lat="45.35747" lon="5.7134">
        <ele>994.4</ele>
        <time>2010-12-04T10:05:32Z</time>
      </trkpt>
      <trkpt lat="45.35745" lon="5.71336">
        <ele>994.8</ele>
        <time>2010-12-04T10:05:37Z</time>
      </trkpt>
      <trkpt lat="45.35745" lon="5.71332">
        <ele>995.6</ele>
        <time>2010-12-04T10:05:41Z</time>
      </trkpt>
      <trkpt lat="45.35747" lon="5.71333">
        <ele>996.8</ele>
        <time>2010-12-04T10:05:58Z</time>
      </trkpt>
      <trkpt lat="45.3574" lon="5.71331">
        <ele>1003</ele>
        <time>2010-12-04T10:06:20Z</time>
      </trkpt>
      <trkpt lat="45.35741" lon="5.71328">
        <ele>1003.8</ele>
        <time>2010-12-04T10:06:23Z</time>
      </trkpt>
      <trkpt lat="45.3574" lon="5.71327">
        <ele>1004.2</ele>
        <time>2010-12-04T10:06:24Z</time>
      </trkpt>
      <trkpt lat="45.35738" lon="5.71324">
        <ele>1005</ele>
        <time>2010-12-04T10:06:27Z</time>
      </trkpt>
      <trkpt lat="45.35739" lon="5.71323">
        <ele>1005.2</ele>
        <time>2010-12-04T10:06:29Z</time>
      </trkpt>
      <trkpt lat="45.35739" lon="5.71321">
        <ele>1005.2</ele>
        <time>2010-12-04T10:06:30Z</time>
      </trkpt>
      <trkpt lat="45.35741" lon="5.71317">
        <ele>1006.2</ele>
        <time>2010-12-04T10:06:34Z</time>
      </trkpt>
      <trkpt lat="45.35741" lon="5.71315">
        <ele>1006.6</ele>
        <time>2010-12-04T10:06:37Z</time>
      </trkpt>
      <trkpt lat="45.35741" lon="5.71315">
        <ele>1006.8</ele>
        <time>2010-12-04T10:06:38Z</time>
      </trkpt>
      <trkpt lat="45.35739" lon="5.71308">
        <ele>1007.4</ele>
        <time>2010-12-04T10:06:42Z</time>
      </trkpt>
      <trkpt lat="45.35739" lon="5.71307">
        <ele>1007.6</ele>
        <time>2010-12-04T10:06:43Z</time>
      </trkpt>
      <trkpt lat="45.35738" lon="5.71305">
        <ele>1008</ele>
        <time>2010-12-04T10:06:44Z</time>
      </trkpt>
      <trkpt lat="45.35739" lon="5.71301">
        <ele>1008.4</ele>
        <time>2010-12-04T10:06:47Z</time>
      </trkpt>
      <trkpt lat="45.35741" lon="5.71299">
        <ele>1009.6</ele>
        <time>2010-12-04T10:06:51Z</time>
      </trkpt>
      <trkpt lat="45.3574" lon="5.71301">
        <ele>1011</ele>
        <time>2010-12-04T10:06:55Z</time>
      </trkpt>
      <trkpt lat="45.35739" lon="5.71304">
        <ele>1012.4</ele>
        <time>2010-12-04T10:07:01Z</time>
      </trkpt>
      <trkpt lat="45.35737" lon="5.71307">
        <ele>1013.2</ele>
        <time>2010-12-04T10:07:03Z</time>
      </trkpt>
      <trkpt lat="45.35737" lon="5.71308">
        <ele>1013.8</ele>
        <time>2010-12-04T10:07:04Z</time>
      </trkpt>
      <trkpt lat="45.35737" lon="5.7131">
        <ele>1014</ele>
        <time>2010-12-04T10:07:06Z</time>
      </trkpt>
      <trkpt lat="45.35736" lon="5.71312">
        <ele>1014.8</ele>
        <time>2010-12-04T10:07:09Z</time>
      </trkpt>
      <trkpt lat="45.35734" lon="5.71315">
        <ele>1017.8</ele>
        <time>2010-12-04T10:07:32Z</time>
      </trkpt>
      <trkpt lat="45.3573" lon="5.71318">
        <ele>1018.2</ele>
        <time>2010-12-04T10:07:37Z</time>
      </trkpt>
      <trkpt lat="45.35728" lon="5.7132">
        <ele>1019</ele>
        <time>2010-12-04T10:07:40Z</time>
      </trkpt>
      <trkpt lat="45.35725" lon="5.71324">
        <ele>1020</ele>
        <time>2010-12-04T10:07:47Z</time>
      </trkpt>
      <trkpt lat="45.35721" lon="5.71327">
        <ele>1021.4</ele>
        <time>2010-12-04T10:07:53Z</time>
      </trkpt>
      <trkpt lat="45.3572" lon="5.71328">
        <ele>1022</ele>
        <time>2010-12-04T10:07:55Z</time>
      </trkpt>
      <trkpt lat="45.35717" lon="5.71332">
        <ele>1026.8</ele>
        <time>2010-12-04T10:08:11Z</time>
      </trkpt>
      <trkpt lat="45.35717" lon="5.71332">
        <ele>1027.4</ele>
        <time>2010-12-04T10:08:14Z</time>
      </trkpt>
      <trkpt lat="45.35716" lon="5.71329">
        <ele>1029</ele>
        <time>2010-12-04T10:08:20Z</time>
      </trkpt>
      <trkpt lat="45.35718" lon="5.71321">
        <ele>1031.4</ele>
        <time>2010-12-04T10:08:32Z</time>
      </trkpt>
      <trkpt lat="45.35715" lon="5.71315">
        <ele>1032.8</ele>
        <time>2010-12-04T10:08:40Z</time>
      </trkpt>
      <trkpt lat="45.35714" lon="5.71313">
        <ele>1033.6</ele>
        <time>2010-12-04T10:08:45Z</time>
      </trkpt>
      <trkpt lat="45.35712" lon="5.71307">
        <ele>1035.2</ele>
        <time>2010-12-04T10:08:50Z</time>
      </trkpt>
      <trkpt lat="45.35712" lon="5.71304">
        <ele>1036.2</ele>
        <time>2010-12-04T10:08:54Z</time>
      </trkpt>
      <trkpt lat="45.35713" lon="5.71302">
        <ele>1038.2</ele>
        <time>2010-12-04T10:09:03Z</time>
      </trkpt>
      <trkpt lat="45.35709" lon="5.71313">
        <ele>1040.4</ele>
        <time>2010-12-04T10:09:30Z</time>
      </trkpt>
      <trkpt lat="45.35706" lon="5.71314">
        <ele>1041</ele>
        <time>2010-12-04T10:09:36Z</time>
      </trkpt>
      <trkpt lat="45.35704" lon="5.71314">
        <ele>1041</ele>
        <time>2010-12-04T10:09:39Z</time>
      </trkpt>
      <trkpt lat="45.35704" lon="5.71309">
        <ele>1041.2</ele>
        <time>2010-12-04T10:09:47Z</time>
      </trkpt>
      <trkpt lat="45.35704" lon="5.71305">
        <ele>1041.4</ele>
        <time>2010-12-04T10:09:50Z</time>
      </trkpt>
      <trkpt lat="45.35706" lon="5.71304">
        <ele>1041.4</ele>
        <time>2010-12-04T10:09:51Z</time>
      </trkpt>
      <trkpt lat="45.35707" lon="5.71299">
        <ele>1042.2</ele>
        <time>2010-12-04T10:09:58Z</time>
      </trkpt>
      <trkpt lat="45.35707" lon="5.71295">
        <ele>1042.8</ele>
        <time>2010-12-04T10:10:04Z</time>
      </trkpt>
      <trkpt lat="45.35706" lon="5.71291">
        <ele>1044.8</ele>
        <time>2010-12-04T10:10:09Z</time>
      </trkpt>
      <trkpt lat="45.35705" lon="5.71286">
        <ele>1046.2</ele>
        <time>2010-12-04T10:10:14Z</time>
      </trkpt>
      <trkpt lat="45.35705" lon="5.71282">
        <ele>1048.2</ele>
        <time>2010-12-04T10:10:20Z</time>
      </trkpt>
      <trkpt lat="45.35706" lon="5.71282">
        <ele>1048.6</ele>
        <time>2010-12-04T10:10:21Z</time>
      </trkpt>
      <trkpt lat="45.35706" lon="5.71282">
        <ele>1049.2</ele>
        <time>2010-12-04T10:10:23Z</time>
      </trkpt>
      <trkpt lat="45.35704" lon="5.71283">
        <ele>1049.6</ele>
        <time>2010-12-04T10:10:25Z</time>
      </trkpt>
      <trkpt lat="45.35703" lon="5.71287">
        <ele>1050.6</ele>
        <time>2010-12-04T10:10:33Z</time>
      </trkpt>
      <trkpt lat="45.35701" lon="5.71291">
        <ele>1050.8</ele>
        <time>2010-12-04T10:10:39Z</time>
      </trkpt>
      <trkpt lat="45.35695" lon="5.71299">
        <ele>1052.4</ele>
        <time>2010-12-04T10:10:56Z</time>
      </trkpt>
      <trkpt lat="45.35696" lon="5.71301">
        <ele>1055.4</ele>
        <time>2010-12-04T10:11:07Z</time>
      </trkpt>
      <trkpt lat="45.35692" lon="5.71302">
        <ele>1057.4</ele>
        <time>2010-12-04T10:11:11Z</time>
      </trkpt>
      <trkpt lat="45.35692" lon="5.71303">
        <ele>1058</ele>
        <time>2010-12-04T10:11:13Z</time>
      </trkpt>
      <trkpt lat="45.35682" lon="5.71305">
        <ele>1066</ele>
        <time>2010-12-04T10:11:39Z</time>
      </trkpt>
      <trkpt lat="45.35681" lon="5.71305">
        <ele>1066.4</ele>
        <time>2010-12-04T10:11:41Z</time>
      </trkpt>
      <trkpt lat="45.35681" lon="5.71304">
        <ele>1066.4</ele>
        <time>2010-12-04T10:11:42Z</time>
      </trkpt>
      <trkpt lat="45.35681" lon="5.71301">
        <ele>1068</ele>
        <time>2010-12-04T10:11:53Z</time>
      </trkpt>
      <trkpt lat="45.35681" lon="5.71294">
        <ele>1069.8</ele>
        <time>2010-12-04T10:12:08Z</time>
      </trkpt>
      <trkpt lat="45.3568" lon="5.7129">
        <ele>1070.4</ele>
        <time>2010-12-04T10:12:11Z</time>
      </trkpt>
      <trkpt lat="45.35678" lon="5.71287">
        <ele>1070.8</ele>
        <time>2010-12-04T10:12:13Z</time>
      </trkpt>
      <trkpt lat="45.35678" lon="5.71286">
        <ele>1071.6</ele>
        <time>2010-12-04T10:12:16Z</time>
      </trkpt>
      <trkpt lat="45.3568" lon="5.71278">
        <ele>1075.2</ele>
        <time>2010-12-04T10:12:28Z</time>
      </trkpt>
      <trkpt lat="45.35679" lon="5.71275">
        <ele>1076.4</ele>
        <time>2010-12-04T10:12:35Z</time>
      </trkpt>
      <trkpt lat="45.3568" lon="5.7127">
        <ele>1076.8</ele>
        <time>2010-12-04T10:12:39Z</time>
      </trkpt>
      <trkpt lat="45.3568" lon="5.71267">
        <ele>1077.4</ele>
        <time>2010-12-04T10:12:44Z</time>
      </trkpt>
      <trkpt lat="45.35677" lon="5.71267">
        <ele>1078.2</ele>
        <time>2010-12-04T10:12:54Z</time>
      </trkpt>
      <trkpt lat="45.35678" lon="5.7126">
        <ele>1077.8</ele>
        <time>2010-12-04T10:13:12Z</time>
      </trkpt>
      <trkpt lat="45.35681" lon="5.71255">
        <ele>1078.2</ele>
        <time>2010-12-04T10:13:17Z</time>
      </trkpt>
      <trkpt lat="45.35682" lon="5.71252">
        <ele>1078.8</ele>
        <time>2010-12-04T10:13:20Z</time>
      </trkpt>
      <trkpt lat="45.35684" lon="5.7125">
        <ele>1079</ele>
        <time>2010-12-04T10:13:23Z</time>
      </trkpt>
      <trkpt lat="45.35682" lon="5.71244">
        <ele>1079.2</ele>
        <time>2010-12-04T10:13:27Z</time>
      </trkpt>
      <trkpt lat="45.35682" lon="5.71243">
        <ele>1079.2</ele>
        <time>2010-12-04T10:13:28Z</time>
      </trkpt>
      <trkpt lat="45.35684" lon="5.7124">
        <ele>1079.8</ele>
        <time>2010-12-04T10:13:33Z</time>
      </trkpt>
      <trkpt lat="45.35682" lon="5.71247">
        <ele>1082.8</ele>
        <time>2010-12-04T10:13:47Z</time>
      </trkpt>
      <trkpt lat="45.35679" lon="5.71249">
        <ele>1082.6</ele>
        <time>2010-12-04T10:13:50Z</time>
      </trkpt>
      <trkpt lat="45.3568" lon="5.7125">
        <ele>1082.4</ele>
        <time>2010-12-04T10:13:51Z</time>
      </trkpt>
      <trkpt lat="45.35679" lon="5.71252">
        <ele>1082.4</ele>
        <time>2010-12-04T10:13:54Z</time>
      </trkpt>
      <trkpt lat="45.35673" lon="5.71255">
        <ele>1083.6</ele>
        <time>2010-12-04T10:14:09Z</time>
      </trkpt>
      <trkpt lat="45.3567" lon="5.71258">
        <ele>1084.4</ele>
        <time>2010-12-04T10:14:17Z</time>
      </trkpt>
      <trkpt lat="45.35668" lon="5.7126">
        <ele>1084.8</ele>
        <time>2010-12-04T10:14:22Z</time>
      </trkpt>
      <trkpt lat="45.35666" lon="5.71262">
        <ele>1085</ele>
        <time>2010-12-04T10:14:27Z</time>
      </trkpt>
      <trkpt lat="45.35663" lon="5.71264">
        <ele>1084.8</ele>
        <time>2010-12-04T10:14:30Z</time>
      </trkpt>
      <trkpt lat="45.35662" lon="5.71266">
        <ele>1084.6</ele>
        <time>2010-12-04T10:14:36Z</time>
      </trkpt>
      <trkpt lat="45.3566" lon="5.7127">
        <ele>1084.6</ele>
        <time>2010-12-04T10:14:41Z</time>
      </trkpt>
      <trkpt lat="45.35657" lon="5.71272">
        <ele>1084.4</ele>
        <time>2010-12-04T10:14:47Z</time>
      </trkpt>
      <trkpt lat="45.35658" lon="5.7127">
        <ele>1084.8</ele>
        <time>2010-12-04T10:14:54Z</time>
      </trkpt>
      <trkpt lat="45.35659" lon="5.71269">
        <ele>1085.2</ele>
        <time>2010-12-04T10:14:57Z</time>
      </trkpt>
      <trkpt lat="45.35654" lon="5.71276">
        <ele>1089.6</ele>
        <time>2010-12-04T10:15:08Z</time>
      </trkpt>
      <trkpt lat="45.35653" lon="5.71277">
        <ele>1090.4</ele>
        <time>2010-12-04T10:15:09Z</time>
      </trkpt>
      <trkpt lat="45.3565" lon="5.71278">
        <ele>1091.8</ele>
        <time>2010-12-04T10:15:13Z</time>
      </trkpt>
      <trkpt lat="45.35648" lon="5.71279">
        <ele>1093.6</ele>
        <time>2010-12-04T10:15:18Z</time>
      </trkpt>
      <trkpt lat="45.35647" lon="5.71279">
        <ele>1094.4</ele>
        <time>2010-12-04T10:15:20Z</time>
      </trkpt>
      <trkpt lat="45.35645" lon="5.71279">
        <ele>1095.2</ele>
        <time>2010-12-04T10:15:22Z</time>
      </trkpt>
      <trkpt lat="45.35645" lon="5.7128">
        <ele>1095.8</ele>
        <time>2010-12-04T10:15:26Z</time>
      </trkpt>
      <trkpt lat="45.35641" lon="5.71282">
        <ele>1098.6</ele>
        <time>2010-12-04T10:15:35Z</time>
      </trkpt>
      <trkpt lat="45.35639" lon="5.71283">
        <ele>1100</ele>
        <time>2010-12-04T10:15:38Z</time>
      </trkpt>
      <trkpt lat="45.3564" lon="5.71285">
        <ele>1100.8</ele>
        <time>2010-12-04T10:15:41Z</time>
      </trkpt>
      <trkpt lat="45.35639" lon="5.71285">
        <ele>1102.4</ele>
        <time>2010-12-04T10:15:44Z</time>
      </trkpt>
      <trkpt lat="45.35631" lon="5.71285">
        <ele>1105.8</ele>
        <time>2010-12-04T10:15:52Z</time>
      </trkpt>
      <trkpt lat="45.3563" lon="5.71286">
        <ele>1106.2</ele>
        <time>2010-12-04T10:15:54Z</time>
      </trkpt>
      <trkpt lat="45.35627" lon="5.71292">
        <ele>1109.2</ele>
        <time>2010-12-04T10:16:04Z</time>
      </trkpt>
      <trkpt lat="45.35626" lon="5.71293">
        <ele>1109.8</ele>
        <time>2010-12-04T10:16:05Z</time>
      </trkpt>
      <trkpt lat="45.35624" lon="5.71294">
        <ele>1111.8</ele>
        <time>2010-12-04T10:16:14Z</time>
      </trkpt>
      <trkpt lat="45.35625" lon="5.71292">
        <ele>1115.2</ele>
        <time>2010-12-04T10:16:32Z</time>
      </trkpt>
      <trkpt lat="45.35624" lon="5.71293">
        <ele>1115.8</ele>
        <time>2010-12-04T10:16:35Z</time>
      </trkpt>
      <trkpt lat="45.35621" lon="5.71295">
        <ele>1117</ele>
        <time>2010-12-04T10:16:40Z</time>
      </trkpt>
      <trkpt lat="45.35622" lon="5.713">
        <ele>1117.6</ele>
        <time>2010-12-04T10:16:44Z</time>
      </trkpt>
      <trkpt lat="45.3562" lon="5.71306">
        <ele>1118</ele>
        <time>2010-12-04T10:16:50Z</time>
      </trkpt>
      <trkpt lat="45.35622" lon="5.7131">
        <ele>1118.8</ele>
        <time>2010-12-04T10:16:53Z</time>
      </trkpt>
      <trkpt lat="45.35622" lon="5.71313">
        <ele>1119.8</ele>
        <time>2010-12-04T10:16:55Z</time>
      </trkpt>
      <trkpt lat="45.35619" lon="5.71315">
        <ele>1120.8</ele>
        <time>2010-12-04T10:16:57Z</time>
      </trkpt>
      <trkpt lat="45.35621" lon="5.71318">
        <ele>1123</ele>
        <time>2010-12-04T10:17:01Z</time>
      </trkpt>
      <trkpt lat="45.35622" lon="5.71318">
        <ele>1125.6</ele>
        <time>2010-12-04T10:17:09Z</time>
      </trkpt>
      <trkpt lat="45.35621" lon="5.71319">
        <ele>1125.6</ele>
        <time>2010-12-04T10:17:10Z</time>
      </trkpt>
      <trkpt lat="45.3562" lon="5.71321">
        <ele>1125.4</ele>
        <time>2010-12-04T10:17:12Z</time>
      </trkpt>
      <trkpt lat="45.35617" lon="5.71323">
        <ele>1125.2</ele>
        <time>2010-12-04T10:17:14Z</time>
      </trkpt>
      <trkpt lat="45.35618" lon="5.71325">
        <ele>1125.4</ele>
        <time>2010-12-04T10:17:17Z</time>
      </trkpt>
      <trkpt lat="45.35618" lon="5.71326">
        <ele>1125.4</ele>
        <time>2010-12-04T10:17:19Z</time>
      </trkpt>
      <trkpt lat="45.35619" lon="5.71326">
        <ele>1125.4</ele>
        <time>2010-12-04T10:17:23Z</time>
      </trkpt>
      <trkpt lat="45.35609" lon="5.71327">
        <ele>1125</ele>
        <time>2010-12-04T10:17:31Z</time>
      </trkpt>
      <trkpt lat="45.35607" lon="5.7133">
        <ele>1124.8</ele>
        <time>2010-12-04T10:17:38Z</time>
      </trkpt>
      <trkpt lat="45.35606" lon="5.71331">
        <ele>1125</ele>
        <time>2010-12-04T10:17:45Z</time>
      </trkpt>
      <trkpt lat="45.35606" lon="5.71334">
        <ele>1126</ele>
        <time>2010-12-04T10:17:55Z</time>
      </trkpt>
      <trkpt lat="45.35611" lon="5.71334">
        <ele>1125.8</ele>
        <time>2010-12-04T10:17:58Z</time>
      </trkpt>
      <trkpt lat="45.35613" lon="5.71337">
        <ele>1126</ele>
        <time>2010-12-04T10:18:03Z</time>
      </trkpt>
      <trkpt lat="45.35611" lon="5.71336">
        <ele>1126</ele>
        <time>2010-12-04T10:18:06Z</time>
      </trkpt>
      <trkpt lat="45.35609" lon="5.71336">
        <ele>1126.2</ele>
        <time>2010-12-04T10:18:09Z</time>
      </trkpt>
      <trkpt lat="45.35611" lon="5.71339">
        <ele>1125.4</ele>
        <time>2010-12-04T10:18:19Z</time>
      </trkpt>
      <trkpt lat="45.3561" lon="5.71338">
        <ele>1125.4</ele>
        <time>2010-12-04T10:18:23Z</time>
      </trkpt>
      <trkpt lat="45.35607" lon="5.71337">
        <ele>1125.2</ele>
        <time>2010-12-04T10:18:25Z</time>
      </trkpt>
      <trkpt lat="45.35605" lon="5.71337">
        <ele>1125.2</ele>
        <time>2010-12-04T10:18:28Z</time>
      </trkpt>
      <trkpt lat="45.35604" lon="5.71333">
        <ele>1126</ele>
        <time>2010-12-04T10:18:38Z</time>
      </trkpt>
      <trkpt lat="45.35598" lon="5.71336">
        <ele>1126.8</ele>
        <time>2010-12-04T10:18:46Z</time>
      </trkpt>
      <trkpt lat="45.35597" lon="5.7134">
        <ele>1126.4</ele>
        <time>2010-12-04T10:18:49Z</time>
      </trkpt>
      <trkpt lat="45.35597" lon="5.71341">
        <ele>1126.4</ele>
        <time>2010-12-04T10:18:51Z</time>
      </trkpt>
      <trkpt lat="45.35596" lon="5.71343">
        <ele>1126.4</ele>
        <time>2010-12-04T10:18:53Z</time>
      </trkpt>
      <trkpt lat="45.35595" lon="5.71345">
        <ele>1126.2</ele>
        <time>2010-12-04T10:18:58Z</time>
      </trkpt>
      <trkpt lat="45.35592" lon="5.71349">
        <ele>1125.8</ele>
        <time>2010-12-04T10:19:04Z</time>
      </trkpt>
      <trkpt lat="45.35591" lon="5.71352">
        <ele>1125.8</ele>
        <time>2010-12-04T10:19:07Z</time>
      </trkpt>
      <trkpt lat="45.3559" lon="5.71353">
        <ele>1126.2</ele>
        <time>2010-12-04T10:19:14Z</time>
      </trkpt>
      <trkpt lat="45.35591" lon="5.71357">
        <ele>1127.6</ele>
        <time>2010-12-04T10:19:23Z</time>
      </trkpt>
      <trkpt lat="45.35591" lon="5.7136">
        <ele>1127.8</ele>
        <time>2010-12-04T10:19:26Z</time>
      </trkpt>
      <trkpt lat="45.3559" lon="5.71363">
        <ele>1127.8</ele>
        <time>2010-12-04T10:19:30Z</time>
      </trkpt>
      <trkpt lat="45.35591" lon="5.71365">
        <ele>1127.8</ele>
        <time>2010-12-04T10:19:31Z</time>
      </trkpt>
      <trkpt lat="45.35587" lon="5.71369">
        <ele>1128.2</ele>
        <time>2010-12-04T10:19:39Z</time>
      </trkpt>
      <trkpt lat="45.35586" lon="5.71369">
        <ele>1128.4</ele>
        <time>2010-12-04T10:19:43Z</time>
      </trkpt>
      <trkpt lat="45.35585" lon="5.71371">
        <ele>1128.6</ele>
        <time>2010-12-04T10:19:49Z</time>
      </trkpt>
      <trkpt lat="45.35584" lon="5.71375">
        <ele>1129</ele>
        <time>2010-12-04T10:19:55Z</time>
      </trkpt>
      <trkpt lat="45.35583" lon="5.71379">
        <ele>1129.4</ele>
        <time>2010-12-04T10:19:59Z</time>
      </trkpt>
      <trkpt lat="45.35582" lon="5.71382">
        <ele>1130</ele>
        <time>2010-12-04T10:20:02Z</time>
      </trkpt>
      <trkpt lat="45.35581" lon="5.71384">
        <ele>1130.8</ele>
        <time>2010-12-04T10:20:05Z</time>
      </trkpt>
      <trkpt lat="45.3558" lon="5.71385">
        <ele>1131.6</ele>
        <time>2010-12-04T10:20:10Z</time>
      </trkpt>
      <trkpt lat="45.35579" lon="5.71389">
        <ele>1132.4</ele>
        <time>2010-12-04T10:20:16Z</time>
      </trkpt>
      <trkpt lat="45.35577" lon="5.71396">
        <ele>1133.4</ele>
        <time>2010-12-04T10:20:22Z</time>
      </trkpt>
      <trkpt lat="45.35575" lon="5.71399">
        <ele>1134.2</ele>
        <time>2010-12-04T10:20:26Z</time>
      </trkpt>
      <trkpt lat="45.35572" lon="5.71403">
        <ele>1135.4</ele>
        <time>2010-12-04T10:20:32Z</time>
      </trkpt>
      <trkpt lat="45.3557" lon="5.71405">
        <ele>1136.8</ele>
        <time>2010-12-04T10:20:37Z</time>
      </trkpt>
      <trkpt lat="45.3557" lon="5.71408">
        <ele>1137.6</ele>
        <time>2010-12-04T10:20:41Z</time>
      </trkpt>
      <trkpt lat="45.35572" lon="5.7141">
        <ele>1138.2</ele>
        <time>2010-12-04T10:20:43Z</time>
      </trkpt>
      <trkpt lat="45.35571" lon="5.71414">
        <ele>1138.6</ele>
        <time>2010-12-04T10:20:45Z</time>
      </trkpt>
      <trkpt lat="45.3557" lon="5.71416">
        <ele>1139</ele>
        <time>2010-12-04T10:20:47Z</time>
      </trkpt>
      <trkpt lat="45.3557" lon="5.71417">
        <ele>1139</ele>
        <time>2010-12-04T10:20:48Z</time>
      </trkpt>
      <trkpt lat="45.35567" lon="5.71419">
        <ele>1139.6</ele>
        <time>2010-12-04T10:20:52Z</time>
      </trkpt>
      <trkpt lat="45.35564" lon="5.71422">
        <ele>1139.8</ele>
        <time>2010-12-04T10:20:56Z</time>
      </trkpt>
      <trkpt lat="45.35562" lon="5.71424">
        <ele>1139.8</ele>
        <time>2010-12-04T10:20:59Z</time>
      </trkpt>
      <trkpt lat="45.35558" lon="5.71425">
        <ele>1140</ele>
        <time>2010-12-04T10:21:03Z</time>
      </trkpt>
      <trkpt lat="45.35553" lon="5.71428">
        <ele>1140.6</ele>
        <time>2010-12-04T10:21:12Z</time>
      </trkpt>
      <trkpt lat="45.35548" lon="5.71431">
        <ele>1141</ele>
        <time>2010-12-04T10:21:17Z</time>
      </trkpt>
      <trkpt lat="45.35548" lon="5.71432">
        <ele>1141</ele>
        <time>2010-12-04T10:21:18Z</time>
      </trkpt>
      <trkpt lat="45.35548" lon="5.71433">
        <ele>1140.8</ele>
        <time>2010-12-04T10:21:19Z</time>
      </trkpt>
      <trkpt lat="45.35547" lon="5.71435">
        <ele>1140.8</ele>
        <time>2010-12-04T10:21:21Z</time>
      </trkpt>
      <trkpt lat="45.35547" lon="5.71435">
        <ele>1140.8</ele>
        <time>2010-12-04T10:21:22Z</time>
      </trkpt>
      <trkpt lat="45.35544" lon="5.71438">
        <ele>1141.2</ele>
        <time>2010-12-04T10:21:27Z</time>
      </trkpt>
      <trkpt lat="45.35539" lon="5.7144">
        <ele>1141.6</ele>
        <time>2010-12-04T10:21:31Z</time>
      </trkpt>
      <trkpt lat="45.35537" lon="5.71441">
        <ele>1141.2</ele>
        <time>2010-12-04T10:21:34Z</time>
      </trkpt>
      <trkpt lat="45.35536" lon="5.71442">
        <ele>1141.2</ele>
        <time>2010-12-04T10:21:37Z</time>
      </trkpt>
      <trkpt lat="45.35533" lon="5.71445">
        <ele>1141.6</ele>
        <time>2010-12-04T10:21:42Z</time>
      </trkpt>
      <trkpt lat="45.35533" lon="5.71447">
        <ele>1142.2</ele>
        <time>2010-12-04T10:21:44Z</time>
      </trkpt>
      <trkpt lat="45.35532" lon="5.71448">
        <ele>1142.4</ele>
        <time>2010-12-04T10:21:47Z</time>
      </trkpt>
      <trkpt lat="45.35524" lon="5.71453">
        <ele>1145.6</ele>
        <time>2010-12-04T10:21:55Z</time>
      </trkpt>
      <trkpt lat="45.35523" lon="5.71454">
        <ele>1146.2</ele>
        <time>2010-12-04T10:21:56Z</time>
      </trkpt>
      <trkpt lat="45.3552" lon="5.71455">
        <ele>1148</ele>
        <time>2010-12-04T10:22:01Z</time>
      </trkpt>
      <trkpt lat="45.35516" lon="5.71457">
        <ele>1154</ele>
        <time>2010-12-04T10:22:11Z</time>
      </trkpt>
      <trkpt lat="45.35517" lon="5.71456">
        <ele>1157</ele>
        <time>2010-12-04T10:22:16Z</time>
      </trkpt>
      <trkpt lat="45.35513" lon="5.71455">
        <ele>1158.8</ele>
        <time>2010-12-04T10:22:22Z</time>
      </trkpt>
      <trkpt lat="45.35511" lon="5.71454">
        <ele>1158.8</ele>
        <time>2010-12-04T10:22:23Z</time>
      </trkpt>
      <trkpt lat="45.35506" lon="5.71455">
        <ele>1159.6</ele>
        <time>2010-12-04T10:22:27Z</time>
      </trkpt>
      <trkpt lat="45.35501" lon="5.71459">
        <ele>1160.6</ele>
        <time>2010-12-04T10:22:33Z</time>
      </trkpt>
      <trkpt lat="45.355" lon="5.71459">
        <ele>1160.6</ele>
        <time>2010-12-04T10:22:34Z</time>
      </trkpt>
      <trkpt lat="45.35498" lon="5.7146">
        <ele>1163.8</ele>
        <time>2010-12-04T10:22:45Z</time>
      </trkpt>
      <trkpt lat="45.35496" lon="5.71458">
        <ele>1165</ele>
        <time>2010-12-04T10:22:48Z</time>
      </trkpt>
      <trkpt lat="45.35495" lon="5.71455">
        <ele>1167</ele>
        <time>2010-12-04T10:22:54Z</time>
      </trkpt>
      <trkpt lat="45.35497" lon="5.71452">
        <ele>1170.8</ele>
        <time>2010-12-04T10:23:02Z</time>
      </trkpt>
      <trkpt lat="45.35492" lon="5.71451">
        <ele>1172</ele>
        <time>2010-12-04T10:23:05Z</time>
      </trkpt>
      <trkpt lat="45.35492" lon="5.71449">
        <ele>1175.4</ele>
        <time>2010-12-04T10:23:11Z</time>
      </trkpt>
      <trkpt lat="45.35482" lon="5.71444">
        <ele>1180.8</ele>
        <time>2010-12-04T10:23:20Z</time>
      </trkpt>
      <trkpt lat="45.3548" lon="5.71443">
        <ele>1181.8</ele>
        <time>2010-12-04T10:23:23Z</time>
      </trkpt>
      <trkpt lat="45.3548" lon="5.71442">
        <ele>1182.6</ele>
        <time>2010-12-04T10:23:24Z</time>
      </trkpt>
      <trkpt lat="45.35478" lon="5.71437">
        <ele>1184.2</ele>
        <time>2010-12-04T10:23:28Z</time>
      </trkpt>
      <trkpt lat="45.35477" lon="5.71436">
        <ele>1184.6</ele>
        <time>2010-12-04T10:23:29Z</time>
      </trkpt>
      <trkpt lat="45.35473" lon="5.71435">
        <ele>1185.4</ele>
        <time>2010-12-04T10:23:32Z</time>
      </trkpt>
      <trkpt lat="45.35472" lon="5.71435">
        <ele>1185.8</ele>
        <time>2010-12-04T10:23:33Z</time>
      </trkpt>
      <trkpt lat="45.35469" lon="5.71432">
        <ele>1187</ele>
        <time>2010-12-04T10:23:38Z</time>
      </trkpt>
      <trkpt lat="45.35467" lon="5.71431">
        <ele>1187.6</ele>
        <time>2010-12-04T10:23:41Z</time>
      </trkpt>
      <trkpt lat="45.35467" lon="5.71431">
        <ele>1187.8</ele>
        <time>2010-12-04T10:23:42Z</time>
      </trkpt>
      <trkpt lat="45.35463" lon="5.71429">
        <ele>1188.8</ele>
        <time>2010-12-04T10:23:46Z</time>
      </trkpt>
      <trkpt lat="45.35462" lon="5.71428">
        <ele>1189.2</ele>
        <time>2010-12-04T10:23:48Z</time>
      </trkpt>
      <trkpt lat="45.35459" lon="5.71424">
        <ele>1189.8</ele>
        <time>2010-12-04T10:23:51Z</time>
      </trkpt>
      <trkpt lat="45.35454" lon="5.71422">
        <ele>1190</ele>
        <time>2010-12-04T10:23:58Z</time>
      </trkpt>
      <trkpt lat="45.35454" lon="5.71422">
        <ele>1190.2</ele>
        <time>2010-12-04T10:24:02Z</time>
      </trkpt>
      <trkpt lat="45.3545" lon="5.71421">
        <ele>1190.2</ele>
        <time>2010-12-04T10:24:08Z</time>
      </trkpt>
      <trkpt lat="45.35448" lon="5.71421">
        <ele>1190.2</ele>
        <time>2010-12-04T10:24:09Z</time>
      </trkpt>
      <trkpt lat="45.35446" lon="5.7142">
        <ele>1190.6</ele>
        <time>2010-12-04T10:24:13Z</time>
      </trkpt>
      <trkpt lat="45.35445" lon="5.71418">
        <ele>1191.4</ele>
        <time>2010-12-04T10:24:18Z</time>
      </trkpt>
      <trkpt lat="45.35443" lon="5.71416">
        <ele>1192.4</ele>
        <time>2010-12-04T10:24:23Z</time>
      </trkpt>
      <trkpt lat="45.35443" lon="5.71413">
        <ele>1193.2</ele>
        <time>2010-12-04T10:24:27Z</time>
      </trkpt>
      <trkpt lat="45.35441" lon="5.71412">
        <ele>1193.2</ele>
        <time>2010-12-04T10:24:29Z</time>
      </trkpt>
      <trkpt lat="45.3544" lon="5.71409">
        <ele>1194</ele>
        <time>2010-12-04T10:24:32Z</time>
      </trkpt>
      <trkpt lat="45.35437" lon="5.71406">
        <ele>1194.4</ele>
        <time>2010-12-04T10:24:36Z</time>
      </trkpt>
      <trkpt lat="45.35434" lon="5.71405">
        <ele>1194.4</ele>
        <time>2010-12-04T10:24:39Z</time>
      </trkpt>
      <trkpt lat="45.35433" lon="5.71405">
        <ele>1194.6</ele>
        <time>2010-12-04T10:24:40Z</time>
      </trkpt>
      <trkpt lat="45.35432" lon="5.71404">
        <ele>1194.6</ele>
        <time>2010-12-04T10:24:41Z</time>
      </trkpt>
      <trkpt lat="45.3543" lon="5.71403">
        <ele>1194.2</ele>
        <time>2010-12-04T10:24:44Z</time>
      </trkpt>
      <trkpt lat="45.35429" lon="5.71401">
        <ele>1194</ele>
        <time>2010-12-04T10:24:46Z</time>
      </trkpt>
      <trkpt lat="45.35427" lon="5.71398">
        <ele>1193.8</ele>
        <time>2010-12-04T10:24:51Z</time>
      </trkpt>
      <trkpt lat="45.35428" lon="5.71397">
        <ele>1193.6</ele>
        <time>2010-12-04T10:24:52Z</time>
      </trkpt>
      <trkpt lat="45.35427" lon="5.71396">
        <ele>1193.4</ele>
        <time>2010-12-04T10:24:53Z</time>
      </trkpt>
      <trkpt lat="45.35426" lon="5.71393">
        <ele>1193.2</ele>
        <time>2010-12-04T10:24:56Z</time>
      </trkpt>
      <trkpt lat="45.35424" lon="5.71391">
        <ele>1192.8</ele>
        <time>2010-12-04T10:24:59Z</time>
      </trkpt>
      <trkpt lat="45.35424" lon="5.71388">
        <ele>1192.4</ele>
        <time>2010-12-04T10:25:02Z</time>
      </trkpt>
      <trkpt lat="45.35425" lon="5.71387">
        <ele>1192.2</ele>
        <time>2010-12-04T10:25:03Z</time>
      </trkpt>
      <trkpt lat="45.35423" lon="5.71385">
        <ele>1191.8</ele>
        <time>2010-12-04T10:25:06Z</time>
      </trkpt>
      <trkpt lat="45.35421" lon="5.71376">
        <ele>1190.8</ele>
        <time>2010-12-04T10:25:14Z</time>
      </trkpt>
      <trkpt lat="45.3542" lon="5.71374">
        <ele>1190.8</ele>
        <time>2010-12-04T10:25:15Z</time>
      </trkpt>
      <trkpt lat="45.35419" lon="5.71369">
        <ele>1190.4</ele>
        <time>2010-12-04T10:25:19Z</time>
      </trkpt>
      <trkpt lat="45.3542" lon="5.71368">
        <ele>1190.4</ele>
        <time>2010-12-04T10:25:20Z</time>
      </trkpt>
      <trkpt lat="45.35418" lon="5.71366">
        <ele>1190</ele>
        <time>2010-12-04T10:25:23Z</time>
      </trkpt>
      <trkpt lat="45.35421" lon="5.71361">
        <ele>1189.8</ele>
        <time>2010-12-04T10:25:28Z</time>
      </trkpt>
      <trkpt lat="45.35421" lon="5.71361">
        <ele>1189.8</ele>
        <time>2010-12-04T10:25:29Z</time>
      </trkpt>
      <trkpt lat="45.35419" lon="5.71358">
        <ele>1191</ele>
        <time>2010-12-04T10:25:38Z</time>
      </trkpt>
      <trkpt lat="45.35416" lon="5.71353">
        <ele>1192.2</ele>
        <time>2010-12-04T10:25:44Z</time>
      </trkpt>
      <trkpt lat="45.35413" lon="5.71347">
        <ele>1193.8</ele>
        <time>2010-12-04T10:25:51Z</time>
      </trkpt>
      <trkpt lat="45.35414" lon="5.71343">
        <ele>1195.2</ele>
        <time>2010-12-04T10:25:55Z</time>
      </trkpt>
      <trkpt lat="45.35415" lon="5.71339">
        <ele>1197.8</ele>
        <time>2010-12-04T10:25:59Z</time>
      </trkpt>
      <trkpt lat="45.35412" lon="5.7134">
        <ele>1200.8</ele>
        <time>2010-12-04T10:26:03Z</time>
      </trkpt>
      <trkpt lat="45.35414" lon="5.71337">
        <ele>1208.8</ele>
        <time>2010-12-04T10:26:18Z</time>
      </trkpt>
      <trkpt lat="45.35413" lon="5.71337">
        <ele>1209.2</ele>
        <time>2010-12-04T10:26:19Z</time>
      </trkpt>
      <trkpt lat="45.35413" lon="5.71335">
        <ele>1211.2</ele>
        <time>2010-12-04T10:26:26Z</time>
      </trkpt>
      <trkpt lat="45.35414" lon="5.71333">
        <ele>1211.6</ele>
        <time>2010-12-04T10:26:28Z</time>
      </trkpt>
      <trkpt lat="45.35413" lon="5.7133">
        <ele>1212.4</ele>
        <time>2010-12-04T10:26:31Z</time>
      </trkpt>
      <trkpt lat="45.35414" lon="5.71324">
        <ele>1215.4</ele>
        <time>2010-12-04T10:26:38Z</time>
      </trkpt>
      <trkpt lat="45.35414" lon="5.71321">
        <ele>1216.2</ele>
        <time>2010-12-04T10:26:39Z</time>
      </trkpt>
      <trkpt lat="45.35414" lon="5.7132">
        <ele>1217.2</ele>
        <time>2010-12-04T10:26:41Z</time>
      </trkpt>
      <trkpt lat="45.35412" lon="5.7132">
        <ele>1218.8</ele>
        <time>2010-12-04T10:26:44Z</time>
      </trkpt>
      <trkpt lat="45.35409" lon="5.71319">
        <ele>1219.8</ele>
        <time>2010-12-04T10:26:48Z</time>
      </trkpt>
      <trkpt lat="45.35409" lon="5.71318">
        <ele>1220.2</ele>
        <time>2010-12-04T10:26:49Z</time>
      </trkpt>
      <trkpt lat="45.35407" lon="5.71318">
        <ele>1220.8</ele>
        <time>2010-12-04T10:26:51Z</time>
      </trkpt>
      <trkpt lat="45.35406" lon="5.71317">
        <ele>1221.4</ele>
        <time>2010-12-04T10:26:53Z</time>
      </trkpt>
      <trkpt lat="45.35406" lon="5.71314">
        <ele>1221.8</ele>
        <time>2010-12-04T10:26:55Z</time>
      </trkpt>
      <trkpt lat="45.35405" lon="5.71312">
        <ele>1222.2</ele>
        <time>2010-12-04T10:26:57Z</time>
      </trkpt>
      <trkpt lat="45.35404" lon="5.7131">
        <ele>1223.2</ele>
        <time>2010-12-04T10:27:02Z</time>
      </trkpt>
      <trkpt lat="45.354" lon="5.71308">
        <ele>1223.4</ele>
        <time>2010-12-04T10:27:07Z</time>
      </trkpt>
      <trkpt lat="45.35399" lon="5.71305">
        <ele>1224.2</ele>
        <time>2010-12-04T10:27:11Z</time>
      </trkpt>
      <trkpt lat="45.35399" lon="5.71304">
        <ele>1224.6</ele>
        <time>2010-12-04T10:27:13Z</time>
      </trkpt>
      <trkpt lat="45.35397" lon="5.71303">
        <ele>1225.2</ele>
        <time>2010-12-04T10:27:16Z</time>
      </trkpt>
      <trkpt lat="45.35394" lon="5.71302">
        <ele>1225.4</ele>
        <time>2010-12-04T10:27:19Z</time>
      </trkpt>
      <trkpt lat="45.35391" lon="5.71299">
        <ele>1226</ele>
        <time>2010-12-04T10:27:24Z</time>
      </trkpt>
      <trkpt lat="45.35392" lon="5.71298">
        <ele>1226.4</ele>
        <time>2010-12-04T10:27:26Z</time>
      </trkpt>
      <trkpt lat="45.35395" lon="5.71297">
        <ele>1226.8</ele>
        <time>2010-12-04T10:27:29Z</time>
      </trkpt>
      <trkpt lat="45.35394" lon="5.71293">
        <ele>1227.2</ele>
        <time>2010-12-04T10:27:32Z</time>
      </trkpt>
      <trkpt lat="45.35392" lon="5.71293">
        <ele>1227.8</ele>
        <time>2010-12-04T10:27:35Z</time>
      </trkpt>
      <trkpt lat="45.35393" lon="5.71291">
        <ele>1228.2</ele>
        <time>2010-12-04T10:27:40Z</time>
      </trkpt>
      <trkpt lat="45.35394" lon="5.7129">
        <ele>1228.2</ele>
        <time>2010-12-04T10:27:44Z</time>
      </trkpt>
      <trkpt lat="45.3539" lon="5.71292">
        <ele>1228</ele>
        <time>2010-12-04T10:27:51Z</time>
      </trkpt>
      <trkpt lat="45.3539" lon="5.71292">
        <ele>1228</ele>
        <time>2010-12-04T10:27:52Z</time>
      </trkpt>
      <trkpt lat="45.3539" lon="5.71295">
        <ele>1228</ele>
        <time>2010-12-04T10:27:56Z</time>
      </trkpt>
      <trkpt lat="45.35389" lon="5.71297">
        <ele>1227.8</ele>
        <time>2010-12-04T10:27:58Z</time>
      </trkpt>
      <trkpt lat="45.35388" lon="5.71298">
        <ele>1227.8</ele>
        <time>2010-12-04T10:28:00Z</time>
      </trkpt>
      <trkpt lat="45.35386" lon="5.71302">
        <ele>1227.6</ele>
        <time>2010-12-04T10:28:04Z</time>
      </trkpt>
      <trkpt lat="45.35385" lon="5.71302">
        <ele>1227.6</ele>
        <time>2010-12-04T10:28:05Z</time>
      </trkpt>
      <trkpt lat="45.35381" lon="5.71303">
        <ele>1227.4</ele>
        <time>2010-12-04T10:28:08Z</time>
      </trkpt>
      <trkpt lat="45.35379" lon="5.71303">
        <ele>1227.2</ele>
        <time>2010-12-04T10:28:09Z</time>
      </trkpt>
      <trkpt lat="45.35379" lon="5.71303">
        <ele>1227.2</ele>
        <time>2010-12-04T10:28:10Z</time>
      </trkpt>
      <trkpt lat="45.35377" lon="5.71302">
        <ele>1226.8</ele>
        <time>2010-12-04T10:28:12Z</time>
      </trkpt>
      <trkpt lat="45.35379" lon="5.71297">
        <ele>1226.6</ele>
        <time>2010-12-04T10:28:19Z</time>
      </trkpt>
      <trkpt lat="45.35381" lon="5.71292">
        <ele>1226.8</ele>
        <time>2010-12-04T10:28:30Z</time>
      </trkpt>
      <trkpt lat="45.3538" lon="5.71291">
        <ele>1226.8</ele>
        <time>2010-12-04T10:28:31Z</time>
      </trkpt>
      <trkpt lat="45.35376" lon="5.7129">
        <ele>1226.6</ele>
        <time>2010-12-04T10:28:34Z</time>
      </trkpt>
      <trkpt lat="45.35375" lon="5.71289">
        <ele>1226.4</ele>
        <time>2010-12-04T10:28:36Z</time>
      </trkpt>
      <trkpt lat="45.35376" lon="5.71286">
        <ele>1226.2</ele>
        <time>2010-12-04T10:28:43Z</time>
      </trkpt>
      <trkpt lat="45.35377" lon="5.71283">
        <ele>1226</ele>
        <time>2010-12-04T10:28:50Z</time>
      </trkpt>
      <trkpt lat="45.35379" lon="5.71281">
        <ele>1226.6</ele>
        <time>2010-12-04T10:28:55Z</time>
      </trkpt>
      <trkpt lat="45.35379" lon="5.71277">
        <ele>1227</ele>
        <time>2010-12-04T10:28:59Z</time>
      </trkpt>
      <trkpt lat="45.35376" lon="5.71274">
        <ele>1227.2</ele>
        <time>2010-12-04T10:29:03Z</time>
      </trkpt>
      <trkpt lat="45.35374" lon="5.71275">
        <ele>1227.4</ele>
        <time>2010-12-04T10:29:04Z</time>
      </trkpt>
      <trkpt lat="45.35369" lon="5.71273">
        <ele>1227.6</ele>
        <time>2010-12-04T10:29:08Z</time>
      </trkpt>
      <trkpt lat="45.35368" lon="5.71273">
        <ele>1227.8</ele>
        <time>2010-12-04T10:29:10Z</time>
      </trkpt>
      <trkpt lat="45.35368" lon="5.71272">
        <ele>1228</ele>
        <time>2010-12-04T10:29:12Z</time>
      </trkpt>
      <trkpt lat="45.35367" lon="5.71268">
        <ele>1228.4</ele>
        <time>2010-12-04T10:29:22Z</time>
      </trkpt>
      <trkpt lat="45.35365" lon="5.71266">
        <ele>1228.2</ele>
        <time>2010-12-04T10:29:24Z</time>
      </trkpt>
      <trkpt lat="45.35363" lon="5.71265">
        <ele>1228.2</ele>
        <time>2010-12-04T10:29:27Z</time>
      </trkpt>
      <trkpt lat="45.35365" lon="5.71265">
        <ele>1227.6</ele>
        <time>2010-12-04T10:29:37Z</time>
      </trkpt>
      <trkpt lat="45.35365" lon="5.71265">
        <ele>1227.4</ele>
        <time>2010-12-04T10:29:39Z</time>
      </trkpt>
      <trkpt lat="45.35366" lon="5.71268">
        <ele>1227.2</ele>
        <time>2010-12-04T10:29:45Z</time>
      </trkpt>
      <trkpt lat="45.35365" lon="5.7127">
        <ele>1227</ele>
        <time>2010-12-04T10:29:52Z</time>
      </trkpt>
      <trkpt lat="45.35364" lon="5.71273">
        <ele>1227</ele>
        <time>2010-12-04T10:29:56Z</time>
      </trkpt>
      <trkpt lat="45.35363" lon="5.71279">
        <ele>1227</ele>
        <time>2010-12-04T10:30:02Z</time>
      </trkpt>
      <trkpt lat="45.35363" lon="5.71283">
        <ele>1227</ele>
        <time>2010-12-04T10:30:05Z</time>
      </trkpt>
      <trkpt lat="45.35362" lon="5.71285">
        <ele>1227.4</ele>
        <time>2010-12-04T10:30:07Z</time>
      </trkpt>
      <trkpt lat="45.35363" lon="5.7129">
        <ele>1229.2</ele>
        <time>2010-12-04T10:30:12Z</time>
      </trkpt>
      <trkpt lat="45.35363" lon="5.71292">
        <ele>1230.4</ele>
        <time>2010-12-04T10:30:16Z</time>
      </trkpt>
      <trkpt lat="45.35362" lon="5.71293">
        <ele>1231</ele>
        <time>2010-12-04T10:30:20Z</time>
      </trkpt>
      <trkpt lat="45.35362" lon="5.71294">
        <ele>1231.8</ele>
        <time>2010-12-04T10:30:26Z</time>
      </trkpt>
      <trkpt lat="45.35361" lon="5.71301">
        <ele>1233.2</ele>
        <time>2010-12-04T10:30:35Z</time>
      </trkpt>
      <trkpt lat="45.35361" lon="5.71304">
        <ele>1234</ele>
        <time>2010-12-04T10:30:41Z</time>
      </trkpt>
      <trkpt lat="45.35361" lon="5.71307">
        <ele>1234.2</ele>
        <time>2010-12-04T10:30:44Z</time>
      </trkpt>
      <trkpt lat="45.35361" lon="5.71309">
        <ele>1234.2</ele>
        <time>2010-12-04T10:30:45Z</time>
      </trkpt>
      <trkpt lat="45.35361" lon="5.71312">
        <ele>1234.2</ele>
        <time>2010-12-04T10:30:48Z</time>
      </trkpt>
      <trkpt lat="45.35361" lon="5.71318">
        <ele>1234.4</ele>
        <time>2010-12-04T10:30:54Z</time>
      </trkpt>
      <trkpt lat="45.3536" lon="5.71322">
        <ele>1234.4</ele>
        <time>2010-12-04T10:31:00Z</time>
      </trkpt>
      <trkpt lat="45.35356" lon="5.71325">
        <ele>1234.2</ele>
        <time>2010-12-04T10:31:06Z</time>
      </trkpt>
      <trkpt lat="45.35354" lon="5.71325">
        <ele>1234.2</ele>
        <time>2010-12-04T10:31:07Z</time>
      </trkpt>
      <trkpt lat="45.35354" lon="5.71326">
        <ele>1234.2</ele>
        <time>2010-12-04T10:31:08Z</time>
      </trkpt>
      <trkpt lat="45.35352" lon="5.71327">
        <ele>1234</ele>
        <time>2010-12-04T10:31:11Z</time>
      </trkpt>
      <trkpt lat="45.35352" lon="5.71327">
        <ele>1234</ele>
        <time>2010-12-04T10:31:12Z</time>
      </trkpt>
      <trkpt lat="45.35349" lon="5.71329">
        <ele>1233.8</ele>
        <time>2010-12-04T10:31:15Z</time>
      </trkpt>
      <trkpt lat="45.35347" lon="5.71332">
        <ele>1233.8</ele>
        <time>2010-12-04T10:31:17Z</time>
      </trkpt>
      <trkpt lat="45.35344" lon="5.71333">
        <ele>1234.4</ele>
        <time>2010-12-04T10:31:23Z</time>
      </trkpt>
      <trkpt lat="45.3534" lon="5.71336">
        <ele>1234.8</ele>
        <time>2010-12-04T10:31:29Z</time>
      </trkpt>
      <trkpt lat="45.35338" lon="5.71339">
        <ele>1235.2</ele>
        <time>2010-12-04T10:31:33Z</time>
      </trkpt>
      <trkpt lat="45.35337" lon="5.71339">
        <ele>1235.2</ele>
        <time>2010-12-04T10:31:34Z</time>
      </trkpt>
      <trkpt lat="45.35334" lon="5.7134">
        <ele>1236</ele>
        <time>2010-12-04T10:31:37Z</time>
      </trkpt>
      <trkpt lat="45.35333" lon="5.71341">
        <ele>1236.4</ele>
        <time>2010-12-04T10:31:38Z</time>
      </trkpt>
      <trkpt lat="45.35332" lon="5.71346">
        <ele>1237.2</ele>
        <time>2010-12-04T10:31:42Z</time>
      </trkpt>
      <trkpt lat="45.35329" lon="5.71347">
        <ele>1238</ele>
        <time>2010-12-04T10:31:45Z</time>
      </trkpt>
      <trkpt lat="45.35324" lon="5.71348">
        <ele>1238.2</ele>
        <time>2010-12-04T10:31:47Z</time>
      </trkpt>
      <trkpt lat="45.35322" lon="5.71353">
        <ele>1239.4</ele>
        <time>2010-12-04T10:31:51Z</time>
      </trkpt>
      <trkpt lat="45.35322" lon="5.71354">
        <ele>1239.8</ele>
        <time>2010-12-04T10:31:52Z</time>
      </trkpt>
      <trkpt lat="45.3532" lon="5.71357">
        <ele>1240.6</ele>
        <time>2010-12-04T10:31:56Z</time>
      </trkpt>
      <trkpt lat="45.35318" lon="5.71358">
        <ele>1241.2</ele>
        <time>2010-12-04T10:31:58Z</time>
      </trkpt>
      <trkpt lat="45.35312" lon="5.71364">
        <ele>1242.8</ele>
        <time>2010-12-04T10:32:05Z</time>
      </trkpt>
      <trkpt lat="45.35309" lon="5.71367">
        <ele>1243.6</ele>
        <time>2010-12-04T10:32:10Z</time>
      </trkpt>
      <trkpt lat="45.35308" lon="5.71367">
        <ele>1245</ele>
        <time>2010-12-04T10:32:14Z</time>
      </trkpt>
      <trkpt lat="45.35307" lon="5.71368">
        <ele>1245.2</ele>
        <time>2010-12-04T10:32:15Z</time>
      </trkpt>
      <trkpt lat="45.35306" lon="5.71368">
        <ele>1245.4</ele>
        <time>2010-12-04T10:32:16Z</time>
      </trkpt>
      <trkpt lat="45.35304" lon="5.71371">
        <ele>1246.6</ele>
        <time>2010-12-04T10:32:21Z</time>
      </trkpt>
      <trkpt lat="45.35302" lon="5.71373">
        <ele>1247.6</ele>
        <time>2010-12-04T10:32:25Z</time>
      </trkpt>
      <trkpt lat="45.353" lon="5.71376">
        <ele>1248.2</ele>
        <time>2010-12-04T10:32:30Z</time>
      </trkpt>
      <trkpt lat="45.35296" lon="5.71378">
        <ele>1248.8</ele>
        <time>2010-12-04T10:32:34Z</time>
      </trkpt>
      <trkpt lat="45.35293" lon="5.71381">
        <ele>1249.4</ele>
        <time>2010-12-04T10:32:39Z</time>
      </trkpt>
      <trkpt lat="45.35293" lon="5.71382">
        <ele>1249.4</ele>
        <time>2010-12-04T10:32:40Z</time>
      </trkpt>
      <trkpt lat="45.35289" lon="5.71384">
        <ele>1250.4</ele>
        <time>2010-12-04T10:32:45Z</time>
      </trkpt>
      <trkpt lat="45.35286" lon="5.71386">
        <ele>1251.8</ele>
        <time>2010-12-04T10:32:49Z</time>
      </trkpt>
      <trkpt lat="45.35286" lon="5.71387">
        <ele>1252.2</ele>
        <time>2010-12-04T10:32:51Z</time>
      </trkpt>
      <trkpt lat="45.35284" lon="5.71388">
        <ele>1252.4</ele>
        <time>2010-12-04T10:32:53Z</time>
      </trkpt>
      <trkpt lat="45.35283" lon="5.71388">
        <ele>1252.6</ele>
        <time>2010-12-04T10:32:54Z</time>
      </trkpt>
      <trkpt lat="45.35278" lon="5.71396">
        <ele>1255.6</ele>
        <time>2010-12-04T10:33:07Z</time>
      </trkpt>
      <trkpt lat="45.35275" lon="5.714">
        <ele>1256</ele>
        <time>2010-12-04T10:33:13Z</time>
      </trkpt>
      <trkpt lat="45.35274" lon="5.71402">
        <ele>1256.2</ele>
        <time>2010-12-04T10:33:18Z</time>
      </trkpt>
      <trkpt lat="45.35272" lon="5.71406">
        <ele>1256</ele>
        <time>2010-12-04T10:33:22Z</time>
      </trkpt>
      <trkpt lat="45.35271" lon="5.71408">
        <ele>1256</ele>
        <time>2010-12-04T10:33:26Z</time>
      </trkpt>
      <trkpt lat="45.3527" lon="5.7141">
        <ele>1255.6</ele>
        <time>2010-12-04T10:33:35Z</time>
      </trkpt>
      <trkpt lat="45.35269" lon="5.71413">
        <ele>1255.4</ele>
        <time>2010-12-04T10:33:43Z</time>
      </trkpt>
      <trkpt lat="45.35268" lon="5.71416">
        <ele>1255.8</ele>
        <time>2010-12-04T10:33:52Z</time>
      </trkpt>
      <trkpt lat="45.35267" lon="5.71418">
        <ele>1255.6</ele>
        <time>2010-12-04T10:33:57Z</time>
      </trkpt>
      <trkpt lat="45.35267" lon="5.71419">
        <ele>1255.6</ele>
        <time>2010-12-04T10:34:02Z</time>
      </trkpt>
      <trkpt lat="45.35265" lon="5.71417">
        <ele>1256.2</ele>
        <time>2010-12-04T10:34:12Z</time>
      </trkpt>
      <trkpt lat="45.35261" lon="5.7142">
        <ele>1256.2</ele>
        <time>2010-12-04T10:34:19Z</time>
      </trkpt>
      <trkpt lat="45.35257" lon="5.71422">
        <ele>1256.2</ele>
        <time>2010-12-04T10:34:24Z</time>
      </trkpt>
      <trkpt lat="45.35256" lon="5.71422">
        <ele>1256.2</ele>
        <time>2010-12-04T10:34:25Z</time>
      </trkpt>
      <trkpt lat="45.35254" lon="5.71424">
        <ele>1256.2</ele>
        <time>2010-12-04T10:34:31Z</time>
      </trkpt>
      <trkpt lat="45.35253" lon="5.71424">
        <ele>1256.2</ele>
        <time>2010-12-04T10:34:32Z</time>
      </trkpt>
      <trkpt lat="45.35253" lon="5.71425">
        <ele>1256.4</ele>
        <time>2010-12-04T10:34:34Z</time>
      </trkpt>
      <trkpt lat="45.3525" lon="5.71427">
        <ele>1260.8</ele>
        <time>2010-12-04T10:34:59Z</time>
      </trkpt>
      <trkpt lat="45.35246" lon="5.71427">
        <ele>1261.4</ele>
        <time>2010-12-04T10:35:05Z</time>
      </trkpt>
      <trkpt lat="45.35246" lon="5.71425">
        <ele>1262</ele>
        <time>2010-12-04T10:35:09Z</time>
      </trkpt>
      <trkpt lat="45.3524" lon="5.71424">
        <ele>1264.8</ele>
        <time>2010-12-04T10:35:30Z</time>
      </trkpt>
      <trkpt lat="45.3524" lon="5.71424">
        <ele>1265</ele>
        <time>2010-12-04T10:35:31Z</time>
      </trkpt>
      <trkpt lat="45.35238" lon="5.71423">
        <ele>1266.2</ele>
        <time>2010-12-04T10:35:39Z</time>
      </trkpt>
      <trkpt lat="45.35236" lon="5.7142">
        <ele>1267.8</ele>
        <time>2010-12-04T10:35:47Z</time>
      </trkpt>
      <trkpt lat="45.35231" lon="5.71416">
        <ele>1268.4</ele>
        <time>2010-12-04T10:36:00Z</time>
      </trkpt>
      <trkpt lat="45.35231" lon="5.71415">
        <ele>1268.2</ele>
        <time>2010-12-04T10:36:03Z</time>
      </trkpt>
      <trkpt lat="45.35229" lon="5.71413">
        <ele>1268.2</ele>
        <time>2010-12-04T10:36:06Z</time>
      </trkpt>
      <trkpt lat="45.3523" lon="5.71413">
        <ele>1268.2</ele>
        <time>2010-12-04T10:36:08Z</time>
      </trkpt>
      <trkpt lat="45.35233" lon="5.71413">
        <ele>1269</ele>
        <time>2010-12-04T10:36:13Z</time>
      </trkpt>
      <trkpt lat="45.35234" lon="5.71411">
        <ele>1268.8</ele>
        <time>2010-12-04T10:36:16Z</time>
      </trkpt>
      <trkpt lat="45.35234" lon="5.71409">
        <ele>1270.4</ele>
        <time>2010-12-04T10:36:23Z</time>
      </trkpt>
      <trkpt lat="45.35233" lon="5.71408">
        <ele>1270.6</ele>
        <time>2010-12-04T10:36:24Z</time>
      </trkpt>
      <trkpt lat="45.35232" lon="5.71407">
        <ele>1272</ele>
        <time>2010-12-04T10:36:27Z</time>
      </trkpt>
      <trkpt lat="45.35232" lon="5.71407">
        <ele>1272.6</ele>
        <time>2010-12-04T10:36:28Z</time>
      </trkpt>
      <trkpt lat="45.35232" lon="5.71405">
        <ele>1278.2</ele>
        <time>2010-12-04T10:36:37Z</time>
      </trkpt>
      <trkpt lat="45.35228" lon="5.71405">
        <ele>1279.8</ele>
        <time>2010-12-04T10:36:42Z</time>
      </trkpt>
      <trkpt lat="45.35226" lon="5.71406">
        <ele>1281</ele>
        <time>2010-12-04T10:36:46Z</time>
      </trkpt>
      <trkpt lat="45.35226" lon="5.71406">
        <ele>1281.2</ele>
        <time>2010-12-04T10:36:47Z</time>
      </trkpt>
      <trkpt lat="45.35222" lon="5.71406">
        <ele>1281.8</ele>
        <time>2010-12-04T10:36:52Z</time>
      </trkpt>
      <trkpt lat="45.3522" lon="5.71409">
        <ele>1283.4</ele>
        <time>2010-12-04T10:37:00Z</time>
      </trkpt>
      <trkpt lat="45.35218" lon="5.71418">
        <ele>1285.8</ele>
        <time>2010-12-04T10:37:16Z</time>
      </trkpt>
      <trkpt lat="45.35213" lon="5.71421">
        <ele>1286.6</ele>
        <time>2010-12-04T10:37:21Z</time>
      </trkpt>
      <trkpt lat="45.35209" lon="5.71422">
        <ele>1287.8</ele>
        <time>2010-12-04T10:37:31Z</time>
      </trkpt>
      <trkpt lat="45.35207" lon="5.71423">
        <ele>1288</ele>
        <time>2010-12-04T10:37:35Z</time>
      </trkpt>
      <trkpt lat="45.352" lon="5.71425">
        <ele>1288.6</ele>
        <time>2010-12-04T10:37:51Z</time>
      </trkpt>
      <trkpt lat="45.35199" lon="5.71425">
        <ele>1288.8</ele>
        <time>2010-12-04T10:37:53Z</time>
      </trkpt>
      <trkpt lat="45.35197" lon="5.71422">
        <ele>1290.4</ele>
        <time>2010-12-04T10:38:00Z</time>
      </trkpt>
      <trkpt lat="45.35197" lon="5.7142">
        <ele>1291.2</ele>
        <time>2010-12-04T10:38:03Z</time>
      </trkpt>
      <trkpt lat="45.35195" lon="5.71416">
        <ele>1291.6</ele>
        <time>2010-12-04T10:38:07Z</time>
      </trkpt>
      <trkpt lat="45.35195" lon="5.71416">
        <ele>1291.8</ele>
        <time>2010-12-04T10:38:08Z</time>
      </trkpt>
      <trkpt lat="45.35193" lon="5.71414">
        <ele>1292</ele>
        <time>2010-12-04T10:38:12Z</time>
      </trkpt>
      <trkpt lat="45.35191" lon="5.71411">
        <ele>1292.2</ele>
        <time>2010-12-04T10:38:17Z</time>
      </trkpt>
      <trkpt lat="45.35187" lon="5.7141">
        <ele>1293</ele>
        <time>2010-12-04T10:38:24Z</time>
      </trkpt>
      <trkpt lat="45.35184" lon="5.71409">
        <ele>1292.8</ele>
        <time>2010-12-04T10:38:27Z</time>
      </trkpt>
      <trkpt lat="45.35182" lon="5.7141">
        <ele>1292.8</ele>
        <time>2010-12-04T10:38:29Z</time>
      </trkpt>
      <trkpt lat="45.35179" lon="5.71411">
        <ele>1292.8</ele>
        <time>2010-12-04T10:38:32Z</time>
      </trkpt>
      <trkpt lat="45.35178" lon="5.71411">
        <ele>1292.8</ele>
        <time>2010-12-04T10:38:33Z</time>
      </trkpt>
      <trkpt lat="45.35176" lon="5.71414">
        <ele>1292.6</ele>
        <time>2010-12-04T10:38:41Z</time>
      </trkpt>
      <trkpt lat="45.35174" lon="5.71415">
        <ele>1292.6</ele>
        <time>2010-12-04T10:38:47Z</time>
      </trkpt>
      <trkpt lat="45.35173" lon="5.71421">
        <ele>1292.8</ele>
        <time>2010-12-04T10:38:55Z</time>
      </trkpt>
      <trkpt lat="45.35169" lon="5.71422">
        <ele>1292.6</ele>
        <time>2010-12-04T10:39:00Z</time>
      </trkpt>
      <trkpt lat="45.35169" lon="5.71424">
        <ele>1293</ele>
        <time>2010-12-04T10:39:02Z</time>
      </trkpt>
      <trkpt lat="45.35169" lon="5.71425">
        <ele>1293.2</ele>
        <time>2010-12-04T10:39:05Z</time>
      </trkpt>
      <trkpt lat="45.35168" lon="5.71426">
        <ele>1293.6</ele>
        <time>2010-12-04T10:39:07Z</time>
      </trkpt>
      <trkpt lat="45.35167" lon="5.71428">
        <ele>1293.8</ele>
        <time>2010-12-04T10:39:10Z</time>
      </trkpt>
      <trkpt lat="45.35167" lon="5.71428">
        <ele>1293.8</ele>
        <time>2010-12-04T10:39:11Z</time>
      </trkpt>
      <trkpt lat="45.35162" lon="5.7143">
        <ele>1296</ele>
        <time>2010-12-04T10:39:26Z</time>
      </trkpt>
      <trkpt lat="45.35161" lon="5.71431">
        <ele>1296.2</ele>
        <time>2010-12-04T10:39:32Z</time>
      </trkpt>
      <trkpt lat="45.3516" lon="5.71433">
        <ele>1296</ele>
        <time>2010-12-04T10:39:37Z</time>
      </trkpt>
      <trkpt lat="45.3516" lon="5.71434">
        <ele>1296</ele>
        <time>2010-12-04T10:39:38Z</time>
      </trkpt>
      <trkpt lat="45.35154" lon="5.71441">
        <ele>1297.4</ele>
        <time>2010-12-04T10:39:50Z</time>
      </trkpt>
      <trkpt lat="45.35153" lon="5.71443">
        <ele>1299.4</ele>
        <time>2010-12-04T10:39:56Z</time>
      </trkpt>
      <trkpt lat="45.3515" lon="5.71445">
        <ele>1300.6</ele>
        <time>2010-12-04T10:40:02Z</time>
      </trkpt>
      <trkpt lat="45.35147" lon="5.71446">
        <ele>1301.6</ele>
        <time>2010-12-04T10:40:07Z</time>
      </trkpt>
      <trkpt lat="45.35142" lon="5.71454">
        <ele>1303.2</ele>
        <time>2010-12-04T10:40:17Z</time>
      </trkpt>
      <trkpt lat="45.35139" lon="5.71456">
        <ele>1303.8</ele>
        <time>2010-12-04T10:40:22Z</time>
      </trkpt>
      <trkpt lat="45.35137" lon="5.71458">
        <ele>1304.6</ele>
        <time>2010-12-04T10:40:27Z</time>
      </trkpt>
      <trkpt lat="45.35136" lon="5.7146">
        <ele>1305.2</ele>
        <time>2010-12-04T10:40:31Z</time>
      </trkpt>
      <trkpt lat="45.35134" lon="5.71462">
        <ele>1306.2</ele>
        <time>2010-12-04T10:40:36Z</time>
      </trkpt>
      <trkpt lat="45.35133" lon="5.71465">
        <ele>1307.4</ele>
        <time>2010-12-04T10:40:43Z</time>
      </trkpt>
      <trkpt lat="45.35126" lon="5.71468">
        <ele>1308.2</ele>
        <time>2010-12-04T10:40:56Z</time>
      </trkpt>
      <trkpt lat="45.35125" lon="5.7147">
        <ele>1307.8</ele>
        <time>2010-12-04T10:41:01Z</time>
      </trkpt>
      <trkpt lat="45.35125" lon="5.71471">
        <ele>1307.8</ele>
        <time>2010-12-04T10:41:03Z</time>
      </trkpt>
      <trkpt lat="45.35123" lon="5.71479">
        <ele>1307.6</ele>
        <time>2010-12-04T10:41:15Z</time>
      </trkpt>
      <trkpt lat="45.35122" lon="5.71484">
        <ele>1308.8</ele>
        <time>2010-12-04T10:41:22Z</time>
      </trkpt>
      <trkpt lat="45.35119" lon="5.71489">
        <ele>1310.4</ele>
        <time>2010-12-04T10:41:27Z</time>
      </trkpt>
      <trkpt lat="45.35118" lon="5.71491">
        <ele>1311</ele>
        <time>2010-12-04T10:41:29Z</time>
      </trkpt>
      <trkpt lat="45.35116" lon="5.71491">
        <ele>1311</ele>
        <time>2010-12-04T10:41:32Z</time>
      </trkpt>
      <trkpt lat="45.35115" lon="5.71492">
        <ele>1311</ele>
        <time>2010-12-04T10:41:33Z</time>
      </trkpt>
      <trkpt lat="45.35114" lon="5.71492">
        <ele>1311.2</ele>
        <time>2010-12-04T10:41:35Z</time>
      </trkpt>
      <trkpt lat="45.35113" lon="5.71493">
        <ele>1311.4</ele>
        <time>2010-12-04T10:41:36Z</time>
      </trkpt>
      <trkpt lat="45.3511" lon="5.71498">
        <ele>1311.8</ele>
        <time>2010-12-04T10:41:45Z</time>
      </trkpt>
      <trkpt lat="45.35108" lon="5.71501">
        <ele>1312</ele>
        <time>2010-12-04T10:41:50Z</time>
      </trkpt>
      <trkpt lat="45.35108" lon="5.71507">
        <ele>1312.6</ele>
        <time>2010-12-04T10:41:56Z</time>
      </trkpt>
      <trkpt lat="45.35109" lon="5.71511">
        <ele>1313</ele>
        <time>2010-12-04T10:42:02Z</time>
      </trkpt>
      <trkpt lat="45.3511" lon="5.71515">
        <ele>1313</ele>
        <time>2010-12-04T10:42:07Z</time>
      </trkpt>
      <trkpt lat="45.35109" lon="5.71515">
        <ele>1313</ele>
        <time>2010-12-04T10:42:08Z</time>
      </trkpt>
      <trkpt lat="45.35108" lon="5.71518">
        <ele>1313</ele>
        <time>2010-12-04T10:42:13Z</time>
      </trkpt>
      <trkpt lat="45.35103" lon="5.71521">
        <ele>1313</ele>
        <time>2010-12-04T10:42:19Z</time>
      </trkpt>
      <trkpt lat="45.35102" lon="5.71524">
        <ele>1313</ele>
        <time>2010-12-04T10:42:24Z</time>
      </trkpt>
      <trkpt lat="45.35099" lon="5.71531">
        <ele>1314</ele>
        <time>2010-12-04T10:42:32Z</time>
      </trkpt>
      <trkpt lat="45.35098" lon="5.71535">
        <ele>1314.2</ele>
        <time>2010-12-04T10:42:37Z</time>
      </trkpt>
      <trkpt lat="45.35097" lon="5.71536">
        <ele>1314.4</ele>
        <time>2010-12-04T10:42:38Z</time>
      </trkpt>
      <trkpt lat="45.35095" lon="5.7154">
        <ele>1314.8</ele>
        <time>2010-12-04T10:42:44Z</time>
      </trkpt>
      <trkpt lat="45.35094" lon="5.71543">
        <ele>1315.2</ele>
        <time>2010-12-04T10:42:49Z</time>
      </trkpt>
      <trkpt lat="45.35092" lon="5.71548">
        <ele>1315.6</ele>
        <time>2010-12-04T10:42:54Z</time>
      </trkpt>
      <trkpt lat="45.3509" lon="5.71551">
        <ele>1316</ele>
        <time>2010-12-04T10:42:59Z</time>
      </trkpt>
      <trkpt lat="45.35086" lon="5.71552">
        <ele>1316</ele>
        <time>2010-12-04T10:43:05Z</time>
      </trkpt>
      <trkpt lat="45.35085" lon="5.71553">
        <ele>1315.8</ele>
        <time>2010-12-04T10:43:07Z</time>
      </trkpt>
      <trkpt lat="45.35083" lon="5.71554">
        <ele>1315.8</ele>
        <time>2010-12-04T10:43:10Z</time>
      </trkpt>
      <trkpt lat="45.35081" lon="5.71558">
        <ele>1316.6</ele>
        <time>2010-12-04T10:43:16Z</time>
      </trkpt>
      <trkpt lat="45.35078" lon="5.71561">
        <ele>1318.2</ele>
        <time>2010-12-04T10:43:23Z</time>
      </trkpt>
      <trkpt lat="45.35079" lon="5.71562">
        <ele>1319.8</ele>
        <time>2010-12-04T10:43:28Z</time>
      </trkpt>
      <trkpt lat="45.3508" lon="5.71562">
        <ele>1322.2</ele>
        <time>2010-12-04T10:43:34Z</time>
      </trkpt>
      <trkpt lat="45.35078" lon="5.71562">
        <ele>1325.4</ele>
        <time>2010-12-04T10:43:43Z</time>
      </trkpt>
      <trkpt lat="45.35074" lon="5.71564">
        <ele>1326</ele>
        <time>2010-12-04T10:43:48Z</time>
      </trkpt>
      <trkpt lat="45.35071" lon="5.71565">
        <ele>1326.2</ele>
        <time>2010-12-04T10:43:53Z</time>
      </trkpt>
      <trkpt lat="45.35071" lon="5.71565">
        <ele>1326.2</ele>
        <time>2010-12-04T10:43:54Z</time>
      </trkpt>
      <trkpt lat="45.35069" lon="5.71566">
        <ele>1326.2</ele>
        <time>2010-12-04T10:43:58Z</time>
      </trkpt>
      <trkpt lat="45.35066" lon="5.71571">
        <ele>1327.2</ele>
        <time>2010-12-04T10:44:24Z</time>
      </trkpt>
      <trkpt lat="45.35062" lon="5.71574">
        <ele>1328.2</ele>
        <time>2010-12-04T10:44:30Z</time>
      </trkpt>
      <trkpt lat="45.35058" lon="5.71576">
        <ele>1329.4</ele>
        <time>2010-12-04T10:44:36Z</time>
      </trkpt>
      <trkpt lat="45.35057" lon="5.71577">
        <ele>1330.6</ele>
        <time>2010-12-04T10:44:42Z</time>
      </trkpt>
      <trkpt lat="45.35056" lon="5.7158">
        <ele>1331</ele>
        <time>2010-12-04T10:44:46Z</time>
      </trkpt>
      <trkpt lat="45.35053" lon="5.71583">
        <ele>1332</ele>
        <time>2010-12-04T10:44:51Z</time>
      </trkpt>
      <trkpt lat="45.35049" lon="5.71583">
        <ele>1334.2</ele>
        <time>2010-12-04T10:45:06Z</time>
      </trkpt>
      <trkpt lat="45.35047" lon="5.71581">
        <ele>1334.8</ele>
        <time>2010-12-04T10:45:12Z</time>
      </trkpt>
      <trkpt lat="45.35046" lon="5.71583">
        <ele>1336.2</ele>
        <time>2010-12-04T10:45:21Z</time>
      </trkpt>
      <trkpt lat="45.35044" lon="5.71584">
        <ele>1336.6</ele>
        <time>2010-12-04T10:45:24Z</time>
      </trkpt>
      <trkpt lat="45.35041" lon="5.71583">
        <ele>1337.8</ele>
        <time>2010-12-04T10:45:30Z</time>
      </trkpt>
      <trkpt lat="45.35037" lon="5.71582">
        <ele>1338.2</ele>
        <time>2010-12-04T10:45:41Z</time>
      </trkpt>
      <trkpt lat="45.35034" lon="5.71582">
        <ele>1339</ele>
        <time>2010-12-04T10:45:46Z</time>
      </trkpt>
      <trkpt lat="45.35033" lon="5.71584">
        <ele>1339.2</ele>
        <time>2010-12-04T10:45:50Z</time>
      </trkpt>
      <trkpt lat="45.35032" lon="5.71585">
        <ele>1339.6</ele>
        <time>2010-12-04T10:45:55Z</time>
      </trkpt>
      <trkpt lat="45.3503" lon="5.71591">
        <ele>1340.6</ele>
        <time>2010-12-04T10:46:02Z</time>
      </trkpt>
      <trkpt lat="45.35026" lon="5.71592">
        <ele>1340.8</ele>
        <time>2010-12-04T10:46:06Z</time>
      </trkpt>
      <trkpt lat="45.35023" lon="5.71593">
        <ele>1340.8</ele>
        <time>2010-12-04T10:46:09Z</time>
      </trkpt>
      <trkpt lat="45.35022" lon="5.71596">
        <ele>1341</ele>
        <time>2010-12-04T10:46:12Z</time>
      </trkpt>
      <trkpt lat="45.35022" lon="5.71597">
        <ele>1341.2</ele>
        <time>2010-12-04T10:46:14Z</time>
      </trkpt>
      <trkpt lat="45.3502" lon="5.71601">
        <ele>1341.6</ele>
        <time>2010-12-04T10:46:18Z</time>
      </trkpt>
      <trkpt lat="45.35016" lon="5.71604">
        <ele>1341.8</ele>
        <time>2010-12-04T10:46:23Z</time>
      </trkpt>
      <trkpt lat="45.35015" lon="5.71607">
        <ele>1342.4</ele>
        <time>2010-12-04T10:46:27Z</time>
      </trkpt>
      <trkpt lat="45.35014" lon="5.71609">
        <ele>1342.8</ele>
        <time>2010-12-04T10:46:30Z</time>
      </trkpt>
      <trkpt lat="45.35012" lon="5.71617">
        <ele>1345.8</ele>
        <time>2010-12-04T10:46:41Z</time>
      </trkpt>
      <trkpt lat="45.3501" lon="5.7162">
        <ele>1346.6</ele>
        <time>2010-12-04T10:46:45Z</time>
      </trkpt>
      <trkpt lat="45.35006" lon="5.71625">
        <ele>1347.8</ele>
        <time>2010-12-04T10:46:51Z</time>
      </trkpt>
      <trkpt lat="45.35004" lon="5.71626">
        <ele>1348</ele>
        <time>2010-12-04T10:46:53Z</time>
      </trkpt>
      <trkpt lat="45.35004" lon="5.71626">
        <ele>1348.2</ele>
        <time>2010-12-04T10:46:54Z</time>
      </trkpt>
      <trkpt lat="45.35001" lon="5.71627">
        <ele>1348.4</ele>
        <time>2010-12-04T10:46:57Z</time>
      </trkpt>
      <trkpt lat="45.34999" lon="5.71631">
        <ele>1348.8</ele>
        <time>2010-12-04T10:47:01Z</time>
      </trkpt>
      <trkpt lat="45.34997" lon="5.71636">
        <ele>1348.8</ele>
        <time>2010-12-04T10:47:06Z</time>
      </trkpt>
      <trkpt lat="45.34994" lon="5.71638">
        <ele>1348.6</ele>
        <time>2010-12-04T10:47:11Z</time>
      </trkpt>
      <trkpt lat="45.34992" lon="5.71646">
        <ele>1348.4</ele>
        <time>2010-12-04T10:47:20Z</time>
      </trkpt>
      <trkpt lat="45.34993" lon="5.71647">
        <ele>1348.4</ele>
        <time>2010-12-04T10:47:21Z</time>
      </trkpt>
      <trkpt lat="45.34993" lon="5.71651">
        <ele>1348.2</ele>
        <time>2010-12-04T10:47:25Z</time>
      </trkpt>
      <trkpt lat="45.34994" lon="5.71656">
        <ele>1348</ele>
        <time>2010-12-04T10:47:32Z</time>
      </trkpt>
      <trkpt lat="45.34996" lon="5.71659">
        <ele>1347.8</ele>
        <time>2010-12-04T10:47:38Z</time>
      </trkpt>
      <trkpt lat="45.34996" lon="5.71658">
        <ele>1347.6</ele>
        <time>2010-12-04T10:47:42Z</time>
      </trkpt>
      <trkpt lat="45.34997" lon="5.71653">
        <ele>1347</ele>
        <time>2010-12-04T10:47:50Z</time>
      </trkpt>
      <trkpt lat="45.35002" lon="5.71652">
        <ele>1346.6</ele>
        <time>2010-12-04T10:47:56Z</time>
      </trkpt>
      <trkpt lat="45.35008" lon="5.71651">
        <ele>1346.8</ele>
        <time>2010-12-04T10:48:02Z</time>
      </trkpt>
      <trkpt lat="45.3501" lon="5.71647">
        <ele>1347.2</ele>
        <time>2010-12-04T10:48:08Z</time>
      </trkpt>
      <trkpt lat="45.35012" lon="5.71647">
        <ele>1347.6</ele>
        <time>2010-12-04T10:48:10Z</time>
      </trkpt>
      <trkpt lat="45.35017" lon="5.71648">
        <ele>1348.6</ele>
        <time>2010-12-04T10:48:14Z</time>
      </trkpt>
      <trkpt lat="45.35018" lon="5.71648">
        <ele>1348.6</ele>
        <time>2010-12-04T10:48:15Z</time>
      </trkpt>
      <trkpt lat="45.35019" lon="5.71649">
        <ele>1349.4</ele>
        <time>2010-12-04T10:48:18Z</time>
      </trkpt>
      <trkpt lat="45.3502" lon="5.71653">
        <ele>1351</ele>
        <time>2010-12-04T10:48:25Z</time>
      </trkpt>
      <trkpt lat="45.35023" lon="5.71658">
        <ele>1352.4</ele>
        <time>2010-12-04T10:48:32Z</time>
      </trkpt>
      <trkpt lat="45.35025" lon="5.71661">
        <ele>1353.4</ele>
        <time>2010-12-04T10:48:39Z</time>
      </trkpt>
      <trkpt lat="45.35028" lon="5.71665">
        <ele>1354</ele>
        <time>2010-12-04T10:48:44Z</time>
      </trkpt>
      <trkpt lat="45.35028" lon="5.71669">
        <ele>1353.8</ele>
        <time>2010-12-04T10:48:56Z</time>
      </trkpt>
      <trkpt lat="45.35025" lon="5.71669">
        <ele>1353.8</ele>
        <time>2010-12-04T10:49:01Z</time>
      </trkpt>
      <trkpt lat="45.35022" lon="5.7167">
        <ele>1353.4</ele>
        <time>2010-12-04T10:49:10Z</time>
      </trkpt>
      <trkpt lat="45.3502" lon="5.71669">
        <ele>1353.4</ele>
        <time>2010-12-04T10:49:32Z</time>
      </trkpt>
      <trkpt lat="45.35021" lon="5.71668">
        <ele>1353.6</ele>
        <time>2010-12-04T10:49:38Z</time>
      </trkpt>
      <trkpt lat="45.35026" lon="5.7167">
        <ele>1354.2</ele>
        <time>2010-12-04T10:49:45Z</time>
      </trkpt>
      <trkpt lat="45.35028" lon="5.71672">
        <ele>1354.6</ele>
        <time>2010-12-04T10:49:49Z</time>
      </trkpt>
      <trkpt lat="45.3503" lon="5.71673">
        <ele>1355.2</ele>
        <time>2010-12-04T10:49:52Z</time>
      </trkpt>
      <trkpt lat="45.35031" lon="5.71676">
        <ele>1355.2</ele>
        <time>2010-12-04T10:49:57Z</time>
      </trkpt>
      <trkpt lat="45.35031" lon="5.7168">
        <ele>1355.2</ele>
        <time>2010-12-04T10:50:03Z</time>
      </trkpt>
      <trkpt lat="45.35033" lon="5.71682">
        <ele>1355.2</ele>
        <time>2010-12-04T10:50:09Z</time>
      </trkpt>
      <trkpt lat="45.35037" lon="5.71682">
        <ele>1355.4</ele>
        <time>2010-12-04T10:50:15Z</time>
      </trkpt>
      <trkpt lat="45.35037" lon="5.71685">
        <ele>1356.2</ele>
        <time>2010-12-04T10:50:36Z</time>
      </trkpt>
      <trkpt lat="45.35038" lon="5.71685">
        <ele>1356.4</ele>
        <time>2010-12-04T10:50:39Z</time>
      </trkpt>
      <trkpt lat="45.3504" lon="5.71686">
        <ele>1356.6</ele>
        <time>2010-12-04T10:50:42Z</time>
      </trkpt>
      <trkpt lat="45.35039" lon="5.71686">
        <ele>1356.6</ele>
        <time>2010-12-04T10:50:44Z</time>
      </trkpt>
      <trkpt lat="45.35039" lon="5.71691">
        <ele>1357.2</ele>
        <time>2010-12-04T10:50:50Z</time>
      </trkpt>
      <trkpt lat="45.3504" lon="5.71693">
        <ele>1357.2</ele>
        <time>2010-12-04T10:50:54Z</time>
      </trkpt>
      <trkpt lat="45.35042" lon="5.71693">
        <ele>1357.6</ele>
        <time>2010-12-04T10:50:57Z</time>
      </trkpt>
      <trkpt lat="45.35042" lon="5.71694">
        <ele>1358.2</ele>
        <time>2010-12-04T10:51:01Z</time>
      </trkpt>
      <trkpt lat="45.35041" lon="5.71698">
        <ele>1358.2</ele>
        <time>2010-12-04T10:51:17Z</time>
      </trkpt>
      <trkpt lat="45.35043" lon="5.71699">
        <ele>1358.6</ele>
        <time>2010-12-04T10:51:25Z</time>
      </trkpt>
      <trkpt lat="45.35046" lon="5.71704">
        <ele>1359.2</ele>
        <time>2010-12-04T10:51:37Z</time>
      </trkpt>
      <trkpt lat="45.35046" lon="5.71704">
        <ele>1359.2</ele>
        <time>2010-12-04T10:51:38Z</time>
      </trkpt>
      <trkpt lat="45.35044" lon="5.71706">
        <ele>1359</ele>
        <time>2010-12-04T10:51:43Z</time>
      </trkpt>
      <trkpt lat="45.35041" lon="5.71709">
        <ele>1358.2</ele>
        <time>2010-12-04T10:51:55Z</time>
      </trkpt>
      <trkpt lat="45.35042" lon="5.71709">
        <ele>1357.8</ele>
        <time>2010-12-04T10:52:00Z</time>
      </trkpt>
      <trkpt lat="45.35045" lon="5.71709">
        <ele>1357.4</ele>
        <time>2010-12-04T10:52:15Z</time>
      </trkpt>
      <trkpt lat="45.35049" lon="5.71713">
        <ele>1357.8</ele>
        <time>2010-12-04T10:52:24Z</time>
      </trkpt>
      <trkpt lat="45.35051" lon="5.71715">
        <ele>1358</ele>
        <time>2010-12-04T10:52:31Z</time>
      </trkpt>
      <trkpt lat="45.35055" lon="5.71714">
        <ele>1358.8</ele>
        <time>2010-12-04T10:52:40Z</time>
      </trkpt>
      <trkpt lat="45.35056" lon="5.71716">
        <ele>1359</ele>
        <time>2010-12-04T10:52:41Z</time>
      </trkpt>
      <trkpt lat="45.35056" lon="5.71713">
        <ele>1359.6</ele>
        <time>2010-12-04T10:52:48Z</time>
      </trkpt>
      <trkpt lat="45.35061" lon="5.7172">
        <ele>1361</ele>
        <time>2010-12-04T10:53:01Z</time>
      </trkpt>
      <trkpt lat="45.35063" lon="5.71723">
        <ele>1361.4</ele>
        <time>2010-12-04T10:53:04Z</time>
      </trkpt>
      <trkpt lat="45.35069" lon="5.71731">
        <ele>1362.6</ele>
        <time>2010-12-04T10:53:14Z</time>
      </trkpt>
      <trkpt lat="45.35069" lon="5.71724">
        <ele>1363.8</ele>
        <time>2010-12-04T10:53:31Z</time>
      </trkpt>
      <trkpt lat="45.35069" lon="5.71723">
        <ele>1364</ele>
        <time>2010-12-04T10:53:32Z</time>
      </trkpt>
      <trkpt lat="45.35075" lon="5.71728">
        <ele>1365.2</ele>
        <time>2010-12-04T10:53:44Z</time>
      </trkpt>
      <trkpt lat="45.35076" lon="5.7173">
        <ele>1365.6</ele>
        <time>2010-12-04T10:53:47Z</time>
      </trkpt>
      <trkpt lat="45.35077" lon="5.71732">
        <ele>1366</ele>
        <time>2010-12-04T10:53:49Z</time>
      </trkpt>
      <trkpt lat="45.35078" lon="5.71733">
        <ele>1366.4</ele>
        <time>2010-12-04T10:53:52Z</time>
      </trkpt>
      <trkpt lat="45.35078" lon="5.7173">
        <ele>1366.8</ele>
        <time>2010-12-04T10:53:55Z</time>
      </trkpt>
      <trkpt lat="45.35079" lon="5.71733">
        <ele>1367</ele>
        <time>2010-12-04T10:53:57Z</time>
      </trkpt>
      <trkpt lat="45.35082" lon="5.71742">
        <ele>1368</ele>
        <time>2010-12-04T10:54:07Z</time>
      </trkpt>
      <trkpt lat="45.35085" lon="5.71744">
        <ele>1368.4</ele>
        <time>2010-12-04T10:54:11Z</time>
      </trkpt>
      <trkpt lat="45.35088" lon="5.71748">
        <ele>1369</ele>
        <time>2010-12-04T10:54:20Z</time>
      </trkpt>
      <trkpt lat="45.3509" lon="5.7175">
        <ele>1369.4</ele>
        <time>2010-12-04T10:54:25Z</time>
      </trkpt>
      <trkpt lat="45.3509" lon="5.7175">
        <ele>1369.8</ele>
        <time>2010-12-04T10:54:29Z</time>
      </trkpt>
      <trkpt lat="45.35089" lon="5.71751">
        <ele>1370.4</ele>
        <time>2010-12-04T10:54:35Z</time>
      </trkpt>
      <trkpt lat="45.35087" lon="5.71751">
        <ele>1370.8</ele>
        <time>2010-12-04T10:54:39Z</time>
      </trkpt>
      <trkpt lat="45.35088" lon="5.71757">
        <ele>1371.4</ele>
        <time>2010-12-04T10:54:50Z</time>
      </trkpt>
      <trkpt lat="45.35088" lon="5.71757">
        <ele>1371.4</ele>
        <time>2010-12-04T10:54:51Z</time>
      </trkpt>
      <trkpt lat="45.3509" lon="5.7176">
        <ele>1371.6</ele>
        <time>2010-12-04T10:54:55Z</time>
      </trkpt>
      <trkpt lat="45.35091" lon="5.71763">
        <ele>1371.6</ele>
        <time>2010-12-04T10:55:00Z</time>
      </trkpt>
      <trkpt lat="45.35091" lon="5.71765">
        <ele>1371.8</ele>
        <time>2010-12-04T10:55:04Z</time>
      </trkpt>
      <trkpt lat="45.35091" lon="5.71765">
        <ele>1371.8</ele>
        <time>2010-12-04T10:55:10Z</time>
      </trkpt>
      <trkpt lat="45.35092" lon="5.71754">
        <ele>1373.4</ele>
        <time>2010-12-04T10:55:16Z</time>
      </trkpt>
      <trkpt lat="45.35094" lon="5.71754">
        <ele>1374</ele>
        <time>2010-12-04T10:55:18Z</time>
      </trkpt>
      <trkpt lat="45.35096" lon="5.71755">
        <ele>1375.2</ele>
        <time>2010-12-04T10:55:23Z</time>
      </trkpt>
      <trkpt lat="45.35097" lon="5.7176">
        <ele>1376.4</ele>
        <time>2010-12-04T10:55:29Z</time>
      </trkpt>
      <trkpt lat="45.35097" lon="5.71762">
        <ele>1376.8</ele>
        <time>2010-12-04T10:55:31Z</time>
      </trkpt>
      <trkpt lat="45.35097" lon="5.71767">
        <ele>1377.4</ele>
        <time>2010-12-04T10:55:35Z</time>
      </trkpt>
      <trkpt lat="45.35096" lon="5.71763">
        <ele>1378</ele>
        <time>2010-12-04T10:55:40Z</time>
      </trkpt>
      <trkpt lat="45.35095" lon="5.71762">
        <ele>1378.4</ele>
        <time>2010-12-04T10:55:42Z</time>
      </trkpt>
      <trkpt lat="45.35096" lon="5.71767">
        <ele>1378.4</ele>
        <time>2010-12-04T10:55:44Z</time>
      </trkpt>
      <trkpt lat="45.35097" lon="5.7177">
        <ele>1378.6</ele>
        <time>2010-12-04T10:55:48Z</time>
      </trkpt>
      <trkpt lat="45.35094" lon="5.71764">
        <ele>1379.4</ele>
        <time>2010-12-04T10:56:18Z</time>
      </trkpt>
      <trkpt lat="45.35093" lon="5.71767">
        <ele>1380.2</ele>
        <time>2010-12-04T10:56:24Z</time>
      </trkpt>
      <trkpt lat="45.3509" lon="5.71771">
        <ele>1381</ele>
        <time>2010-12-04T10:56:30Z</time>
      </trkpt>
      <trkpt lat="45.35093" lon="5.71776">
        <ele>1382.2</ele>
        <time>2010-12-04T10:56:39Z</time>
      </trkpt>
      <trkpt lat="45.3509" lon="5.71776">
        <ele>1383.2</ele>
        <time>2010-12-04T10:56:47Z</time>
      </trkpt>
      <trkpt lat="45.35088" lon="5.71777">
        <ele>1383.6</ele>
        <time>2010-12-04T10:56:51Z</time>
      </trkpt>
      <trkpt lat="45.35086" lon="5.71776">
        <ele>1384</ele>
        <time>2010-12-04T10:56:54Z</time>
      </trkpt>
      <trkpt lat="45.35085" lon="5.71776">
        <ele>1384.2</ele>
        <time>2010-12-04T10:56:58Z</time>
      </trkpt>
      <trkpt lat="45.35086" lon="5.71778">
        <ele>1384.8</ele>
        <time>2010-12-04T10:57:05Z</time>
      </trkpt>
      <trkpt lat="45.35087" lon="5.7178">
        <ele>1385</ele>
        <time>2010-12-04T10:57:09Z</time>
      </trkpt>
      <trkpt lat="45.35087" lon="5.71782">
        <ele>1385.4</ele>
        <time>2010-12-04T10:57:18Z</time>
      </trkpt>
      <trkpt lat="45.35089" lon="5.7178">
        <ele>1387.4</ele>
        <time>2010-12-04T10:57:42Z</time>
      </trkpt>
      <trkpt lat="45.35089" lon="5.7178">
        <ele>1387.4</ele>
        <time>2010-12-04T10:57:46Z</time>
      </trkpt>
      <trkpt lat="45.35091" lon="5.71783">
        <ele>1388</ele>
        <time>2010-12-04T10:58:01Z</time>
      </trkpt>
      <trkpt lat="45.35088" lon="5.71781">
        <ele>1388.2</ele>
        <time>2010-12-04T10:58:05Z</time>
      </trkpt>
      <trkpt lat="45.35088" lon="5.71782">
        <ele>1388.4</ele>
        <time>2010-12-04T10:58:07Z</time>
      </trkpt>
      <trkpt lat="45.35085" lon="5.71784">
        <ele>1389.2</ele>
        <time>2010-12-04T10:58:14Z</time>
      </trkpt>
      <trkpt lat="45.35085" lon="5.71785">
        <ele>1389.4</ele>
        <time>2010-12-04T10:58:15Z</time>
      </trkpt>
      <trkpt lat="45.35083" lon="5.71787">
        <ele>1390.4</ele>
        <time>2010-12-04T10:58:23Z</time>
      </trkpt>
      <trkpt lat="45.35084" lon="5.71787">
        <ele>1391.2</ele>
        <time>2010-12-04T10:58:30Z</time>
      </trkpt>
      <trkpt lat="45.35085" lon="5.7179">
        <ele>1391.8</ele>
        <time>2010-12-04T10:58:35Z</time>
      </trkpt>
      <trkpt lat="45.35083" lon="5.71789">
        <ele>1394.2</ele>
        <time>2010-12-04T10:58:55Z</time>
      </trkpt>
      <trkpt lat="45.35082" lon="5.71788">
        <ele>1394.4</ele>
        <time>2010-12-04T10:58:57Z</time>
      </trkpt>
      <trkpt lat="45.3508" lon="5.71788">
        <ele>1394.4</ele>
        <time>2010-12-04T10:58:59Z</time>
      </trkpt>
      <trkpt lat="45.35077" lon="5.71786">
        <ele>1394.6</ele>
        <time>2010-12-04T10:59:02Z</time>
      </trkpt>
      <trkpt lat="45.35075" lon="5.71786">
        <ele>1394.6</ele>
        <time>2010-12-04T10:59:04Z</time>
      </trkpt>
      <trkpt lat="45.35074" lon="5.71787">
        <ele>1394.8</ele>
        <time>2010-12-04T10:59:06Z</time>
      </trkpt>
      <trkpt lat="45.35073" lon="5.71787">
        <ele>1394.8</ele>
        <time>2010-12-04T10:59:07Z</time>
      </trkpt>
      <trkpt lat="45.35072" lon="5.71787">
        <ele>1395</ele>
        <time>2010-12-04T10:59:10Z</time>
      </trkpt>
      <trkpt lat="45.35069" lon="5.71787">
        <ele>1395.4</ele>
        <time>2010-12-04T10:59:15Z</time>
      </trkpt>
      <trkpt lat="45.35065" lon="5.71787">
        <ele>1395.8</ele>
        <time>2010-12-04T10:59:20Z</time>
      </trkpt>
      <trkpt lat="45.35063" lon="5.71787">
        <ele>1396.2</ele>
        <time>2010-12-04T10:59:26Z</time>
      </trkpt>
      <trkpt lat="45.35065" lon="5.7179">
        <ele>1397</ele>
        <time>2010-12-04T10:59:35Z</time>
      </trkpt>
      <trkpt lat="45.35065" lon="5.71787">
        <ele>1398</ele>
        <time>2010-12-04T10:59:40Z</time>
      </trkpt>
      <trkpt lat="45.35066" lon="5.71789">
        <ele>1398.6</ele>
        <time>2010-12-04T10:59:45Z</time>
      </trkpt>
      <trkpt lat="45.35066" lon="5.71791">
        <ele>1399.6</ele>
        <time>2010-12-04T10:59:54Z</time>
      </trkpt>
      <trkpt lat="45.35066" lon="5.71792">
        <ele>1399.6</ele>
        <time>2010-12-04T10:59:55Z</time>
      </trkpt>
      <trkpt lat="45.35063" lon="5.71794">
        <ele>1400</ele>
        <time>2010-12-04T11:00:01Z</time>
      </trkpt>
      <trkpt lat="45.35062" lon="5.71796">
        <ele>1400.4</ele>
        <time>2010-12-04T11:00:05Z</time>
      </trkpt>
      <trkpt lat="45.3506" lon="5.71797">
        <ele>1400.8</ele>
        <time>2010-12-04T11:00:09Z</time>
      </trkpt>
      <trkpt lat="45.35056" lon="5.71795">
        <ele>1401.4</ele>
        <time>2010-12-04T11:00:15Z</time>
      </trkpt>
      <trkpt lat="45.35053" lon="5.71795">
        <ele>1402</ele>
        <time>2010-12-04T11:00:19Z</time>
      </trkpt>
      <trkpt lat="45.35055" lon="5.71797">
        <ele>1402.8</ele>
        <time>2010-12-04T11:00:27Z</time>
      </trkpt>
      <trkpt lat="45.35055" lon="5.71799">
        <ele>1403.2</ele>
        <time>2010-12-04T11:00:32Z</time>
      </trkpt>
      <trkpt lat="45.35054" lon="5.71801">
        <ele>1403.2</ele>
        <time>2010-12-04T11:00:38Z</time>
      </trkpt>
      <trkpt lat="45.35056" lon="5.71806">
        <ele>1403.2</ele>
        <time>2010-12-04T11:00:49Z</time>
      </trkpt>
      <trkpt lat="45.35055" lon="5.71803">
        <ele>1403.6</ele>
        <time>2010-12-04T11:00:56Z</time>
      </trkpt>
      <trkpt lat="45.35053" lon="5.71803">
        <ele>1403.8</ele>
        <time>2010-12-04T11:00:59Z</time>
      </trkpt>
      <trkpt lat="45.35052" lon="5.71804">
        <ele>1403.8</ele>
        <time>2010-12-04T11:01:00Z</time>
      </trkpt>
      <trkpt lat="45.3505" lon="5.71806">
        <ele>1404.2</ele>
        <time>2010-12-04T11:01:05Z</time>
      </trkpt>
      <trkpt lat="45.35047" lon="5.71806">
        <ele>1404.6</ele>
        <time>2010-12-04T11:01:10Z</time>
      </trkpt>
      <trkpt lat="45.35045" lon="5.71806">
        <ele>1405</ele>
        <time>2010-12-04T11:01:14Z</time>
      </trkpt>
      <trkpt lat="45.35042" lon="5.71805">
        <ele>1405.6</ele>
        <time>2010-12-04T11:01:19Z</time>
      </trkpt>
      <trkpt lat="45.35041" lon="5.71806">
        <ele>1406</ele>
        <time>2010-12-04T11:01:23Z</time>
      </trkpt>
      <trkpt lat="45.35039" lon="5.71807">
        <ele>1406.4</ele>
        <time>2010-12-04T11:01:26Z</time>
      </trkpt>
      <trkpt lat="45.35038" lon="5.71807">
        <ele>1406.6</ele>
        <time>2010-12-04T11:01:27Z</time>
      </trkpt>
      <trkpt lat="45.35036" lon="5.71808">
        <ele>1407</ele>
        <time>2010-12-04T11:01:31Z</time>
      </trkpt>
      <trkpt lat="45.35034" lon="5.7181">
        <ele>1407.6</ele>
        <time>2010-12-04T11:01:36Z</time>
      </trkpt>
      <trkpt lat="45.35031" lon="5.71811">
        <ele>1408.2</ele>
        <time>2010-12-04T11:01:41Z</time>
      </trkpt>
      <trkpt lat="45.3503" lon="5.71813">
        <ele>1408.8</ele>
        <time>2010-12-04T11:01:45Z</time>
      </trkpt>
      <trkpt lat="45.3503" lon="5.71816">
        <ele>1410.4</ele>
        <time>2010-12-04T11:01:53Z</time>
      </trkpt>
      <trkpt lat="45.3503" lon="5.71814">
        <ele>1415.8</ele>
        <time>2010-12-04T11:02:28Z</time>
      </trkpt>
      <trkpt lat="45.35029" lon="5.71816">
        <ele>1416.2</ele>
        <time>2010-12-04T11:02:32Z</time>
      </trkpt>
      <trkpt lat="45.35027" lon="5.71816">
        <ele>1416.2</ele>
        <time>2010-12-04T11:02:55Z</time>
      </trkpt>
      <trkpt lat="45.35027" lon="5.71815">
        <ele>1416.4</ele>
        <time>2010-12-04T11:02:57Z</time>
      </trkpt>
      <trkpt lat="45.35025" lon="5.71816">
        <ele>1416.6</ele>
        <time>2010-12-04T11:03:00Z</time>
      </trkpt>
      <trkpt lat="45.35023" lon="5.71819">
        <ele>1416.6</ele>
        <time>2010-12-04T11:03:03Z</time>
      </trkpt>
      <trkpt lat="45.35021" lon="5.71819">
        <ele>1416.6</ele>
        <time>2010-12-04T11:03:05Z</time>
      </trkpt>
      <trkpt lat="45.35019" lon="5.71821">
        <ele>1416.8</ele>
        <time>2010-12-04T11:03:08Z</time>
      </trkpt>
      <trkpt lat="45.35017" lon="5.71823">
        <ele>1417.2</ele>
        <time>2010-12-04T11:03:13Z</time>
      </trkpt>
      <trkpt lat="45.35015" lon="5.71825">
        <ele>1417.4</ele>
        <time>2010-12-04T11:03:17Z</time>
      </trkpt>
      <trkpt lat="45.35012" lon="5.71826">
        <ele>1418</ele>
        <time>2010-12-04T11:03:24Z</time>
      </trkpt>
      <trkpt lat="45.35009" lon="5.71827">
        <ele>1418.6</ele>
        <time>2010-12-04T11:03:29Z</time>
      </trkpt>
      <trkpt lat="45.35006" lon="5.71828">
        <ele>1419.4</ele>
        <time>2010-12-04T11:03:34Z</time>
      </trkpt>
      <trkpt lat="45.35003" lon="5.71828">
        <ele>1420.2</ele>
        <time>2010-12-04T11:03:40Z</time>
      </trkpt>
      <trkpt lat="45.35001" lon="5.7183">
        <ele>1420.6</ele>
        <time>2010-12-04T11:03:44Z</time>
      </trkpt>
      <trkpt lat="45.34999" lon="5.71829">
        <ele>1421.4</ele>
        <time>2010-12-04T11:03:49Z</time>
      </trkpt>
      <trkpt lat="45.35" lon="5.71828">
        <ele>1423.6</ele>
        <time>2010-12-04T11:04:11Z</time>
      </trkpt>
      <trkpt lat="45.35002" lon="5.71832">
        <ele>1423.8</ele>
        <time>2010-12-04T11:04:17Z</time>
      </trkpt>
      <trkpt lat="45.35004" lon="5.71833">
        <ele>1425.2</ele>
        <time>2010-12-04T11:04:23Z</time>
      </trkpt>
      <trkpt lat="45.35006" lon="5.71836">
        <ele>1425.6</ele>
        <time>2010-12-04T11:04:24Z</time>
      </trkpt>
      <trkpt lat="45.35007" lon="5.71838">
        <ele>1426.6</ele>
        <time>2010-12-04T11:04:29Z</time>
      </trkpt>
      <trkpt lat="45.35" lon="5.71824">
        <ele>1427.4</ele>
        <time>2010-12-04T11:04:37Z</time>
      </trkpt>
      <trkpt lat="45.34999" lon="5.71821">
        <ele>1427.6</ele>
        <time>2010-12-04T11:04:38Z</time>
      </trkpt>
      <trkpt lat="45.34998" lon="5.71823">
        <ele>1427</ele>
        <time>2010-12-04T11:04:43Z</time>
      </trkpt>
      <trkpt lat="45.34996" lon="5.71825">
        <ele>1426.4</ele>
        <time>2010-12-04T11:04:47Z</time>
      </trkpt>
      <trkpt lat="45.35002" lon="5.71838">
        <ele>1425.8</ele>
        <time>2010-12-04T11:04:57Z</time>
      </trkpt>
      <trkpt lat="45.35002" lon="5.71839">
        <ele>1425.6</ele>
        <time>2010-12-04T11:05:01Z</time>
      </trkpt>
      <trkpt lat="45.35001" lon="5.71839">
        <ele>1425.6</ele>
        <time>2010-12-04T11:05:03Z</time>
      </trkpt>
      <trkpt lat="45.34998" lon="5.71837">
        <ele>1425.4</ele>
        <time>2010-12-04T11:05:09Z</time>
      </trkpt>
      <trkpt lat="45.34995" lon="5.71838">
        <ele>1425.4</ele>
        <time>2010-12-04T11:05:15Z</time>
      </trkpt>
      <trkpt lat="45.34993" lon="5.71838">
        <ele>1425.4</ele>
        <time>2010-12-04T11:05:19Z</time>
      </trkpt>
      <trkpt lat="45.34989" lon="5.71839">
        <ele>1426</ele>
        <time>2010-12-04T11:05:26Z</time>
      </trkpt>
      <trkpt lat="45.34986" lon="5.71832">
        <ele>1428</ele>
        <time>2010-12-04T11:05:33Z</time>
      </trkpt>
      <trkpt lat="45.34985" lon="5.71832">
        <ele>1428.4</ele>
        <time>2010-12-04T11:05:34Z</time>
      </trkpt>
      <trkpt lat="45.34983" lon="5.71831">
        <ele>1429.4</ele>
        <time>2010-12-04T11:05:37Z</time>
      </trkpt>
      <trkpt lat="45.34982" lon="5.71832">
        <ele>1429.6</ele>
        <time>2010-12-04T11:05:38Z</time>
      </trkpt>
      <trkpt lat="45.34981" lon="5.71832">
        <ele>1430.2</ele>
        <time>2010-12-04T11:05:40Z</time>
      </trkpt>
      <trkpt lat="45.34979" lon="5.71832">
        <ele>1431</ele>
        <time>2010-12-04T11:05:43Z</time>
      </trkpt>
      <trkpt lat="45.34975" lon="5.7183">
        <ele>1433</ele>
        <time>2010-12-04T11:05:50Z</time>
      </trkpt>
      <trkpt lat="45.34974" lon="5.7183">
        <ele>1434.8</ele>
        <time>2010-12-04T11:05:57Z</time>
      </trkpt>
      <trkpt lat="45.34972" lon="5.71832">
        <ele>1436.2</ele>
        <time>2010-12-04T11:06:03Z</time>
      </trkpt>
      <trkpt lat="45.34969" lon="5.71832">
        <ele>1437.6</ele>
        <time>2010-12-04T11:06:09Z</time>
      </trkpt>
      <trkpt lat="45.34968" lon="5.71836">
        <ele>1439.4</ele>
        <time>2010-12-04T11:06:19Z</time>
      </trkpt>
      <trkpt lat="45.34968" lon="5.71837">
        <ele>1443.6</ele>
        <time>2010-12-04T11:06:47Z</time>
      </trkpt>
      <trkpt lat="45.34967" lon="5.71836">
        <ele>1443.6</ele>
        <time>2010-12-04T11:06:48Z</time>
      </trkpt>
      <trkpt lat="45.34964" lon="5.71837">
        <ele>1444.4</ele>
        <time>2010-12-04T11:06:52Z</time>
      </trkpt>
      <trkpt lat="45.3496" lon="5.71839">
        <ele>1445</ele>
        <time>2010-12-04T11:06:57Z</time>
      </trkpt>
      <trkpt lat="45.34958" lon="5.7184">
        <ele>1445.6</ele>
        <time>2010-12-04T11:07:01Z</time>
      </trkpt>
      <trkpt lat="45.34959" lon="5.7184">
        <ele>1446.4</ele>
        <time>2010-12-04T11:07:06Z</time>
      </trkpt>
      <trkpt lat="45.3496" lon="5.71841">
        <ele>1446.8</ele>
        <time>2010-12-04T11:07:10Z</time>
      </trkpt>
      <trkpt lat="45.34962" lon="5.71844">
        <ele>1447</ele>
        <time>2010-12-04T11:07:14Z</time>
      </trkpt>
      <trkpt lat="45.34964" lon="5.71845">
        <ele>1447.2</ele>
        <time>2010-12-04T11:07:16Z</time>
      </trkpt>
      <trkpt lat="45.34966" lon="5.71847">
        <ele>1447.6</ele>
        <time>2010-12-04T11:07:19Z</time>
      </trkpt>
      <trkpt lat="45.34966" lon="5.71848">
        <ele>1448</ele>
        <time>2010-12-04T11:07:26Z</time>
      </trkpt>
      <trkpt lat="45.34962" lon="5.71849">
        <ele>1448.2</ele>
        <time>2010-12-04T11:07:35Z</time>
      </trkpt>
      <trkpt lat="45.3496" lon="5.71849">
        <ele>1448.4</ele>
        <time>2010-12-04T11:07:39Z</time>
      </trkpt>
      <trkpt lat="45.34957" lon="5.71849">
        <ele>1448.6</ele>
        <time>2010-12-04T11:07:43Z</time>
      </trkpt>
      <trkpt lat="45.34956" lon="5.71851">
        <ele>1449</ele>
        <time>2010-12-04T11:07:48Z</time>
      </trkpt>
      <trkpt lat="45.34957" lon="5.71852">
        <ele>1449.6</ele>
        <time>2010-12-04T11:07:56Z</time>
      </trkpt>
      <trkpt lat="45.34958" lon="5.71853">
        <ele>1449.6</ele>
        <time>2010-12-04T11:07:57Z</time>
      </trkpt>
      <trkpt lat="45.34959" lon="5.71855">
        <ele>1450</ele>
        <time>2010-12-04T11:08:00Z</time>
      </trkpt>
      <trkpt lat="45.34962" lon="5.71856">
        <ele>1450.8</ele>
        <time>2010-12-04T11:08:06Z</time>
      </trkpt>
      <trkpt lat="45.34962" lon="5.71858">
        <ele>1452.8</ele>
        <time>2010-12-04T11:08:17Z</time>
      </trkpt>
      <trkpt lat="45.3496" lon="5.71859">
        <ele>1453.4</ele>
        <time>2010-12-04T11:08:21Z</time>
      </trkpt>
      <trkpt lat="45.34958" lon="5.71861">
        <ele>1453.8</ele>
        <time>2010-12-04T11:08:25Z</time>
      </trkpt>
      <trkpt lat="45.34955" lon="5.71862">
        <ele>1454.6</ele>
        <time>2010-12-04T11:08:32Z</time>
      </trkpt>
      <trkpt lat="45.34952" lon="5.71863">
        <ele>1455.8</ele>
        <time>2010-12-04T11:08:43Z</time>
      </trkpt>
      <trkpt lat="45.34952" lon="5.71863">
        <ele>1456</ele>
        <time>2010-12-04T11:08:44Z</time>
      </trkpt>
      <trkpt lat="45.34951" lon="5.71863">
        <ele>1456.4</ele>
        <time>2010-12-04T11:08:47Z</time>
      </trkpt>
      <trkpt lat="45.34951" lon="5.71863">
        <ele>1457.2</ele>
        <time>2010-12-04T11:08:57Z</time>
      </trkpt>
      <trkpt lat="45.34953" lon="5.71869">
        <ele>1457.6</ele>
        <time>2010-12-04T11:09:15Z</time>
      </trkpt>
      <trkpt lat="45.34952" lon="5.71872">
        <ele>1457.4</ele>
        <time>2010-12-04T11:09:24Z</time>
      </trkpt>
      <trkpt lat="45.3495" lon="5.71872">
        <ele>1457.6</ele>
        <time>2010-12-04T11:09:29Z</time>
      </trkpt>
      <trkpt lat="45.34949" lon="5.71874">
        <ele>1457.8</ele>
        <time>2010-12-04T11:09:33Z</time>
      </trkpt>
      <trkpt lat="45.34948" lon="5.71875">
        <ele>1458</ele>
        <time>2010-12-04T11:09:37Z</time>
      </trkpt>
      <trkpt lat="45.34949" lon="5.71876">
        <ele>1458.6</ele>
        <time>2010-12-04T11:09:48Z</time>
      </trkpt>
      <trkpt lat="45.34949" lon="5.71877">
        <ele>1458.6</ele>
        <time>2010-12-04T11:09:49Z</time>
      </trkpt>
      <trkpt lat="45.3495" lon="5.71878">
        <ele>1458.8</ele>
        <time>2010-12-04T11:09:52Z</time>
      </trkpt>
      <trkpt lat="45.34949" lon="5.71878">
        <ele>1459.2</ele>
        <time>2010-12-04T11:09:59Z</time>
      </trkpt>
      <trkpt lat="45.34946" lon="5.71878">
        <ele>1459.6</ele>
        <time>2010-12-04T11:10:04Z</time>
      </trkpt>
      <trkpt lat="45.34944" lon="5.7188">
        <ele>1460</ele>
        <time>2010-12-04T11:10:08Z</time>
      </trkpt>
      <trkpt lat="45.3494" lon="5.71881">
        <ele>1460.2</ele>
        <time>2010-12-04T11:10:12Z</time>
      </trkpt>
      <trkpt lat="45.34937" lon="5.71884">
        <ele>1460.6</ele>
        <time>2010-12-04T11:10:17Z</time>
      </trkpt>
      <trkpt lat="45.34936" lon="5.71884">
        <ele>1460.6</ele>
        <time>2010-12-04T11:10:19Z</time>
      </trkpt>
      <trkpt lat="45.34935" lon="5.71884">
        <ele>1460.6</ele>
        <time>2010-12-04T11:10:20Z</time>
      </trkpt>
      <trkpt lat="45.34934" lon="5.71884">
        <ele>1460.8</ele>
        <time>2010-12-04T11:10:21Z</time>
      </trkpt>
      <trkpt lat="45.34932" lon="5.71886">
        <ele>1461</ele>
        <time>2010-12-04T11:10:26Z</time>
      </trkpt>
      <trkpt lat="45.34929" lon="5.71884">
        <ele>1461.6</ele>
        <time>2010-12-04T11:10:34Z</time>
      </trkpt>
      <trkpt lat="45.34926" lon="5.7188">
        <ele>1462</ele>
        <time>2010-12-04T11:10:38Z</time>
      </trkpt>
      <trkpt lat="45.34925" lon="5.71877">
        <ele>1462.6</ele>
        <time>2010-12-04T11:10:43Z</time>
      </trkpt>
      <trkpt lat="45.34922" lon="5.71874">
        <ele>1463.2</ele>
        <time>2010-12-04T11:10:49Z</time>
      </trkpt>
      <trkpt lat="45.3492" lon="5.71871">
        <ele>1463.4</ele>
        <time>2010-12-04T11:10:51Z</time>
      </trkpt>
      <trkpt lat="45.3492" lon="5.71871">
        <ele>1463.6</ele>
        <time>2010-12-04T11:10:53Z</time>
      </trkpt>
      <trkpt lat="45.34917" lon="5.7187">
        <ele>1464</ele>
        <time>2010-12-04T11:10:58Z</time>
      </trkpt>
      <trkpt lat="45.34914" lon="5.71869">
        <ele>1464.2</ele>
        <time>2010-12-04T11:11:02Z</time>
      </trkpt>
      <trkpt lat="45.34911" lon="5.71866">
        <ele>1464.8</ele>
        <time>2010-12-04T11:11:08Z</time>
      </trkpt>
      <trkpt lat="45.34909" lon="5.71863">
        <ele>1465.6</ele>
        <time>2010-12-04T11:11:15Z</time>
      </trkpt>
      <trkpt lat="45.34907" lon="5.7186">
        <ele>1466.8</ele>
        <time>2010-12-04T11:11:23Z</time>
      </trkpt>
      <trkpt lat="45.34905" lon="5.71859">
        <ele>1467</ele>
        <time>2010-12-04T11:11:25Z</time>
      </trkpt>
      <trkpt lat="45.34904" lon="5.71858">
        <ele>1467.2</ele>
        <time>2010-12-04T11:11:27Z</time>
      </trkpt>
      <trkpt lat="45.349" lon="5.71855">
        <ele>1468</ele>
        <time>2010-12-04T11:11:33Z</time>
      </trkpt>
      <trkpt lat="45.34898" lon="5.71851">
        <ele>1468.6</ele>
        <time>2010-12-04T11:11:38Z</time>
      </trkpt>
      <trkpt lat="45.34898" lon="5.71848">
        <ele>1469.4</ele>
        <time>2010-12-04T11:11:43Z</time>
      </trkpt>
      <trkpt lat="45.34898" lon="5.71846">
        <ele>1469.8</ele>
        <time>2010-12-04T11:11:48Z</time>
      </trkpt>
      <trkpt lat="45.34895" lon="5.71842">
        <ele>1470.4</ele>
        <time>2010-12-04T11:11:57Z</time>
      </trkpt>
      <trkpt lat="45.34894" lon="5.71841">
        <ele>1470.6</ele>
        <time>2010-12-04T11:12:00Z</time>
      </trkpt>
      <trkpt lat="45.34893" lon="5.7184">
        <ele>1470.6</ele>
        <time>2010-12-04T11:12:02Z</time>
      </trkpt>
      <trkpt lat="45.34894" lon="5.7184">
        <ele>1470.4</ele>
        <time>2010-12-04T11:12:07Z</time>
      </trkpt>
      <trkpt lat="45.3489" lon="5.71837">
        <ele>1470</ele>
        <time>2010-12-04T11:12:17Z</time>
      </trkpt>
      <trkpt lat="45.3489" lon="5.71836">
        <ele>1470</ele>
        <time>2010-12-04T11:12:27Z</time>
      </trkpt>
      <trkpt lat="45.3489" lon="5.71834">
        <ele>1470.4</ele>
        <time>2010-12-04T11:12:54Z</time>
      </trkpt>
      <trkpt lat="45.3489" lon="5.71835">
        <ele>1472.6</ele>
        <time>2010-12-04T11:13:18Z</time>
      </trkpt>
      <trkpt lat="45.34889" lon="5.71837">
        <ele>1473</ele>
        <time>2010-12-04T11:13:23Z</time>
      </trkpt>
      <trkpt lat="45.34889" lon="5.71833">
        <ele>1475.8</ele>
        <time>2010-12-04T11:13:54Z</time>
      </trkpt>
      <trkpt lat="45.34888" lon="5.71836">
        <ele>1476.2</ele>
        <time>2010-12-04T11:13:59Z</time>
      </trkpt>
      <trkpt lat="45.34884" lon="5.71836">
        <ele>1476.6</ele>
        <time>2010-12-04T11:14:05Z</time>
      </trkpt>
      <trkpt lat="45.34883" lon="5.71835">
        <ele>1476.6</ele>
        <time>2010-12-04T11:14:06Z</time>
      </trkpt>
      <trkpt lat="45.34882" lon="5.71832">
        <ele>1476.8</ele>
        <time>2010-12-04T11:14:10Z</time>
      </trkpt>
      <trkpt lat="45.34881" lon="5.71831">
        <ele>1476.8</ele>
        <time>2010-12-04T11:14:11Z</time>
      </trkpt>
      <trkpt lat="45.3488" lon="5.71829">
        <ele>1476.8</ele>
        <time>2010-12-04T11:14:15Z</time>
      </trkpt>
      <trkpt lat="45.34877" lon="5.71828">
        <ele>1476.8</ele>
        <time>2010-12-04T11:14:18Z</time>
      </trkpt>
      <trkpt lat="45.34874" lon="5.71828">
        <ele>1476.8</ele>
        <time>2010-12-04T11:14:20Z</time>
      </trkpt>
      <trkpt lat="45.34867" lon="5.71824">
        <ele>1476.6</ele>
        <time>2010-12-04T11:14:26Z</time>
      </trkpt>
      <trkpt lat="45.34865" lon="5.71822">
        <ele>1476.6</ele>
        <time>2010-12-04T11:14:28Z</time>
      </trkpt>
      <trkpt lat="45.34862" lon="5.7182">
        <ele>1476.6</ele>
        <time>2010-12-04T11:14:31Z</time>
      </trkpt>
      <trkpt lat="45.3486" lon="5.71819">
        <ele>1476.4</ele>
        <time>2010-12-04T11:14:34Z</time>
      </trkpt>
      <trkpt lat="45.34856" lon="5.71817">
        <ele>1476.4</ele>
        <time>2010-12-04T11:14:38Z</time>
      </trkpt>
      <trkpt lat="45.34855" lon="5.71818">
        <ele>1476.2</ele>
        <time>2010-12-04T11:14:45Z</time>
      </trkpt>
      <trkpt lat="45.34856" lon="5.71816">
        <ele>1476</ele>
        <time>2010-12-04T11:14:47Z</time>
      </trkpt>
      <trkpt lat="45.34857" lon="5.71818">
        <ele>1476</ele>
        <time>2010-12-04T11:14:49Z</time>
      </trkpt>
      <trkpt lat="45.34859" lon="5.71821">
        <ele>1475.8</ele>
        <time>2010-12-04T11:14:53Z</time>
      </trkpt>
      <trkpt lat="45.34857" lon="5.7182">
        <ele>1475.8</ele>
        <time>2010-12-04T11:14:55Z</time>
      </trkpt>
      <trkpt lat="45.34856" lon="5.71819">
        <ele>1475.8</ele>
        <time>2010-12-04T11:14:56Z</time>
      </trkpt>
      <trkpt lat="45.34852" lon="5.71814">
        <ele>1475.8</ele>
        <time>2010-12-04T11:15:02Z</time>
      </trkpt>
      <trkpt lat="45.34845" lon="5.7181">
        <ele>1475.6</ele>
        <time>2010-12-04T11:15:10Z</time>
      </trkpt>
      <trkpt lat="45.34841" lon="5.71808">
        <ele>1475.4</ele>
        <time>2010-12-04T11:15:14Z</time>
      </trkpt>
      <trkpt lat="45.34841" lon="5.71807">
        <ele>1475.4</ele>
        <time>2010-12-04T11:15:15Z</time>
      </trkpt>
      <trkpt lat="45.34836" lon="5.71803">
        <ele>1475.4</ele>
        <time>2010-12-04T11:15:22Z</time>
      </trkpt>
      <trkpt lat="45.34836" lon="5.71802">
        <ele>1475.4</ele>
        <time>2010-12-04T11:15:23Z</time>
      </trkpt>
      <trkpt lat="45.34834" lon="5.71799">
        <ele>1475.4</ele>
        <time>2010-12-04T11:15:28Z</time>
      </trkpt>
      <trkpt lat="45.34829" lon="5.71793">
        <ele>1475.2</ele>
        <time>2010-12-04T11:15:35Z</time>
      </trkpt>
      <trkpt lat="45.34827" lon="5.71792">
        <ele>1475.2</ele>
        <time>2010-12-04T11:15:37Z</time>
      </trkpt>
      <trkpt lat="45.34823" lon="5.71789">
        <ele>1475.2</ele>
        <time>2010-12-04T11:15:41Z</time>
      </trkpt>
      <trkpt lat="45.34822" lon="5.71788">
        <ele>1475</ele>
        <time>2010-12-04T11:15:42Z</time>
      </trkpt>
      <trkpt lat="45.34819" lon="5.71787">
        <ele>1475</ele>
        <time>2010-12-04T11:15:47Z</time>
      </trkpt>
      <trkpt lat="45.34815" lon="5.71784">
        <ele>1475.6</ele>
        <time>2010-12-04T11:15:55Z</time>
      </trkpt>
      <trkpt lat="45.34811" lon="5.71786">
        <ele>1476.4</ele>
        <time>2010-12-04T11:16:02Z</time>
      </trkpt>
      <trkpt lat="45.3481" lon="5.71787">
        <ele>1476.6</ele>
        <time>2010-12-04T11:16:04Z</time>
      </trkpt>
      <trkpt lat="45.34807" lon="5.71788">
        <ele>1476.6</ele>
        <time>2010-12-04T11:16:07Z</time>
      </trkpt>
      <trkpt lat="45.34804" lon="5.71789">
        <ele>1477</ele>
        <time>2010-12-04T11:16:16Z</time>
      </trkpt>
      <trkpt lat="45.34799" lon="5.71789">
        <ele>1478.4</ele>
        <time>2010-12-04T11:16:33Z</time>
      </trkpt>
      <trkpt lat="45.34796" lon="5.71788">
        <ele>1478.4</ele>
        <time>2010-12-04T11:16:38Z</time>
      </trkpt>
      <trkpt lat="45.34794" lon="5.71786">
        <ele>1478.6</ele>
        <time>2010-12-04T11:16:43Z</time>
      </trkpt>
      <trkpt lat="45.34792" lon="5.71784">
        <ele>1478.6</ele>
        <time>2010-12-04T11:16:46Z</time>
      </trkpt>
      <trkpt lat="45.34789" lon="5.71784">
        <ele>1478.6</ele>
        <time>2010-12-04T11:16:51Z</time>
      </trkpt>
      <trkpt lat="45.34785" lon="5.7178">
        <ele>1478.8</ele>
        <time>2010-12-04T11:16:57Z</time>
      </trkpt>
      <trkpt lat="45.34781" lon="5.71777">
        <ele>1478.8</ele>
        <time>2010-12-04T11:17:04Z</time>
      </trkpt>
      <trkpt lat="45.34779" lon="5.71775">
        <ele>1479.2</ele>
        <time>2010-12-04T11:17:09Z</time>
      </trkpt>
      <trkpt lat="45.34778" lon="5.71775">
        <ele>1479.4</ele>
        <time>2010-12-04T11:17:11Z</time>
      </trkpt>
      <trkpt lat="45.34776" lon="5.71775">
        <ele>1479.6</ele>
        <time>2010-12-04T11:17:14Z</time>
      </trkpt>
      <trkpt lat="45.34773" lon="5.71773">
        <ele>1479.8</ele>
        <time>2010-12-04T11:17:18Z</time>
      </trkpt>
      <trkpt lat="45.34769" lon="5.7177">
        <ele>1480.6</ele>
        <time>2010-12-04T11:17:32Z</time>
      </trkpt>
      <trkpt lat="45.34768" lon="5.7177">
        <ele>1480.6</ele>
        <time>2010-12-04T11:17:34Z</time>
      </trkpt>
      <trkpt lat="45.34766" lon="5.71771">
        <ele>1480.8</ele>
        <time>2010-12-04T11:17:37Z</time>
      </trkpt>
      <trkpt lat="45.34763" lon="5.71773">
        <ele>1481</ele>
        <time>2010-12-04T11:17:42Z</time>
      </trkpt>
      <trkpt lat="45.34762" lon="5.71772">
        <ele>1481</ele>
        <time>2010-12-04T11:17:44Z</time>
      </trkpt>
      <trkpt lat="45.34758" lon="5.71771">
        <ele>1481.2</ele>
        <time>2010-12-04T11:17:49Z</time>
      </trkpt>
      <trkpt lat="45.34753" lon="5.71768">
        <ele>1481.6</ele>
        <time>2010-12-04T11:17:56Z</time>
      </trkpt>
      <trkpt lat="45.3475" lon="5.71764">
        <ele>1481.8</ele>
        <time>2010-12-04T11:18:02Z</time>
      </trkpt>
      <trkpt lat="45.34748" lon="5.71761">
        <ele>1482</ele>
        <time>2010-12-04T11:18:07Z</time>
      </trkpt>
      <trkpt lat="45.34746" lon="5.71761">
        <ele>1482</ele>
        <time>2010-12-04T11:18:09Z</time>
      </trkpt>
      <trkpt lat="45.34745" lon="5.7176">
        <ele>1482.2</ele>
        <time>2010-12-04T11:18:11Z</time>
      </trkpt>
      <trkpt lat="45.34741" lon="5.71757">
        <ele>1483</ele>
        <time>2010-12-04T11:18:17Z</time>
      </trkpt>
      <trkpt lat="45.34737" lon="5.71756">
        <ele>1483.6</ele>
        <time>2010-12-04T11:18:23Z</time>
      </trkpt>
      <trkpt lat="45.34734" lon="5.71754">
        <ele>1484</ele>
        <time>2010-12-04T11:18:28Z</time>
      </trkpt>
      <trkpt lat="45.3473" lon="5.7175">
        <ele>1484</ele>
        <time>2010-12-04T11:18:34Z</time>
      </trkpt>
      <trkpt lat="45.34729" lon="5.7175">
        <ele>1484.2</ele>
        <time>2010-12-04T11:18:35Z</time>
      </trkpt>
      <trkpt lat="45.34729" lon="5.7175">
        <ele>1484.2</ele>
        <time>2010-12-04T11:18:36Z</time>
      </trkpt>
      <trkpt lat="45.34727" lon="5.71748">
        <ele>1484.2</ele>
        <time>2010-12-04T11:18:40Z</time>
      </trkpt>
      <trkpt lat="45.34726" lon="5.71748">
        <ele>1484.2</ele>
        <time>2010-12-04T11:18:41Z</time>
      </trkpt>
      <trkpt lat="45.34722" lon="5.71747">
        <ele>1484.6</ele>
        <time>2010-12-04T11:18:45Z</time>
      </trkpt>
      <trkpt lat="45.3472" lon="5.71745">
        <ele>1484.8</ele>
        <time>2010-12-04T11:18:48Z</time>
      </trkpt>
      <trkpt lat="45.34719" lon="5.71744">
        <ele>1485.2</ele>
        <time>2010-12-04T11:18:50Z</time>
      </trkpt>
      <trkpt lat="45.34718" lon="5.71743">
        <ele>1485.8</ele>
        <time>2010-12-04T11:18:53Z</time>
      </trkpt>
      <trkpt lat="45.34716" lon="5.71743">
        <ele>1487</ele>
        <time>2010-12-04T11:18:59Z</time>
      </trkpt>
      <trkpt lat="45.34716" lon="5.71741">
        <ele>1489.8</ele>
        <time>2010-12-04T11:19:09Z</time>
      </trkpt>
      <trkpt lat="45.34715" lon="5.71741">
        <ele>1490.6</ele>
        <time>2010-12-04T11:19:13Z</time>
      </trkpt>
      <trkpt lat="45.34712" lon="5.71734">
        <ele>1490.8</ele>
        <time>2010-12-04T11:19:40Z</time>
      </trkpt>
      <trkpt lat="45.34711" lon="5.71731">
        <ele>1491</ele>
        <time>2010-12-04T11:19:44Z</time>
      </trkpt>
      <trkpt lat="45.3471" lon="5.71729">
        <ele>1491.4</ele>
        <time>2010-12-04T11:19:49Z</time>
      </trkpt>
      <trkpt lat="45.34708" lon="5.71726">
        <ele>1491.8</ele>
        <time>2010-12-04T11:19:53Z</time>
      </trkpt>
      <trkpt lat="45.34708" lon="5.71726">
        <ele>1492</ele>
        <time>2010-12-04T11:20:00Z</time>
      </trkpt>
      <trkpt lat="45.34705" lon="5.71726">
        <ele>1494.4</ele>
        <time>2010-12-04T11:20:24Z</time>
      </trkpt>
      <trkpt lat="45.34703" lon="5.71725">
        <ele>1494.8</ele>
        <time>2010-12-04T11:20:27Z</time>
      </trkpt>
      <trkpt lat="45.34701" lon="5.71725">
        <ele>1495.4</ele>
        <time>2010-12-04T11:20:32Z</time>
      </trkpt>
      <trkpt lat="45.347" lon="5.71722">
        <ele>1496.6</ele>
        <time>2010-12-04T11:20:38Z</time>
      </trkpt>
      <trkpt lat="45.34699" lon="5.71719">
        <ele>1497.6</ele>
        <time>2010-12-04T11:20:43Z</time>
      </trkpt>
      <trkpt lat="45.34698" lon="5.71718">
        <ele>1498.6</ele>
        <time>2010-12-04T11:20:48Z</time>
      </trkpt>
      <trkpt lat="45.34697" lon="5.71717">
        <ele>1499.4</ele>
        <time>2010-12-04T11:20:52Z</time>
      </trkpt>
      <trkpt lat="45.34693" lon="5.71716">
        <ele>1500.4</ele>
        <time>2010-12-04T11:20:57Z</time>
      </trkpt>
      <trkpt lat="45.34692" lon="5.71716">
        <ele>1500.6</ele>
        <time>2010-12-04T11:20:58Z</time>
      </trkpt>
      <trkpt lat="45.34687" lon="5.71714">
        <ele>1501.8</ele>
        <time>2010-12-04T11:21:04Z</time>
      </trkpt>
      <trkpt lat="45.34684" lon="5.71714">
        <ele>1502.4</ele>
        <time>2010-12-04T11:21:07Z</time>
      </trkpt>
      <trkpt lat="45.34681" lon="5.71714">
        <ele>1502.8</ele>
        <time>2010-12-04T11:21:10Z</time>
      </trkpt>
      <trkpt lat="45.34677" lon="5.71712">
        <ele>1503.6</ele>
        <time>2010-12-04T11:21:15Z</time>
      </trkpt>
      <trkpt lat="45.34675" lon="5.71711">
        <ele>1504</ele>
        <time>2010-12-04T11:21:18Z</time>
      </trkpt>
      <trkpt lat="45.34673" lon="5.71711">
        <ele>1504.2</ele>
        <time>2010-12-04T11:21:20Z</time>
      </trkpt>
      <trkpt lat="45.34667" lon="5.71712">
        <ele>1504.6</ele>
        <time>2010-12-04T11:21:25Z</time>
      </trkpt>
      <trkpt lat="45.34666" lon="5.71712">
        <ele>1504.8</ele>
        <time>2010-12-04T11:21:26Z</time>
      </trkpt>
      <trkpt lat="45.34666" lon="5.71713">
        <ele>1505</ele>
        <time>2010-12-04T11:21:30Z</time>
      </trkpt>
      <trkpt lat="45.34665" lon="5.71717">
        <ele>1507.8</ele>
        <time>2010-12-04T11:22:08Z</time>
      </trkpt>
      <trkpt lat="45.34664" lon="5.71718">
        <ele>1507.8</ele>
        <time>2010-12-04T11:22:09Z</time>
      </trkpt>
      <trkpt lat="45.34662" lon="5.71721">
        <ele>1508</ele>
        <time>2010-12-04T11:22:12Z</time>
      </trkpt>
      <trkpt lat="45.34662" lon="5.71722">
        <ele>1508</ele>
        <time>2010-12-04T11:22:14Z</time>
      </trkpt>
      <trkpt lat="45.34659" lon="5.71725">
        <ele>1508.4</ele>
        <time>2010-12-04T11:22:18Z</time>
      </trkpt>
      <trkpt lat="45.34658" lon="5.71727">
        <ele>1508.6</ele>
        <time>2010-12-04T11:22:20Z</time>
      </trkpt>
      <trkpt lat="45.34656" lon="5.7173">
        <ele>1508.6</ele>
        <time>2010-12-04T11:22:24Z</time>
      </trkpt>
      <trkpt lat="45.34653" lon="5.71732">
        <ele>1508.6</ele>
        <time>2010-12-04T11:22:29Z</time>
      </trkpt>
      <trkpt lat="45.34651" lon="5.71731">
        <ele>1508.4</ele>
        <time>2010-12-04T11:22:34Z</time>
      </trkpt>
      <trkpt lat="45.34649" lon="5.71731">
        <ele>1507.8</ele>
        <time>2010-12-04T11:22:42Z</time>
      </trkpt>
      <trkpt lat="45.34648" lon="5.71731">
        <ele>1507.4</ele>
        <time>2010-12-04T11:22:46Z</time>
      </trkpt>
      <trkpt lat="45.34646" lon="5.71732">
        <ele>1506.8</ele>
        <time>2010-12-04T11:22:51Z</time>
      </trkpt>
      <trkpt lat="45.34645" lon="5.71733">
        <ele>1506.8</ele>
        <time>2010-12-04T11:22:52Z</time>
      </trkpt>
      <trkpt lat="45.34641" lon="5.71733">
        <ele>1506.4</ele>
        <time>2010-12-04T11:22:56Z</time>
      </trkpt>
      <trkpt lat="45.34639" lon="5.71732">
        <ele>1506.2</ele>
        <time>2010-12-04T11:22:59Z</time>
      </trkpt>
      <trkpt lat="45.34637" lon="5.71732">
        <ele>1506</ele>
        <time>2010-12-04T11:23:03Z</time>
      </trkpt>
      <trkpt lat="45.34632" lon="5.71734">
        <ele>1504.4</ele>
        <time>2010-12-04T11:23:36Z</time>
      </trkpt>
      <trkpt lat="45.34631" lon="5.71734">
        <ele>1504.4</ele>
        <time>2010-12-04T11:23:37Z</time>
      </trkpt>
      <trkpt lat="45.34626" lon="5.71731">
        <ele>1504.4</ele>
        <time>2010-12-04T11:23:43Z</time>
      </trkpt>
      <trkpt lat="45.34623" lon="5.71729">
        <ele>1504</ele>
        <time>2010-12-04T11:23:50Z</time>
      </trkpt>
      <trkpt lat="45.34623" lon="5.7173">
        <ele>1504</ele>
        <time>2010-12-04T11:23:55Z</time>
      </trkpt>
      <trkpt lat="45.3462" lon="5.71728">
        <ele>1503.2</ele>
        <time>2010-12-04T11:24:23Z</time>
      </trkpt>
      <trkpt lat="45.34616" lon="5.71727">
        <ele>1503</ele>
        <time>2010-12-04T11:24:28Z</time>
      </trkpt>
      <trkpt lat="45.34614" lon="5.71727">
        <ele>1503</ele>
        <time>2010-12-04T11:24:30Z</time>
      </trkpt>
      <trkpt lat="45.3461" lon="5.71727">
        <ele>1502.8</ele>
        <time>2010-12-04T11:24:35Z</time>
      </trkpt>
      <trkpt lat="45.34605" lon="5.71727">
        <ele>1502.8</ele>
        <time>2010-12-04T11:24:42Z</time>
      </trkpt>
      <trkpt lat="45.34601" lon="5.71727">
        <ele>1502.8</ele>
        <time>2010-12-04T11:24:48Z</time>
      </trkpt>
      <trkpt lat="45.34597" lon="5.71727">
        <ele>1503</ele>
        <time>2010-12-04T11:24:53Z</time>
      </trkpt>
      <trkpt lat="45.34595" lon="5.71727">
        <ele>1503.2</ele>
        <time>2010-12-04T11:24:57Z</time>
      </trkpt>
      <trkpt lat="45.3459" lon="5.71727">
        <ele>1503.8</ele>
        <time>2010-12-04T11:25:04Z</time>
      </trkpt>
      <trkpt lat="45.34589" lon="5.71727">
        <ele>1503.8</ele>
        <time>2010-12-04T11:25:08Z</time>
      </trkpt>
      <trkpt lat="45.34588" lon="5.71725">
        <ele>1503.8</ele>
        <time>2010-12-04T11:25:15Z</time>
      </trkpt>
      <trkpt lat="45.34588" lon="5.71726">
        <ele>1504.2</ele>
        <time>2010-12-04T11:25:42Z</time>
      </trkpt>
      <trkpt lat="45.34588" lon="5.71725">
        <ele>1504</ele>
        <time>2010-12-04T11:25:49Z</time>
      </trkpt>
      <trkpt lat="45.34588" lon="5.71724">
        <ele>1503.8</ele>
        <time>2010-12-04T11:25:57Z</time>
      </trkpt>
      <trkpt lat="45.34589" lon="5.71725">
        <ele>1503.8</ele>
        <time>2010-12-04T11:26:04Z</time>
      </trkpt>
      <trkpt lat="45.34589" lon="5.71724">
        <ele>1503.8</ele>
        <time>2010-12-04T11:26:14Z</time>
      </trkpt>
      <trkpt lat="45.34589" lon="5.71721">
        <ele>1504</ele>
        <time>2010-12-04T11:26:19Z</time>
      </trkpt>
      <trkpt lat="45.3459" lon="5.71721">
        <ele>1504.2</ele>
        <time>2010-12-04T11:26:23Z</time>
      </trkpt>
      <trkpt lat="45.34588" lon="5.71723">
        <ele>1504.2</ele>
        <time>2010-12-04T11:26:41Z</time>
      </trkpt>
      <trkpt lat="45.34586" lon="5.71723">
        <ele>1504.2</ele>
        <time>2010-12-04T11:26:46Z</time>
      </trkpt>
      <trkpt lat="45.34584" lon="5.71723">
        <ele>1504.2</ele>
        <time>2010-12-04T11:26:48Z</time>
      </trkpt>
      <trkpt lat="45.34582" lon="5.71723">
        <ele>1504.2</ele>
        <time>2010-12-04T11:26:50Z</time>
      </trkpt>
      <trkpt lat="45.3458" lon="5.71722">
        <ele>1504</ele>
        <time>2010-12-04T11:26:52Z</time>
      </trkpt>
      <trkpt lat="45.34577" lon="5.71722">
        <ele>1504</ele>
        <time>2010-12-04T11:26:55Z</time>
      </trkpt>
      <trkpt lat="45.34574" lon="5.71721">
        <ele>1504</ele>
        <time>2010-12-04T11:26:58Z</time>
      </trkpt>
      <trkpt lat="45.34567" lon="5.7172">
        <ele>1504.2</ele>
        <time>2010-12-04T11:27:05Z</time>
      </trkpt>
      <trkpt lat="45.34561" lon="5.71719">
        <ele>1504.4</ele>
        <time>2010-12-04T11:27:11Z</time>
      </trkpt>
      <trkpt lat="45.34558" lon="5.71719">
        <ele>1504.6</ele>
        <time>2010-12-04T11:27:13Z</time>
      </trkpt>
      <trkpt lat="45.34552" lon="5.71717">
        <ele>1504.8</ele>
        <time>2010-12-04T11:27:19Z</time>
      </trkpt>
      <trkpt lat="45.34548" lon="5.71717">
        <ele>1505.2</ele>
        <time>2010-12-04T11:27:23Z</time>
      </trkpt>
      <trkpt lat="45.34546" lon="5.71716">
        <ele>1505.2</ele>
        <time>2010-12-04T11:27:26Z</time>
      </trkpt>
      <trkpt lat="45.3454" lon="5.71713">
        <ele>1505.4</ele>
        <time>2010-12-04T11:27:33Z</time>
      </trkpt>
      <trkpt lat="45.3454" lon="5.71713">
        <ele>1505.4</ele>
        <time>2010-12-04T11:27:34Z</time>
      </trkpt>
      <trkpt lat="45.34537" lon="5.71712">
        <ele>1505.6</ele>
        <time>2010-12-04T11:27:37Z</time>
      </trkpt>
      <trkpt lat="45.34535" lon="5.7171">
        <ele>1505.6</ele>
        <time>2010-12-04T11:27:39Z</time>
      </trkpt>
      <trkpt lat="45.34534" lon="5.71709">
        <ele>1505.8</ele>
        <time>2010-12-04T11:27:41Z</time>
      </trkpt>
      <trkpt lat="45.34532" lon="5.71708">
        <ele>1505.8</ele>
        <time>2010-12-04T11:27:43Z</time>
      </trkpt>
      <trkpt lat="45.34531" lon="5.71707">
        <ele>1506</ele>
        <time>2010-12-04T11:27:45Z</time>
      </trkpt>
      <trkpt lat="45.34529" lon="5.71705">
        <ele>1506</ele>
        <time>2010-12-04T11:27:47Z</time>
      </trkpt>
      <trkpt lat="45.34524" lon="5.717">
        <ele>1506.4</ele>
        <time>2010-12-04T11:27:54Z</time>
      </trkpt>
      <trkpt lat="45.34519" lon="5.71696">
        <ele>1507</ele>
        <time>2010-12-04T11:28:01Z</time>
      </trkpt>
      <trkpt lat="45.34514" lon="5.71692">
        <ele>1507.8</ele>
        <time>2010-12-04T11:28:07Z</time>
      </trkpt>
      <trkpt lat="45.3451" lon="5.71687">
        <ele>1508.6</ele>
        <time>2010-12-04T11:28:13Z</time>
      </trkpt>
      <trkpt lat="45.34509" lon="5.71686">
        <ele>1509</ele>
        <time>2010-12-04T11:28:15Z</time>
      </trkpt>
      <trkpt lat="45.34505" lon="5.7168">
        <ele>1509.6</ele>
        <time>2010-12-04T11:28:21Z</time>
      </trkpt>
      <trkpt lat="45.34502" lon="5.71679">
        <ele>1510.2</ele>
        <time>2010-12-04T11:28:26Z</time>
      </trkpt>
      <trkpt lat="45.34498" lon="5.71679">
        <ele>1511</ele>
        <time>2010-12-04T11:28:32Z</time>
      </trkpt>
      <trkpt lat="45.34493" lon="5.71679">
        <ele>1511.8</ele>
        <time>2010-12-04T11:28:38Z</time>
      </trkpt>
      <trkpt lat="45.34492" lon="5.71679">
        <ele>1512.2</ele>
        <time>2010-12-04T11:28:40Z</time>
      </trkpt>
      <trkpt lat="45.34491" lon="5.71679">
        <ele>1512.4</ele>
        <time>2010-12-04T11:28:42Z</time>
      </trkpt>
      <trkpt lat="45.34487" lon="5.71681">
        <ele>1512.8</ele>
        <time>2010-12-04T11:28:49Z</time>
      </trkpt>
      <trkpt lat="45.34483" lon="5.71683">
        <ele>1513</ele>
        <time>2010-12-04T11:28:55Z</time>
      </trkpt>
      <trkpt lat="45.34481" lon="5.71687">
        <ele>1513</ele>
        <time>2010-12-04T11:29:02Z</time>
      </trkpt>
      <trkpt lat="45.34479" lon="5.71691">
        <ele>1512.8</ele>
        <time>2010-12-04T11:29:11Z</time>
      </trkpt>
      <trkpt lat="45.34477" lon="5.71692">
        <ele>1512.8</ele>
        <time>2010-12-04T11:29:14Z</time>
      </trkpt>
      <trkpt lat="45.34476" lon="5.71692">
        <ele>1512.8</ele>
        <time>2010-12-04T11:29:16Z</time>
      </trkpt>
      <trkpt lat="45.34473" lon="5.71691">
        <ele>1512.8</ele>
        <time>2010-12-04T11:29:23Z</time>
      </trkpt>
      <trkpt lat="45.34472" lon="5.7169">
        <ele>1513</ele>
        <time>2010-12-04T11:29:28Z</time>
      </trkpt>
      <trkpt lat="45.3447" lon="5.71689">
        <ele>1513.4</ele>
        <time>2010-12-04T11:29:34Z</time>
      </trkpt>
      <trkpt lat="45.34467" lon="5.71686">
        <ele>1513.8</ele>
        <time>2010-12-04T11:29:42Z</time>
      </trkpt>
      <trkpt lat="45.34465" lon="5.71684">
        <ele>1514.4</ele>
        <time>2010-12-04T11:29:48Z</time>
      </trkpt>
      <trkpt lat="45.34463" lon="5.71683">
        <ele>1515.4</ele>
        <time>2010-12-04T11:29:57Z</time>
      </trkpt>
      <trkpt lat="45.34462" lon="5.71686">
        <ele>1516.2</ele>
        <time>2010-12-04T11:30:04Z</time>
      </trkpt>
      <trkpt lat="45.34461" lon="5.7169">
        <ele>1516.6</ele>
        <time>2010-12-04T11:30:08Z</time>
      </trkpt>
      <trkpt lat="45.34459" lon="5.71694">
        <ele>1517</ele>
        <time>2010-12-04T11:30:14Z</time>
      </trkpt>
      <trkpt lat="45.34457" lon="5.71697">
        <ele>1517.8</ele>
        <time>2010-12-04T11:30:21Z</time>
      </trkpt>
      <trkpt lat="45.34456" lon="5.717">
        <ele>1518.2</ele>
        <time>2010-12-04T11:30:26Z</time>
      </trkpt>
      <trkpt lat="45.34455" lon="5.71702">
        <ele>1518.6</ele>
        <time>2010-12-04T11:30:31Z</time>
      </trkpt>
      <trkpt lat="45.34452" lon="5.71704">
        <ele>1519.2</ele>
        <time>2010-12-04T11:30:36Z</time>
      </trkpt>
      <trkpt lat="45.34451" lon="5.71704">
        <ele>1519.4</ele>
        <time>2010-12-04T11:30:39Z</time>
      </trkpt>
      <trkpt lat="45.34448" lon="5.71703">
        <ele>1519.8</ele>
        <time>2010-12-04T11:30:44Z</time>
      </trkpt>
      <trkpt lat="45.34446" lon="5.71702">
        <ele>1520.2</ele>
        <time>2010-12-04T11:30:49Z</time>
      </trkpt>
      <trkpt lat="45.34445" lon="5.717">
        <ele>1520.8</ele>
        <time>2010-12-04T11:30:55Z</time>
      </trkpt>
      <trkpt lat="45.34444" lon="5.71701">
        <ele>1522</ele>
        <time>2010-12-04T11:31:09Z</time>
      </trkpt>
      <trkpt lat="45.34444" lon="5.717">
        <ele>1522.2</ele>
        <time>2010-12-04T11:31:35Z</time>
      </trkpt>
      <trkpt lat="45.34446" lon="5.71698">
        <ele>1522.4</ele>
        <time>2010-12-04T11:31:39Z</time>
      </trkpt>
      <trkpt lat="45.34445" lon="5.71701">
        <ele>1522</ele>
        <time>2010-12-04T11:31:57Z</time>
      </trkpt>
      <trkpt lat="45.34444" lon="5.717">
        <ele>1523</ele>
        <time>2010-12-04T11:32:16Z</time>
      </trkpt>
      <trkpt lat="45.34444" lon="5.71701">
        <ele>1528.8</ele>
        <time>2010-12-04T11:37:41Z</time>
      </trkpt>
      <trkpt lat="45.34444" lon="5.71703">
        <ele>1528.4</ele>
        <time>2010-12-04T11:38:47Z</time>
      </trkpt>
      <trkpt lat="45.34444" lon="5.71699">
        <ele>1528.2</ele>
        <time>2010-12-04T11:44:44Z</time>
      </trkpt>
      <trkpt lat="45.34444" lon="5.71699">
        <ele>1527.6</ele>
        <time>2010-12-04T11:44:56Z</time>
      </trkpt>
      <trkpt lat="45.34443" lon="5.71697">
        <ele>1526.6</ele>
        <time>2010-12-04T11:45:41Z</time>
      </trkpt>
      <trkpt lat="45.34444" lon="5.71697">
        <ele>1526.6</ele>
        <time>2010-12-04T11:46:02Z</time>
      </trkpt>
      <trkpt lat="45.34445" lon="5.71699">
        <ele>1527</ele>
        <time>2010-12-04T11:46:14Z</time>
      </trkpt>
      <trkpt lat="45.34444" lon="5.71695">
        <ele>1524.4</ele>
        <time>2010-12-04T11:47:32Z</time>
      </trkpt>
      <trkpt lat="45.34441" lon="5.71697">
        <ele>1524.2</ele>
        <time>2010-12-04T11:47:36Z</time>
      </trkpt>
      <trkpt lat="45.34438" lon="5.71698">
        <ele>1524.2</ele>
        <time>2010-12-04T11:47:40Z</time>
      </trkpt>
      <trkpt lat="45.34437" lon="5.71698">
        <ele>1524.2</ele>
        <time>2010-12-04T11:47:42Z</time>
      </trkpt>
      <trkpt lat="45.34432" lon="5.71695">
        <ele>1524.2</ele>
        <time>2010-12-04T11:47:48Z</time>
      </trkpt>
      <trkpt lat="45.34428" lon="5.71693">
        <ele>1524.4</ele>
        <time>2010-12-04T11:47:54Z</time>
      </trkpt>
      <trkpt lat="45.34422" lon="5.71691">
        <ele>1524.6</ele>
        <time>2010-12-04T11:48:01Z</time>
      </trkpt>
      <trkpt lat="45.34415" lon="5.7169">
        <ele>1524.8</ele>
        <time>2010-12-04T11:48:09Z</time>
      </trkpt>
      <trkpt lat="45.34414" lon="5.7169">
        <ele>1525</ele>
        <time>2010-12-04T11:48:10Z</time>
      </trkpt>
      <trkpt lat="45.34407" lon="5.7169">
        <ele>1525.4</ele>
        <time>2010-12-04T11:48:17Z</time>
      </trkpt>
      <trkpt lat="45.34406" lon="5.7169">
        <ele>1525.6</ele>
        <time>2010-12-04T11:48:18Z</time>
      </trkpt>
      <trkpt lat="45.34403" lon="5.7169">
        <ele>1526</ele>
        <time>2010-12-04T11:48:22Z</time>
      </trkpt>
      <trkpt lat="45.34401" lon="5.7169">
        <ele>1526.2</ele>
        <time>2010-12-04T11:48:24Z</time>
      </trkpt>
      <trkpt lat="45.34397" lon="5.71688">
        <ele>1526.8</ele>
        <time>2010-12-04T11:48:29Z</time>
      </trkpt>
      <trkpt lat="45.34396" lon="5.71688">
        <ele>1526.8</ele>
        <time>2010-12-04T11:48:30Z</time>
      </trkpt>
      <trkpt lat="45.34391" lon="5.71687">
        <ele>1527.4</ele>
        <time>2010-12-04T11:48:36Z</time>
      </trkpt>
      <trkpt lat="45.34382" lon="5.71686">
        <ele>1528.2</ele>
        <time>2010-12-04T11:48:44Z</time>
      </trkpt>
      <trkpt lat="45.34377" lon="5.71685">
        <ele>1528.4</ele>
        <time>2010-12-04T11:48:48Z</time>
      </trkpt>
      <trkpt lat="45.34373" lon="5.71683">
        <ele>1529</ele>
        <time>2010-12-04T11:48:52Z</time>
      </trkpt>
      <trkpt lat="45.34368" lon="5.71679">
        <ele>1529.8</ele>
        <time>2010-12-04T11:48:59Z</time>
      </trkpt>
      <trkpt lat="45.34363" lon="5.71674">
        <ele>1530.6</ele>
        <time>2010-12-04T11:49:06Z</time>
      </trkpt>
      <trkpt lat="45.34361" lon="5.71672">
        <ele>1531.2</ele>
        <time>2010-12-04T11:49:09Z</time>
      </trkpt>
      <trkpt lat="45.34359" lon="5.71669">
        <ele>1531.8</ele>
        <time>2010-12-04T11:49:13Z</time>
      </trkpt>
      <trkpt lat="45.34356" lon="5.71664">
        <ele>1532.8</ele>
        <time>2010-12-04T11:49:20Z</time>
      </trkpt>
      <trkpt lat="45.34353" lon="5.7166">
        <ele>1534</ele>
        <time>2010-12-04T11:49:27Z</time>
      </trkpt>
      <trkpt lat="45.34351" lon="5.71657">
        <ele>1534.6</ele>
        <time>2010-12-04T11:49:31Z</time>
      </trkpt>
      <trkpt lat="45.3435" lon="5.71654">
        <ele>1535.4</ele>
        <time>2010-12-04T11:49:35Z</time>
      </trkpt>
      <trkpt lat="45.34349" lon="5.71653">
        <ele>1536</ele>
        <time>2010-12-04T11:49:38Z</time>
      </trkpt>
      <trkpt lat="45.34349" lon="5.71652">
        <ele>1536</ele>
        <time>2010-12-04T11:49:39Z</time>
      </trkpt>
      <trkpt lat="45.34348" lon="5.71649">
        <ele>1537.2</ele>
        <time>2010-12-04T11:49:44Z</time>
      </trkpt>
      <trkpt lat="45.34348" lon="5.71646">
        <ele>1538</ele>
        <time>2010-12-04T11:49:48Z</time>
      </trkpt>
      <trkpt lat="45.34347" lon="5.71644">
        <ele>1538.8</ele>
        <time>2010-12-04T11:49:52Z</time>
      </trkpt>
      <trkpt lat="45.34346" lon="5.71641">
        <ele>1539.6</ele>
        <time>2010-12-04T11:49:56Z</time>
      </trkpt>
      <trkpt lat="45.34345" lon="5.71638">
        <ele>1540.4</ele>
        <time>2010-12-04T11:50:00Z</time>
      </trkpt>
      <trkpt lat="45.34344" lon="5.71635">
        <ele>1541.2</ele>
        <time>2010-12-04T11:50:04Z</time>
      </trkpt>
      <trkpt lat="45.34343" lon="5.71632">
        <ele>1541.8</ele>
        <time>2010-12-04T11:50:08Z</time>
      </trkpt>
      <trkpt lat="45.34341" lon="5.71629">
        <ele>1542.8</ele>
        <time>2010-12-04T11:50:13Z</time>
      </trkpt>
      <trkpt lat="45.3434" lon="5.71626">
        <ele>1543.8</ele>
        <time>2010-12-04T11:50:18Z</time>
      </trkpt>
      <trkpt lat="45.34339" lon="5.71622">
        <ele>1544.8</ele>
        <time>2010-12-04T11:50:23Z</time>
      </trkpt>
      <trkpt lat="45.34339" lon="5.71619">
        <ele>1545.8</ele>
        <time>2010-12-04T11:50:28Z</time>
      </trkpt>
      <trkpt lat="45.34338" lon="5.71616">
        <ele>1546.6</ele>
        <time>2010-12-04T11:50:32Z</time>
      </trkpt>
      <trkpt lat="45.34336" lon="5.71613">
        <ele>1547.4</ele>
        <time>2010-12-04T11:50:36Z</time>
      </trkpt>
      <trkpt lat="45.34335" lon="5.7161">
        <ele>1548.2</ele>
        <time>2010-12-04T11:50:40Z</time>
      </trkpt>
      <trkpt lat="45.34333" lon="5.71607">
        <ele>1549</ele>
        <time>2010-12-04T11:50:44Z</time>
      </trkpt>
      <trkpt lat="45.34333" lon="5.71606">
        <ele>1549</ele>
        <time>2010-12-04T11:50:45Z</time>
      </trkpt>
      <trkpt lat="45.34333" lon="5.71605">
        <ele>1549.8</ele>
        <time>2010-12-04T11:50:48Z</time>
      </trkpt>
      <trkpt lat="45.34331" lon="5.71602">
        <ele>1550.4</ele>
        <time>2010-12-04T11:50:52Z</time>
      </trkpt>
      <trkpt lat="45.3433" lon="5.71597">
        <ele>1551.2</ele>
        <time>2010-12-04T11:50:57Z</time>
      </trkpt>
      <trkpt lat="45.34329" lon="5.71593">
        <ele>1552.2</ele>
        <time>2010-12-04T11:51:02Z</time>
      </trkpt>
      <trkpt lat="45.34328" lon="5.7159">
        <ele>1552.8</ele>
        <time>2010-12-04T11:51:06Z</time>
      </trkpt>
      <trkpt lat="45.34327" lon="5.71587">
        <ele>1554.2</ele>
        <time>2010-12-04T11:51:12Z</time>
      </trkpt>
      <trkpt lat="45.34325" lon="5.71583">
        <ele>1555.8</ele>
        <time>2010-12-04T11:51:19Z</time>
      </trkpt>
      <trkpt lat="45.34325" lon="5.71582">
        <ele>1556</ele>
        <time>2010-12-04T11:51:20Z</time>
      </trkpt>
      <trkpt lat="45.34324" lon="5.71579">
        <ele>1557.2</ele>
        <time>2010-12-04T11:51:25Z</time>
      </trkpt>
      <trkpt lat="45.34322" lon="5.71577">
        <ele>1558</ele>
        <time>2010-12-04T11:51:29Z</time>
      </trkpt>
      <trkpt lat="45.34321" lon="5.71574">
        <ele>1558.6</ele>
        <time>2010-12-04T11:51:33Z</time>
      </trkpt>
      <trkpt lat="45.34318" lon="5.7157">
        <ele>1559.8</ele>
        <time>2010-12-04T11:51:39Z</time>
      </trkpt>
      <trkpt lat="45.34315" lon="5.71566">
        <ele>1561.4</ele>
        <time>2010-12-04T11:51:47Z</time>
      </trkpt>
      <trkpt lat="45.34313" lon="5.71563">
        <ele>1562.4</ele>
        <time>2010-12-04T11:51:52Z</time>
      </trkpt>
      <trkpt lat="45.34312" lon="5.71562">
        <ele>1562.8</ele>
        <time>2010-12-04T11:51:54Z</time>
      </trkpt>
      <trkpt lat="45.3431" lon="5.71559">
        <ele>1563.8</ele>
        <time>2010-12-04T11:52:00Z</time>
      </trkpt>
      <trkpt lat="45.34308" lon="5.71557">
        <ele>1564.6</ele>
        <time>2010-12-04T11:52:05Z</time>
      </trkpt>
      <trkpt lat="45.34304" lon="5.71553">
        <ele>1565.6</ele>
        <time>2010-12-04T11:52:11Z</time>
      </trkpt>
      <trkpt lat="45.343" lon="5.71549">
        <ele>1566.8</ele>
        <time>2010-12-04T11:52:18Z</time>
      </trkpt>
      <trkpt lat="45.34298" lon="5.71547">
        <ele>1567.2</ele>
        <time>2010-12-04T11:52:21Z</time>
      </trkpt>
      <trkpt lat="45.34296" lon="5.71545">
        <ele>1567.8</ele>
        <time>2010-12-04T11:52:25Z</time>
      </trkpt>
      <trkpt lat="45.34292" lon="5.71543">
        <ele>1568.8</ele>
        <time>2010-12-04T11:52:31Z</time>
      </trkpt>
      <trkpt lat="45.34287" lon="5.71541">
        <ele>1569.8</ele>
        <time>2010-12-04T11:52:38Z</time>
      </trkpt>
      <trkpt lat="45.34284" lon="5.71541">
        <ele>1570.6</ele>
        <time>2010-12-04T11:52:44Z</time>
      </trkpt>
      <trkpt lat="45.34283" lon="5.71544">
        <ele>1571.2</ele>
        <time>2010-12-04T11:52:48Z</time>
      </trkpt>
      <trkpt lat="45.34283" lon="5.71544">
        <ele>1571.2</ele>
        <time>2010-12-04T11:52:49Z</time>
      </trkpt>
      <trkpt lat="45.34282" lon="5.71549">
        <ele>1572</ele>
        <time>2010-12-04T11:52:54Z</time>
      </trkpt>
      <trkpt lat="45.3428" lon="5.71551">
        <ele>1572.6</ele>
        <time>2010-12-04T11:52:58Z</time>
      </trkpt>
      <trkpt lat="45.34277" lon="5.7155">
        <ele>1573.6</ele>
        <time>2010-12-04T11:53:04Z</time>
      </trkpt>
      <trkpt lat="45.34273" lon="5.7155">
        <ele>1574.6</ele>
        <time>2010-12-04T11:53:10Z</time>
      </trkpt>
      <trkpt lat="45.34269" lon="5.71549">
        <ele>1575.8</ele>
        <time>2010-12-04T11:53:17Z</time>
      </trkpt>
      <trkpt lat="45.34268" lon="5.71549">
        <ele>1576</ele>
        <time>2010-12-04T11:53:19Z</time>
      </trkpt>
      <trkpt lat="45.34264" lon="5.71548">
        <ele>1576.8</ele>
        <time>2010-12-04T11:53:24Z</time>
      </trkpt>
      <trkpt lat="45.34258" lon="5.71551">
        <ele>1577.8</ele>
        <time>2010-12-04T11:53:31Z</time>
      </trkpt>
      <trkpt lat="45.34255" lon="5.71555">
        <ele>1579</ele>
        <time>2010-12-04T11:53:38Z</time>
      </trkpt>
      <trkpt lat="45.34253" lon="5.71559">
        <ele>1579.8</ele>
        <time>2010-12-04T11:53:44Z</time>
      </trkpt>
      <trkpt lat="45.34252" lon="5.7156">
        <ele>1579.8</ele>
        <time>2010-12-04T11:53:45Z</time>
      </trkpt>
      <trkpt lat="45.3425" lon="5.71564">
        <ele>1580.8</ele>
        <time>2010-12-04T11:53:51Z</time>
      </trkpt>
      <trkpt lat="45.34247" lon="5.71572">
        <ele>1582.2</ele>
        <time>2010-12-04T11:54:01Z</time>
      </trkpt>
      <trkpt lat="45.34245" lon="5.71576">
        <ele>1583</ele>
        <time>2010-12-04T11:54:07Z</time>
      </trkpt>
      <trkpt lat="45.34241" lon="5.71579">
        <ele>1584</ele>
        <time>2010-12-04T11:54:13Z</time>
      </trkpt>
      <trkpt lat="45.34241" lon="5.71579">
        <ele>1584.2</ele>
        <time>2010-12-04T11:54:14Z</time>
      </trkpt>
      <trkpt lat="45.34238" lon="5.71577">
        <ele>1585</ele>
        <time>2010-12-04T11:54:19Z</time>
      </trkpt>
      <trkpt lat="45.34235" lon="5.71572">
        <ele>1586.2</ele>
        <time>2010-12-04T11:54:26Z</time>
      </trkpt>
      <trkpt lat="45.34233" lon="5.71569">
        <ele>1587</ele>
        <time>2010-12-04T11:54:30Z</time>
      </trkpt>
      <trkpt lat="45.34232" lon="5.71566">
        <ele>1587.6</ele>
        <time>2010-12-04T11:54:34Z</time>
      </trkpt>
      <trkpt lat="45.3423" lon="5.71562">
        <ele>1588.8</ele>
        <time>2010-12-04T11:54:40Z</time>
      </trkpt>
      <trkpt lat="45.34229" lon="5.71561">
        <ele>1589.2</ele>
        <time>2010-12-04T11:54:42Z</time>
      </trkpt>
      <trkpt lat="45.34229" lon="5.71559">
        <ele>1589.6</ele>
        <time>2010-12-04T11:54:44Z</time>
      </trkpt>
      <trkpt lat="45.34227" lon="5.71555">
        <ele>1590.4</ele>
        <time>2010-12-04T11:54:49Z</time>
      </trkpt>
      <trkpt lat="45.34224" lon="5.71551">
        <ele>1591.4</ele>
        <time>2010-12-04T11:54:55Z</time>
      </trkpt>
      <trkpt lat="45.34222" lon="5.71548">
        <ele>1592.4</ele>
        <time>2010-12-04T11:55:00Z</time>
      </trkpt>
      <trkpt lat="45.3422" lon="5.71544">
        <ele>1593.2</ele>
        <time>2010-12-04T11:55:05Z</time>
      </trkpt>
      <trkpt lat="45.34217" lon="5.7154">
        <ele>1594</ele>
        <time>2010-12-04T11:55:10Z</time>
      </trkpt>
      <trkpt lat="45.34216" lon="5.71538">
        <ele>1594.4</ele>
        <time>2010-12-04T11:55:13Z</time>
      </trkpt>
      <trkpt lat="45.34213" lon="5.71534">
        <ele>1595.4</ele>
        <time>2010-12-04T11:55:19Z</time>
      </trkpt>
      <trkpt lat="45.34209" lon="5.71528">
        <ele>1596.4</ele>
        <time>2010-12-04T11:55:26Z</time>
      </trkpt>
      <trkpt lat="45.34207" lon="5.71524">
        <ele>1597.4</ele>
        <time>2010-12-04T11:55:32Z</time>
      </trkpt>
      <trkpt lat="45.34205" lon="5.71521">
        <ele>1598</ele>
        <time>2010-12-04T11:55:36Z</time>
      </trkpt>
      <trkpt lat="45.34204" lon="5.71519">
        <ele>1598.2</ele>
        <time>2010-12-04T11:55:38Z</time>
      </trkpt>
      <trkpt lat="45.342" lon="5.71513">
        <ele>1599.6</ele>
        <time>2010-12-04T11:55:46Z</time>
      </trkpt>
      <trkpt lat="45.34197" lon="5.71507">
        <ele>1600.6</ele>
        <time>2010-12-04T11:55:53Z</time>
      </trkpt>
      <trkpt lat="45.34194" lon="5.71502">
        <ele>1601.4</ele>
        <time>2010-12-04T11:55:59Z</time>
      </trkpt>
      <trkpt lat="45.34193" lon="5.715">
        <ele>1601.8</ele>
        <time>2010-12-04T11:56:01Z</time>
      </trkpt>
      <trkpt lat="45.34191" lon="5.71495">
        <ele>1602.4</ele>
        <time>2010-12-04T11:56:06Z</time>
      </trkpt>
      <trkpt lat="45.34189" lon="5.7149">
        <ele>1603.4</ele>
        <time>2010-12-04T11:56:12Z</time>
      </trkpt>
      <trkpt lat="45.34187" lon="5.71485">
        <ele>1604.4</ele>
        <time>2010-12-04T11:56:18Z</time>
      </trkpt>
      <trkpt lat="45.34185" lon="5.7148">
        <ele>1605.2</ele>
        <time>2010-12-04T11:56:24Z</time>
      </trkpt>
      <trkpt lat="45.34183" lon="5.71478">
        <ele>1605.8</ele>
        <time>2010-12-04T11:56:27Z</time>
      </trkpt>
      <trkpt lat="45.34182" lon="5.71475">
        <ele>1606.4</ele>
        <time>2010-12-04T11:56:31Z</time>
      </trkpt>
      <trkpt lat="45.34178" lon="5.71471">
        <ele>1607.6</ele>
        <time>2010-12-04T11:56:38Z</time>
      </trkpt>
      <trkpt lat="45.34174" lon="5.71468">
        <ele>1608.8</ele>
        <time>2010-12-04T11:56:45Z</time>
      </trkpt>
      <trkpt lat="45.34169" lon="5.71465">
        <ele>1609.8</ele>
        <time>2010-12-04T11:56:52Z</time>
      </trkpt>
      <trkpt lat="45.34168" lon="5.71464">
        <ele>1610.2</ele>
        <time>2010-12-04T11:56:54Z</time>
      </trkpt>
      <trkpt lat="45.34164" lon="5.71461">
        <ele>1611</ele>
        <time>2010-12-04T11:56:59Z</time>
      </trkpt>
      <trkpt lat="45.34159" lon="5.71456">
        <ele>1612</ele>
        <time>2010-12-04T11:57:06Z</time>
      </trkpt>
      <trkpt lat="45.34155" lon="5.71452">
        <ele>1613</ele>
        <time>2010-12-04T11:57:13Z</time>
      </trkpt>
      <trkpt lat="45.34152" lon="5.7145">
        <ele>1613.4</ele>
        <time>2010-12-04T11:57:16Z</time>
      </trkpt>
      <trkpt lat="45.3415" lon="5.71448">
        <ele>1613.6</ele>
        <time>2010-12-04T11:57:19Z</time>
      </trkpt>
      <trkpt lat="45.34147" lon="5.71445">
        <ele>1614.2</ele>
        <time>2010-12-04T11:57:24Z</time>
      </trkpt>
      <trkpt lat="45.34143" lon="5.71442">
        <ele>1615</ele>
        <time>2010-12-04T11:57:32Z</time>
      </trkpt>
      <trkpt lat="45.34139" lon="5.71438">
        <ele>1616</ele>
        <time>2010-12-04T11:57:41Z</time>
      </trkpt>
      <trkpt lat="45.34137" lon="5.71436">
        <ele>1616.2</ele>
        <time>2010-12-04T11:57:44Z</time>
      </trkpt>
      <trkpt lat="45.34135" lon="5.71435">
        <ele>1616.6</ele>
        <time>2010-12-04T11:57:47Z</time>
      </trkpt>
      <trkpt lat="45.34132" lon="5.71431">
        <ele>1617.4</ele>
        <time>2010-12-04T11:57:54Z</time>
      </trkpt>
      <trkpt lat="45.34129" lon="5.71428">
        <ele>1618.2</ele>
        <time>2010-12-04T11:58:00Z</time>
      </trkpt>
      <trkpt lat="45.34126" lon="5.71426">
        <ele>1618.8</ele>
        <time>2010-12-04T11:58:05Z</time>
      </trkpt>
      <trkpt lat="45.34122" lon="5.71423">
        <ele>1619.6</ele>
        <time>2010-12-04T11:58:12Z</time>
      </trkpt>
      <trkpt lat="45.34121" lon="5.71423">
        <ele>1619.8</ele>
        <time>2010-12-04T11:58:14Z</time>
      </trkpt>
      <trkpt lat="45.34119" lon="5.71423">
        <ele>1620.2</ele>
        <time>2010-12-04T11:58:18Z</time>
      </trkpt>
      <trkpt lat="45.34116" lon="5.71424">
        <ele>1620.8</ele>
        <time>2010-12-04T11:58:23Z</time>
      </trkpt>
      <trkpt lat="45.34114" lon="5.71425">
        <ele>1621.4</ele>
        <time>2010-12-04T11:58:27Z</time>
      </trkpt>
      <trkpt lat="45.34111" lon="5.71425">
        <ele>1622</ele>
        <time>2010-12-04T11:58:32Z</time>
      </trkpt>
      <trkpt lat="45.34106" lon="5.71426">
        <ele>1623.2</ele>
        <time>2010-12-04T11:58:39Z</time>
      </trkpt>
      <trkpt lat="45.34104" lon="5.71427">
        <ele>1623.6</ele>
        <time>2010-12-04T11:58:42Z</time>
      </trkpt>
      <trkpt lat="45.341" lon="5.71427">
        <ele>1624.4</ele>
        <time>2010-12-04T11:58:47Z</time>
      </trkpt>
      <trkpt lat="45.34094" lon="5.71428">
        <ele>1625.6</ele>
        <time>2010-12-04T11:58:55Z</time>
      </trkpt>
      <trkpt lat="45.34091" lon="5.71425">
        <ele>1626.2</ele>
        <time>2010-12-04T11:59:01Z</time>
      </trkpt>
      <trkpt lat="45.34091" lon="5.71423">
        <ele>1626.8</ele>
        <time>2010-12-04T11:59:08Z</time>
      </trkpt>
      <trkpt lat="45.3409" lon="5.71424">
        <ele>1627.6</ele>
        <time>2010-12-04T11:59:39Z</time>
      </trkpt>
      <trkpt lat="45.34088" lon="5.71425">
        <ele>1627.8</ele>
        <time>2010-12-04T12:00:18Z</time>
      </trkpt>
      <trkpt lat="45.34087" lon="5.71425">
        <ele>1627.6</ele>
        <time>2010-12-04T12:00:19Z</time>
      </trkpt>
      <trkpt lat="45.34079" lon="5.71424">
        <ele>1627.8</ele>
        <time>2010-12-04T12:00:25Z</time>
      </trkpt>
      <trkpt lat="45.34072" lon="5.71419">
        <ele>1628.2</ele>
        <time>2010-12-04T12:00:31Z</time>
      </trkpt>
      <trkpt lat="45.34071" lon="5.71418">
        <ele>1628.2</ele>
        <time>2010-12-04T12:00:32Z</time>
      </trkpt>
      <trkpt lat="45.34066" lon="5.71413">
        <ele>1628.4</ele>
        <time>2010-12-04T12:00:37Z</time>
      </trkpt>
      <trkpt lat="45.34063" lon="5.71412">
        <ele>1628.6</ele>
        <time>2010-12-04T12:00:40Z</time>
      </trkpt>
      <trkpt lat="45.3406" lon="5.7141">
        <ele>1628.8</ele>
        <time>2010-12-04T12:00:43Z</time>
      </trkpt>
      <trkpt lat="45.34054" lon="5.71406">
        <ele>1629.2</ele>
        <time>2010-12-04T12:00:49Z</time>
      </trkpt>
      <trkpt lat="45.34049" lon="5.71401">
        <ele>1629.4</ele>
        <time>2010-12-04T12:00:54Z</time>
      </trkpt>
      <trkpt lat="45.34042" lon="5.71397">
        <ele>1629.8</ele>
        <time>2010-12-04T12:01:02Z</time>
      </trkpt>
      <trkpt lat="45.34037" lon="5.71394">
        <ele>1630</ele>
        <time>2010-12-04T12:01:07Z</time>
      </trkpt>
      <trkpt lat="45.34036" lon="5.71394">
        <ele>1630</ele>
        <time>2010-12-04T12:01:08Z</time>
      </trkpt>
      <trkpt lat="45.34035" lon="5.71392">
        <ele>1630</ele>
        <time>2010-12-04T12:01:10Z</time>
      </trkpt>
      <trkpt lat="45.34031" lon="5.7139">
        <ele>1630.2</ele>
        <time>2010-12-04T12:01:14Z</time>
      </trkpt>
      <trkpt lat="45.34026" lon="5.71386">
        <ele>1630.4</ele>
        <time>2010-12-04T12:01:20Z</time>
      </trkpt>
      <trkpt lat="45.34021" lon="5.71383">
        <ele>1630.6</ele>
        <time>2010-12-04T12:01:25Z</time>
      </trkpt>
      <trkpt lat="45.3402" lon="5.71382">
        <ele>1630.6</ele>
        <time>2010-12-04T12:01:26Z</time>
      </trkpt>
      <trkpt lat="45.34014" lon="5.71377">
        <ele>1630.6</ele>
        <time>2010-12-04T12:01:33Z</time>
      </trkpt>
      <trkpt lat="45.34008" lon="5.71372">
        <ele>1631</ele>
        <time>2010-12-04T12:01:40Z</time>
      </trkpt>
      <trkpt lat="45.34006" lon="5.71369">
        <ele>1631.2</ele>
        <time>2010-12-04T12:01:44Z</time>
      </trkpt>
      <trkpt lat="45.34004" lon="5.71367">
        <ele>1631.2</ele>
        <time>2010-12-04T12:01:46Z</time>
      </trkpt>
      <trkpt lat="45.33999" lon="5.71362">
        <ele>1632</ele>
        <time>2010-12-04T12:01:54Z</time>
      </trkpt>
      <trkpt lat="45.33994" lon="5.71356">
        <ele>1632.8</ele>
        <time>2010-12-04T12:02:02Z</time>
      </trkpt>
      <trkpt lat="45.33992" lon="5.71352">
        <ele>1633.2</ele>
        <time>2010-12-04T12:02:07Z</time>
      </trkpt>
      <trkpt lat="45.33991" lon="5.71349">
        <ele>1633.6</ele>
        <time>2010-12-04T12:02:10Z</time>
      </trkpt>
      <trkpt lat="45.33988" lon="5.71344">
        <ele>1634.2</ele>
        <time>2010-12-04T12:02:16Z</time>
      </trkpt>
      <trkpt lat="45.33985" lon="5.71338">
        <ele>1635</ele>
        <time>2010-12-04T12:02:23Z</time>
      </trkpt>
      <trkpt lat="45.33982" lon="5.71332">
        <ele>1635.8</ele>
        <time>2010-12-04T12:02:30Z</time>
      </trkpt>
      <trkpt lat="45.33981" lon="5.71331">
        <ele>1636.2</ele>
        <time>2010-12-04T12:02:32Z</time>
      </trkpt>
      <trkpt lat="45.33978" lon="5.71328">
        <ele>1636.8</ele>
        <time>2010-12-04T12:02:36Z</time>
      </trkpt>
      <trkpt lat="45.33975" lon="5.71324">
        <ele>1637.6</ele>
        <time>2010-12-04T12:02:42Z</time>
      </trkpt>
      <trkpt lat="45.33972" lon="5.7132">
        <ele>1638.6</ele>
        <time>2010-12-04T12:02:48Z</time>
      </trkpt>
      <trkpt lat="45.33969" lon="5.71315">
        <ele>1639.6</ele>
        <time>2010-12-04T12:02:54Z</time>
      </trkpt>
      <trkpt lat="45.33968" lon="5.71312">
        <ele>1640</ele>
        <time>2010-12-04T12:02:57Z</time>
      </trkpt>
      <trkpt lat="45.33966" lon="5.71309">
        <ele>1640.8</ele>
        <time>2010-12-04T12:03:01Z</time>
      </trkpt>
      <trkpt lat="45.33963" lon="5.71305">
        <ele>1641.6</ele>
        <time>2010-12-04T12:03:07Z</time>
      </trkpt>
      <trkpt lat="45.33959" lon="5.71302">
        <ele>1642.8</ele>
        <time>2010-12-04T12:03:14Z</time>
      </trkpt>
      <trkpt lat="45.33955" lon="5.71298">
        <ele>1643.8</ele>
        <time>2010-12-04T12:03:20Z</time>
      </trkpt>
      <trkpt lat="45.33954" lon="5.71296">
        <ele>1644.4</ele>
        <time>2010-12-04T12:03:24Z</time>
      </trkpt>
      <trkpt lat="45.33953" lon="5.71296">
        <ele>1644.6</ele>
        <time>2010-12-04T12:03:25Z</time>
      </trkpt>
      <trkpt lat="45.33949" lon="5.71292">
        <ele>1646</ele>
        <time>2010-12-04T12:03:33Z</time>
      </trkpt>
      <trkpt lat="45.33947" lon="5.7129">
        <ele>1646.8</ele>
        <time>2010-12-04T12:03:37Z</time>
      </trkpt>
      <trkpt lat="45.33945" lon="5.71287">
        <ele>1647.6</ele>
        <time>2010-12-04T12:03:42Z</time>
      </trkpt>
      <trkpt lat="45.3394" lon="5.71283">
        <ele>1649</ele>
        <time>2010-12-04T12:03:50Z</time>
      </trkpt>
      <trkpt lat="45.33939" lon="5.71282">
        <ele>1649.6</ele>
        <time>2010-12-04T12:03:53Z</time>
      </trkpt>
      <trkpt lat="45.33937" lon="5.71281">
        <ele>1649.8</ele>
        <time>2010-12-04T12:03:55Z</time>
      </trkpt>
      <trkpt lat="45.33934" lon="5.71278">
        <ele>1651</ele>
        <time>2010-12-04T12:04:01Z</time>
      </trkpt>
      <trkpt lat="45.3393" lon="5.71274">
        <ele>1652</ele>
        <time>2010-12-04T12:04:08Z</time>
      </trkpt>
      <trkpt lat="45.33927" lon="5.71271">
        <ele>1652.8</ele>
        <time>2010-12-04T12:04:14Z</time>
      </trkpt>
      <trkpt lat="45.33924" lon="5.71268">
        <ele>1653.8</ele>
        <time>2010-12-04T12:04:20Z</time>
      </trkpt>
      <trkpt lat="45.33923" lon="5.71267">
        <ele>1654</ele>
        <time>2010-12-04T12:04:22Z</time>
      </trkpt>
      <trkpt lat="45.33922" lon="5.71266">
        <ele>1654.6</ele>
        <time>2010-12-04T12:04:25Z</time>
      </trkpt>
      <trkpt lat="45.33918" lon="5.71261">
        <ele>1655.8</ele>
        <time>2010-12-04T12:04:33Z</time>
      </trkpt>
      <trkpt lat="45.33915" lon="5.71257">
        <ele>1657</ele>
        <time>2010-12-04T12:04:41Z</time>
      </trkpt>
      <trkpt lat="45.33913" lon="5.71253">
        <ele>1658</ele>
        <time>2010-12-04T12:04:47Z</time>
      </trkpt>
      <trkpt lat="45.33911" lon="5.71251">
        <ele>1658.8</ele>
        <time>2010-12-04T12:04:52Z</time>
      </trkpt>
      <trkpt lat="45.3391" lon="5.71249">
        <ele>1659</ele>
        <time>2010-12-04T12:04:54Z</time>
      </trkpt>
      <trkpt lat="45.33908" lon="5.71247">
        <ele>1659.4</ele>
        <time>2010-12-04T12:04:57Z</time>
      </trkpt>
      <trkpt lat="45.33907" lon="5.71245">
        <ele>1660</ele>
        <time>2010-12-04T12:05:01Z</time>
      </trkpt>
      <trkpt lat="45.33904" lon="5.71242">
        <ele>1661</ele>
        <time>2010-12-04T12:05:07Z</time>
      </trkpt>
      <trkpt lat="45.33901" lon="5.71238">
        <ele>1662</ele>
        <time>2010-12-04T12:05:14Z</time>
      </trkpt>
      <trkpt lat="45.33898" lon="5.71236">
        <ele>1662.8</ele>
        <time>2010-12-04T12:05:19Z</time>
      </trkpt>
      <trkpt lat="45.33896" lon="5.71234">
        <ele>1664</ele>
        <time>2010-12-04T12:05:25Z</time>
      </trkpt>
      <trkpt lat="45.33895" lon="5.71233">
        <ele>1664</ele>
        <time>2010-12-04T12:05:26Z</time>
      </trkpt>
      <trkpt lat="45.33894" lon="5.71233">
        <ele>1664.6</ele>
        <time>2010-12-04T12:05:29Z</time>
      </trkpt>
      <trkpt lat="45.33892" lon="5.71232">
        <ele>1665.4</ele>
        <time>2010-12-04T12:05:33Z</time>
      </trkpt>
      <trkpt lat="45.33889" lon="5.71231">
        <ele>1666.2</ele>
        <time>2010-12-04T12:05:38Z</time>
      </trkpt>
      <trkpt lat="45.33887" lon="5.71229">
        <ele>1667.2</ele>
        <time>2010-12-04T12:05:43Z</time>
      </trkpt>
      <trkpt lat="45.33885" lon="5.71229">
        <ele>1668.2</ele>
        <time>2010-12-04T12:05:48Z</time>
      </trkpt>
      <trkpt lat="45.33882" lon="5.71227">
        <ele>1669.6</ele>
        <time>2010-12-04T12:05:55Z</time>
      </trkpt>
      <trkpt lat="45.3388" lon="5.71226">
        <ele>1670.6</ele>
        <time>2010-12-04T12:06:00Z</time>
      </trkpt>
      <trkpt lat="45.33878" lon="5.71224">
        <ele>1671.2</ele>
        <time>2010-12-04T12:06:04Z</time>
      </trkpt>
      <trkpt lat="45.33878" lon="5.71224">
        <ele>1671.4</ele>
        <time>2010-12-04T12:06:05Z</time>
      </trkpt>
      <trkpt lat="45.33876" lon="5.71223">
        <ele>1671.8</ele>
        <time>2010-12-04T12:06:08Z</time>
      </trkpt>
      <trkpt lat="45.33874" lon="5.7122">
        <ele>1672.6</ele>
        <time>2010-12-04T12:06:13Z</time>
      </trkpt>
      <trkpt lat="45.33871" lon="5.71217">
        <ele>1673.4</ele>
        <time>2010-12-04T12:06:20Z</time>
      </trkpt>
      <trkpt lat="45.33868" lon="5.71215">
        <ele>1674.2</ele>
        <time>2010-12-04T12:06:26Z</time>
      </trkpt>
      <trkpt lat="45.33864" lon="5.71211">
        <ele>1675.2</ele>
        <time>2010-12-04T12:06:34Z</time>
      </trkpt>
      <trkpt lat="45.33863" lon="5.7121">
        <ele>1675.8</ele>
        <time>2010-12-04T12:06:38Z</time>
      </trkpt>
      <trkpt lat="45.33861" lon="5.71209">
        <ele>1676.2</ele>
        <time>2010-12-04T12:06:41Z</time>
      </trkpt>
      <trkpt lat="45.33857" lon="5.71204">
        <ele>1677.2</ele>
        <time>2010-12-04T12:06:50Z</time>
      </trkpt>
      <trkpt lat="45.33853" lon="5.71201">
        <ele>1678</ele>
        <time>2010-12-04T12:06:57Z</time>
      </trkpt>
      <trkpt lat="45.3385" lon="5.71199">
        <ele>1678.8</ele>
        <time>2010-12-04T12:07:03Z</time>
      </trkpt>
      <trkpt lat="45.33847" lon="5.71196">
        <ele>1679.6</ele>
        <time>2010-12-04T12:07:09Z</time>
      </trkpt>
      <trkpt lat="45.33843" lon="5.71193">
        <ele>1680.6</ele>
        <time>2010-12-04T12:07:16Z</time>
      </trkpt>
      <trkpt lat="45.3384" lon="5.71192">
        <ele>1681.4</ele>
        <time>2010-12-04T12:07:21Z</time>
      </trkpt>
      <trkpt lat="45.33838" lon="5.7119">
        <ele>1682</ele>
        <time>2010-12-04T12:07:25Z</time>
      </trkpt>
      <trkpt lat="45.33835" lon="5.71188">
        <ele>1682.8</ele>
        <time>2010-12-04T12:07:31Z</time>
      </trkpt>
      <trkpt lat="45.33833" lon="5.71187">
        <ele>1683.6</ele>
        <time>2010-12-04T12:07:36Z</time>
      </trkpt>
      <trkpt lat="45.3383" lon="5.71185">
        <ele>1684.4</ele>
        <time>2010-12-04T12:07:41Z</time>
      </trkpt>
      <trkpt lat="45.3383" lon="5.71185">
        <ele>1684.4</ele>
        <time>2010-12-04T12:07:42Z</time>
      </trkpt>
      <trkpt lat="45.33827" lon="5.71184">
        <ele>1685</ele>
        <time>2010-12-04T12:07:46Z</time>
      </trkpt>
      <trkpt lat="45.33824" lon="5.71183">
        <ele>1685.8</ele>
        <time>2010-12-04T12:07:52Z</time>
      </trkpt>
      <trkpt lat="45.33821" lon="5.71182">
        <ele>1686.6</ele>
        <time>2010-12-04T12:07:58Z</time>
      </trkpt>
      <trkpt lat="45.33818" lon="5.71181">
        <ele>1687.4</ele>
        <time>2010-12-04T12:08:03Z</time>
      </trkpt>
      <trkpt lat="45.33813" lon="5.7118">
        <ele>1688.6</ele>
        <time>2010-12-04T12:08:12Z</time>
      </trkpt>
      <trkpt lat="45.33811" lon="5.7118">
        <ele>1689</ele>
        <time>2010-12-04T12:08:15Z</time>
      </trkpt>
      <trkpt lat="45.33808" lon="5.71179">
        <ele>1689.8</ele>
        <time>2010-12-04T12:08:21Z</time>
      </trkpt>
      <trkpt lat="45.33804" lon="5.71178">
        <ele>1690.6</ele>
        <time>2010-12-04T12:08:28Z</time>
      </trkpt>
      <trkpt lat="45.33802" lon="5.71176">
        <ele>1691.2</ele>
        <time>2010-12-04T12:08:32Z</time>
      </trkpt>
      <trkpt lat="45.33798" lon="5.71174">
        <ele>1692</ele>
        <time>2010-12-04T12:08:38Z</time>
      </trkpt>
      <trkpt lat="45.33795" lon="5.71171">
        <ele>1693</ele>
        <time>2010-12-04T12:08:44Z</time>
      </trkpt>
      <trkpt lat="45.33794" lon="5.71171">
        <ele>1693</ele>
        <time>2010-12-04T12:08:45Z</time>
      </trkpt>
      <trkpt lat="45.33791" lon="5.71168">
        <ele>1694</ele>
        <time>2010-12-04T12:08:51Z</time>
      </trkpt>
      <trkpt lat="45.33787" lon="5.71164">
        <ele>1695</ele>
        <time>2010-12-04T12:08:58Z</time>
      </trkpt>
      <trkpt lat="45.33784" lon="5.71161">
        <ele>1695.4</ele>
        <time>2010-12-04T12:09:02Z</time>
      </trkpt>
      <trkpt lat="45.3378" lon="5.71156">
        <ele>1696.6</ele>
        <time>2010-12-04T12:09:11Z</time>
      </trkpt>
      <trkpt lat="45.33777" lon="5.71153">
        <ele>1697.4</ele>
        <time>2010-12-04T12:09:16Z</time>
      </trkpt>
      <trkpt lat="45.33774" lon="5.71148">
        <ele>1698.2</ele>
        <time>2010-12-04T12:09:24Z</time>
      </trkpt>
      <trkpt lat="45.33773" lon="5.71146">
        <ele>1698.8</ele>
        <time>2010-12-04T12:09:28Z</time>
      </trkpt>
      <trkpt lat="45.33771" lon="5.71144">
        <ele>1699.4</ele>
        <time>2010-12-04T12:09:32Z</time>
      </trkpt>
      <trkpt lat="45.33768" lon="5.71141">
        <ele>1700</ele>
        <time>2010-12-04T12:09:37Z</time>
      </trkpt>
      <trkpt lat="45.33766" lon="5.71138">
        <ele>1700.6</ele>
        <time>2010-12-04T12:09:42Z</time>
      </trkpt>
      <trkpt lat="45.33763" lon="5.71132">
        <ele>1701.6</ele>
        <time>2010-12-04T12:09:52Z</time>
      </trkpt>
      <trkpt lat="45.3376" lon="5.71124">
        <ele>1702.8</ele>
        <time>2010-12-04T12:10:03Z</time>
      </trkpt>
      <trkpt lat="45.33757" lon="5.71119">
        <ele>1703.6</ele>
        <time>2010-12-04T12:10:11Z</time>
      </trkpt>
      <trkpt lat="45.33757" lon="5.71117">
        <ele>1704</ele>
        <time>2010-12-04T12:10:15Z</time>
      </trkpt>
      <trkpt lat="45.33755" lon="5.71114">
        <ele>1704.4</ele>
        <time>2010-12-04T12:10:20Z</time>
      </trkpt>
      <trkpt lat="45.33754" lon="5.71111">
        <ele>1704.8</ele>
        <time>2010-12-04T12:10:24Z</time>
      </trkpt>
      <trkpt lat="45.33754" lon="5.7111">
        <ele>1705</ele>
        <time>2010-12-04T12:10:25Z</time>
      </trkpt>
      <trkpt lat="45.33752" lon="5.71106">
        <ele>1705.6</ele>
        <time>2010-12-04T12:10:30Z</time>
      </trkpt>
      <trkpt lat="45.33751" lon="5.71101">
        <ele>1706.2</ele>
        <time>2010-12-04T12:10:36Z</time>
      </trkpt>
      <trkpt lat="45.33749" lon="5.71096">
        <ele>1707.2</ele>
        <time>2010-12-04T12:10:43Z</time>
      </trkpt>
      <trkpt lat="45.33748" lon="5.71094">
        <ele>1707.6</ele>
        <time>2010-12-04T12:10:46Z</time>
      </trkpt>
      <trkpt lat="45.33748" lon="5.71092">
        <ele>1707.8</ele>
        <time>2010-12-04T12:10:48Z</time>
      </trkpt>
      <trkpt lat="45.33748" lon="5.7109">
        <ele>1708.6</ele>
        <time>2010-12-04T12:10:54Z</time>
      </trkpt>
      <trkpt lat="45.3375" lon="5.71089">
        <ele>1709</ele>
        <time>2010-12-04T12:10:58Z</time>
      </trkpt>
      <trkpt lat="45.33755" lon="5.7109">
        <ele>1709.8</ele>
        <time>2010-12-04T12:11:05Z</time>
      </trkpt>
      <trkpt lat="45.33761" lon="5.71091">
        <ele>1710.8</ele>
        <time>2010-12-04T12:11:13Z</time>
      </trkpt>
      <trkpt lat="45.33763" lon="5.71091">
        <ele>1711.2</ele>
        <time>2010-12-04T12:11:16Z</time>
      </trkpt>
      <trkpt lat="45.33767" lon="5.71091">
        <ele>1711.8</ele>
        <time>2010-12-04T12:11:21Z</time>
      </trkpt>
      <trkpt lat="45.33771" lon="5.7109">
        <ele>1712.6</ele>
        <time>2010-12-04T12:11:27Z</time>
      </trkpt>
      <trkpt lat="45.33773" lon="5.71089">
        <ele>1713</ele>
        <time>2010-12-04T12:11:31Z</time>
      </trkpt>
      <trkpt lat="45.33775" lon="5.71087">
        <ele>1713.6</ele>
        <time>2010-12-04T12:11:36Z</time>
      </trkpt>
      <trkpt lat="45.33776" lon="5.71085">
        <ele>1714.2</ele>
        <time>2010-12-04T12:11:40Z</time>
      </trkpt>
      <trkpt lat="45.33776" lon="5.71082">
        <ele>1714.6</ele>
        <time>2010-12-04T12:11:44Z</time>
      </trkpt>
      <trkpt lat="45.33776" lon="5.7108">
        <ele>1714.8</ele>
        <time>2010-12-04T12:11:47Z</time>
      </trkpt>
      <trkpt lat="45.33775" lon="5.71076">
        <ele>1715.4</ele>
        <time>2010-12-04T12:11:51Z</time>
      </trkpt>
      <trkpt lat="45.33773" lon="5.71073">
        <ele>1715.8</ele>
        <time>2010-12-04T12:11:55Z</time>
      </trkpt>
      <trkpt lat="45.33773" lon="5.71068">
        <ele>1716.4</ele>
        <time>2010-12-04T12:12:00Z</time>
      </trkpt>
      <trkpt lat="45.33774" lon="5.71064">
        <ele>1717.2</ele>
        <time>2010-12-04T12:12:05Z</time>
      </trkpt>
      <trkpt lat="45.33778" lon="5.71058">
        <ele>1718.2</ele>
        <time>2010-12-04T12:12:13Z</time>
      </trkpt>
      <trkpt lat="45.33779" lon="5.71057">
        <ele>1718.2</ele>
        <time>2010-12-04T12:12:14Z</time>
      </trkpt>
      <trkpt lat="45.3378" lon="5.71053">
        <ele>1718.8</ele>
        <time>2010-12-04T12:12:19Z</time>
      </trkpt>
      <trkpt lat="45.33782" lon="5.7105">
        <ele>1719.2</ele>
        <time>2010-12-04T12:12:23Z</time>
      </trkpt>
      <trkpt lat="45.33783" lon="5.71048">
        <ele>1719.8</ele>
        <time>2010-12-04T12:12:27Z</time>
      </trkpt>
      <trkpt lat="45.33784" lon="5.71043">
        <ele>1720.4</ele>
        <time>2010-12-04T12:12:32Z</time>
      </trkpt>
      <trkpt lat="45.33785" lon="5.71036">
        <ele>1721.4</ele>
        <time>2010-12-04T12:12:40Z</time>
      </trkpt>
      <trkpt lat="45.33784" lon="5.71034">
        <ele>1721.6</ele>
        <time>2010-12-04T12:12:42Z</time>
      </trkpt>
      <trkpt lat="45.33783" lon="5.71033">
        <ele>1722</ele>
        <time>2010-12-04T12:12:45Z</time>
      </trkpt>
      <trkpt lat="45.33781" lon="5.7103">
        <ele>1722.6</ele>
        <time>2010-12-04T12:12:49Z</time>
      </trkpt>
      <trkpt lat="45.33779" lon="5.71027">
        <ele>1723.2</ele>
        <time>2010-12-04T12:12:54Z</time>
      </trkpt>
      <trkpt lat="45.33775" lon="5.71023">
        <ele>1724.4</ele>
        <time>2010-12-04T12:13:02Z</time>
      </trkpt>
      <trkpt lat="45.33773" lon="5.71019">
        <ele>1725.2</ele>
        <time>2010-12-04T12:13:07Z</time>
      </trkpt>
      <trkpt lat="45.33772" lon="5.71016">
        <ele>1725.8</ele>
        <time>2010-12-04T12:13:10Z</time>
      </trkpt>
      <trkpt lat="45.33771" lon="5.71013">
        <ele>1726</ele>
        <time>2010-12-04T12:13:12Z</time>
      </trkpt>
      <trkpt lat="45.3377" lon="5.71007">
        <ele>1727</ele>
        <time>2010-12-04T12:13:18Z</time>
      </trkpt>
      <trkpt lat="45.33769" lon="5.71002">
        <ele>1728</ele>
        <time>2010-12-04T12:13:24Z</time>
      </trkpt>
      <trkpt lat="45.33768" lon="5.70997">
        <ele>1728.8</ele>
        <time>2010-12-04T12:13:29Z</time>
      </trkpt>
      <trkpt lat="45.33766" lon="5.70991">
        <ele>1729.8</ele>
        <time>2010-12-04T12:13:36Z</time>
      </trkpt>
      <trkpt lat="45.33765" lon="5.70988">
        <ele>1730.6</ele>
        <time>2010-12-04T12:13:40Z</time>
      </trkpt>
      <trkpt lat="45.33768" lon="5.70987">
        <ele>1731.6</ele>
        <time>2010-12-04T12:13:47Z</time>
      </trkpt>
      <trkpt lat="45.33772" lon="5.70988">
        <ele>1732.6</ele>
        <time>2010-12-04T12:13:54Z</time>
      </trkpt>
      <trkpt lat="45.33777" lon="5.70987">
        <ele>1733.8</ele>
        <time>2010-12-04T12:14:02Z</time>
      </trkpt>
      <trkpt lat="45.33778" lon="5.70987">
        <ele>1734.6</ele>
        <time>2010-12-04T12:14:07Z</time>
      </trkpt>
      <trkpt lat="45.33777" lon="5.70985">
        <ele>1735</ele>
        <time>2010-12-04T12:14:12Z</time>
      </trkpt>
      <trkpt lat="45.33777" lon="5.70985">
        <ele>1735.2</ele>
        <time>2010-12-04T12:14:13Z</time>
      </trkpt>
      <trkpt lat="45.33774" lon="5.70982">
        <ele>1735.8</ele>
        <time>2010-12-04T12:14:18Z</time>
      </trkpt>
      <trkpt lat="45.33771" lon="5.70977">
        <ele>1737</ele>
        <time>2010-12-04T12:14:27Z</time>
      </trkpt>
      <trkpt lat="45.33771" lon="5.70973">
        <ele>1737.8</ele>
        <time>2010-12-04T12:14:33Z</time>
      </trkpt>
      <trkpt lat="45.33773" lon="5.70973">
        <ele>1738.6</ele>
        <time>2010-12-04T12:14:38Z</time>
      </trkpt>
      <trkpt lat="45.33779" lon="5.70972">
        <ele>1739.8</ele>
        <time>2010-12-04T12:14:46Z</time>
      </trkpt>
      <trkpt lat="45.33782" lon="5.7097">
        <ele>1740.4</ele>
        <time>2010-12-04T12:14:51Z</time>
      </trkpt>
      <trkpt lat="45.33784" lon="5.70968">
        <ele>1741.2</ele>
        <time>2010-12-04T12:14:56Z</time>
      </trkpt>
      <trkpt lat="45.33787" lon="5.70964">
        <ele>1741.8</ele>
        <time>2010-12-04T12:15:01Z</time>
      </trkpt>
      <trkpt lat="45.33788" lon="5.70961">
        <ele>1742.4</ele>
        <time>2010-12-04T12:15:06Z</time>
      </trkpt>
      <trkpt lat="45.33789" lon="5.70958">
        <ele>1743</ele>
        <time>2010-12-04T12:15:10Z</time>
      </trkpt>
      <trkpt lat="45.33789" lon="5.70955">
        <ele>1743.6</ele>
        <time>2010-12-04T12:15:14Z</time>
      </trkpt>
      <trkpt lat="45.33789" lon="5.70952">
        <ele>1744</ele>
        <time>2010-12-04T12:15:17Z</time>
      </trkpt>
      <trkpt lat="45.33789" lon="5.70952">
        <ele>1744.2</ele>
        <time>2010-12-04T12:15:18Z</time>
      </trkpt>
      <trkpt lat="45.33789" lon="5.70948">
        <ele>1745</ele>
        <time>2010-12-04T12:15:23Z</time>
      </trkpt>
      <trkpt lat="45.33789" lon="5.70941">
        <ele>1745.8</ele>
        <time>2010-12-04T12:15:29Z</time>
      </trkpt>
      <trkpt lat="45.3379" lon="5.70936">
        <ele>1746.2</ele>
        <time>2010-12-04T12:15:34Z</time>
      </trkpt>
      <trkpt lat="45.33791" lon="5.70932">
        <ele>1746.6</ele>
        <time>2010-12-04T12:15:38Z</time>
      </trkpt>
      <trkpt lat="45.33793" lon="5.70929">
        <ele>1747</ele>
        <time>2010-12-04T12:15:42Z</time>
      </trkpt>
      <trkpt lat="45.33795" lon="5.70926">
        <ele>1747.4</ele>
        <time>2010-12-04T12:15:45Z</time>
      </trkpt>
      <trkpt lat="45.33797" lon="5.70923">
        <ele>1747.8</ele>
        <time>2010-12-04T12:15:49Z</time>
      </trkpt>
      <trkpt lat="45.338" lon="5.7092">
        <ele>1748.6</ele>
        <time>2010-12-04T12:15:55Z</time>
      </trkpt>
      <trkpt lat="45.33804" lon="5.70916">
        <ele>1749.6</ele>
        <time>2010-12-04T12:16:03Z</time>
      </trkpt>
      <trkpt lat="45.33806" lon="5.70915">
        <ele>1750.2</ele>
        <time>2010-12-04T12:16:08Z</time>
      </trkpt>
      <trkpt lat="45.33805" lon="5.70915">
        <ele>1750.8</ele>
        <time>2010-12-04T12:16:13Z</time>
      </trkpt>
      <trkpt lat="45.33804" lon="5.70915">
        <ele>1751</ele>
        <time>2010-12-04T12:16:15Z</time>
      </trkpt>
      <trkpt lat="45.33803" lon="5.70913">
        <ele>1751.2</ele>
        <time>2010-12-04T12:16:18Z</time>
      </trkpt>
      <trkpt lat="45.338" lon="5.70907">
        <ele>1752.4</ele>
        <time>2010-12-04T12:16:26Z</time>
      </trkpt>
      <trkpt lat="45.33798" lon="5.70904">
        <ele>1753</ele>
        <time>2010-12-04T12:16:31Z</time>
      </trkpt>
      <trkpt lat="45.33796" lon="5.70901">
        <ele>1753.6</ele>
        <time>2010-12-04T12:16:35Z</time>
      </trkpt>
      <trkpt lat="45.33794" lon="5.70896">
        <ele>1754.6</ele>
        <time>2010-12-04T12:16:41Z</time>
      </trkpt>
      <trkpt lat="45.33793" lon="5.70894">
        <ele>1755</ele>
        <time>2010-12-04T12:16:44Z</time>
      </trkpt>
      <trkpt lat="45.33793" lon="5.70893">
        <ele>1755.4</ele>
        <time>2010-12-04T12:16:46Z</time>
      </trkpt>
      <trkpt lat="45.3379" lon="5.70888">
        <ele>1756.6</ele>
        <time>2010-12-04T12:16:53Z</time>
      </trkpt>
      <trkpt lat="45.33789" lon="5.70883">
        <ele>1757.6</ele>
        <time>2010-12-04T12:16:59Z</time>
      </trkpt>
      <trkpt lat="45.33789" lon="5.70879">
        <ele>1758.2</ele>
        <time>2010-12-04T12:17:03Z</time>
      </trkpt>
      <trkpt lat="45.33788" lon="5.70876">
        <ele>1759</ele>
        <time>2010-12-04T12:17:08Z</time>
      </trkpt>
      <trkpt lat="45.33788" lon="5.70872">
        <ele>1759.8</ele>
        <time>2010-12-04T12:17:13Z</time>
      </trkpt>
      <trkpt lat="45.33788" lon="5.7087">
        <ele>1760.2</ele>
        <time>2010-12-04T12:17:16Z</time>
      </trkpt>
      <trkpt lat="45.33788" lon="5.70868">
        <ele>1760.6</ele>
        <time>2010-12-04T12:17:18Z</time>
      </trkpt>
      <trkpt lat="45.33788" lon="5.70862">
        <ele>1761.6</ele>
        <time>2010-12-04T12:17:25Z</time>
      </trkpt>
      <trkpt lat="45.3379" lon="5.70863">
        <ele>1762</ele>
        <time>2010-12-04T12:17:29Z</time>
      </trkpt>
      <trkpt lat="45.33794" lon="5.70864">
        <ele>1763</ele>
        <time>2010-12-04T12:17:36Z</time>
      </trkpt>
      <trkpt lat="45.33799" lon="5.70865">
        <ele>1764</ele>
        <time>2010-12-04T12:17:43Z</time>
      </trkpt>
      <trkpt lat="45.338" lon="5.70865">
        <ele>1764.4</ele>
        <time>2010-12-04T12:17:45Z</time>
      </trkpt>
      <trkpt lat="45.33802" lon="5.70865">
        <ele>1764.6</ele>
        <time>2010-12-04T12:17:47Z</time>
      </trkpt>
      <trkpt lat="45.33805" lon="5.70864">
        <ele>1765.2</ele>
        <time>2010-12-04T12:17:52Z</time>
      </trkpt>
      <trkpt lat="45.33806" lon="5.70862">
        <ele>1766.2</ele>
        <time>2010-12-04T12:17:58Z</time>
      </trkpt>
      <trkpt lat="45.33804" lon="5.70859">
        <ele>1767</ele>
        <time>2010-12-04T12:18:04Z</time>
      </trkpt>
      <trkpt lat="45.33803" lon="5.70857">
        <ele>1767.8</ele>
        <time>2010-12-04T12:18:08Z</time>
      </trkpt>
      <trkpt lat="45.33801" lon="5.70854">
        <ele>1768.6</ele>
        <time>2010-12-04T12:18:13Z</time>
      </trkpt>
      <trkpt lat="45.338" lon="5.70851">
        <ele>1769.4</ele>
        <time>2010-12-04T12:18:18Z</time>
      </trkpt>
      <trkpt lat="45.338" lon="5.7085">
        <ele>1769.6</ele>
        <time>2010-12-04T12:18:19Z</time>
      </trkpt>
      <trkpt lat="45.33799" lon="5.70848">
        <ele>1770</ele>
        <time>2010-12-04T12:18:22Z</time>
      </trkpt>
      <trkpt lat="45.33797" lon="5.70846">
        <ele>1770.6</ele>
        <time>2010-12-04T12:18:26Z</time>
      </trkpt>
      <trkpt lat="45.33796" lon="5.70843">
        <ele>1771.2</ele>
        <time>2010-12-04T12:18:30Z</time>
      </trkpt>
      <trkpt lat="45.33794" lon="5.70839">
        <ele>1772.2</ele>
        <time>2010-12-04T12:18:36Z</time>
      </trkpt>
      <trkpt lat="45.33793" lon="5.70837">
        <ele>1772.8</ele>
        <time>2010-12-04T12:18:40Z</time>
      </trkpt>
      <trkpt lat="45.33792" lon="5.70834">
        <ele>1773.4</ele>
        <time>2010-12-04T12:18:44Z</time>
      </trkpt>
      <trkpt lat="45.33792" lon="5.70831">
        <ele>1774</ele>
        <time>2010-12-04T12:18:48Z</time>
      </trkpt>
      <trkpt lat="45.33792" lon="5.7083">
        <ele>1774.8</ele>
        <time>2010-12-04T12:18:53Z</time>
      </trkpt>
      <trkpt lat="45.33793" lon="5.70831">
        <ele>1775.2</ele>
        <time>2010-12-04T12:18:55Z</time>
      </trkpt>
      <trkpt lat="45.33795" lon="5.70832">
        <ele>1775.6</ele>
        <time>2010-12-04T12:18:58Z</time>
      </trkpt>
      <trkpt lat="45.338" lon="5.70835">
        <ele>1776.8</ele>
        <time>2010-12-04T12:19:06Z</time>
      </trkpt>
      <trkpt lat="45.33804" lon="5.70836">
        <ele>1777.8</ele>
        <time>2010-12-04T12:19:12Z</time>
      </trkpt>
      <trkpt lat="45.33807" lon="5.70836">
        <ele>1778.6</ele>
        <time>2010-12-04T12:19:17Z</time>
      </trkpt>
      <trkpt lat="45.33811" lon="5.70835">
        <ele>1779.4</ele>
        <time>2010-12-04T12:19:22Z</time>
      </trkpt>
      <trkpt lat="45.33813" lon="5.70835">
        <ele>1779.8</ele>
        <time>2010-12-04T12:19:25Z</time>
      </trkpt>
      <trkpt lat="45.33817" lon="5.70834">
        <ele>1780.4</ele>
        <time>2010-12-04T12:19:31Z</time>
      </trkpt>
      <trkpt lat="45.33821" lon="5.70833">
        <ele>1781</ele>
        <time>2010-12-04T12:19:37Z</time>
      </trkpt>
      <trkpt lat="45.33825" lon="5.70831">
        <ele>1781.6</ele>
        <time>2010-12-04T12:19:43Z</time>
      </trkpt>
      <trkpt lat="45.33826" lon="5.7083">
        <ele>1782</ele>
        <time>2010-12-04T12:19:50Z</time>
      </trkpt>
      <trkpt lat="45.33824" lon="5.70829">
        <ele>1782.2</ele>
        <time>2010-12-04T12:19:55Z</time>
      </trkpt>
      <trkpt lat="45.33823" lon="5.70828">
        <ele>1782.2</ele>
        <time>2010-12-04T12:19:57Z</time>
      </trkpt>
      <trkpt lat="45.33819" lon="5.70824">
        <ele>1782.6</ele>
        <time>2010-12-04T12:20:05Z</time>
      </trkpt>
      <trkpt lat="45.33817" lon="5.70822">
        <ele>1782.8</ele>
        <time>2010-12-04T12:20:09Z</time>
      </trkpt>
      <trkpt lat="45.33815" lon="5.70821">
        <ele>1783</ele>
        <time>2010-12-04T12:20:13Z</time>
      </trkpt>
      <trkpt lat="45.33814" lon="5.7082">
        <ele>1783.4</ele>
        <time>2010-12-04T12:20:17Z</time>
      </trkpt>
      <trkpt lat="45.33811" lon="5.70818">
        <ele>1784.2</ele>
        <time>2010-12-04T12:20:23Z</time>
      </trkpt>
      <trkpt lat="45.3381" lon="5.70816">
        <ele>1784.8</ele>
        <time>2010-12-04T12:20:27Z</time>
      </trkpt>
      <trkpt lat="45.33809" lon="5.70815">
        <ele>1785.2</ele>
        <time>2010-12-04T12:20:29Z</time>
      </trkpt>
      <trkpt lat="45.33808" lon="5.70814">
        <ele>1785.4</ele>
        <time>2010-12-04T12:20:31Z</time>
      </trkpt>
      <trkpt lat="45.33806" lon="5.70812">
        <ele>1786.4</ele>
        <time>2010-12-04T12:20:36Z</time>
      </trkpt>
      <trkpt lat="45.33805" lon="5.7081">
        <ele>1787.2</ele>
        <time>2010-12-04T12:20:42Z</time>
      </trkpt>
      <trkpt lat="45.33805" lon="5.7081">
        <ele>1789.4</ele>
        <time>2010-12-04T12:21:03Z</time>
      </trkpt>
      <trkpt lat="45.33805" lon="5.70809">
        <ele>1793.6</ele>
        <time>2010-12-04T12:21:44Z</time>
      </trkpt>
      <trkpt lat="45.33805" lon="5.70809">
        <ele>1794</ele>
        <time>2010-12-04T12:21:51Z</time>
      </trkpt>
      <trkpt lat="45.33806" lon="5.70809">
        <ele>1794</ele>
        <time>2010-12-04T12:22:15Z</time>
      </trkpt>
      <trkpt lat="45.33805" lon="5.70805">
        <ele>1793.8</ele>
        <time>2010-12-04T12:22:50Z</time>
      </trkpt>
      <trkpt lat="45.33803" lon="5.70801">
        <ele>1793.8</ele>
        <time>2010-12-04T12:22:56Z</time>
      </trkpt>
      <trkpt lat="45.33801" lon="5.70797">
        <ele>1795.6</ele>
        <time>2010-12-04T12:23:52Z</time>
      </trkpt>
      <trkpt lat="45.338" lon="5.70794">
        <ele>1795.8</ele>
        <time>2010-12-04T12:23:56Z</time>
      </trkpt>
      <trkpt lat="45.33797" lon="5.70789">
        <ele>1796</ele>
        <time>2010-12-04T12:24:03Z</time>
      </trkpt>
      <trkpt lat="45.33798" lon="5.70788">
        <ele>1796.2</ele>
        <time>2010-12-04T12:24:07Z</time>
      </trkpt>
      <trkpt lat="45.33801" lon="5.70789">
        <ele>1796.8</ele>
        <time>2010-12-04T12:24:15Z</time>
      </trkpt>
      <trkpt lat="45.33802" lon="5.7079">
        <ele>1797</ele>
        <time>2010-12-04T12:24:17Z</time>
      </trkpt>
      <trkpt lat="45.33807" lon="5.70791">
        <ele>1797.6</ele>
        <time>2010-12-04T12:24:24Z</time>
      </trkpt>
      <trkpt lat="45.33811" lon="5.70791">
        <ele>1798.4</ele>
        <time>2010-12-04T12:24:32Z</time>
      </trkpt>
      <trkpt lat="45.33815" lon="5.70791">
        <ele>1799.2</ele>
        <time>2010-12-04T12:24:38Z</time>
      </trkpt>
      <trkpt lat="45.33819" lon="5.70791">
        <ele>1800</ele>
        <time>2010-12-04T12:24:44Z</time>
      </trkpt>
      <trkpt lat="45.3382" lon="5.70791">
        <ele>1800.4</ele>
        <time>2010-12-04T12:24:47Z</time>
      </trkpt>
      <trkpt lat="45.33824" lon="5.70791">
        <ele>1801.2</ele>
        <time>2010-12-04T12:24:53Z</time>
      </trkpt>
      <trkpt lat="45.33828" lon="5.70791">
        <ele>1802</ele>
        <time>2010-12-04T12:24:59Z</time>
      </trkpt>
      <trkpt lat="45.33829" lon="5.7079">
        <ele>1802.6</ele>
        <time>2010-12-04T12:25:04Z</time>
      </trkpt>
      <trkpt lat="45.33827" lon="5.70788">
        <ele>1803.4</ele>
        <time>2010-12-04T12:25:11Z</time>
      </trkpt>
      <trkpt lat="45.33823" lon="5.70784">
        <ele>1804.6</ele>
        <time>2010-12-04T12:25:19Z</time>
      </trkpt>
      <trkpt lat="45.33822" lon="5.70782">
        <ele>1804.8</ele>
        <time>2010-12-04T12:25:21Z</time>
      </trkpt>
      <trkpt lat="45.33821" lon="5.70781">
        <ele>1805</ele>
        <time>2010-12-04T12:25:23Z</time>
      </trkpt>
      <trkpt lat="45.3382" lon="5.70779">
        <ele>1805.4</ele>
        <time>2010-12-04T12:25:27Z</time>
      </trkpt>
      <trkpt lat="45.33817" lon="5.70774">
        <ele>1806.2</ele>
        <time>2010-12-04T12:25:34Z</time>
      </trkpt>
      <trkpt lat="45.33815" lon="5.7077">
        <ele>1806.8</ele>
        <time>2010-12-04T12:25:39Z</time>
      </trkpt>
      <trkpt lat="45.33814" lon="5.70767">
        <ele>1807.4</ele>
        <time>2010-12-04T12:25:43Z</time>
      </trkpt>
      <trkpt lat="45.33812" lon="5.70763">
        <ele>1808</ele>
        <time>2010-12-04T12:25:48Z</time>
      </trkpt>
      <trkpt lat="45.33811" lon="5.70762">
        <ele>1808</ele>
        <time>2010-12-04T12:25:49Z</time>
      </trkpt>
      <trkpt lat="45.3381" lon="5.70759">
        <ele>1808.6</ele>
        <time>2010-12-04T12:25:53Z</time>
      </trkpt>
      <trkpt lat="45.33809" lon="5.70756">
        <ele>1809.2</ele>
        <time>2010-12-04T12:25:57Z</time>
      </trkpt>
      <trkpt lat="45.33807" lon="5.70753">
        <ele>1809.8</ele>
        <time>2010-12-04T12:26:01Z</time>
      </trkpt>
      <trkpt lat="45.33806" lon="5.70751">
        <ele>1810.4</ele>
        <time>2010-12-04T12:26:05Z</time>
      </trkpt>
      <trkpt lat="45.33804" lon="5.70748">
        <ele>1811</ele>
        <time>2010-12-04T12:26:10Z</time>
      </trkpt>
      <trkpt lat="45.33802" lon="5.70745">
        <ele>1811.6</ele>
        <time>2010-12-04T12:26:14Z</time>
      </trkpt>
      <trkpt lat="45.33801" lon="5.70742">
        <ele>1812.2</ele>
        <time>2010-12-04T12:26:18Z</time>
      </trkpt>
      <trkpt lat="45.338" lon="5.70741">
        <ele>1812.4</ele>
        <time>2010-12-04T12:26:19Z</time>
      </trkpt>
      <trkpt lat="45.33799" lon="5.70738">
        <ele>1812.8</ele>
        <time>2010-12-04T12:26:22Z</time>
      </trkpt>
      <trkpt lat="45.33798" lon="5.70735">
        <ele>1813.2</ele>
        <time>2010-12-04T12:26:26Z</time>
      </trkpt>
      <trkpt lat="45.33795" lon="5.7073">
        <ele>1814.2</ele>
        <time>2010-12-04T12:26:33Z</time>
      </trkpt>
      <trkpt lat="45.33796" lon="5.70728">
        <ele>1814.8</ele>
        <time>2010-12-04T12:26:38Z</time>
      </trkpt>
      <trkpt lat="45.33802" lon="5.70731">
        <ele>1815.8</ele>
        <time>2010-12-04T12:26:46Z</time>
      </trkpt>
      <trkpt lat="45.33803" lon="5.70731">
        <ele>1816</ele>
        <time>2010-12-04T12:26:47Z</time>
      </trkpt>
      <trkpt lat="45.33807" lon="5.70733">
        <ele>1816.8</ele>
        <time>2010-12-04T12:26:53Z</time>
      </trkpt>
      <trkpt lat="45.33811" lon="5.70733">
        <ele>1817.6</ele>
        <time>2010-12-04T12:27:00Z</time>
      </trkpt>
      <trkpt lat="45.33814" lon="5.70732">
        <ele>1818.4</ele>
        <time>2010-12-04T12:27:05Z</time>
      </trkpt>
      <trkpt lat="45.33814" lon="5.70731">
        <ele>1819.2</ele>
        <time>2010-12-04T12:27:11Z</time>
      </trkpt>
      <trkpt lat="45.33812" lon="5.70728">
        <ele>1819.8</ele>
        <time>2010-12-04T12:27:16Z</time>
      </trkpt>
      <trkpt lat="45.3381" lon="5.70724">
        <ele>1820.6</ele>
        <time>2010-12-04T12:27:21Z</time>
      </trkpt>
      <trkpt lat="45.33809" lon="5.70722">
        <ele>1821.2</ele>
        <time>2010-12-04T12:27:25Z</time>
      </trkpt>
      <trkpt lat="45.33808" lon="5.70719">
        <ele>1821.6</ele>
        <time>2010-12-04T12:27:29Z</time>
      </trkpt>
      <trkpt lat="45.33806" lon="5.70715">
        <ele>1822.6</ele>
        <time>2010-12-04T12:27:35Z</time>
      </trkpt>
      <trkpt lat="45.33804" lon="5.70712">
        <ele>1823.2</ele>
        <time>2010-12-04T12:27:39Z</time>
      </trkpt>
      <trkpt lat="45.33801" lon="5.70707">
        <ele>1824</ele>
        <time>2010-12-04T12:27:46Z</time>
      </trkpt>
      <trkpt lat="45.33799" lon="5.70704">
        <ele>1824.4</ele>
        <time>2010-12-04T12:27:49Z</time>
      </trkpt>
      <trkpt lat="45.33797" lon="5.707">
        <ele>1825</ele>
        <time>2010-12-04T12:27:53Z</time>
      </trkpt>
      <trkpt lat="45.33796" lon="5.70699">
        <ele>1825.2</ele>
        <time>2010-12-04T12:27:54Z</time>
      </trkpt>
      <trkpt lat="45.33796" lon="5.70696">
        <ele>1825.6</ele>
        <time>2010-12-04T12:27:58Z</time>
      </trkpt>
      <trkpt lat="45.33796" lon="5.70694">
        <ele>1826</ele>
        <time>2010-12-04T12:28:02Z</time>
      </trkpt>
      <trkpt lat="45.33797" lon="5.70693">
        <ele>1826.8</ele>
        <time>2010-12-04T12:28:07Z</time>
      </trkpt>
      <trkpt lat="45.33799" lon="5.70691">
        <ele>1827.2</ele>
        <time>2010-12-04T12:28:11Z</time>
      </trkpt>
      <trkpt lat="45.33801" lon="5.70688">
        <ele>1827.8</ele>
        <time>2010-12-04T12:28:17Z</time>
      </trkpt>
      <trkpt lat="45.33803" lon="5.70686">
        <ele>1828.2</ele>
        <time>2010-12-04T12:28:21Z</time>
      </trkpt>
      <trkpt lat="45.33804" lon="5.70685">
        <ele>1828.4</ele>
        <time>2010-12-04T12:28:22Z</time>
      </trkpt>
      <trkpt lat="45.33805" lon="5.70684">
        <ele>1828.8</ele>
        <time>2010-12-04T12:28:25Z</time>
      </trkpt>
      <trkpt lat="45.33808" lon="5.7068">
        <ele>1829.2</ele>
        <time>2010-12-04T12:28:31Z</time>
      </trkpt>
      <trkpt lat="45.33809" lon="5.70673">
        <ele>1829.6</ele>
        <time>2010-12-04T12:28:38Z</time>
      </trkpt>
      <trkpt lat="45.33809" lon="5.70669">
        <ele>1830</ele>
        <time>2010-12-04T12:28:42Z</time>
      </trkpt>
      <trkpt lat="45.33807" lon="5.70665">
        <ele>1830.4</ele>
        <time>2010-12-04T12:28:47Z</time>
      </trkpt>
      <trkpt lat="45.33806" lon="5.70663">
        <ele>1830.8</ele>
        <time>2010-12-04T12:28:50Z</time>
      </trkpt>
      <trkpt lat="45.33805" lon="5.70663">
        <ele>1831</ele>
        <time>2010-12-04T12:28:51Z</time>
      </trkpt>
      <trkpt lat="45.33806" lon="5.7066">
        <ele>1831.4</ele>
        <time>2010-12-04T12:28:55Z</time>
      </trkpt>
      <trkpt lat="45.33808" lon="5.70659">
        <ele>1832</ele>
        <time>2010-12-04T12:29:00Z</time>
      </trkpt>
      <trkpt lat="45.33811" lon="5.70659">
        <ele>1832.6</ele>
        <time>2010-12-04T12:29:06Z</time>
      </trkpt>
      <trkpt lat="45.33813" lon="5.70661">
        <ele>1833.6</ele>
        <time>2010-12-04T12:29:12Z</time>
      </trkpt>
      <trkpt lat="45.33812" lon="5.70659">
        <ele>1834.6</ele>
        <time>2010-12-04T12:29:20Z</time>
      </trkpt>
      <trkpt lat="45.3381" lon="5.70655">
        <ele>1835.6</ele>
        <time>2010-12-04T12:29:27Z</time>
      </trkpt>
      <trkpt lat="45.33808" lon="5.70652">
        <ele>1836.2</ele>
        <time>2010-12-04T12:29:32Z</time>
      </trkpt>
      <trkpt lat="45.33807" lon="5.70651">
        <ele>1836.4</ele>
        <time>2010-12-04T12:29:33Z</time>
      </trkpt>
      <trkpt lat="45.33805" lon="5.7065">
        <ele>1837</ele>
        <time>2010-12-04T12:29:37Z</time>
      </trkpt>
      <trkpt lat="45.33804" lon="5.70649">
        <ele>1838</ele>
        <time>2010-12-04T12:29:43Z</time>
      </trkpt>
      <trkpt lat="45.33806" lon="5.70647">
        <ele>1838.6</ele>
        <time>2010-12-04T12:29:48Z</time>
      </trkpt>
      <trkpt lat="45.33808" lon="5.70646">
        <ele>1839.2</ele>
        <time>2010-12-04T12:29:52Z</time>
      </trkpt>
      <trkpt lat="45.33809" lon="5.70646">
        <ele>1839.8</ele>
        <time>2010-12-04T12:29:56Z</time>
      </trkpt>
      <trkpt lat="45.33809" lon="5.70646">
        <ele>1841</ele>
        <time>2010-12-04T12:30:04Z</time>
      </trkpt>
      <trkpt lat="45.33808" lon="5.70644">
        <ele>1842</ele>
        <time>2010-12-04T12:30:10Z</time>
      </trkpt>
      <trkpt lat="45.33807" lon="5.70641">
        <ele>1842.4</ele>
        <time>2010-12-04T12:30:14Z</time>
      </trkpt>
      <trkpt lat="45.33807" lon="5.70638">
        <ele>1843</ele>
        <time>2010-12-04T12:30:18Z</time>
      </trkpt>
      <trkpt lat="45.33807" lon="5.70635">
        <ele>1843.4</ele>
        <time>2010-12-04T12:30:21Z</time>
      </trkpt>
      <trkpt lat="45.33805" lon="5.70633">
        <ele>1844.2</ele>
        <time>2010-12-04T12:30:27Z</time>
      </trkpt>
      <trkpt lat="45.33803" lon="5.70638">
        <ele>1845</ele>
        <time>2010-12-04T12:30:33Z</time>
      </trkpt>
      <trkpt lat="45.33799" lon="5.70641">
        <ele>1845.8</ele>
        <time>2010-12-04T12:30:40Z</time>
      </trkpt>
      <trkpt lat="45.33798" lon="5.7064">
        <ele>1846.2</ele>
        <time>2010-12-04T12:30:43Z</time>
      </trkpt>
      <trkpt lat="45.33796" lon="5.70637">
        <ele>1846.8</ele>
        <time>2010-12-04T12:30:47Z</time>
      </trkpt>
      <trkpt lat="45.33796" lon="5.70636">
        <ele>1846.8</ele>
        <time>2010-12-04T12:30:48Z</time>
      </trkpt>
      <trkpt lat="45.33796" lon="5.70634">
        <ele>1847.4</ele>
        <time>2010-12-04T12:30:52Z</time>
      </trkpt>
      <trkpt lat="45.33796" lon="5.70631">
        <ele>1848.2</ele>
        <time>2010-12-04T12:30:57Z</time>
      </trkpt>
      <trkpt lat="45.33796" lon="5.70629">
        <ele>1848.8</ele>
        <time>2010-12-04T12:31:01Z</time>
      </trkpt>
      <trkpt lat="45.33796" lon="5.70625">
        <ele>1849.6</ele>
        <time>2010-12-04T12:31:07Z</time>
      </trkpt>
      <trkpt lat="45.33795" lon="5.70622">
        <ele>1850.4</ele>
        <time>2010-12-04T12:31:12Z</time>
      </trkpt>
      <trkpt lat="45.33795" lon="5.7062">
        <ele>1851.2</ele>
        <time>2010-12-04T12:31:16Z</time>
      </trkpt>
      <trkpt lat="45.33794" lon="5.70616">
        <ele>1852</ele>
        <time>2010-12-04T12:31:21Z</time>
      </trkpt>
      <trkpt lat="45.33794" lon="5.70613">
        <ele>1852.6</ele>
        <time>2010-12-04T12:31:25Z</time>
      </trkpt>
      <trkpt lat="45.33794" lon="5.70611">
        <ele>1853.2</ele>
        <time>2010-12-04T12:31:28Z</time>
      </trkpt>
      <trkpt lat="45.33794" lon="5.70609">
        <ele>1853.4</ele>
        <time>2010-12-04T12:31:30Z</time>
      </trkpt>
      <trkpt lat="45.33793" lon="5.70606">
        <ele>1854.4</ele>
        <time>2010-12-04T12:31:36Z</time>
      </trkpt>
      <trkpt lat="45.33793" lon="5.70607">
        <ele>1855</ele>
        <time>2010-12-04T12:31:41Z</time>
      </trkpt>
      <trkpt lat="45.33791" lon="5.70609">
        <ele>1855.8</ele>
        <time>2010-12-04T12:31:47Z</time>
      </trkpt>
      <trkpt lat="45.33784" lon="5.70613">
        <ele>1856.2</ele>
        <time>2010-12-04T12:31:53Z</time>
      </trkpt>
      <trkpt lat="45.33781" lon="5.70614">
        <ele>1856.4</ele>
        <time>2010-12-04T12:31:56Z</time>
      </trkpt>
      <trkpt lat="45.33777" lon="5.70612">
        <ele>1856.6</ele>
        <time>2010-12-04T12:32:00Z</time>
      </trkpt>
      <trkpt lat="45.33773" lon="5.70607">
        <ele>1857</ele>
        <time>2010-12-04T12:32:06Z</time>
      </trkpt>
      <trkpt lat="45.33771" lon="5.70603">
        <ele>1857.4</ele>
        <time>2010-12-04T12:32:11Z</time>
      </trkpt>
      <trkpt lat="45.33771" lon="5.70603">
        <ele>1857.6</ele>
        <time>2010-12-04T12:32:12Z</time>
      </trkpt>
      <trkpt lat="45.33769" lon="5.706">
        <ele>1858</ele>
        <time>2010-12-04T12:32:17Z</time>
      </trkpt>
      <trkpt lat="45.33768" lon="5.70597">
        <ele>1858.6</ele>
        <time>2010-12-04T12:32:22Z</time>
      </trkpt>
      <trkpt lat="45.33768" lon="5.70596">
        <ele>1858.8</ele>
        <time>2010-12-04T12:32:23Z</time>
      </trkpt>
      <trkpt lat="45.33768" lon="5.70594">
        <ele>1859.4</ele>
        <time>2010-12-04T12:32:27Z</time>
      </trkpt>
      <trkpt lat="45.33767" lon="5.70592">
        <ele>1860</ele>
        <time>2010-12-04T12:32:32Z</time>
      </trkpt>
      <trkpt lat="45.33767" lon="5.70589">
        <ele>1860.6</ele>
        <time>2010-12-04T12:32:36Z</time>
      </trkpt>
      <trkpt lat="45.33767" lon="5.70586">
        <ele>1861.2</ele>
        <time>2010-12-04T12:32:40Z</time>
      </trkpt>
      <trkpt lat="45.33766" lon="5.70583">
        <ele>1861.8</ele>
        <time>2010-12-04T12:32:45Z</time>
      </trkpt>
      <trkpt lat="45.33765" lon="5.70581">
        <ele>1862.6</ele>
        <time>2010-12-04T12:32:50Z</time>
      </trkpt>
      <trkpt lat="45.33763" lon="5.70579">
        <ele>1863.4</ele>
        <time>2010-12-04T12:32:56Z</time>
      </trkpt>
      <trkpt lat="45.33762" lon="5.70576">
        <ele>1864</ele>
        <time>2010-12-04T12:33:00Z</time>
      </trkpt>
      <trkpt lat="45.33761" lon="5.70574">
        <ele>1864.6</ele>
        <time>2010-12-04T12:33:03Z</time>
      </trkpt>
      <trkpt lat="45.3376" lon="5.70574">
        <ele>1864.8</ele>
        <time>2010-12-04T12:33:04Z</time>
      </trkpt>
      <trkpt lat="45.33758" lon="5.70571">
        <ele>1865.6</ele>
        <time>2010-12-04T12:33:10Z</time>
      </trkpt>
      <trkpt lat="45.33757" lon="5.70568">
        <ele>1866.4</ele>
        <time>2010-12-04T12:33:14Z</time>
      </trkpt>
      <trkpt lat="45.33756" lon="5.70566">
        <ele>1866.8</ele>
        <time>2010-12-04T12:33:18Z</time>
      </trkpt>
      <trkpt lat="45.33755" lon="5.70564">
        <ele>1867.4</ele>
        <time>2010-12-04T12:33:22Z</time>
      </trkpt>
      <trkpt lat="45.33754" lon="5.70561">
        <ele>1868</ele>
        <time>2010-12-04T12:33:26Z</time>
      </trkpt>
      <trkpt lat="45.33757" lon="5.70561">
        <ele>1869</ele>
        <time>2010-12-04T12:33:33Z</time>
      </trkpt>
      <trkpt lat="45.33759" lon="5.7056">
        <ele>1869.4</ele>
        <time>2010-12-04T12:33:37Z</time>
      </trkpt>
      <trkpt lat="45.33761" lon="5.70559">
        <ele>1870</ele>
        <time>2010-12-04T12:33:40Z</time>
      </trkpt>
      <trkpt lat="45.33761" lon="5.70559">
        <ele>1870</ele>
        <time>2010-12-04T12:33:41Z</time>
      </trkpt>
      <trkpt lat="45.33763" lon="5.70557">
        <ele>1870.6</ele>
        <time>2010-12-04T12:33:45Z</time>
      </trkpt>
      <trkpt lat="45.33764" lon="5.70555">
        <ele>1871.2</ele>
        <time>2010-12-04T12:33:49Z</time>
      </trkpt>
      <trkpt lat="45.33766" lon="5.70552">
        <ele>1871.8</ele>
        <time>2010-12-04T12:33:53Z</time>
      </trkpt>
      <trkpt lat="45.33768" lon="5.70549">
        <ele>1872.6</ele>
        <time>2010-12-04T12:33:58Z</time>
      </trkpt>
      <trkpt lat="45.3377" lon="5.70546">
        <ele>1873.4</ele>
        <time>2010-12-04T12:34:03Z</time>
      </trkpt>
      <trkpt lat="45.33771" lon="5.70543">
        <ele>1874</ele>
        <time>2010-12-04T12:34:07Z</time>
      </trkpt>
      <trkpt lat="45.33772" lon="5.70539">
        <ele>1874.8</ele>
        <time>2010-12-04T12:34:12Z</time>
      </trkpt>
      <trkpt lat="45.33773" lon="5.70536">
        <ele>1875.4</ele>
        <time>2010-12-04T12:34:17Z</time>
      </trkpt>
      <trkpt lat="45.33773" lon="5.70534">
        <ele>1876</ele>
        <time>2010-12-04T12:34:21Z</time>
      </trkpt>
      <trkpt lat="45.33773" lon="5.70529">
        <ele>1877.2</ele>
        <time>2010-12-04T12:34:28Z</time>
      </trkpt>
      <trkpt lat="45.33772" lon="5.70524">
        <ele>1878.2</ele>
        <time>2010-12-04T12:34:35Z</time>
      </trkpt>
      <trkpt lat="45.3377" lon="5.70524">
        <ele>1879</ele>
        <time>2010-12-04T12:34:41Z</time>
      </trkpt>
      <trkpt lat="45.33767" lon="5.70525">
        <ele>1880</ele>
        <time>2010-12-04T12:34:47Z</time>
      </trkpt>
      <trkpt lat="45.33765" lon="5.70524">
        <ele>1880.8</ele>
        <time>2010-12-04T12:34:52Z</time>
      </trkpt>
      <trkpt lat="45.33764" lon="5.70524">
        <ele>1881</ele>
        <time>2010-12-04T12:34:53Z</time>
      </trkpt>
      <trkpt lat="45.3376" lon="5.70522">
        <ele>1882</ele>
        <time>2010-12-04T12:35:00Z</time>
      </trkpt>
      <trkpt lat="45.33756" lon="5.70518">
        <ele>1883.2</ele>
        <time>2010-12-04T12:35:07Z</time>
      </trkpt>
      <trkpt lat="45.33753" lon="5.70514">
        <ele>1884.4</ele>
        <time>2010-12-04T12:35:13Z</time>
      </trkpt>
      <trkpt lat="45.33753" lon="5.70511">
        <ele>1885.2</ele>
        <time>2010-12-04T12:35:17Z</time>
      </trkpt>
      <trkpt lat="45.33752" lon="5.70508">
        <ele>1885.8</ele>
        <time>2010-12-04T12:35:21Z</time>
      </trkpt>
      <trkpt lat="45.3375" lon="5.70505">
        <ele>1886.4</ele>
        <time>2010-12-04T12:35:25Z</time>
      </trkpt>
      <trkpt lat="45.33745" lon="5.705">
        <ele>1887.8</ele>
        <time>2010-12-04T12:35:33Z</time>
      </trkpt>
      <trkpt lat="45.3374" lon="5.70495">
        <ele>1888.8</ele>
        <time>2010-12-04T12:35:40Z</time>
      </trkpt>
      <trkpt lat="45.33739" lon="5.70493">
        <ele>1889.2</ele>
        <time>2010-12-04T12:35:42Z</time>
      </trkpt>
      <trkpt lat="45.33737" lon="5.70492">
        <ele>1889.4</ele>
        <time>2010-12-04T12:35:44Z</time>
      </trkpt>
      <trkpt lat="45.33734" lon="5.70487">
        <ele>1890.2</ele>
        <time>2010-12-04T12:35:49Z</time>
      </trkpt>
      <trkpt lat="45.33731" lon="5.7048">
        <ele>1891.2</ele>
        <time>2010-12-04T12:35:55Z</time>
      </trkpt>
      <trkpt lat="45.33727" lon="5.70473">
        <ele>1892.2</ele>
        <time>2010-12-04T12:36:02Z</time>
      </trkpt>
      <trkpt lat="45.33726" lon="5.70471">
        <ele>1892.4</ele>
        <time>2010-12-04T12:36:04Z</time>
      </trkpt>
      <trkpt lat="45.33726" lon="5.70469">
        <ele>1892.6</ele>
        <time>2010-12-04T12:36:06Z</time>
      </trkpt>
      <trkpt lat="45.33725" lon="5.70469">
        <ele>1893.2</ele>
        <time>2010-12-04T12:36:12Z</time>
      </trkpt>
      <trkpt lat="45.33724" lon="5.70464">
        <ele>1894</ele>
        <time>2010-12-04T12:36:23Z</time>
      </trkpt>
      <trkpt lat="45.33725" lon="5.70459">
        <ele>1894.2</ele>
        <time>2010-12-04T12:36:28Z</time>
      </trkpt>
      <trkpt lat="45.33721" lon="5.7045">
        <ele>1894</ele>
        <time>2010-12-04T12:36:32Z</time>
      </trkpt>
      <trkpt lat="45.33715" lon="5.70447">
        <ele>1894</ele>
        <time>2010-12-04T12:36:34Z</time>
      </trkpt>
      <trkpt lat="45.33706" lon="5.70443">
        <ele>1893.6</ele>
        <time>2010-12-04T12:36:37Z</time>
      </trkpt>
      <trkpt lat="45.33702" lon="5.70441">
        <ele>1893.4</ele>
        <time>2010-12-04T12:36:39Z</time>
      </trkpt>
      <trkpt lat="45.33698" lon="5.70439">
        <ele>1893.2</ele>
        <time>2010-12-04T12:36:41Z</time>
      </trkpt>
      <trkpt lat="45.33685" lon="5.70439">
        <ele>1892.4</ele>
        <time>2010-12-04T12:36:46Z</time>
      </trkpt>
      <trkpt lat="45.33682" lon="5.7044">
        <ele>1892.2</ele>
        <time>2010-12-04T12:36:47Z</time>
      </trkpt>
      <trkpt lat="45.33669" lon="5.70444">
        <ele>1891.6</ele>
        <time>2010-12-04T12:36:50Z</time>
      </trkpt>
      <trkpt lat="45.33662" lon="5.70444">
        <ele>1891.2</ele>
        <time>2010-12-04T12:36:52Z</time>
      </trkpt>
      <trkpt lat="45.3366" lon="5.70445">
        <ele>1891</ele>
        <time>2010-12-04T12:36:53Z</time>
      </trkpt>
      <trkpt lat="45.33657" lon="5.70447">
        <ele>1890</ele>
        <time>2010-12-04T12:36:58Z</time>
      </trkpt>
      <trkpt lat="45.33655" lon="5.70448">
        <ele>1889.4</ele>
        <time>2010-12-04T12:37:01Z</time>
      </trkpt>
      <trkpt lat="45.33655" lon="5.70448">
        <ele>1888.8</ele>
        <time>2010-12-04T12:37:04Z</time>
      </trkpt>
      <trkpt lat="45.33655" lon="5.70445">
        <ele>1887</ele>
        <time>2010-12-04T12:37:15Z</time>
      </trkpt>
      <trkpt lat="45.33654" lon="5.70444">
        <ele>1886.4</ele>
        <time>2010-12-04T12:37:19Z</time>
      </trkpt>
      <trkpt lat="45.3365" lon="5.70443">
        <ele>1884.6</ele>
        <time>2010-12-04T12:37:31Z</time>
      </trkpt>
      <trkpt lat="45.33647" lon="5.70439">
        <ele>1884</ele>
        <time>2010-12-04T12:37:37Z</time>
      </trkpt>
      <trkpt lat="45.33646" lon="5.70437">
        <ele>1883.8</ele>
        <time>2010-12-04T12:37:39Z</time>
      </trkpt>
      <trkpt lat="45.33646" lon="5.70437">
        <ele>1883.8</ele>
        <time>2010-12-04T12:37:39Z</time>
      </trkpt>
      <trkpt lat="45.33644" lon="5.70434">
        <ele>1883.4</ele>
        <time>2010-12-04T12:37:43Z</time>
      </trkpt>
      <trkpt lat="45.33642" lon="5.70433">
        <ele>1883</ele>
        <time>2010-12-04T12:37:47Z</time>
      </trkpt>
      <trkpt lat="45.33639" lon="5.70433">
        <ele>1882.6</ele>
        <time>2010-12-04T12:37:53Z</time>
      </trkpt>
      <trkpt lat="45.33637" lon="5.70427">
        <ele>1882.2</ele>
        <time>2010-12-04T12:38:00Z</time>
      </trkpt>
      <trkpt lat="45.33638" lon="5.70425">
        <ele>1882</ele>
        <time>2010-12-04T12:38:04Z</time>
      </trkpt>
      <trkpt lat="45.33638" lon="5.70422">
        <ele>1882</ele>
        <time>2010-12-04T12:38:08Z</time>
      </trkpt>
      <trkpt lat="45.33638" lon="5.70421">
        <ele>1882</ele>
        <time>2010-12-04T12:38:09Z</time>
      </trkpt>
      <trkpt lat="45.33637" lon="5.70418">
        <ele>1881.8</ele>
        <time>2010-12-04T12:38:13Z</time>
      </trkpt>
      <trkpt lat="45.33635" lon="5.70413">
        <ele>1881.8</ele>
        <time>2010-12-04T12:38:20Z</time>
      </trkpt>
      <trkpt lat="45.33632" lon="5.7041">
        <ele>1881.8</ele>
        <time>2010-12-04T12:38:25Z</time>
      </trkpt>
      <trkpt lat="45.33628" lon="5.70408">
        <ele>1881.8</ele>
        <time>2010-12-04T12:38:31Z</time>
      </trkpt>
      <trkpt lat="45.33625" lon="5.70406">
        <ele>1882</ele>
        <time>2010-12-04T12:38:35Z</time>
      </trkpt>
      <trkpt lat="45.33624" lon="5.70405">
        <ele>1882</ele>
        <time>2010-12-04T12:38:38Z</time>
      </trkpt>
      <trkpt lat="45.33622" lon="5.70403">
        <ele>1882.2</ele>
        <time>2010-12-04T12:38:42Z</time>
      </trkpt>
      <trkpt lat="45.33624" lon="5.704">
        <ele>1882.6</ele>
        <time>2010-12-04T12:38:48Z</time>
      </trkpt>
      <trkpt lat="45.33627" lon="5.70398">
        <ele>1883</ele>
        <time>2010-12-04T12:38:54Z</time>
      </trkpt>
      <trkpt lat="45.33629" lon="5.70394">
        <ele>1883.4</ele>
        <time>2010-12-04T12:39:00Z</time>
      </trkpt>
      <trkpt lat="45.33628" lon="5.70391">
        <ele>1883.8</ele>
        <time>2010-12-04T12:39:04Z</time>
      </trkpt>
      <trkpt lat="45.33627" lon="5.70387">
        <ele>1884</ele>
        <time>2010-12-04T12:39:09Z</time>
      </trkpt>
      <trkpt lat="45.33626" lon="5.70386">
        <ele>1884.2</ele>
        <time>2010-12-04T12:39:11Z</time>
      </trkpt>
      <trkpt lat="45.33623" lon="5.70383">
        <ele>1884.6</ele>
        <time>2010-12-04T12:39:16Z</time>
      </trkpt>
      <trkpt lat="45.33623" lon="5.70381">
        <ele>1885</ele>
        <time>2010-12-04T12:39:21Z</time>
      </trkpt>
      <trkpt lat="45.33625" lon="5.70378">
        <ele>1885.6</ele>
        <time>2010-12-04T12:39:26Z</time>
      </trkpt>
      <trkpt lat="45.33625" lon="5.70375">
        <ele>1886.2</ele>
        <time>2010-12-04T12:39:30Z</time>
      </trkpt>
      <trkpt lat="45.33626" lon="5.70367">
        <ele>1886.8</ele>
        <time>2010-12-04T12:39:36Z</time>
      </trkpt>
      <trkpt lat="45.33626" lon="5.70365">
        <ele>1886.8</ele>
        <time>2010-12-04T12:39:37Z</time>
      </trkpt>
      <trkpt lat="45.3363" lon="5.70353">
        <ele>1887.2</ele>
        <time>2010-12-04T12:39:44Z</time>
      </trkpt>
      <trkpt lat="45.33632" lon="5.70349">
        <ele>1887.4</ele>
        <time>2010-12-04T12:39:48Z</time>
      </trkpt>
      <trkpt lat="45.33633" lon="5.70347">
        <ele>1887.4</ele>
        <time>2010-12-04T12:39:50Z</time>
      </trkpt>
      <trkpt lat="45.33635" lon="5.70343">
        <ele>1887.8</ele>
        <time>2010-12-04T12:39:55Z</time>
      </trkpt>
      <trkpt lat="45.33635" lon="5.70343">
        <ele>1888</ele>
        <time>2010-12-04T12:39:56Z</time>
      </trkpt>
      <trkpt lat="45.33636" lon="5.70339">
        <ele>1888.4</ele>
        <time>2010-12-04T12:40:02Z</time>
      </trkpt>
      <trkpt lat="45.33636" lon="5.70335">
        <ele>1889</ele>
        <time>2010-12-04T12:40:07Z</time>
      </trkpt>
      <trkpt lat="45.33634" lon="5.70333">
        <ele>1889.6</ele>
        <time>2010-12-04T12:40:13Z</time>
      </trkpt>
      <trkpt lat="45.33627" lon="5.70332">
        <ele>1890.8</ele>
        <time>2010-12-04T12:40:22Z</time>
      </trkpt>
      <trkpt lat="45.33625" lon="5.70332">
        <ele>1891.2</ele>
        <time>2010-12-04T12:40:25Z</time>
      </trkpt>
      <trkpt lat="45.33624" lon="5.70331">
        <ele>1891.4</ele>
        <time>2010-12-04T12:40:27Z</time>
      </trkpt>
      <trkpt lat="45.33622" lon="5.7033">
        <ele>1892</ele>
        <time>2010-12-04T12:40:31Z</time>
      </trkpt>
      <trkpt lat="45.33619" lon="5.7033">
        <ele>1892.8</ele>
        <time>2010-12-04T12:40:36Z</time>
      </trkpt>
      <trkpt lat="45.33615" lon="5.70329">
        <ele>1893.6</ele>
        <time>2010-12-04T12:40:42Z</time>
      </trkpt>
      <trkpt lat="45.33612" lon="5.7033">
        <ele>1894.6</ele>
        <time>2010-12-04T12:40:48Z</time>
      </trkpt>
      <trkpt lat="45.33609" lon="5.7033">
        <ele>1895.2</ele>
        <time>2010-12-04T12:40:52Z</time>
      </trkpt>
      <trkpt lat="45.33607" lon="5.7033">
        <ele>1895.6</ele>
        <time>2010-12-04T12:40:55Z</time>
      </trkpt>
      <trkpt lat="45.33606" lon="5.7033">
        <ele>1896.2</ele>
        <time>2010-12-04T12:40:58Z</time>
      </trkpt>
      <trkpt lat="45.33606" lon="5.70329">
        <ele>1896.8</ele>
        <time>2010-12-04T12:41:02Z</time>
      </trkpt>
      <trkpt lat="45.33609" lon="5.70326">
        <ele>1897.6</ele>
        <time>2010-12-04T12:41:07Z</time>
      </trkpt>
      <trkpt lat="45.3361" lon="5.70323">
        <ele>1898.2</ele>
        <time>2010-12-04T12:41:11Z</time>
      </trkpt>
      <trkpt lat="45.33612" lon="5.70317">
        <ele>1899.2</ele>
        <time>2010-12-04T12:41:18Z</time>
      </trkpt>
      <trkpt lat="45.33611" lon="5.70316">
        <ele>1899.8</ele>
        <time>2010-12-04T12:41:23Z</time>
      </trkpt>
      <trkpt lat="45.33608" lon="5.70317">
        <ele>1900.4</ele>
        <time>2010-12-04T12:41:30Z</time>
      </trkpt>
      <trkpt lat="45.33607" lon="5.70318">
        <ele>1900.4</ele>
        <time>2010-12-04T12:41:31Z</time>
      </trkpt>
      <trkpt lat="45.33603" lon="5.70319">
        <ele>1901.2</ele>
        <time>2010-12-04T12:41:37Z</time>
      </trkpt>
      <trkpt lat="45.33599" lon="5.7032">
        <ele>1901.6</ele>
        <time>2010-12-04T12:41:42Z</time>
      </trkpt>
      <trkpt lat="45.33594" lon="5.70321">
        <ele>1902.6</ele>
        <time>2010-12-04T12:41:50Z</time>
      </trkpt>
      <trkpt lat="45.3359" lon="5.7032">
        <ele>1903.4</ele>
        <time>2010-12-04T12:41:56Z</time>
      </trkpt>
      <trkpt lat="45.33586" lon="5.7032">
        <ele>1904.4</ele>
        <time>2010-12-04T12:42:02Z</time>
      </trkpt>
      <trkpt lat="45.33583" lon="5.7032">
        <ele>1905</ele>
        <time>2010-12-04T12:42:06Z</time>
      </trkpt>
      <trkpt lat="45.33578" lon="5.70323">
        <ele>1905.8</ele>
        <time>2010-12-04T12:42:13Z</time>
      </trkpt>
      <trkpt lat="45.33576" lon="5.70328">
        <ele>1906.2</ele>
        <time>2010-12-04T12:42:18Z</time>
      </trkpt>
      <trkpt lat="45.33576" lon="5.70331">
        <ele>1906.4</ele>
        <time>2010-12-04T12:42:20Z</time>
      </trkpt>
      <trkpt lat="45.33575" lon="5.70333">
        <ele>1906.6</ele>
        <time>2010-12-04T12:42:22Z</time>
      </trkpt>
      <trkpt lat="45.33575" lon="5.70334">
        <ele>1906.6</ele>
        <time>2010-12-04T12:42:23Z</time>
      </trkpt>
      <trkpt lat="45.33575" lon="5.70339">
        <ele>1906.8</ele>
        <time>2010-12-04T12:42:27Z</time>
      </trkpt>
      <trkpt lat="45.33575" lon="5.70344">
        <ele>1907.2</ele>
        <time>2010-12-04T12:42:32Z</time>
      </trkpt>
      <trkpt lat="45.33575" lon="5.70347">
        <ele>1907.4</ele>
        <time>2010-12-04T12:42:36Z</time>
      </trkpt>
      <trkpt lat="45.33574" lon="5.70351">
        <ele>1907.6</ele>
        <time>2010-12-04T12:42:40Z</time>
      </trkpt>
      <trkpt lat="45.33575" lon="5.70357">
        <ele>1908.2</ele>
        <time>2010-12-04T12:42:46Z</time>
      </trkpt>
      <trkpt lat="45.33574" lon="5.70359">
        <ele>1908.8</ele>
        <time>2010-12-04T12:42:50Z</time>
      </trkpt>
      <trkpt lat="45.33571" lon="5.70359">
        <ele>1909</ele>
        <time>2010-12-04T12:42:54Z</time>
      </trkpt>
      <trkpt lat="45.33568" lon="5.70356">
        <ele>1909.4</ele>
        <time>2010-12-04T12:42:59Z</time>
      </trkpt>
      <trkpt lat="45.33566" lon="5.70355">
        <ele>1910</ele>
        <time>2010-12-04T12:43:03Z</time>
      </trkpt>
      <trkpt lat="45.33564" lon="5.70353">
        <ele>1910.4</ele>
        <time>2010-12-04T12:43:07Z</time>
      </trkpt>
      <trkpt lat="45.33562" lon="5.70351">
        <ele>1911.4</ele>
        <time>2010-12-04T12:43:12Z</time>
      </trkpt>
      <trkpt lat="45.33561" lon="5.70348">
        <ele>1912.2</ele>
        <time>2010-12-04T12:43:17Z</time>
      </trkpt>
      <trkpt lat="45.3356" lon="5.70347">
        <ele>1912.8</ele>
        <time>2010-12-04T12:43:19Z</time>
      </trkpt>
      <trkpt lat="45.33559" lon="5.70346">
        <ele>1913.2</ele>
        <time>2010-12-04T12:43:21Z</time>
      </trkpt>
      <trkpt lat="45.33558" lon="5.70341">
        <ele>1914.4</ele>
        <time>2010-12-04T12:43:27Z</time>
      </trkpt>
      <trkpt lat="45.33555" lon="5.70336">
        <ele>1916</ele>
        <time>2010-12-04T12:43:34Z</time>
      </trkpt>
      <trkpt lat="45.33552" lon="5.70331">
        <ele>1917.2</ele>
        <time>2010-12-04T12:43:41Z</time>
      </trkpt>
      <trkpt lat="45.33548" lon="5.70328">
        <ele>1918</ele>
        <time>2010-12-04T12:43:46Z</time>
      </trkpt>
      <trkpt lat="45.33548" lon="5.70327">
        <ele>1918.2</ele>
        <time>2010-12-04T12:43:47Z</time>
      </trkpt>
      <trkpt lat="45.33544" lon="5.70321">
        <ele>1919.2</ele>
        <time>2010-12-04T12:43:54Z</time>
      </trkpt>
      <trkpt lat="45.33539" lon="5.70314">
        <ele>1920.2</ele>
        <time>2010-12-04T12:44:02Z</time>
      </trkpt>
      <trkpt lat="45.33538" lon="5.70313">
        <ele>1920.4</ele>
        <time>2010-12-04T12:44:04Z</time>
      </trkpt>
      <trkpt lat="45.33536" lon="5.7031">
        <ele>1920.8</ele>
        <time>2010-12-04T12:44:08Z</time>
      </trkpt>
      <trkpt lat="45.33535" lon="5.70309">
        <ele>1921</ele>
        <time>2010-12-04T12:44:09Z</time>
      </trkpt>
      <trkpt lat="45.33532" lon="5.70305">
        <ele>1921.6</ele>
        <time>2010-12-04T12:44:15Z</time>
      </trkpt>
      <trkpt lat="45.33528" lon="5.70299">
        <ele>1922.2</ele>
        <time>2010-12-04T12:44:22Z</time>
      </trkpt>
      <trkpt lat="45.33526" lon="5.70293">
        <ele>1922.4</ele>
        <time>2010-12-04T12:44:28Z</time>
      </trkpt>
      <trkpt lat="45.33523" lon="5.70291">
        <ele>1922.6</ele>
        <time>2010-12-04T12:44:32Z</time>
      </trkpt>
      <trkpt lat="45.33522" lon="5.70291">
        <ele>1922.8</ele>
        <time>2010-12-04T12:44:33Z</time>
      </trkpt>
      <trkpt lat="45.33516" lon="5.70286">
        <ele>1923</ele>
        <time>2010-12-04T12:44:40Z</time>
      </trkpt>
      <trkpt lat="45.33508" lon="5.70281">
        <ele>1923.2</ele>
        <time>2010-12-04T12:44:48Z</time>
      </trkpt>
      <trkpt lat="45.33506" lon="5.7028">
        <ele>1923.2</ele>
        <time>2010-12-04T12:44:49Z</time>
      </trkpt>
      <trkpt lat="45.33501" lon="5.70276">
        <ele>1923.2</ele>
        <time>2010-12-04T12:44:53Z</time>
      </trkpt>
      <trkpt lat="45.33496" lon="5.70273">
        <ele>1923</ele>
        <time>2010-12-04T12:44:57Z</time>
      </trkpt>
      <trkpt lat="45.33495" lon="5.70273">
        <ele>1923</ele>
        <time>2010-12-04T12:44:58Z</time>
      </trkpt>
      <trkpt lat="45.33493" lon="5.70269">
        <ele>1922.8</ele>
        <time>2010-12-04T12:45:04Z</time>
      </trkpt>
      <trkpt lat="45.33491" lon="5.70266">
        <ele>1922.8</ele>
        <time>2010-12-04T12:45:09Z</time>
      </trkpt>
      <trkpt lat="45.33491" lon="5.70265">
        <ele>1922.8</ele>
        <time>2010-12-04T12:45:11Z</time>
      </trkpt>
      <trkpt lat="45.33492" lon="5.70263">
        <ele>1922.4</ele>
        <time>2010-12-04T12:45:20Z</time>
      </trkpt>
      <trkpt lat="45.33495" lon="5.70265">
        <ele>1922.4</ele>
        <time>2010-12-04T12:45:23Z</time>
      </trkpt>
      <trkpt lat="45.33495" lon="5.70266">
        <ele>1922.2</ele>
        <time>2010-12-04T12:45:24Z</time>
      </trkpt>
      <trkpt lat="45.33496" lon="5.70268">
        <ele>1922</ele>
        <time>2010-12-04T12:45:31Z</time>
      </trkpt>
      <trkpt lat="45.33498" lon="5.70269">
        <ele>1921.6</ele>
        <time>2010-12-04T12:45:36Z</time>
      </trkpt>
      <trkpt lat="45.335" lon="5.70269">
        <ele>1921.2</ele>
        <time>2010-12-04T12:45:43Z</time>
      </trkpt>
      <trkpt lat="45.33503" lon="5.70272">
        <ele>1917.8</ele>
        <time>2010-12-04T12:47:00Z</time>
      </trkpt>
      <trkpt lat="45.33502" lon="5.70271">
        <ele>1917.6</ele>
        <time>2010-12-04T12:47:01Z</time>
      </trkpt>
      <trkpt lat="45.33503" lon="5.70272">
        <ele>1917.2</ele>
        <time>2010-12-04T12:47:09Z</time>
      </trkpt>
      <trkpt lat="45.33503" lon="5.70271">
        <ele>1916.4</ele>
        <time>2010-12-04T12:47:28Z</time>
      </trkpt>
      <trkpt lat="45.33504" lon="5.7027">
        <ele>1916.2</ele>
        <time>2010-12-04T12:47:35Z</time>
      </trkpt>
      <trkpt lat="45.33505" lon="5.7027">
        <ele>1916</ele>
        <time>2010-12-04T12:47:42Z</time>
      </trkpt>
      <trkpt lat="45.33504" lon="5.70269">
        <ele>1915.6</ele>
        <time>2010-12-04T12:47:52Z</time>
      </trkpt>
      <trkpt lat="45.33507" lon="5.70268">
        <ele>1914.8</ele>
        <time>2010-12-04T12:48:12Z</time>
      </trkpt>
      <trkpt lat="45.33506" lon="5.70268">
        <ele>1914.6</ele>
        <time>2010-12-04T12:48:18Z</time>
      </trkpt>
      <trkpt lat="45.33506" lon="5.7027">
        <ele>1914.4</ele>
        <time>2010-12-04T12:48:25Z</time>
      </trkpt>
      <trkpt lat="45.33505" lon="5.70271">
        <ele>1914.2</ele>
        <time>2010-12-04T12:48:32Z</time>
      </trkpt>
      <trkpt lat="45.33506" lon="5.70272">
        <ele>1913.8</ele>
        <time>2010-12-04T12:48:45Z</time>
      </trkpt>
      <trkpt lat="45.33505" lon="5.7027">
        <ele>1913.6</ele>
        <time>2010-12-04T12:49:44Z</time>
      </trkpt>
      <trkpt lat="45.33503" lon="5.70269">
        <ele>1913.8</ele>
        <time>2010-12-04T12:50:46Z</time>
      </trkpt>
      <trkpt lat="45.33504" lon="5.70268">
        <ele>1914.8</ele>
        <time>2010-12-04T12:54:09Z</time>
      </trkpt>
      <trkpt lat="45.33504" lon="5.70271">
        <ele>1915.8</ele>
        <time>2010-12-04T12:57:28Z</time>
      </trkpt>
      <trkpt lat="45.33502" lon="5.7027">
        <ele>1913.6</ele>
        <time>2010-12-04T12:58:53Z</time>
      </trkpt>
      <trkpt lat="45.33501" lon="5.70266">
        <ele>1913.2</ele>
        <time>2010-12-04T12:59:42Z</time>
      </trkpt>
      <trkpt lat="45.33504" lon="5.70272">
        <ele>1911.8</ele>
        <time>2010-12-04T13:03:02Z</time>
      </trkpt>
      <trkpt lat="45.33507" lon="5.70275">
        <ele>1911.2</ele>
        <time>2010-12-04T13:03:24Z</time>
      </trkpt>
      <trkpt lat="45.33502" lon="5.70269">
        <ele>1911.4</ele>
        <time>2010-12-04T13:05:38Z</time>
      </trkpt>
      <trkpt lat="45.33503" lon="5.7027">
        <ele>1911.4</ele>
        <time>2010-12-04T13:05:44Z</time>
      </trkpt>
      <trkpt lat="45.33506" lon="5.70273">
        <ele>1910.2</ele>
        <time>2010-12-04T13:06:16Z</time>
      </trkpt>
      <trkpt lat="45.33504" lon="5.7027">
        <ele>1909</ele>
        <time>2010-12-04T13:07:10Z</time>
      </trkpt>
      <trkpt lat="45.33502" lon="5.7027">
        <ele>1909.4</ele>
        <time>2010-12-04T13:07:53Z</time>
      </trkpt>
      <trkpt lat="45.33502" lon="5.70269">
        <ele>1911.8</ele>
        <time>2010-12-04T13:11:33Z</time>
      </trkpt>
      <trkpt lat="45.33502" lon="5.7027">
        <ele>1912.2</ele>
        <time>2010-12-04T13:11:38Z</time>
      </trkpt>
      <trkpt lat="45.33503" lon="5.7027">
        <ele>1912.6</ele>
        <time>2010-12-04T13:11:44Z</time>
      </trkpt>
      <trkpt lat="45.33502" lon="5.70269">
        <ele>1913</ele>
        <time>2010-12-04T13:12:01Z</time>
      </trkpt>
      <trkpt lat="45.33502" lon="5.70269">
        <ele>1913.2</ele>
        <time>2010-12-04T13:12:10Z</time>
      </trkpt>
      <trkpt lat="45.33503" lon="5.70268">
        <ele>1913.6</ele>
        <time>2010-12-04T13:12:19Z</time>
      </trkpt>
      <trkpt lat="45.33502" lon="5.70268">
        <ele>1914</ele>
        <time>2010-12-04T13:12:38Z</time>
      </trkpt>
      <trkpt lat="45.33501" lon="5.70268">
        <ele>1914.2</ele>
        <time>2010-12-04T13:12:59Z</time>
      </trkpt>
      <trkpt lat="45.33501" lon="5.70269">
        <ele>1915.8</ele>
        <time>2010-12-04T13:13:58Z</time>
      </trkpt>
      <trkpt lat="45.33502" lon="5.70271">
        <ele>1915.8</ele>
        <time>2010-12-04T13:14:20Z</time>
      </trkpt>
      <trkpt lat="45.33502" lon="5.70271">
        <ele>1914.8</ele>
        <time>2010-12-04T13:14:44Z</time>
      </trkpt>
      <trkpt lat="45.33502" lon="5.70271">
        <ele>1913.8</ele>
        <time>2010-12-04T13:15:00Z</time>
      </trkpt>
      <trkpt lat="45.33502" lon="5.70271">
        <ele>1913.6</ele>
        <time>2010-12-04T13:15:01Z</time>
      </trkpt>
      <trkpt lat="45.33501" lon="5.70271">
        <ele>1913.6</ele>
        <time>2010-12-04T13:15:05Z</time>
      </trkpt>
      <trkpt lat="45.33502" lon="5.70269">
        <ele>1912.8</ele>
        <time>2010-12-04T13:15:31Z</time>
      </trkpt>
      <trkpt lat="45.33503" lon="5.7027">
        <ele>1911.6</ele>
        <time>2010-12-04T13:18:38Z</time>
      </trkpt>
      <trkpt lat="45.33504" lon="5.70272">
        <ele>1911.2</ele>
        <time>2010-12-04T13:19:30Z</time>
      </trkpt>
      <trkpt lat="45.33497" lon="5.70267">
        <ele>1916.8</ele>
        <time>2010-12-04T13:21:56Z</time>
      </trkpt>
      <trkpt lat="45.33505" lon="5.70272">
        <ele>1914.8</ele>
        <time>2010-12-04T13:22:28Z</time>
      </trkpt>
      <trkpt lat="45.33508" lon="5.70276">
        <ele>1900</ele>
        <time>2010-12-04T13:26:01Z</time>
      </trkpt>
      <trkpt lat="45.33505" lon="5.70273">
        <ele>1905.8</ele>
        <time>2010-12-04T13:27:25Z</time>
      </trkpt>
      <trkpt lat="45.33505" lon="5.70273">
        <ele>1905.6</ele>
        <time>2010-12-04T13:27:51Z</time>
      </trkpt>
      <trkpt lat="45.33505" lon="5.70274">
        <ele>1906</ele>
        <time>2010-12-04T13:29:30Z</time>
      </trkpt>
      <trkpt lat="45.33506" lon="5.70271">
        <ele>1908.4</ele>
        <time>2010-12-04T13:33:25Z</time>
      </trkpt>
      <trkpt lat="45.33503" lon="5.70273">
        <ele>1908.2</ele>
        <time>2010-12-04T13:35:11Z</time>
      </trkpt>
      <trkpt lat="45.33502" lon="5.70272">
        <ele>1908.6</ele>
        <time>2010-12-04T13:35:19Z</time>
      </trkpt>
      <trkpt lat="45.335" lon="5.70271">
        <ele>1908.8</ele>
        <time>2010-12-04T13:35:22Z</time>
      </trkpt>
      <trkpt lat="45.33498" lon="5.70269">
        <ele>1911.6</ele>
        <time>2010-12-04T13:35:49Z</time>
      </trkpt>
      <trkpt lat="45.33497" lon="5.70268">
        <ele>1912.2</ele>
        <time>2010-12-04T13:35:55Z</time>
      </trkpt>
      <trkpt lat="45.33495" lon="5.70268">
        <ele>1913.2</ele>
        <time>2010-12-04T13:36:03Z</time>
      </trkpt>
      <trkpt lat="45.33497" lon="5.70271">
        <ele>1915</ele>
        <time>2010-12-04T13:36:18Z</time>
      </trkpt>
      <trkpt lat="45.33498" lon="5.70273">
        <ele>1915.4</ele>
        <time>2010-12-04T13:36:23Z</time>
      </trkpt>
      <trkpt lat="45.335" lon="5.70274">
        <ele>1915.8</ele>
        <time>2010-12-04T13:36:29Z</time>
      </trkpt>
      <trkpt lat="45.33501" lon="5.70275">
        <ele>1916.4</ele>
        <time>2010-12-04T13:36:41Z</time>
      </trkpt>
      <trkpt lat="45.33504" lon="5.70276">
        <ele>1916.8</ele>
        <time>2010-12-04T13:36:47Z</time>
      </trkpt>
      <trkpt lat="45.33504" lon="5.70277">
        <ele>1916.8</ele>
        <time>2010-12-04T13:36:48Z</time>
      </trkpt>
      <trkpt lat="45.33505" lon="5.70278">
        <ele>1918.4</ele>
        <time>2010-12-04T13:38:02Z</time>
      </trkpt>
      <trkpt lat="45.33507" lon="5.7028">
        <ele>1918.4</ele>
        <time>2010-12-04T13:38:15Z</time>
      </trkpt>
      <trkpt lat="45.33505" lon="5.7028">
        <ele>1920.6</ele>
        <time>2010-12-04T13:41:53Z</time>
      </trkpt>
      <trkpt lat="45.33503" lon="5.70282">
        <ele>1920.6</ele>
        <time>2010-12-04T13:41:55Z</time>
      </trkpt>
      <trkpt lat="45.335" lon="5.70283">
        <ele>1920.6</ele>
        <time>2010-12-04T13:41:56Z</time>
      </trkpt>
      <trkpt lat="45.33486" lon="5.70289">
        <ele>1920.2</ele>
        <time>2010-12-04T13:42:00Z</time>
      </trkpt>
      <trkpt lat="45.33473" lon="5.70298">
        <ele>1919.8</ele>
        <time>2010-12-04T13:42:04Z</time>
      </trkpt>
      <trkpt lat="45.3347" lon="5.70301">
        <ele>1919.6</ele>
        <time>2010-12-04T13:42:05Z</time>
      </trkpt>
      <trkpt lat="45.33461" lon="5.70307">
        <ele>1919</ele>
        <time>2010-12-04T13:42:08Z</time>
      </trkpt>
      <trkpt lat="45.33455" lon="5.70313">
        <ele>1918.6</ele>
        <time>2010-12-04T13:42:10Z</time>
      </trkpt>
      <trkpt lat="45.33453" lon="5.70317">
        <ele>1918.4</ele>
        <time>2010-12-04T13:42:11Z</time>
      </trkpt>
      <trkpt lat="45.33451" lon="5.70318">
        <ele>1918.2</ele>
        <time>2010-12-04T13:42:12Z</time>
      </trkpt>
      <trkpt lat="45.3345" lon="5.70318">
        <ele>1917.4</ele>
        <time>2010-12-04T13:42:16Z</time>
      </trkpt>
      <trkpt lat="45.33452" lon="5.70317">
        <ele>1915.8</ele>
        <time>2010-12-04T13:42:23Z</time>
      </trkpt>
      <trkpt lat="45.33451" lon="5.70315">
        <ele>1902.2</ele>
        <time>2010-12-04T13:44:03Z</time>
      </trkpt>
      <trkpt lat="45.33445" lon="5.70316">
        <ele>1901.6</ele>
        <time>2010-12-04T13:44:09Z</time>
      </trkpt>
      <trkpt lat="45.3344" lon="5.70317">
        <ele>1901.4</ele>
        <time>2010-12-04T13:44:11Z</time>
      </trkpt>
      <trkpt lat="45.33428" lon="5.7032">
        <ele>1901</ele>
        <time>2010-12-04T13:44:15Z</time>
      </trkpt>
      <trkpt lat="45.33422" lon="5.70323">
        <ele>1900.8</ele>
        <time>2010-12-04T13:44:17Z</time>
      </trkpt>
      <trkpt lat="45.33414" lon="5.70329">
        <ele>1900.2</ele>
        <time>2010-12-04T13:44:20Z</time>
      </trkpt>
      <trkpt lat="45.33405" lon="5.70339">
        <ele>1899.6</ele>
        <time>2010-12-04T13:44:23Z</time>
      </trkpt>
      <trkpt lat="45.33394" lon="5.70346">
        <ele>1899</ele>
        <time>2010-12-04T13:44:27Z</time>
      </trkpt>
      <trkpt lat="45.33392" lon="5.70347">
        <ele>1898.2</ele>
        <time>2010-12-04T13:44:31Z</time>
      </trkpt>
      <trkpt lat="45.33391" lon="5.70347">
        <ele>1897</ele>
        <time>2010-12-04T13:44:39Z</time>
      </trkpt>
      <trkpt lat="45.33389" lon="5.70347">
        <ele>1896.4</ele>
        <time>2010-12-04T13:44:43Z</time>
      </trkpt>
      <trkpt lat="45.33387" lon="5.70347">
        <ele>1895.6</ele>
        <time>2010-12-04T13:44:48Z</time>
      </trkpt>
      <trkpt lat="45.33387" lon="5.70347">
        <ele>1895.4</ele>
        <time>2010-12-04T13:44:49Z</time>
      </trkpt>
      <trkpt lat="45.33385" lon="5.70347">
        <ele>1894.8</ele>
        <time>2010-12-04T13:44:53Z</time>
      </trkpt>
      <trkpt lat="45.33379" lon="5.70348">
        <ele>1893.4</ele>
        <time>2010-12-04T13:45:02Z</time>
      </trkpt>
      <trkpt lat="45.33372" lon="5.70347">
        <ele>1892.6</ele>
        <time>2010-12-04T13:45:07Z</time>
      </trkpt>
      <trkpt lat="45.33369" lon="5.70347">
        <ele>1892.4</ele>
        <time>2010-12-04T13:45:08Z</time>
      </trkpt>
      <trkpt lat="45.33361" lon="5.70349">
        <ele>1891.8</ele>
        <time>2010-12-04T13:45:12Z</time>
      </trkpt>
      <trkpt lat="45.3335" lon="5.70351">
        <ele>1890.8</ele>
        <time>2010-12-04T13:45:18Z</time>
      </trkpt>
      <trkpt lat="45.33348" lon="5.70351">
        <ele>1890.8</ele>
        <time>2010-12-04T13:45:19Z</time>
      </trkpt>
      <trkpt lat="45.33342" lon="5.70353">
        <ele>1890</ele>
        <time>2010-12-04T13:45:23Z</time>
      </trkpt>
      <trkpt lat="45.33341" lon="5.70354">
        <ele>1889.8</ele>
        <time>2010-12-04T13:45:24Z</time>
      </trkpt>
      <trkpt lat="45.33336" lon="5.70356">
        <ele>1888.8</ele>
        <time>2010-12-04T13:45:29Z</time>
      </trkpt>
      <trkpt lat="45.33334" lon="5.7036">
        <ele>1888.4</ele>
        <time>2010-12-04T13:45:31Z</time>
      </trkpt>
      <trkpt lat="45.33332" lon="5.70362">
        <ele>1888.2</ele>
        <time>2010-12-04T13:45:32Z</time>
      </trkpt>
      <trkpt lat="45.33325" lon="5.70361">
        <ele>1887.4</ele>
        <time>2010-12-04T13:45:35Z</time>
      </trkpt>
      <trkpt lat="45.33321" lon="5.70361">
        <ele>1882.2</ele>
        <time>2010-12-04T13:46:04Z</time>
      </trkpt>
      <trkpt lat="45.33317" lon="5.70361">
        <ele>1882</ele>
        <time>2010-12-04T13:46:05Z</time>
      </trkpt>
      <trkpt lat="45.33312" lon="5.70361">
        <ele>1881.4</ele>
        <time>2010-12-04T13:46:08Z</time>
      </trkpt>
      <trkpt lat="45.33305" lon="5.70362">
        <ele>1877.8</ele>
        <time>2010-12-04T13:46:29Z</time>
      </trkpt>
      <trkpt lat="45.33299" lon="5.70363">
        <ele>1877</ele>
        <time>2010-12-04T13:46:33Z</time>
      </trkpt>
      <trkpt lat="45.33291" lon="5.70365">
        <ele>1876.2</ele>
        <time>2010-12-04T13:46:36Z</time>
      </trkpt>
      <trkpt lat="45.3329" lon="5.70365">
        <ele>1875.8</ele>
        <time>2010-12-04T13:46:38Z</time>
      </trkpt>
      <trkpt lat="45.33289" lon="5.70366">
        <ele>1875.6</ele>
        <time>2010-12-04T13:46:39Z</time>
      </trkpt>
      <trkpt lat="45.33285" lon="5.70366">
        <ele>1874.8</ele>
        <time>2010-12-04T13:46:42Z</time>
      </trkpt>
      <trkpt lat="45.33285" lon="5.70366">
        <ele>1874.6</ele>
        <time>2010-12-04T13:46:43Z</time>
      </trkpt>
      <trkpt lat="45.33284" lon="5.70367">
        <ele>1873.6</ele>
        <time>2010-12-04T13:46:48Z</time>
      </trkpt>
      <trkpt lat="45.33282" lon="5.7037">
        <ele>1873.2</ele>
        <time>2010-12-04T13:46:49Z</time>
      </trkpt>
      <trkpt lat="45.33277" lon="5.70373">
        <ele>1873</ele>
        <time>2010-12-04T13:46:50Z</time>
      </trkpt>
      <trkpt lat="45.33266" lon="5.70373">
        <ele>1872.2</ele>
        <time>2010-12-04T13:46:53Z</time>
      </trkpt>
      <trkpt lat="45.33263" lon="5.70373">
        <ele>1871.2</ele>
        <time>2010-12-04T13:46:57Z</time>
      </trkpt>
      <trkpt lat="45.33262" lon="5.70373">
        <ele>1869.8</ele>
        <time>2010-12-04T13:47:02Z</time>
      </trkpt>
      <trkpt lat="45.33261" lon="5.70374">
        <ele>1869.6</ele>
        <time>2010-12-04T13:47:03Z</time>
      </trkpt>
      <trkpt lat="45.33259" lon="5.70375">
        <ele>1868.6</ele>
        <time>2010-12-04T13:47:07Z</time>
      </trkpt>
      <trkpt lat="45.33257" lon="5.70376">
        <ele>1867.2</ele>
        <time>2010-12-04T13:47:12Z</time>
      </trkpt>
      <trkpt lat="45.33257" lon="5.70376">
        <ele>1860.2</ele>
        <time>2010-12-04T13:47:42Z</time>
      </trkpt>
      <trkpt lat="45.33259" lon="5.70376">
        <ele>1856.4</ele>
        <time>2010-12-04T13:48:02Z</time>
      </trkpt>
      <trkpt lat="45.33264" lon="5.70378">
        <ele>1856</ele>
        <time>2010-12-04T13:48:04Z</time>
      </trkpt>
      <trkpt lat="45.33267" lon="5.70381">
        <ele>1855.8</ele>
        <time>2010-12-04T13:48:05Z</time>
      </trkpt>
      <trkpt lat="45.33263" lon="5.70392">
        <ele>1855.2</ele>
        <time>2010-12-04T13:48:08Z</time>
      </trkpt>
      <trkpt lat="45.33259" lon="5.70394">
        <ele>1854.4</ele>
        <time>2010-12-04T13:48:11Z</time>
      </trkpt>
      <trkpt lat="45.33256" lon="5.70395">
        <ele>1854</ele>
        <time>2010-12-04T13:48:13Z</time>
      </trkpt>
      <trkpt lat="45.33249" lon="5.70395">
        <ele>1852.8</ele>
        <time>2010-12-04T13:48:18Z</time>
      </trkpt>
      <trkpt lat="45.33247" lon="5.70394">
        <ele>1851.6</ele>
        <time>2010-12-04T13:48:23Z</time>
      </trkpt>
      <trkpt lat="45.33246" lon="5.70395">
        <ele>1843</ele>
        <time>2010-12-04T13:49:15Z</time>
      </trkpt>
      <trkpt lat="45.33241" lon="5.70394">
        <ele>1840.8</ele>
        <time>2010-12-04T13:49:37Z</time>
      </trkpt>
      <trkpt lat="45.33237" lon="5.70395">
        <ele>1840.6</ele>
        <time>2010-12-04T13:49:38Z</time>
      </trkpt>
      <trkpt lat="45.33229" lon="5.70394">
        <ele>1840.4</ele>
        <time>2010-12-04T13:49:40Z</time>
      </trkpt>
      <trkpt lat="45.33227" lon="5.70394">
        <ele>1840.2</ele>
        <time>2010-12-04T13:49:41Z</time>
      </trkpt>
      <trkpt lat="45.33223" lon="5.70392">
        <ele>1839.4</ele>
        <time>2010-12-04T13:49:45Z</time>
      </trkpt>
      <trkpt lat="45.3322" lon="5.70388">
        <ele>1832</ele>
        <time>2010-12-04T13:50:48Z</time>
      </trkpt>
      <trkpt lat="45.33218" lon="5.70388">
        <ele>1831.8</ele>
        <time>2010-12-04T13:50:49Z</time>
      </trkpt>
      <trkpt lat="45.33216" lon="5.70387">
        <ele>1831.6</ele>
        <time>2010-12-04T13:50:51Z</time>
      </trkpt>
      <trkpt lat="45.33213" lon="5.70389">
        <ele>1831.2</ele>
        <time>2010-12-04T13:50:53Z</time>
      </trkpt>
      <trkpt lat="45.33204" lon="5.70391">
        <ele>1830.6</ele>
        <time>2010-12-04T13:50:57Z</time>
      </trkpt>
      <trkpt lat="45.33201" lon="5.70392">
        <ele>1830.4</ele>
        <time>2010-12-04T13:50:58Z</time>
      </trkpt>
      <trkpt lat="45.33194" lon="5.70394">
        <ele>1829.8</ele>
        <time>2010-12-04T13:51:02Z</time>
      </trkpt>
      <trkpt lat="45.33186" lon="5.70398">
        <ele>1828.6</ele>
        <time>2010-12-04T13:51:08Z</time>
      </trkpt>
      <trkpt lat="45.33183" lon="5.70401">
        <ele>1827.8</ele>
        <time>2010-12-04T13:51:13Z</time>
      </trkpt>
      <trkpt lat="45.33183" lon="5.70401">
        <ele>1825.6</ele>
        <time>2010-12-04T13:51:25Z</time>
      </trkpt>
      <trkpt lat="45.3318" lon="5.70402">
        <ele>1824.4</ele>
        <time>2010-12-04T13:51:31Z</time>
      </trkpt>
      <trkpt lat="45.33177" lon="5.70402">
        <ele>1823.6</ele>
        <time>2010-12-04T13:51:35Z</time>
      </trkpt>
      <trkpt lat="45.33177" lon="5.70404">
        <ele>1820.8</ele>
        <time>2010-12-04T13:51:52Z</time>
      </trkpt>
      <trkpt lat="45.33171" lon="5.70405">
        <ele>1820.4</ele>
        <time>2010-12-04T13:51:54Z</time>
      </trkpt>
      <trkpt lat="45.33165" lon="5.70405">
        <ele>1820</ele>
        <time>2010-12-04T13:51:56Z</time>
      </trkpt>
      <trkpt lat="45.33162" lon="5.70404">
        <ele>1819.6</ele>
        <time>2010-12-04T13:51:58Z</time>
      </trkpt>
      <trkpt lat="45.33163" lon="5.70405">
        <ele>1818.2</ele>
        <time>2010-12-04T13:52:04Z</time>
      </trkpt>
      <trkpt lat="45.33165" lon="5.70411">
        <ele>1817.4</ele>
        <time>2010-12-04T13:52:08Z</time>
      </trkpt>
      <trkpt lat="45.33169" lon="5.7042">
        <ele>1816.6</ele>
        <time>2010-12-04T13:52:11Z</time>
      </trkpt>
      <trkpt lat="45.33167" lon="5.70421">
        <ele>1816.4</ele>
        <time>2010-12-04T13:52:12Z</time>
      </trkpt>
      <trkpt lat="45.33164" lon="5.70421">
        <ele>1815.4</ele>
        <time>2010-12-04T13:52:16Z</time>
      </trkpt>
      <trkpt lat="45.33161" lon="5.70421">
        <ele>1814</ele>
        <time>2010-12-04T13:52:22Z</time>
      </trkpt>
      <trkpt lat="45.33155" lon="5.70421">
        <ele>1812.8</ele>
        <time>2010-12-04T13:52:27Z</time>
      </trkpt>
      <trkpt lat="45.33154" lon="5.7042">
        <ele>1812.4</ele>
        <time>2010-12-04T13:52:28Z</time>
      </trkpt>
      <trkpt lat="45.33154" lon="5.70422">
        <ele>1811.8</ele>
        <time>2010-12-04T13:52:31Z</time>
      </trkpt>
      <trkpt lat="45.33151" lon="5.70423">
        <ele>1810.4</ele>
        <time>2010-12-04T13:52:36Z</time>
      </trkpt>
      <trkpt lat="45.33151" lon="5.70424">
        <ele>1810.2</ele>
        <time>2010-12-04T13:52:37Z</time>
      </trkpt>
      <trkpt lat="45.33151" lon="5.70425">
        <ele>1809.6</ele>
        <time>2010-12-04T13:52:39Z</time>
      </trkpt>
      <trkpt lat="45.33152" lon="5.70424">
        <ele>1807</ele>
        <time>2010-12-04T13:52:49Z</time>
      </trkpt>
      <trkpt lat="45.33151" lon="5.70425">
        <ele>1806.2</ele>
        <time>2010-12-04T13:52:53Z</time>
      </trkpt>
      <trkpt lat="45.3315" lon="5.70427">
        <ele>1805.6</ele>
        <time>2010-12-04T13:52:55Z</time>
      </trkpt>
      <trkpt lat="45.33151" lon="5.70427">
        <ele>1804.4</ele>
        <time>2010-12-04T13:53:00Z</time>
      </trkpt>
      <trkpt lat="45.33154" lon="5.70431">
        <ele>1803.2</ele>
        <time>2010-12-04T13:53:05Z</time>
      </trkpt>
      <trkpt lat="45.33155" lon="5.70433">
        <ele>1802.6</ele>
        <time>2010-12-04T13:53:07Z</time>
      </trkpt>
      <trkpt lat="45.33155" lon="5.70439">
        <ele>1802.4</ele>
        <time>2010-12-04T13:53:08Z</time>
      </trkpt>
      <trkpt lat="45.33149" lon="5.70448">
        <ele>1801.8</ele>
        <time>2010-12-04T13:53:10Z</time>
      </trkpt>
      <trkpt lat="45.33146" lon="5.70449">
        <ele>1801.2</ele>
        <time>2010-12-04T13:53:12Z</time>
      </trkpt>
      <trkpt lat="45.33146" lon="5.70449">
        <ele>1800.8</ele>
        <time>2010-12-04T13:53:13Z</time>
      </trkpt>
      <trkpt lat="45.33148" lon="5.70447">
        <ele>1798.2</ele>
        <time>2010-12-04T13:53:23Z</time>
      </trkpt>
      <trkpt lat="45.33151" lon="5.70449">
        <ele>1796.4</ele>
        <time>2010-12-04T13:53:29Z</time>
      </trkpt>
      <trkpt lat="45.33151" lon="5.7045">
        <ele>1796.2</ele>
        <time>2010-12-04T13:53:30Z</time>
      </trkpt>
      <trkpt lat="45.33153" lon="5.70451">
        <ele>1794.8</ele>
        <time>2010-12-04T13:53:35Z</time>
      </trkpt>
      <trkpt lat="45.33153" lon="5.70453">
        <ele>1793.2</ele>
        <time>2010-12-04T13:53:41Z</time>
      </trkpt>
      <trkpt lat="45.33151" lon="5.70457">
        <ele>1792.8</ele>
        <time>2010-12-04T13:53:42Z</time>
      </trkpt>
      <trkpt lat="45.33143" lon="5.70462">
        <ele>1792</ele>
        <time>2010-12-04T13:53:45Z</time>
      </trkpt>
      <trkpt lat="45.33142" lon="5.70462">
        <ele>1779.4</ele>
        <time>2010-12-04T13:54:36Z</time>
      </trkpt>
      <trkpt lat="45.33136" lon="5.70463">
        <ele>1778.8</ele>
        <time>2010-12-04T13:54:39Z</time>
      </trkpt>
      <trkpt lat="45.33122" lon="5.70466">
        <ele>1777.8</ele>
        <time>2010-12-04T13:54:43Z</time>
      </trkpt>
      <trkpt lat="45.33104" lon="5.7047">
        <ele>1776.4</ele>
        <time>2010-12-04T13:54:48Z</time>
      </trkpt>
      <trkpt lat="45.33101" lon="5.70471">
        <ele>1776</ele>
        <time>2010-12-04T13:54:49Z</time>
      </trkpt>
      <trkpt lat="45.33092" lon="5.70473">
        <ele>1775.2</ele>
        <time>2010-12-04T13:54:52Z</time>
      </trkpt>
      <trkpt lat="45.33088" lon="5.70478">
        <ele>1773.8</ele>
        <time>2010-12-04T13:54:56Z</time>
      </trkpt>
      <trkpt lat="45.33087" lon="5.70484">
        <ele>1773</ele>
        <time>2010-12-04T13:54:58Z</time>
      </trkpt>
      <trkpt lat="45.33086" lon="5.70487">
        <ele>1772.4</ele>
        <time>2010-12-04T13:54:59Z</time>
      </trkpt>
      <trkpt lat="45.33084" lon="5.705">
        <ele>1771</ele>
        <time>2010-12-04T13:55:02Z</time>
      </trkpt>
      <trkpt lat="45.33086" lon="5.70509">
        <ele>1770</ele>
        <time>2010-12-04T13:55:04Z</time>
      </trkpt>
      <trkpt lat="45.33085" lon="5.70512">
        <ele>1769.4</ele>
        <time>2010-12-04T13:55:05Z</time>
      </trkpt>
      <trkpt lat="45.33081" lon="5.70524">
        <ele>1767.6</ele>
        <time>2010-12-04T13:55:08Z</time>
      </trkpt>
      <trkpt lat="45.33076" lon="5.70531">
        <ele>1766.4</ele>
        <time>2010-12-04T13:55:10Z</time>
      </trkpt>
      <trkpt lat="45.3307" lon="5.70539">
        <ele>1765</ele>
        <time>2010-12-04T13:55:12Z</time>
      </trkpt>
      <trkpt lat="45.33063" lon="5.70539">
        <ele>1763</ele>
        <time>2010-12-04T13:55:15Z</time>
      </trkpt>
      <trkpt lat="45.33058" lon="5.7054">
        <ele>1756.2</ele>
        <time>2010-12-04T13:55:26Z</time>
      </trkpt>
      <trkpt lat="45.33044" lon="5.70551">
        <ele>1753.6</ele>
        <time>2010-12-04T13:55:30Z</time>
      </trkpt>
      <trkpt lat="45.33041" lon="5.70555">
        <ele>1753</ele>
        <time>2010-12-04T13:55:31Z</time>
      </trkpt>
      <trkpt lat="45.33037" lon="5.70568">
        <ele>1751.4</ele>
        <time>2010-12-04T13:55:33Z</time>
      </trkpt>
      <trkpt lat="45.33029" lon="5.70578">
        <ele>1750</ele>
        <time>2010-12-04T13:55:35Z</time>
      </trkpt>
      <trkpt lat="45.33026" lon="5.70581">
        <ele>1749.2</ele>
        <time>2010-12-04T13:55:36Z</time>
      </trkpt>
      <trkpt lat="45.33018" lon="5.70592">
        <ele>1746.6</ele>
        <time>2010-12-04T13:55:39Z</time>
      </trkpt>
      <trkpt lat="45.33015" lon="5.70596">
        <ele>1745.8</ele>
        <time>2010-12-04T13:55:40Z</time>
      </trkpt>
      <trkpt lat="45.33011" lon="5.70597">
        <ele>1744.2</ele>
        <time>2010-12-04T13:55:42Z</time>
      </trkpt>
      <trkpt lat="45.3301" lon="5.70597">
        <ele>1743.2</ele>
        <time>2010-12-04T13:55:43Z</time>
      </trkpt>
      <trkpt lat="45.33011" lon="5.70595">
        <ele>1739.2</ele>
        <time>2010-12-04T13:55:48Z</time>
      </trkpt>
      <trkpt lat="45.33004" lon="5.70595">
        <ele>1735.8</ele>
        <time>2010-12-04T13:55:52Z</time>
      </trkpt>
      <trkpt lat="45.32999" lon="5.70597">
        <ele>1734.2</ele>
        <time>2010-12-04T13:55:54Z</time>
      </trkpt>
      <trkpt lat="45.32996" lon="5.706">
        <ele>1733.4</ele>
        <time>2010-12-04T13:55:55Z</time>
      </trkpt>
      <trkpt lat="45.32989" lon="5.70606">
        <ele>1730.6</ele>
        <time>2010-12-04T13:55:58Z</time>
      </trkpt>
      <trkpt lat="45.3299" lon="5.70618">
        <ele>1728.8</ele>
        <time>2010-12-04T13:56:00Z</time>
      </trkpt>
      <trkpt lat="45.32989" lon="5.70623">
        <ele>1727.8</ele>
        <time>2010-12-04T13:56:01Z</time>
      </trkpt>
      <trkpt lat="45.32988" lon="5.70628">
        <ele>1726.8</ele>
        <time>2010-12-04T13:56:02Z</time>
      </trkpt>
      <trkpt lat="45.32986" lon="5.70631">
        <ele>1725.8</ele>
        <time>2010-12-04T13:56:03Z</time>
      </trkpt>
      <trkpt lat="45.32985" lon="5.70632">
        <ele>1724.8</ele>
        <time>2010-12-04T13:56:04Z</time>
      </trkpt>
      <trkpt lat="45.32986" lon="5.70628">
        <ele>1722</ele>
        <time>2010-12-04T13:56:07Z</time>
      </trkpt>
      <trkpt lat="45.32986" lon="5.70627">
        <ele>1711.8</ele>
        <time>2010-12-04T13:56:18Z</time>
      </trkpt>
      <trkpt lat="45.32985" lon="5.70628">
        <ele>1706</ele>
        <time>2010-12-04T13:56:25Z</time>
      </trkpt>
      <trkpt lat="45.3298" lon="5.70631">
        <ele>1704.2</ele>
        <time>2010-12-04T13:56:27Z</time>
      </trkpt>
      <trkpt lat="45.32978" lon="5.70635">
        <ele>1701.8</ele>
        <time>2010-12-04T13:56:30Z</time>
      </trkpt>
      <trkpt lat="45.32979" lon="5.70635">
        <ele>1701</ele>
        <time>2010-12-04T13:56:31Z</time>
      </trkpt>
      <trkpt lat="45.3298" lon="5.70634">
        <ele>1697</ele>
        <time>2010-12-04T13:56:36Z</time>
      </trkpt>
      <trkpt lat="45.32977" lon="5.70637">
        <ele>1685.8</ele>
        <time>2010-12-04T13:56:51Z</time>
      </trkpt>
      <trkpt lat="45.32976" lon="5.70638">
        <ele>1683.8</ele>
        <time>2010-12-04T13:56:54Z</time>
      </trkpt>
      <trkpt lat="45.3298" lon="5.70641">
        <ele>1679.8</ele>
        <time>2010-12-04T13:57:00Z</time>
      </trkpt>
      <trkpt lat="45.32981" lon="5.70641">
        <ele>1677.8</ele>
        <time>2010-12-04T13:57:03Z</time>
      </trkpt>
      <trkpt lat="45.32978" lon="5.70643">
        <ele>1674</ele>
        <time>2010-12-04T13:57:09Z</time>
      </trkpt>
      <trkpt lat="45.32977" lon="5.70644">
        <ele>1673.2</ele>
        <time>2010-12-04T13:57:10Z</time>
      </trkpt>
      <trkpt lat="45.32977" lon="5.70647">
        <ele>1670.2</ele>
        <time>2010-12-04T13:57:15Z</time>
      </trkpt>
      <trkpt lat="45.32983" lon="5.70657">
        <ele>1668.4</ele>
        <time>2010-12-04T13:57:18Z</time>
      </trkpt>
      <trkpt lat="45.32986" lon="5.70661">
        <ele>1666.4</ele>
        <time>2010-12-04T13:57:21Z</time>
      </trkpt>
      <trkpt lat="45.32986" lon="5.70661">
        <ele>1665.8</ele>
        <time>2010-12-04T13:57:22Z</time>
      </trkpt>
      <trkpt lat="45.32985" lon="5.70664">
        <ele>1661.8</ele>
        <time>2010-12-04T13:57:29Z</time>
      </trkpt>
      <trkpt lat="45.32986" lon="5.70669">
        <ele>1661.2</ele>
        <time>2010-12-04T13:57:30Z</time>
      </trkpt>
      <trkpt lat="45.32988" lon="5.7069">
        <ele>1659.2</ele>
        <time>2010-12-04T13:57:33Z</time>
      </trkpt>
      <trkpt lat="45.32982" lon="5.70719">
        <ele>1656.2</ele>
        <time>2010-12-04T13:57:37Z</time>
      </trkpt>
      <trkpt lat="45.32977" lon="5.70739">
        <ele>1653.6</ele>
        <time>2010-12-04T13:57:40Z</time>
      </trkpt>
      <trkpt lat="45.32975" lon="5.70746">
        <ele>1652.8</ele>
        <time>2010-12-04T13:57:41Z</time>
      </trkpt>
      <trkpt lat="45.3297" lon="5.70762">
        <ele>1650.8</ele>
        <time>2010-12-04T13:57:43Z</time>
      </trkpt>
      <trkpt lat="45.32966" lon="5.70778">
        <ele>1648.8</ele>
        <time>2010-12-04T13:57:45Z</time>
      </trkpt>
      <trkpt lat="45.32959" lon="5.70805">
        <ele>1645.6</ele>
        <time>2010-12-04T13:57:48Z</time>
      </trkpt>
      <trkpt lat="45.32957" lon="5.70814">
        <ele>1644.4</ele>
        <time>2010-12-04T13:57:49Z</time>
      </trkpt>
      <trkpt lat="45.32948" lon="5.70829">
        <ele>1641.2</ele>
        <time>2010-12-04T13:57:52Z</time>
      </trkpt>
      <trkpt lat="45.32944" lon="5.70831">
        <ele>1640.2</ele>
        <time>2010-12-04T13:57:53Z</time>
      </trkpt>
      <trkpt lat="45.3293" lon="5.70839">
        <ele>1636.6</ele>
        <time>2010-12-04T13:57:56Z</time>
      </trkpt>
      <trkpt lat="45.32925" lon="5.70844">
        <ele>1635.4</ele>
        <time>2010-12-04T13:57:57Z</time>
      </trkpt>
      <trkpt lat="45.32912" lon="5.70858">
        <ele>1631.8</ele>
        <time>2010-12-04T13:58:00Z</time>
      </trkpt>
      <trkpt lat="45.32904" lon="5.70859">
        <ele>1628.2</ele>
        <time>2010-12-04T13:58:03Z</time>
      </trkpt>
      <trkpt lat="45.32903" lon="5.70858">
        <ele>1627</ele>
        <time>2010-12-04T13:58:04Z</time>
      </trkpt>
      <trkpt lat="45.32904" lon="5.70858">
        <ele>1623.4</ele>
        <time>2010-12-04T13:58:07Z</time>
      </trkpt>
      <trkpt lat="45.32904" lon="5.70858">
        <ele>1581.4</ele>
        <time>2010-12-04T13:58:53Z</time>
      </trkpt>
      <trkpt lat="45.32902" lon="5.70859">
        <ele>1578.6</ele>
        <time>2010-12-04T13:58:57Z</time>
      </trkpt>
      <trkpt lat="45.32901" lon="5.70859">
        <ele>1573.8</ele>
        <time>2010-12-04T13:59:04Z</time>
      </trkpt>
      <trkpt lat="45.32897" lon="5.70858">
        <ele>1570.6</ele>
        <time>2010-12-04T13:59:09Z</time>
      </trkpt>
      <trkpt lat="45.32892" lon="5.70854">
        <ele>1565.6</ele>
        <time>2010-12-04T13:59:17Z</time>
      </trkpt>
      <trkpt lat="45.32888" lon="5.7085">
        <ele>1561.8</ele>
        <time>2010-12-04T13:59:24Z</time>
      </trkpt>
      <trkpt lat="45.32886" lon="5.70847">
        <ele>1557.6</ele>
        <time>2010-12-04T13:59:32Z</time>
      </trkpt>
      <trkpt lat="45.32884" lon="5.70844">
        <ele>1555</ele>
        <time>2010-12-04T13:59:37Z</time>
      </trkpt>
      <trkpt lat="45.32883" lon="5.70842">
        <ele>1553</ele>
        <time>2010-12-04T13:59:41Z</time>
      </trkpt>
      <trkpt lat="45.32881" lon="5.70839">
        <ele>1551.2</ele>
        <time>2010-12-04T13:59:45Z</time>
      </trkpt>
      <trkpt lat="45.3288" lon="5.70837">
        <ele>1548</ele>
        <time>2010-12-04T13:59:52Z</time>
      </trkpt>
      <trkpt lat="45.32879" lon="5.70835">
        <ele>1541.2</ele>
        <time>2010-12-04T14:00:09Z</time>
      </trkpt>
      <trkpt lat="45.32876" lon="5.7083">
        <ele>1539.6</ele>
        <time>2010-12-04T14:00:13Z</time>
      </trkpt>
      <trkpt lat="45.32874" lon="5.70824">
        <ele>1538.2</ele>
        <time>2010-12-04T14:00:17Z</time>
      </trkpt>
      <trkpt lat="45.32872" lon="5.7082">
        <ele>1537.6</ele>
        <time>2010-12-04T14:00:19Z</time>
      </trkpt>
      <trkpt lat="45.32869" lon="5.70811">
        <ele>1536.4</ele>
        <time>2010-12-04T14:00:22Z</time>
      </trkpt>
      <trkpt lat="45.32863" lon="5.70796">
        <ele>1534</ele>
        <time>2010-12-04T14:00:29Z</time>
      </trkpt>
      <trkpt lat="45.32855" lon="5.70782">
        <ele>1532.6</ele>
        <time>2010-12-04T14:00:33Z</time>
      </trkpt>
      <trkpt lat="45.32852" lon="5.70777">
        <ele>1532.2</ele>
        <time>2010-12-04T14:00:34Z</time>
      </trkpt>
      <trkpt lat="45.32846" lon="5.70756">
        <ele>1530.6</ele>
        <time>2010-12-04T14:00:38Z</time>
      </trkpt>
      <trkpt lat="45.32845" lon="5.70751">
        <ele>1530.2</ele>
        <time>2010-12-04T14:00:39Z</time>
      </trkpt>
      <trkpt lat="45.32844" lon="5.70746">
        <ele>1529.6</ele>
        <time>2010-12-04T14:00:40Z</time>
      </trkpt>
      <trkpt lat="45.32844" lon="5.70741">
        <ele>1529.2</ele>
        <time>2010-12-04T14:00:41Z</time>
      </trkpt>
      <trkpt lat="45.32843" lon="5.70725">
        <ele>1527.8</ele>
        <time>2010-12-04T14:00:44Z</time>
      </trkpt>
      <trkpt lat="45.32843" lon="5.70714">
        <ele>1526.6</ele>
        <time>2010-12-04T14:00:46Z</time>
      </trkpt>
      <trkpt lat="45.32844" lon="5.70703">
        <ele>1525</ele>
        <time>2010-12-04T14:00:49Z</time>
      </trkpt>
      <trkpt lat="45.32843" lon="5.70696">
        <ele>1523.8</ele>
        <time>2010-12-04T14:00:51Z</time>
      </trkpt>
      <trkpt lat="45.32842" lon="5.70691">
        <ele>1523.4</ele>
        <time>2010-12-04T14:00:52Z</time>
      </trkpt>
      <trkpt lat="45.32834" lon="5.70673">
        <ele>1521.6</ele>
        <time>2010-12-04T14:00:55Z</time>
      </trkpt>
      <trkpt lat="45.32832" lon="5.70668">
        <ele>1520.8</ele>
        <time>2010-12-04T14:00:56Z</time>
      </trkpt>
      <trkpt lat="45.32828" lon="5.70651">
        <ele>1519</ele>
        <time>2010-12-04T14:00:59Z</time>
      </trkpt>
      <trkpt lat="45.32827" lon="5.70645">
        <ele>1518.2</ele>
        <time>2010-12-04T14:01:00Z</time>
      </trkpt>
      <trkpt lat="45.32825" lon="5.70634">
        <ele>1516.8</ele>
        <time>2010-12-04T14:01:02Z</time>
      </trkpt>
      <trkpt lat="45.32824" lon="5.70629">
        <ele>1516.2</ele>
        <time>2010-12-04T14:01:03Z</time>
      </trkpt>
      <trkpt lat="45.3282" lon="5.70618">
        <ele>1514.8</ele>
        <time>2010-12-04T14:01:05Z</time>
      </trkpt>
      <trkpt lat="45.32817" lon="5.70614">
        <ele>1514</ele>
        <time>2010-12-04T14:01:06Z</time>
      </trkpt>
      <trkpt lat="45.32815" lon="5.70608">
        <ele>1513.4</ele>
        <time>2010-12-04T14:01:07Z</time>
      </trkpt>
      <trkpt lat="45.32812" lon="5.70602">
        <ele>1512.6</ele>
        <time>2010-12-04T14:01:08Z</time>
      </trkpt>
      <trkpt lat="45.32811" lon="5.70596">
        <ele>1511.8</ele>
        <time>2010-12-04T14:01:09Z</time>
      </trkpt>
      <trkpt lat="45.32804" lon="5.70574">
        <ele>1508.8</ele>
        <time>2010-12-04T14:01:13Z</time>
      </trkpt>
      <trkpt lat="45.32802" lon="5.7057">
        <ele>1508</ele>
        <time>2010-12-04T14:01:14Z</time>
      </trkpt>
      <trkpt lat="45.32795" lon="5.70554">
        <ele>1505.4</ele>
        <time>2010-12-04T14:01:17Z</time>
      </trkpt>
      <trkpt lat="45.32792" lon="5.70549">
        <ele>1504.4</ele>
        <time>2010-12-04T14:01:18Z</time>
      </trkpt>
      <trkpt lat="45.32789" lon="5.70543">
        <ele>1503.6</ele>
        <time>2010-12-04T14:01:19Z</time>
      </trkpt>
      <trkpt lat="45.32782" lon="5.70531">
        <ele>1501.8</ele>
        <time>2010-12-04T14:01:21Z</time>
      </trkpt>
      <trkpt lat="45.32778" lon="5.70528">
        <ele>1500.8</ele>
        <time>2010-12-04T14:01:22Z</time>
      </trkpt>
      <trkpt lat="45.32775" lon="5.70524">
        <ele>1500</ele>
        <time>2010-12-04T14:01:23Z</time>
      </trkpt>
      <trkpt lat="45.32775" lon="5.70524">
        <ele>1499</ele>
        <time>2010-12-04T14:01:24Z</time>
      </trkpt>
      <trkpt lat="45.32771" lon="5.70516">
        <ele>1494.6</ele>
        <time>2010-12-04T14:01:29Z</time>
      </trkpt>
      <trkpt lat="45.3277" lon="5.70509">
        <ele>1493.8</ele>
        <time>2010-12-04T14:01:30Z</time>
      </trkpt>
      <trkpt lat="45.32766" lon="5.70494">
        <ele>1491.8</ele>
        <time>2010-12-04T14:01:32Z</time>
      </trkpt>
      <trkpt lat="45.32764" lon="5.70487">
        <ele>1490.8</ele>
        <time>2010-12-04T14:01:33Z</time>
      </trkpt>
      <trkpt lat="45.32761" lon="5.70482">
        <ele>1489.8</ele>
        <time>2010-12-04T14:01:34Z</time>
      </trkpt>
      <trkpt lat="45.32758" lon="5.70476">
        <ele>1489</ele>
        <time>2010-12-04T14:01:35Z</time>
      </trkpt>
      <trkpt lat="45.32754" lon="5.70471">
        <ele>1488</ele>
        <time>2010-12-04T14:01:36Z</time>
      </trkpt>
      <trkpt lat="45.3275" lon="5.70461">
        <ele>1486</ele>
        <time>2010-12-04T14:01:38Z</time>
      </trkpt>
      <trkpt lat="45.32749" lon="5.70454">
        <ele>1485</ele>
        <time>2010-12-04T14:01:39Z</time>
      </trkpt>
      <trkpt lat="45.32751" lon="5.70437">
        <ele>1481.8</ele>
        <time>2010-12-04T14:01:42Z</time>
      </trkpt>
      <trkpt lat="45.32752" lon="5.7043">
        <ele>1480.8</ele>
        <time>2010-12-04T14:01:43Z</time>
      </trkpt>
      <trkpt lat="45.32753" lon="5.70414">
        <ele>1477.6</ele>
        <time>2010-12-04T14:01:46Z</time>
      </trkpt>
      <trkpt lat="45.32753" lon="5.7041">
        <ele>1475.6</ele>
        <time>2010-12-04T14:01:48Z</time>
      </trkpt>
      <trkpt lat="45.32753" lon="5.7041">
        <ele>1474.6</ele>
        <time>2010-12-04T14:01:49Z</time>
      </trkpt>
      <trkpt lat="45.32754" lon="5.7041">
        <ele>1468.6</ele>
        <time>2010-12-04T14:01:55Z</time>
      </trkpt>
      <trkpt lat="45.32754" lon="5.70407">
        <ele>1465.8</ele>
        <time>2010-12-04T14:01:58Z</time>
      </trkpt>
      <trkpt lat="45.32754" lon="5.70405">
        <ele>1464.8</ele>
        <time>2010-12-04T14:01:59Z</time>
      </trkpt>
      <trkpt lat="45.32752" lon="5.70401">
        <ele>1463</ele>
        <time>2010-12-04T14:02:01Z</time>
      </trkpt>
      <trkpt lat="45.32751" lon="5.70399">
        <ele>1461.2</ele>
        <time>2010-12-04T14:02:03Z</time>
      </trkpt>
      <trkpt lat="45.32751" lon="5.70397">
        <ele>1459.6</ele>
        <time>2010-12-04T14:02:05Z</time>
      </trkpt>
      <trkpt lat="45.32749" lon="5.70393">
        <ele>1455.4</ele>
        <time>2010-12-04T14:02:10Z</time>
      </trkpt>
      <trkpt lat="45.32744" lon="5.70385">
        <ele>1452.2</ele>
        <time>2010-12-04T14:02:14Z</time>
      </trkpt>
      <trkpt lat="45.3273" lon="5.7036">
        <ele>1448.8</ele>
        <time>2010-12-04T14:02:18Z</time>
      </trkpt>
      <trkpt lat="45.32728" lon="5.70343">
        <ele>1446.4</ele>
        <time>2010-12-04T14:02:21Z</time>
      </trkpt>
      <trkpt lat="45.32727" lon="5.70333">
        <ele>1444.8</ele>
        <time>2010-12-04T14:02:23Z</time>
      </trkpt>
      <trkpt lat="45.32726" lon="5.70329">
        <ele>1444</ele>
        <time>2010-12-04T14:02:24Z</time>
      </trkpt>
      <trkpt lat="45.32724" lon="5.70324">
        <ele>1442.4</ele>
        <time>2010-12-04T14:02:26Z</time>
      </trkpt>
      <trkpt lat="45.32722" lon="5.70321">
        <ele>1438.6</ele>
        <time>2010-12-04T14:02:31Z</time>
      </trkpt>
      <trkpt lat="45.32722" lon="5.70321">
        <ele>1437.8</ele>
        <time>2010-12-04T14:02:32Z</time>
      </trkpt>
      <trkpt lat="45.3272" lon="5.70319">
        <ele>1434.2</ele>
        <time>2010-12-04T14:02:37Z</time>
      </trkpt>
      <trkpt lat="45.32717" lon="5.70317">
        <ele>1425.4</ele>
        <time>2010-12-04T14:02:50Z</time>
      </trkpt>
      <trkpt lat="45.32715" lon="5.70315">
        <ele>1406.2</ele>
        <time>2010-12-04T14:03:22Z</time>
      </trkpt>
      <trkpt lat="45.32717" lon="5.70317">
        <ele>1380</ele>
        <time>2010-12-04T14:04:43Z</time>
      </trkpt>
      <trkpt lat="45.32716" lon="5.70317">
        <ele>1370.6</ele>
        <time>2010-12-04T14:05:53Z</time>
      </trkpt>
      <trkpt lat="45.32713" lon="5.70315">
        <ele>1364.2</ele>
        <time>2010-12-04T14:07:03Z</time>
      </trkpt>
      <trkpt lat="45.32713" lon="5.70313">
        <ele>1362.6</ele>
        <time>2010-12-04T14:07:44Z</time>
      </trkpt>
      <trkpt lat="45.32717" lon="5.70315">
        <ele>1361.6</ele>
        <time>2010-12-04T14:08:31Z</time>
      </trkpt>
      <trkpt lat="45.32715" lon="5.70315">
        <ele>1360.4</ele>
        <time>2010-12-04T14:08:59Z</time>
      </trkpt>
      <trkpt lat="45.32719" lon="5.70312">
        <ele>1358</ele>
        <time>2010-12-04T14:09:43Z</time>
      </trkpt>
      <trkpt lat="45.3272" lon="5.70314">
        <ele>1357.8</ele>
        <time>2010-12-04T14:09:50Z</time>
      </trkpt>
      <trkpt lat="45.3272" lon="5.70314">
        <ele>1357.6</ele>
        <time>2010-12-04T14:09:57Z</time>
      </trkpt>
      <trkpt lat="45.32716" lon="5.70313">
        <ele>1357.2</ele>
        <time>2010-12-04T14:10:35Z</time>
      </trkpt>
      <trkpt lat="45.32716" lon="5.70313">
        <ele>1355</ele>
        <time>2010-12-04T14:11:46Z</time>
      </trkpt>
      <trkpt lat="45.32717" lon="5.70315">
        <ele>1356.4</ele>
        <time>2010-12-04T14:12:27Z</time>
      </trkpt>
      <trkpt lat="45.32717" lon="5.70315">
        <ele>1356.2</ele>
        <time>2010-12-04T14:12:34Z</time>
      </trkpt>
      <trkpt lat="45.32713" lon="5.70313">
        <ele>1356</ele>
        <time>2010-12-04T14:12:40Z</time>
      </trkpt>
      <trkpt lat="45.32709" lon="5.70307">
        <ele>1356.2</ele>
        <time>2010-12-04T14:12:47Z</time>
      </trkpt>
      <trkpt lat="45.32706" lon="5.70301">
        <ele>1356.6</ele>
        <time>2010-12-04T14:12:53Z</time>
      </trkpt>
      <trkpt lat="45.32704" lon="5.70297">
        <ele>1357</ele>
        <time>2010-12-04T14:12:57Z</time>
      </trkpt>
      <trkpt lat="45.32703" lon="5.70292">
        <ele>1357.2</ele>
        <time>2010-12-04T14:13:00Z</time>
      </trkpt>
      <trkpt lat="45.32702" lon="5.70287">
        <ele>1357.6</ele>
        <time>2010-12-04T14:13:04Z</time>
      </trkpt>
      <trkpt lat="45.32702" lon="5.70286">
        <ele>1357.8</ele>
        <time>2010-12-04T14:13:06Z</time>
      </trkpt>
      <trkpt lat="45.327" lon="5.70279">
        <ele>1358</ele>
        <time>2010-12-04T14:13:12Z</time>
      </trkpt>
      <trkpt lat="45.32696" lon="5.70277">
        <ele>1358.4</ele>
        <time>2010-12-04T14:13:17Z</time>
      </trkpt>
      <trkpt lat="45.32696" lon="5.70277">
        <ele>1358.4</ele>
        <time>2010-12-04T14:13:18Z</time>
      </trkpt>
      <trkpt lat="45.32696" lon="5.70277">
        <ele>1358.4</ele>
        <time>2010-12-04T14:13:21Z</time>
      </trkpt>
      <trkpt lat="45.32694" lon="5.70275">
        <ele>1360.2</ele>
        <time>2010-12-04T14:13:41Z</time>
      </trkpt>
      <trkpt lat="45.32693" lon="5.70273">
        <ele>1360.4</ele>
        <time>2010-12-04T14:13:43Z</time>
      </trkpt>
      <trkpt lat="45.32688" lon="5.70267">
        <ele>1360.8</ele>
        <time>2010-12-04T14:13:50Z</time>
      </trkpt>
      <trkpt lat="45.32689" lon="5.70265">
        <ele>1360.4</ele>
        <time>2010-12-04T14:14:45Z</time>
      </trkpt>
      <trkpt lat="45.32685" lon="5.70261">
        <ele>1360.4</ele>
        <time>2010-12-04T14:15:05Z</time>
      </trkpt>
      <trkpt lat="45.32685" lon="5.7026">
        <ele>1360.2</ele>
        <time>2010-12-04T14:15:11Z</time>
      </trkpt>
      <trkpt lat="45.32686" lon="5.7026">
        <ele>1360</ele>
        <time>2010-12-04T14:15:29Z</time>
      </trkpt>
      <trkpt lat="45.32684" lon="5.70257">
        <ele>1358.8</ele>
        <time>2010-12-04T14:16:03Z</time>
      </trkpt>
      <trkpt lat="45.32682" lon="5.7025">
        <ele>1358.8</ele>
        <time>2010-12-04T14:16:09Z</time>
      </trkpt>
      <trkpt lat="45.32682" lon="5.70248">
        <ele>1358.8</ele>
        <time>2010-12-04T14:16:10Z</time>
      </trkpt>
      <trkpt lat="45.32681" lon="5.70246">
        <ele>1358.8</ele>
        <time>2010-12-04T14:16:12Z</time>
      </trkpt>
      <trkpt lat="45.32679" lon="5.7024">
        <ele>1358.8</ele>
        <time>2010-12-04T14:16:16Z</time>
      </trkpt>
      <trkpt lat="45.32679" lon="5.70238">
        <ele>1358.8</ele>
        <time>2010-12-04T14:16:17Z</time>
      </trkpt>
      <trkpt lat="45.32678" lon="5.70233">
        <ele>1359</ele>
        <time>2010-12-04T14:16:21Z</time>
      </trkpt>
      <trkpt lat="45.32677" lon="5.70233">
        <ele>1359</ele>
        <time>2010-12-04T14:16:22Z</time>
      </trkpt>
      <trkpt lat="45.32681" lon="5.70226">
        <ele>1362</ele>
        <time>2010-12-04T14:17:11Z</time>
      </trkpt>
      <trkpt lat="45.32678" lon="5.70223">
        <ele>1362</ele>
        <time>2010-12-04T14:17:18Z</time>
      </trkpt>
      <trkpt lat="45.3268" lon="5.70224">
        <ele>1362.2</ele>
        <time>2010-12-04T14:17:24Z</time>
      </trkpt>
      <trkpt lat="45.32679" lon="5.70222">
        <ele>1362.4</ele>
        <time>2010-12-04T14:17:27Z</time>
      </trkpt>
      <trkpt lat="45.32677" lon="5.70217">
        <ele>1362.2</ele>
        <time>2010-12-04T14:17:30Z</time>
      </trkpt>
      <trkpt lat="45.32675" lon="5.70215">
        <ele>1362.2</ele>
        <time>2010-12-04T14:17:35Z</time>
      </trkpt>
      <trkpt lat="45.32677" lon="5.70212">
        <ele>1361.2</ele>
        <time>2010-12-04T14:17:51Z</time>
      </trkpt>
      <trkpt lat="45.32673" lon="5.70212">
        <ele>1359.4</ele>
        <time>2010-12-04T14:18:28Z</time>
      </trkpt>
      <trkpt lat="45.32673" lon="5.7021">
        <ele>1359.2</ele>
        <time>2010-12-04T14:18:29Z</time>
      </trkpt>
      <trkpt lat="45.32673" lon="5.70205">
        <ele>1359.2</ele>
        <time>2010-12-04T14:18:32Z</time>
      </trkpt>
      <trkpt lat="45.32673" lon="5.70199">
        <ele>1359</ele>
        <time>2010-12-04T14:18:37Z</time>
      </trkpt>
      <trkpt lat="45.32672" lon="5.70198">
        <ele>1359</ele>
        <time>2010-12-04T14:18:38Z</time>
      </trkpt>
      <trkpt lat="45.32672" lon="5.70196">
        <ele>1359</ele>
        <time>2010-12-04T14:18:40Z</time>
      </trkpt>
      <trkpt lat="45.32672" lon="5.70195">
        <ele>1359</ele>
        <time>2010-12-04T14:18:41Z</time>
      </trkpt>
      <trkpt lat="45.32672" lon="5.70194">
        <ele>1359</ele>
        <time>2010-12-04T14:18:42Z</time>
      </trkpt>
      <trkpt lat="45.32673" lon="5.70193">
        <ele>1359</ele>
        <time>2010-12-04T14:18:43Z</time>
      </trkpt>
      <trkpt lat="45.32674" lon="5.70192">
        <ele>1359</ele>
        <time>2010-12-04T14:18:47Z</time>
      </trkpt>
      <trkpt lat="45.32676" lon="5.7019">
        <ele>1359.8</ele>
        <time>2010-12-04T14:18:53Z</time>
      </trkpt>
      <trkpt lat="45.32678" lon="5.70191">
        <ele>1360.2</ele>
        <time>2010-12-04T14:18:57Z</time>
      </trkpt>
      <trkpt lat="45.32681" lon="5.70195">
        <ele>1360.2</ele>
        <time>2010-12-04T14:19:01Z</time>
      </trkpt>
      <trkpt lat="45.32681" lon="5.70196">
        <ele>1360.2</ele>
        <time>2010-12-04T14:19:02Z</time>
      </trkpt>
      <trkpt lat="45.32683" lon="5.70199">
        <ele>1360</ele>
        <time>2010-12-04T14:19:04Z</time>
      </trkpt>
      <trkpt lat="45.32684" lon="5.70203">
        <ele>1360</ele>
        <time>2010-12-04T14:19:07Z</time>
      </trkpt>
      <trkpt lat="45.32685" lon="5.70206">
        <ele>1359.8</ele>
        <time>2010-12-04T14:19:10Z</time>
      </trkpt>
      <trkpt lat="45.32686" lon="5.70207">
        <ele>1359.8</ele>
        <time>2010-12-04T14:19:12Z</time>
      </trkpt>
      <trkpt lat="45.32687" lon="5.70207">
        <ele>1359.6</ele>
        <time>2010-12-04T14:19:18Z</time>
      </trkpt>
      <trkpt lat="45.3269" lon="5.70209">
        <ele>1359.4</ele>
        <time>2010-12-04T14:19:23Z</time>
      </trkpt>
      <trkpt lat="45.32694" lon="5.70212">
        <ele>1359.4</ele>
        <time>2010-12-04T14:19:29Z</time>
      </trkpt>
      <trkpt lat="45.32696" lon="5.70212">
        <ele>1359.6</ele>
        <time>2010-12-04T14:19:34Z</time>
      </trkpt>
      <trkpt lat="45.32697" lon="5.70214">
        <ele>1359.8</ele>
        <time>2010-12-04T14:19:37Z</time>
      </trkpt>
      <trkpt lat="45.32697" lon="5.70215">
        <ele>1359.8</ele>
        <time>2010-12-04T14:19:39Z</time>
      </trkpt>
      <trkpt lat="45.32699" lon="5.70216">
        <ele>1359.8</ele>
        <time>2010-12-04T14:19:44Z</time>
      </trkpt>
      <trkpt lat="45.32703" lon="5.70216">
        <ele>1360.2</ele>
        <time>2010-12-04T14:19:48Z</time>
      </trkpt>
      <trkpt lat="45.32703" lon="5.70217">
        <ele>1360.2</ele>
        <time>2010-12-04T14:19:49Z</time>
      </trkpt>
      <trkpt lat="45.32704" lon="5.70218">
        <ele>1360.4</ele>
        <time>2010-12-04T14:19:51Z</time>
      </trkpt>
      <trkpt lat="45.32705" lon="5.70218">
        <ele>1360.8</ele>
        <time>2010-12-04T14:19:53Z</time>
      </trkpt>
      <trkpt lat="45.32708" lon="5.70218">
        <ele>1361.4</ele>
        <time>2010-12-04T14:19:58Z</time>
      </trkpt>
      <trkpt lat="45.3271" lon="5.70218">
        <ele>1362.4</ele>
        <time>2010-12-04T14:20:04Z</time>
      </trkpt>
      <trkpt lat="45.32714" lon="5.7022">
        <ele>1363</ele>
        <time>2010-12-04T14:20:10Z</time>
      </trkpt>
      <trkpt lat="45.32715" lon="5.7022">
        <ele>1363.2</ele>
        <time>2010-12-04T14:20:11Z</time>
      </trkpt>
      <trkpt lat="45.32718" lon="5.70222">
        <ele>1364</ele>
        <time>2010-12-04T14:20:17Z</time>
      </trkpt>
      <trkpt lat="45.3272" lon="5.70221">
        <ele>1364.8</ele>
        <time>2010-12-04T14:20:22Z</time>
      </trkpt>
      <trkpt lat="45.32722" lon="5.70223">
        <ele>1365.2</ele>
        <time>2010-12-04T14:20:27Z</time>
      </trkpt>
      <trkpt lat="45.32722" lon="5.70224">
        <ele>1365.4</ele>
        <time>2010-12-04T14:20:28Z</time>
      </trkpt>
      <trkpt lat="45.32724" lon="5.70222">
        <ele>1366.4</ele>
        <time>2010-12-04T14:20:35Z</time>
      </trkpt>
      <trkpt lat="45.32727" lon="5.70223">
        <ele>1366.8</ele>
        <time>2010-12-04T14:20:40Z</time>
      </trkpt>
      <trkpt lat="45.3273" lon="5.70224">
        <ele>1367.4</ele>
        <time>2010-12-04T14:20:45Z</time>
      </trkpt>
      <trkpt lat="45.32731" lon="5.70224">
        <ele>1367.8</ele>
        <time>2010-12-04T14:20:47Z</time>
      </trkpt>
      <trkpt lat="45.32732" lon="5.70225">
        <ele>1368.2</ele>
        <time>2010-12-04T14:20:50Z</time>
      </trkpt>
      <trkpt lat="45.32736" lon="5.70224">
        <ele>1368.8</ele>
        <time>2010-12-04T14:20:56Z</time>
      </trkpt>
      <trkpt lat="45.32737" lon="5.70222">
        <ele>1369.4</ele>
        <time>2010-12-04T14:21:01Z</time>
      </trkpt>
      <trkpt lat="45.3274" lon="5.70222">
        <ele>1370</ele>
        <time>2010-12-04T14:21:06Z</time>
      </trkpt>
      <trkpt lat="45.32744" lon="5.70223">
        <ele>1370.2</ele>
        <time>2010-12-04T14:21:12Z</time>
      </trkpt>
      <trkpt lat="45.32746" lon="5.70222">
        <ele>1370.6</ele>
        <time>2010-12-04T14:21:17Z</time>
      </trkpt>
      <trkpt lat="45.32748" lon="5.7022">
        <ele>1371</ele>
        <time>2010-12-04T14:21:21Z</time>
      </trkpt>
      <trkpt lat="45.32749" lon="5.70219">
        <ele>1371.2</ele>
        <time>2010-12-04T14:21:22Z</time>
      </trkpt>
      <trkpt lat="45.32751" lon="5.70217">
        <ele>1372</ele>
        <time>2010-12-04T14:21:27Z</time>
      </trkpt>
      <trkpt lat="45.32753" lon="5.70216">
        <ele>1372.6</ele>
        <time>2010-12-04T14:21:31Z</time>
      </trkpt>
      <trkpt lat="45.32756" lon="5.70215">
        <ele>1373.4</ele>
        <time>2010-12-04T14:21:36Z</time>
      </trkpt>
      <trkpt lat="45.32758" lon="5.70214">
        <ele>1374.2</ele>
        <time>2010-12-04T14:21:41Z</time>
      </trkpt>
      <trkpt lat="45.32762" lon="5.70213">
        <ele>1375.6</ele>
        <time>2010-12-04T14:21:49Z</time>
      </trkpt>
      <trkpt lat="45.32764" lon="5.70213">
        <ele>1376.4</ele>
        <time>2010-12-04T14:21:54Z</time>
      </trkpt>
      <trkpt lat="45.32766" lon="5.70214">
        <ele>1376.6</ele>
        <time>2010-12-04T14:21:56Z</time>
      </trkpt>
      <trkpt lat="45.32769" lon="5.70215">
        <ele>1377.2</ele>
        <time>2010-12-04T14:22:01Z</time>
      </trkpt>
      <trkpt lat="45.32772" lon="5.70214">
        <ele>1377.8</ele>
        <time>2010-12-04T14:22:07Z</time>
      </trkpt>
      <trkpt lat="45.32775" lon="5.70213">
        <ele>1378.6</ele>
        <time>2010-12-04T14:22:12Z</time>
      </trkpt>
      <trkpt lat="45.32778" lon="5.70214">
        <ele>1379</ele>
        <time>2010-12-04T14:22:16Z</time>
      </trkpt>
      <trkpt lat="45.32781" lon="5.70216">
        <ele>1380</ele>
        <time>2010-12-04T14:22:21Z</time>
      </trkpt>
      <trkpt lat="45.32783" lon="5.70216">
        <ele>1380.6</ele>
        <time>2010-12-04T14:22:25Z</time>
      </trkpt>
      <trkpt lat="45.32784" lon="5.70216">
        <ele>1380.8</ele>
        <time>2010-12-04T14:22:26Z</time>
      </trkpt>
      <trkpt lat="45.32786" lon="5.70217">
        <ele>1381.8</ele>
        <time>2010-12-04T14:22:30Z</time>
      </trkpt>
      <trkpt lat="45.32788" lon="5.70219">
        <ele>1383</ele>
        <time>2010-12-04T14:22:36Z</time>
      </trkpt>
      <trkpt lat="45.32791" lon="5.7022">
        <ele>1384</ele>
        <time>2010-12-04T14:22:42Z</time>
      </trkpt>
      <trkpt lat="45.32795" lon="5.70223">
        <ele>1384.8</ele>
        <time>2010-12-04T14:22:47Z</time>
      </trkpt>
      <trkpt lat="45.32797" lon="5.70223">
        <ele>1385.4</ele>
        <time>2010-12-04T14:22:52Z</time>
      </trkpt>
      <trkpt lat="45.328" lon="5.70225">
        <ele>1386</ele>
        <time>2010-12-04T14:22:58Z</time>
      </trkpt>
      <trkpt lat="45.32801" lon="5.70225">
        <ele>1386.4</ele>
        <time>2010-12-04T14:23:00Z</time>
      </trkpt>
      <trkpt lat="45.32801" lon="5.70225">
        <ele>1386.4</ele>
        <time>2010-12-04T14:23:02Z</time>
      </trkpt>
      <trkpt lat="45.32804" lon="5.70227">
        <ele>1387</ele>
        <time>2010-12-04T14:23:07Z</time>
      </trkpt>
      <trkpt lat="45.32805" lon="5.70225">
        <ele>1387.8</ele>
        <time>2010-12-04T14:23:12Z</time>
      </trkpt>
      <trkpt lat="45.32807" lon="5.70224">
        <ele>1388.4</ele>
        <time>2010-12-04T14:23:17Z</time>
      </trkpt>
      <trkpt lat="45.32809" lon="5.70223">
        <ele>1389</ele>
        <time>2010-12-04T14:23:22Z</time>
      </trkpt>
      <trkpt lat="45.3281" lon="5.7022">
        <ele>1390.4</ele>
        <time>2010-12-04T14:23:34Z</time>
      </trkpt>
      <trkpt lat="45.3281" lon="5.70216">
        <ele>1391.2</ele>
        <time>2010-12-04T14:23:39Z</time>
      </trkpt>
      <trkpt lat="45.32811" lon="5.7021">
        <ele>1392.2</ele>
        <time>2010-12-04T14:23:45Z</time>
      </trkpt>
      <trkpt lat="45.32812" lon="5.70207">
        <ele>1393.2</ele>
        <time>2010-12-04T14:23:50Z</time>
      </trkpt>
      <trkpt lat="45.32812" lon="5.70201">
        <ele>1394</ele>
        <time>2010-12-04T14:23:55Z</time>
      </trkpt>
      <trkpt lat="45.32812" lon="5.70196">
        <ele>1395.2</ele>
        <time>2010-12-04T14:24:01Z</time>
      </trkpt>
      <trkpt lat="45.32811" lon="5.70191">
        <ele>1396.2</ele>
        <time>2010-12-04T14:24:07Z</time>
      </trkpt>
      <trkpt lat="45.32811" lon="5.70187">
        <ele>1397.8</ele>
        <time>2010-12-04T14:24:13Z</time>
      </trkpt>
      <trkpt lat="45.3281" lon="5.70186">
        <ele>1398</ele>
        <time>2010-12-04T14:24:15Z</time>
      </trkpt>
      <trkpt lat="45.32811" lon="5.70184">
        <ele>1398.6</ele>
        <time>2010-12-04T14:24:19Z</time>
      </trkpt>
      <trkpt lat="45.32811" lon="5.7018">
        <ele>1399.2</ele>
        <time>2010-12-04T14:24:23Z</time>
      </trkpt>
      <trkpt lat="45.32811" lon="5.70178">
        <ele>1399.2</ele>
        <time>2010-12-04T14:24:24Z</time>
      </trkpt>
      <trkpt lat="45.32811" lon="5.70172">
        <ele>1400</ele>
        <time>2010-12-04T14:24:31Z</time>
      </trkpt>
      <trkpt lat="45.32813" lon="5.70167">
        <ele>1400.4</ele>
        <time>2010-12-04T14:24:37Z</time>
      </trkpt>
      <trkpt lat="45.32813" lon="5.70162">
        <ele>1400.6</ele>
        <time>2010-12-04T14:24:42Z</time>
      </trkpt>
      <trkpt lat="45.32814" lon="5.70161">
        <ele>1400.6</ele>
        <time>2010-12-04T14:24:43Z</time>
      </trkpt>
      <trkpt lat="45.32815" lon="5.70157">
        <ele>1400.8</ele>
        <time>2010-12-04T14:24:48Z</time>
      </trkpt>
      <trkpt lat="45.32817" lon="5.70155">
        <ele>1401.6</ele>
        <time>2010-12-04T14:24:53Z</time>
      </trkpt>
      <trkpt lat="45.32818" lon="5.70149">
        <ele>1402.6</ele>
        <time>2010-12-04T14:24:59Z</time>
      </trkpt>
      <trkpt lat="45.32818" lon="5.70145">
        <ele>1403.4</ele>
        <time>2010-12-04T14:25:04Z</time>
      </trkpt>
      <trkpt lat="45.32819" lon="5.7014">
        <ele>1404.2</ele>
        <time>2010-12-04T14:25:09Z</time>
      </trkpt>
      <trkpt lat="45.32821" lon="5.70138">
        <ele>1404.6</ele>
        <time>2010-12-04T14:25:13Z</time>
      </trkpt>
      <trkpt lat="45.32822" lon="5.70137">
        <ele>1404.8</ele>
        <time>2010-12-04T14:25:15Z</time>
      </trkpt>
      <trkpt lat="45.32824" lon="5.70133">
        <ele>1405</ele>
        <time>2010-12-04T14:25:20Z</time>
      </trkpt>
      <trkpt lat="45.32825" lon="5.7013">
        <ele>1405.6</ele>
        <time>2010-12-04T14:25:25Z</time>
      </trkpt>
      <trkpt lat="45.32825" lon="5.70128">
        <ele>1406</ele>
        <time>2010-12-04T14:25:29Z</time>
      </trkpt>
      <trkpt lat="45.32826" lon="5.70125">
        <ele>1406.2</ele>
        <time>2010-12-04T14:25:33Z</time>
      </trkpt>
      <trkpt lat="45.32827" lon="5.70122">
        <ele>1406.6</ele>
        <time>2010-12-04T14:25:37Z</time>
      </trkpt>
      <trkpt lat="45.32827" lon="5.70117">
        <ele>1407.4</ele>
        <time>2010-12-04T14:25:43Z</time>
      </trkpt>
      <trkpt lat="45.32828" lon="5.70115">
        <ele>1408.2</ele>
        <time>2010-12-04T14:25:47Z</time>
      </trkpt>
      <trkpt lat="45.32828" lon="5.70114">
        <ele>1408.2</ele>
        <time>2010-12-04T14:25:48Z</time>
      </trkpt>
      <trkpt lat="45.3283" lon="5.7011">
        <ele>1409</ele>
        <time>2010-12-04T14:25:53Z</time>
      </trkpt>
      <trkpt lat="45.32831" lon="5.70107">
        <ele>1409.8</ele>
        <time>2010-12-04T14:25:58Z</time>
      </trkpt>
      <trkpt lat="45.32833" lon="5.70103">
        <ele>1410.6</ele>
        <time>2010-12-04T14:26:04Z</time>
      </trkpt>
      <trkpt lat="45.32834" lon="5.70097">
        <ele>1411.6</ele>
        <time>2010-12-04T14:26:11Z</time>
      </trkpt>
      <trkpt lat="45.32836" lon="5.70094">
        <ele>1412.4</ele>
        <time>2010-12-04T14:26:16Z</time>
      </trkpt>
      <trkpt lat="45.32837" lon="5.70093">
        <ele>1412.8</ele>
        <time>2010-12-04T14:26:18Z</time>
      </trkpt>
      <trkpt lat="45.32837" lon="5.70092">
        <ele>1413</ele>
        <time>2010-12-04T14:26:20Z</time>
      </trkpt>
      <trkpt lat="45.32839" lon="5.7009">
        <ele>1413.6</ele>
        <time>2010-12-04T14:26:24Z</time>
      </trkpt>
      <trkpt lat="45.32842" lon="5.70089">
        <ele>1414.2</ele>
        <time>2010-12-04T14:26:29Z</time>
      </trkpt>
      <trkpt lat="45.32845" lon="5.70093">
        <ele>1414.6</ele>
        <time>2010-12-04T14:26:35Z</time>
      </trkpt>
      <trkpt lat="45.32847" lon="5.70096">
        <ele>1414.8</ele>
        <time>2010-12-04T14:26:40Z</time>
      </trkpt>
      <trkpt lat="45.32848" lon="5.70098">
        <ele>1414.8</ele>
        <time>2010-12-04T14:26:43Z</time>
      </trkpt>
      <trkpt lat="45.3285" lon="5.70101">
        <ele>1414.8</ele>
        <time>2010-12-04T14:26:47Z</time>
      </trkpt>
      <trkpt lat="45.32853" lon="5.70106">
        <ele>1415</ele>
        <time>2010-12-04T14:26:54Z</time>
      </trkpt>
      <trkpt lat="45.32855" lon="5.70111">
        <ele>1415.4</ele>
        <time>2010-12-04T14:27:01Z</time>
      </trkpt>
      <trkpt lat="45.32858" lon="5.70114">
        <ele>1415.4</ele>
        <time>2010-12-04T14:27:06Z</time>
      </trkpt>
      <trkpt lat="45.3286" lon="5.7012">
        <ele>1415.6</ele>
        <time>2010-12-04T14:27:12Z</time>
      </trkpt>
      <trkpt lat="45.3286" lon="5.70121">
        <ele>1415.8</ele>
        <time>2010-12-04T14:27:13Z</time>
      </trkpt>
      <trkpt lat="45.32861" lon="5.70122">
        <ele>1415.8</ele>
        <time>2010-12-04T14:27:16Z</time>
      </trkpt>
      <trkpt lat="45.32862" lon="5.70125">
        <ele>1416.2</ele>
        <time>2010-12-04T14:27:20Z</time>
      </trkpt>
      <trkpt lat="45.32862" lon="5.70128">
        <ele>1416.4</ele>
        <time>2010-12-04T14:27:24Z</time>
      </trkpt>
      <trkpt lat="45.32863" lon="5.7013">
        <ele>1417</ele>
        <time>2010-12-04T14:27:28Z</time>
      </trkpt>
      <trkpt lat="45.32864" lon="5.70132">
        <ele>1417.8</ele>
        <time>2010-12-04T14:27:33Z</time>
      </trkpt>
      <trkpt lat="45.32865" lon="5.70135">
        <ele>1418.6</ele>
        <time>2010-12-04T14:27:38Z</time>
      </trkpt>
      <trkpt lat="45.32868" lon="5.7014">
        <ele>1419.6</ele>
        <time>2010-12-04T14:27:45Z</time>
      </trkpt>
      <trkpt lat="45.32869" lon="5.70142">
        <ele>1420</ele>
        <time>2010-12-04T14:27:49Z</time>
      </trkpt>
      <trkpt lat="45.3287" lon="5.70144">
        <ele>1420.6</ele>
        <time>2010-12-04T14:27:53Z</time>
      </trkpt>
      <trkpt lat="45.32874" lon="5.70144">
        <ele>1421.2</ele>
        <time>2010-12-04T14:27:58Z</time>
      </trkpt>
      <trkpt lat="45.32876" lon="5.70144">
        <ele>1422.2</ele>
        <time>2010-12-04T14:28:02Z</time>
      </trkpt>
      <trkpt lat="45.32878" lon="5.70142">
        <ele>1423</ele>
        <time>2010-12-04T14:28:07Z</time>
      </trkpt>
      <trkpt lat="45.32879" lon="5.7014">
        <ele>1424</ele>
        <time>2010-12-04T14:28:11Z</time>
      </trkpt>
      <trkpt lat="45.32881" lon="5.70139">
        <ele>1424.8</ele>
        <time>2010-12-04T14:28:16Z</time>
      </trkpt>
      <trkpt lat="45.32882" lon="5.70136">
        <ele>1425.8</ele>
        <time>2010-12-04T14:28:21Z</time>
      </trkpt>
      <trkpt lat="45.32885" lon="5.70135">
        <ele>1426.6</ele>
        <time>2010-12-04T14:28:26Z</time>
      </trkpt>
      <trkpt lat="45.32886" lon="5.70133">
        <ele>1427.4</ele>
        <time>2010-12-04T14:28:30Z</time>
      </trkpt>
      <trkpt lat="45.32887" lon="5.70133">
        <ele>1429.4</ele>
        <time>2010-12-04T14:28:40Z</time>
      </trkpt>
      <trkpt lat="45.32887" lon="5.70129">
        <ele>1430.8</ele>
        <time>2010-12-04T14:28:46Z</time>
      </trkpt>
      <trkpt lat="45.32888" lon="5.70126">
        <ele>1432</ele>
        <time>2010-12-04T14:28:54Z</time>
      </trkpt>
      <trkpt lat="45.32889" lon="5.70123">
        <ele>1432.8</ele>
        <time>2010-12-04T14:28:59Z</time>
      </trkpt>
      <trkpt lat="45.32889" lon="5.70118">
        <ele>1433.4</ele>
        <time>2010-12-04T14:29:04Z</time>
      </trkpt>
      <trkpt lat="45.3289" lon="5.70114">
        <ele>1433.8</ele>
        <time>2010-12-04T14:29:09Z</time>
      </trkpt>
      <trkpt lat="45.3289" lon="5.70111">
        <ele>1434.2</ele>
        <time>2010-12-04T14:29:12Z</time>
      </trkpt>
      <trkpt lat="45.3289" lon="5.70107">
        <ele>1434.8</ele>
        <time>2010-12-04T14:29:18Z</time>
      </trkpt>
      <trkpt lat="45.3289" lon="5.70102">
        <ele>1435.4</ele>
        <time>2010-12-04T14:29:23Z</time>
      </trkpt>
      <trkpt lat="45.32889" lon="5.70098">
        <ele>1436</ele>
        <time>2010-12-04T14:29:28Z</time>
      </trkpt>
      <trkpt lat="45.32888" lon="5.70094">
        <ele>1436.2</ele>
        <time>2010-12-04T14:29:32Z</time>
      </trkpt>
      <trkpt lat="45.32888" lon="5.70088">
        <ele>1436.4</ele>
        <time>2010-12-04T14:29:37Z</time>
      </trkpt>
      <trkpt lat="45.32888" lon="5.70086">
        <ele>1436.4</ele>
        <time>2010-12-04T14:29:39Z</time>
      </trkpt>
      <trkpt lat="45.32888" lon="5.70079">
        <ele>1437</ele>
        <time>2010-12-04T14:29:46Z</time>
      </trkpt>
      <trkpt lat="45.32888" lon="5.70075">
        <ele>1437.2</ele>
        <time>2010-12-04T14:29:51Z</time>
      </trkpt>
      <trkpt lat="45.32887" lon="5.7007">
        <ele>1437.8</ele>
        <time>2010-12-04T14:29:56Z</time>
      </trkpt>
      <trkpt lat="45.32886" lon="5.70062">
        <ele>1438.6</ele>
        <time>2010-12-04T14:30:03Z</time>
      </trkpt>
      <trkpt lat="45.32885" lon="5.70054">
        <ele>1439.4</ele>
        <time>2010-12-04T14:30:11Z</time>
      </trkpt>
      <trkpt lat="45.32885" lon="5.70051">
        <ele>1440</ele>
        <time>2010-12-04T14:30:16Z</time>
      </trkpt>
      <trkpt lat="45.32884" lon="5.70047">
        <ele>1441</ele>
        <time>2010-12-04T14:30:21Z</time>
      </trkpt>
      <trkpt lat="45.32884" lon="5.70044">
        <ele>1442</ele>
        <time>2010-12-04T14:30:26Z</time>
      </trkpt>
      <trkpt lat="45.32883" lon="5.70041">
        <ele>1442.8</ele>
        <time>2010-12-04T14:30:30Z</time>
      </trkpt>
      <trkpt lat="45.32882" lon="5.70038">
        <ele>1443.4</ele>
        <time>2010-12-04T14:30:33Z</time>
      </trkpt>
      <trkpt lat="45.32882" lon="5.70037">
        <ele>1443.4</ele>
        <time>2010-12-04T14:30:34Z</time>
      </trkpt>
      <trkpt lat="45.32882" lon="5.70035">
        <ele>1443.6</ele>
        <time>2010-12-04T14:30:35Z</time>
      </trkpt>
      <trkpt lat="45.32882" lon="5.70031">
        <ele>1444.4</ele>
        <time>2010-12-04T14:30:39Z</time>
      </trkpt>
      <trkpt lat="45.32883" lon="5.70026">
        <ele>1445</ele>
        <time>2010-12-04T14:30:45Z</time>
      </trkpt>
      <trkpt lat="45.32885" lon="5.70021">
        <ele>1445.6</ele>
        <time>2010-12-04T14:30:51Z</time>
      </trkpt>
      <trkpt lat="45.32885" lon="5.70017">
        <ele>1446</ele>
        <time>2010-12-04T14:30:56Z</time>
      </trkpt>
      <trkpt lat="45.32885" lon="5.70015">
        <ele>1446.4</ele>
        <time>2010-12-04T14:31:01Z</time>
      </trkpt>
      <trkpt lat="45.32886" lon="5.70013">
        <ele>1446.8</ele>
        <time>2010-12-04T14:31:04Z</time>
      </trkpt>
      <trkpt lat="45.32885" lon="5.70011">
        <ele>1447.4</ele>
        <time>2010-12-04T14:31:06Z</time>
      </trkpt>
      <trkpt lat="45.32885" lon="5.70007">
        <ele>1448.4</ele>
        <time>2010-12-04T14:31:12Z</time>
      </trkpt>
      <trkpt lat="45.32885" lon="5.70002">
        <ele>1449.4</ele>
        <time>2010-12-04T14:31:17Z</time>
      </trkpt>
      <trkpt lat="45.32885" lon="5.69998">
        <ele>1449.8</ele>
        <time>2010-12-04T14:31:21Z</time>
      </trkpt>
      <trkpt lat="45.32885" lon="5.69994">
        <ele>1450.4</ele>
        <time>2010-12-04T14:31:26Z</time>
      </trkpt>
      <trkpt lat="45.32886" lon="5.69989">
        <ele>1450.4</ele>
        <time>2010-12-04T14:31:31Z</time>
      </trkpt>
      <trkpt lat="45.32887" lon="5.69986">
        <ele>1450.6</ele>
        <time>2010-12-04T14:31:33Z</time>
      </trkpt>
      <trkpt lat="45.32887" lon="5.69984">
        <ele>1451.2</ele>
        <time>2010-12-04T14:31:42Z</time>
      </trkpt>
      <trkpt lat="45.3289" lon="5.69978">
        <ele>1451.6</ele>
        <time>2010-12-04T14:31:48Z</time>
      </trkpt>
      <trkpt lat="45.32893" lon="5.69971">
        <ele>1451.4</ele>
        <time>2010-12-04T14:31:55Z</time>
      </trkpt>
      <trkpt lat="45.32895" lon="5.69966">
        <ele>1451.4</ele>
        <time>2010-12-04T14:31:59Z</time>
      </trkpt>
      <trkpt lat="45.32895" lon="5.69965">
        <ele>1451.4</ele>
        <time>2010-12-04T14:32:00Z</time>
      </trkpt>
      <trkpt lat="45.32896" lon="5.69964">
        <ele>1451.4</ele>
        <time>2010-12-04T14:32:02Z</time>
      </trkpt>
      <trkpt lat="45.32899" lon="5.69957">
        <ele>1451.6</ele>
        <time>2010-12-04T14:32:09Z</time>
      </trkpt>
      <trkpt lat="45.32903" lon="5.69951">
        <ele>1452</ele>
        <time>2010-12-04T14:32:15Z</time>
      </trkpt>
      <trkpt lat="45.32906" lon="5.69946">
        <ele>1451.8</ele>
        <time>2010-12-04T14:32:20Z</time>
      </trkpt>
      <trkpt lat="45.32907" lon="5.69944">
        <ele>1451.8</ele>
        <time>2010-12-04T14:32:22Z</time>
      </trkpt>
      <trkpt lat="45.32907" lon="5.69942">
        <ele>1451.8</ele>
        <time>2010-12-04T14:32:24Z</time>
      </trkpt>
      <trkpt lat="45.32908" lon="5.69936">
        <ele>1452</ele>
        <time>2010-12-04T14:32:29Z</time>
      </trkpt>
      <trkpt lat="45.32911" lon="5.6993">
        <ele>1452</ele>
        <time>2010-12-04T14:32:35Z</time>
      </trkpt>
      <trkpt lat="45.32914" lon="5.69925">
        <ele>1452.2</ele>
        <time>2010-12-04T14:32:42Z</time>
      </trkpt>
      <trkpt lat="45.32914" lon="5.69923">
        <ele>1452.6</ele>
        <time>2010-12-04T14:32:45Z</time>
      </trkpt>
      <trkpt lat="45.32915" lon="5.69921">
        <ele>1452.6</ele>
        <time>2010-12-04T14:32:47Z</time>
      </trkpt>
      <trkpt lat="45.32915" lon="5.69916">
        <ele>1453.4</ele>
        <time>2010-12-04T14:32:53Z</time>
      </trkpt>
      <trkpt lat="45.32916" lon="5.69911">
        <ele>1453.8</ele>
        <time>2010-12-04T14:32:58Z</time>
      </trkpt>
      <trkpt lat="45.32917" lon="5.69907">
        <ele>1454.2</ele>
        <time>2010-12-04T14:33:02Z</time>
      </trkpt>
      <trkpt lat="45.32919" lon="5.69901">
        <ele>1454.6</ele>
        <time>2010-12-04T14:33:08Z</time>
      </trkpt>
      <trkpt lat="45.3292" lon="5.69899">
        <ele>1454.8</ele>
        <time>2010-12-04T14:33:10Z</time>
      </trkpt>
      <trkpt lat="45.3292" lon="5.69898">
        <ele>1455</ele>
        <time>2010-12-04T14:33:12Z</time>
      </trkpt>
      <trkpt lat="45.32921" lon="5.69895">
        <ele>1456.4</ele>
        <time>2010-12-04T14:33:23Z</time>
      </trkpt>
      <trkpt lat="45.32921" lon="5.69893">
        <ele>1456.8</ele>
        <time>2010-12-04T14:33:27Z</time>
      </trkpt>
      <trkpt lat="45.3292" lon="5.69891">
        <ele>1457.8</ele>
        <time>2010-12-04T14:33:32Z</time>
      </trkpt>
      <trkpt lat="45.32923" lon="5.69893">
        <ele>1459.4</ele>
        <time>2010-12-04T14:33:40Z</time>
      </trkpt>
      <trkpt lat="45.32926" lon="5.69892">
        <ele>1460.2</ele>
        <time>2010-12-04T14:33:45Z</time>
      </trkpt>
      <trkpt lat="45.3293" lon="5.69891">
        <ele>1465.8</ele>
        <time>2010-12-04T14:34:16Z</time>
      </trkpt>
      <trkpt lat="45.3293" lon="5.69891">
        <ele>1465.8</ele>
        <time>2010-12-04T14:34:17Z</time>
      </trkpt>
      <trkpt lat="45.32931" lon="5.69888">
        <ele>1466.4</ele>
        <time>2010-12-04T14:34:22Z</time>
      </trkpt>
      <trkpt lat="45.32932" lon="5.69886">
        <ele>1466.6</ele>
        <time>2010-12-04T14:34:26Z</time>
      </trkpt>
      <trkpt lat="45.32931" lon="5.69885">
        <ele>1466.6</ele>
        <time>2010-12-04T14:34:27Z</time>
      </trkpt>
      <trkpt lat="45.32929" lon="5.69886">
        <ele>1469.4</ele>
        <time>2010-12-04T14:34:37Z</time>
      </trkpt>
      <trkpt lat="45.32931" lon="5.69886">
        <ele>1470.2</ele>
        <time>2010-12-04T14:34:40Z</time>
      </trkpt>
      <trkpt lat="45.32934" lon="5.69883">
        <ele>1471.2</ele>
        <time>2010-12-04T14:34:45Z</time>
      </trkpt>
      <trkpt lat="45.32937" lon="5.69882">
        <ele>1472</ele>
        <time>2010-12-04T14:34:53Z</time>
      </trkpt>
      <trkpt lat="45.32939" lon="5.69881">
        <ele>1472.2</ele>
        <time>2010-12-04T14:34:58Z</time>
      </trkpt>
      <trkpt lat="45.3294" lon="5.6988">
        <ele>1472.6</ele>
        <time>2010-12-04T14:35:02Z</time>
      </trkpt>
      <trkpt lat="45.3294" lon="5.69881">
        <ele>1473</ele>
        <time>2010-12-04T14:35:05Z</time>
      </trkpt>
      <trkpt lat="45.32942" lon="5.69883">
        <ele>1472.8</ele>
        <time>2010-12-04T14:35:09Z</time>
      </trkpt>
      <trkpt lat="45.32943" lon="5.69883">
        <ele>1472.8</ele>
        <time>2010-12-04T14:35:14Z</time>
      </trkpt>
      <trkpt lat="45.32945" lon="5.6988">
        <ele>1472.8</ele>
        <time>2010-12-04T14:35:21Z</time>
      </trkpt>
      <trkpt lat="45.32947" lon="5.69879">
        <ele>1473.2</ele>
        <time>2010-12-04T14:35:25Z</time>
      </trkpt>
      <trkpt lat="45.32948" lon="5.69878">
        <ele>1473.4</ele>
        <time>2010-12-04T14:35:29Z</time>
      </trkpt>
      <trkpt lat="45.3295" lon="5.69876">
        <ele>1474</ele>
        <time>2010-12-04T14:35:35Z</time>
      </trkpt>
      <trkpt lat="45.32952" lon="5.69875">
        <ele>1474.8</ele>
        <time>2010-12-04T14:35:41Z</time>
      </trkpt>
      <trkpt lat="45.32954" lon="5.69876">
        <ele>1475</ele>
        <time>2010-12-04T14:35:45Z</time>
      </trkpt>
      <trkpt lat="45.32954" lon="5.69875">
        <ele>1475.8</ele>
        <time>2010-12-04T14:35:49Z</time>
      </trkpt>
      <trkpt lat="45.32959" lon="5.69878">
        <ele>1479.8</ele>
        <time>2010-12-04T14:36:17Z</time>
      </trkpt>
      <trkpt lat="45.32962" lon="5.69874">
        <ele>1481.4</ele>
        <time>2010-12-04T14:36:42Z</time>
      </trkpt>
      <trkpt lat="45.32962" lon="5.6987">
        <ele>1481.8</ele>
        <time>2010-12-04T14:36:48Z</time>
      </trkpt>
      <trkpt lat="45.32965" lon="5.69868">
        <ele>1482.2</ele>
        <time>2010-12-04T14:36:53Z</time>
      </trkpt>
      <trkpt lat="45.32964" lon="5.69867">
        <ele>1482.8</ele>
        <time>2010-12-04T14:36:56Z</time>
      </trkpt>
      <trkpt lat="45.32964" lon="5.69867">
        <ele>1482.8</ele>
        <time>2010-12-04T14:36:57Z</time>
      </trkpt>
      <trkpt lat="45.32965" lon="5.69868">
        <ele>1484</ele>
        <time>2010-12-04T14:37:03Z</time>
      </trkpt>
      <trkpt lat="45.32968" lon="5.69869">
        <ele>1484.8</ele>
        <time>2010-12-04T14:37:11Z</time>
      </trkpt>
      <trkpt lat="45.3297" lon="5.69869">
        <ele>1485</ele>
        <time>2010-12-04T14:37:16Z</time>
      </trkpt>
      <trkpt lat="45.32973" lon="5.69873">
        <ele>1485.6</ele>
        <time>2010-12-04T14:37:24Z</time>
      </trkpt>
      <trkpt lat="45.32975" lon="5.69871">
        <ele>1486.4</ele>
        <time>2010-12-04T14:37:33Z</time>
      </trkpt>
      <trkpt lat="45.32977" lon="5.69869">
        <ele>1486.4</ele>
        <time>2010-12-04T14:37:38Z</time>
      </trkpt>
      <trkpt lat="45.32977" lon="5.69868">
        <ele>1486.6</ele>
        <time>2010-12-04T14:37:41Z</time>
      </trkpt>
      <trkpt lat="45.32977" lon="5.69866">
        <ele>1486.6</ele>
        <time>2010-12-04T14:37:44Z</time>
      </trkpt>
      <trkpt lat="45.32978" lon="5.69862">
        <ele>1486.6</ele>
        <time>2010-12-04T14:37:50Z</time>
      </trkpt>
      <trkpt lat="45.32978" lon="5.69862">
        <ele>1487.2</ele>
        <time>2010-12-04T14:37:57Z</time>
      </trkpt>
      <trkpt lat="45.3298" lon="5.69865">
        <ele>1488.6</ele>
        <time>2010-12-04T14:38:06Z</time>
      </trkpt>
      <trkpt lat="45.32981" lon="5.69867">
        <ele>1489.2</ele>
        <time>2010-12-04T14:38:10Z</time>
      </trkpt>
      <trkpt lat="45.32982" lon="5.69869">
        <ele>1489.4</ele>
        <time>2010-12-04T14:38:11Z</time>
      </trkpt>
      <trkpt lat="45.32985" lon="5.6987">
        <ele>1489.8</ele>
        <time>2010-12-04T14:38:14Z</time>
      </trkpt>
      <trkpt lat="45.32987" lon="5.69872">
        <ele>1490.8</ele>
        <time>2010-12-04T14:38:19Z</time>
      </trkpt>
      <trkpt lat="45.32988" lon="5.69872">
        <ele>1491.8</ele>
        <time>2010-12-04T14:38:23Z</time>
      </trkpt>
      <trkpt lat="45.32991" lon="5.6987">
        <ele>1495.4</ele>
        <time>2010-12-04T14:38:39Z</time>
      </trkpt>
      <trkpt lat="45.32993" lon="5.69867">
        <ele>1496.2</ele>
        <time>2010-12-04T14:38:48Z</time>
      </trkpt>
      <trkpt lat="45.32994" lon="5.69865">
        <ele>1496.4</ele>
        <time>2010-12-04T14:38:53Z</time>
      </trkpt>
      <trkpt lat="45.32998" lon="5.69865">
        <ele>1496.4</ele>
        <time>2010-12-04T14:38:59Z</time>
      </trkpt>
      <trkpt lat="45.32999" lon="5.69867">
        <ele>1496.4</ele>
        <time>2010-12-04T14:39:06Z</time>
      </trkpt>
      <trkpt lat="45.33" lon="5.69869">
        <ele>1496.4</ele>
        <time>2010-12-04T14:39:09Z</time>
      </trkpt>
      <trkpt lat="45.33" lon="5.6987">
        <ele>1497.2</ele>
        <time>2010-12-04T14:39:12Z</time>
      </trkpt>
      <trkpt lat="45.33003" lon="5.69876">
        <ele>1498.6</ele>
        <time>2010-12-04T14:39:19Z</time>
      </trkpt>
      <trkpt lat="45.33004" lon="5.69878">
        <ele>1500</ele>
        <time>2010-12-04T14:39:25Z</time>
      </trkpt>
      <trkpt lat="45.33006" lon="5.69881">
        <ele>1501</ele>
        <time>2010-12-04T14:39:31Z</time>
      </trkpt>
      <trkpt lat="45.33007" lon="5.69881">
        <ele>1502</ele>
        <time>2010-12-04T14:39:37Z</time>
      </trkpt>
      <trkpt lat="45.33009" lon="5.6988">
        <ele>1502.4</ele>
        <time>2010-12-04T14:39:42Z</time>
      </trkpt>
      <trkpt lat="45.33011" lon="5.69877">
        <ele>1503.2</ele>
        <time>2010-12-04T14:39:46Z</time>
      </trkpt>
      <trkpt lat="45.33011" lon="5.69876">
        <ele>1503.6</ele>
        <time>2010-12-04T14:39:49Z</time>
      </trkpt>
      <trkpt lat="45.33013" lon="5.69871">
        <ele>1504</ele>
        <time>2010-12-04T14:39:54Z</time>
      </trkpt>
      <trkpt lat="45.33016" lon="5.69865">
        <ele>1504.4</ele>
        <time>2010-12-04T14:40:02Z</time>
      </trkpt>
      <trkpt lat="45.33018" lon="5.69864">
        <ele>1504.6</ele>
        <time>2010-12-04T14:40:07Z</time>
      </trkpt>
      <trkpt lat="45.3302" lon="5.69865">
        <ele>1504.8</ele>
        <time>2010-12-04T14:40:11Z</time>
      </trkpt>
      <trkpt lat="45.33021" lon="5.69865">
        <ele>1505.2</ele>
        <time>2010-12-04T14:40:17Z</time>
      </trkpt>
      <trkpt lat="45.33023" lon="5.69865">
        <ele>1506</ele>
        <time>2010-12-04T14:40:26Z</time>
      </trkpt>
      <trkpt lat="45.33025" lon="5.69865">
        <ele>1506.2</ele>
        <time>2010-12-04T14:40:31Z</time>
      </trkpt>
      <trkpt lat="45.3303" lon="5.69871">
        <ele>1507.6</ele>
        <time>2010-12-04T14:40:48Z</time>
      </trkpt>
      <trkpt lat="45.33035" lon="5.69864">
        <ele>1508.4</ele>
        <time>2010-12-04T14:40:59Z</time>
      </trkpt>
      <trkpt lat="45.33039" lon="5.69861">
        <ele>1508.8</ele>
        <time>2010-12-04T14:41:08Z</time>
      </trkpt>
      <trkpt lat="45.33041" lon="5.69858">
        <ele>1509.6</ele>
        <time>2010-12-04T14:41:18Z</time>
      </trkpt>
      <trkpt lat="45.33043" lon="5.69861">
        <ele>1511.2</ele>
        <time>2010-12-04T14:41:27Z</time>
      </trkpt>
      <trkpt lat="45.33045" lon="5.69862">
        <ele>1512.2</ele>
        <time>2010-12-04T14:41:31Z</time>
      </trkpt>
      <trkpt lat="45.33046" lon="5.69865">
        <ele>1515</ele>
        <time>2010-12-04T14:41:47Z</time>
      </trkpt>
      <trkpt lat="45.33049" lon="5.69866">
        <ele>1516</ele>
        <time>2010-12-04T14:41:53Z</time>
      </trkpt>
      <trkpt lat="45.33053" lon="5.69864">
        <ele>1517.8</ele>
        <time>2010-12-04T14:42:06Z</time>
      </trkpt>
      <trkpt lat="45.33053" lon="5.69864">
        <ele>1518</ele>
        <time>2010-12-04T14:42:07Z</time>
      </trkpt>
      <trkpt lat="45.33055" lon="5.6986">
        <ele>1518</ele>
        <time>2010-12-04T14:42:12Z</time>
      </trkpt>
      <trkpt lat="45.33056" lon="5.69859">
        <ele>1518.4</ele>
        <time>2010-12-04T14:42:16Z</time>
      </trkpt>
      <trkpt lat="45.33058" lon="5.69857">
        <ele>1518.6</ele>
        <time>2010-12-04T14:42:20Z</time>
      </trkpt>
      <trkpt lat="45.3306" lon="5.69859">
        <ele>1519</ele>
        <time>2010-12-04T14:42:25Z</time>
      </trkpt>
      <trkpt lat="45.33061" lon="5.69856">
        <ele>1519</ele>
        <time>2010-12-04T14:42:35Z</time>
      </trkpt>
      <trkpt lat="45.33063" lon="5.69854">
        <ele>1519</ele>
        <time>2010-12-04T14:42:40Z</time>
      </trkpt>
      <trkpt lat="45.33065" lon="5.69851">
        <ele>1518.8</ele>
        <time>2010-12-04T14:42:44Z</time>
      </trkpt>
      <trkpt lat="45.33066" lon="5.69849">
        <ele>1518.8</ele>
        <time>2010-12-04T14:42:46Z</time>
      </trkpt>
      <trkpt lat="45.33066" lon="5.69848">
        <ele>1518.6</ele>
        <time>2010-12-04T14:42:48Z</time>
      </trkpt>
      <trkpt lat="45.33067" lon="5.6985">
        <ele>1518.8</ele>
        <time>2010-12-04T14:42:54Z</time>
      </trkpt>
      <trkpt lat="45.33068" lon="5.69851">
        <ele>1519</ele>
        <time>2010-12-04T14:42:59Z</time>
      </trkpt>
      <trkpt lat="45.33069" lon="5.69854">
        <ele>1520.4</ele>
        <time>2010-12-04T14:43:06Z</time>
      </trkpt>
      <trkpt lat="45.33073" lon="5.6985">
        <ele>1522.4</ele>
        <time>2010-12-04T14:43:17Z</time>
      </trkpt>
      <trkpt lat="45.33074" lon="5.69849">
        <ele>1523.4</ele>
        <time>2010-12-04T14:43:23Z</time>
      </trkpt>
      <trkpt lat="45.33076" lon="5.6985">
        <ele>1524.2</ele>
        <time>2010-12-04T14:43:30Z</time>
      </trkpt>
      <trkpt lat="45.33079" lon="5.69852">
        <ele>1524.6</ele>
        <time>2010-12-04T14:43:37Z</time>
      </trkpt>
      <trkpt lat="45.3308" lon="5.69852">
        <ele>1524.8</ele>
        <time>2010-12-04T14:43:39Z</time>
      </trkpt>
      <trkpt lat="45.33081" lon="5.69852">
        <ele>1525</ele>
        <time>2010-12-04T14:43:42Z</time>
      </trkpt>
      <trkpt lat="45.33083" lon="5.69852">
        <ele>1525.4</ele>
        <time>2010-12-04T14:43:50Z</time>
      </trkpt>
      <trkpt lat="45.33084" lon="5.69851">
        <ele>1526</ele>
        <time>2010-12-04T14:43:56Z</time>
      </trkpt>
      <trkpt lat="45.33085" lon="5.6985">
        <ele>1526.6</ele>
        <time>2010-12-04T14:44:02Z</time>
      </trkpt>
      <trkpt lat="45.33086" lon="5.69848">
        <ele>1527.2</ele>
        <time>2010-12-04T14:44:06Z</time>
      </trkpt>
      <trkpt lat="45.33088" lon="5.69848">
        <ele>1529</ele>
        <time>2010-12-04T14:44:21Z</time>
      </trkpt>
      <trkpt lat="45.3309" lon="5.69848">
        <ele>1529.4</ele>
        <time>2010-12-04T14:44:26Z</time>
      </trkpt>
      <trkpt lat="45.33092" lon="5.6985">
        <ele>1530.4</ele>
        <time>2010-12-04T14:44:32Z</time>
      </trkpt>
      <trkpt lat="45.33093" lon="5.6985">
        <ele>1530.6</ele>
        <time>2010-12-04T14:44:33Z</time>
      </trkpt>
      <trkpt lat="45.33093" lon="5.6985">
        <ele>1532</ele>
        <time>2010-12-04T14:44:40Z</time>
      </trkpt>
      <trkpt lat="45.33095" lon="5.69852">
        <ele>1533</ele>
        <time>2010-12-04T14:44:45Z</time>
      </trkpt>
      <trkpt lat="45.33096" lon="5.69853">
        <ele>1533.2</ele>
        <time>2010-12-04T14:44:46Z</time>
      </trkpt>
      <trkpt lat="45.33097" lon="5.69856">
        <ele>1534.2</ele>
        <time>2010-12-04T14:44:51Z</time>
      </trkpt>
      <trkpt lat="45.33099" lon="5.69858">
        <ele>1534.2</ele>
        <time>2010-12-04T14:44:53Z</time>
      </trkpt>
      <trkpt lat="45.33101" lon="5.69863">
        <ele>1534.8</ele>
        <time>2010-12-04T14:44:56Z</time>
      </trkpt>
      <trkpt lat="45.33101" lon="5.69864">
        <ele>1535.4</ele>
        <time>2010-12-04T14:44:58Z</time>
      </trkpt>
      <trkpt lat="45.33102" lon="5.69864">
        <ele>1535.6</ele>
        <time>2010-12-04T14:45:01Z</time>
      </trkpt>
      <trkpt lat="45.33103" lon="5.69864">
        <ele>1537</ele>
        <time>2010-12-04T14:45:12Z</time>
      </trkpt>
      <trkpt lat="45.33104" lon="5.69864">
        <ele>1537.2</ele>
        <time>2010-12-04T14:45:13Z</time>
      </trkpt>
      <trkpt lat="45.33105" lon="5.69862">
        <ele>1538</ele>
        <time>2010-12-04T14:45:19Z</time>
      </trkpt>
      <trkpt lat="45.33107" lon="5.69856">
        <ele>1538.6</ele>
        <time>2010-12-04T14:45:29Z</time>
      </trkpt>
      <trkpt lat="45.33107" lon="5.6985">
        <ele>1539.4</ele>
        <time>2010-12-04T14:45:37Z</time>
      </trkpt>
      <trkpt lat="45.33108" lon="5.69847">
        <ele>1540</ele>
        <time>2010-12-04T14:45:42Z</time>
      </trkpt>
      <trkpt lat="45.3311" lon="5.69844">
        <ele>1540.4</ele>
        <time>2010-12-04T14:45:48Z</time>
      </trkpt>
      <trkpt lat="45.33112" lon="5.69841">
        <ele>1541</ele>
        <time>2010-12-04T14:45:54Z</time>
      </trkpt>
      <trkpt lat="45.33113" lon="5.69841">
        <ele>1541.2</ele>
        <time>2010-12-04T14:45:57Z</time>
      </trkpt>
      <trkpt lat="45.33116" lon="5.69836">
        <ele>1541.4</ele>
        <time>2010-12-04T14:46:08Z</time>
      </trkpt>
      <trkpt lat="45.33117" lon="5.69833">
        <ele>1542</ele>
        <time>2010-12-04T14:46:15Z</time>
      </trkpt>
      <trkpt lat="45.33118" lon="5.69831">
        <ele>1542.6</ele>
        <time>2010-12-04T14:46:24Z</time>
      </trkpt>
      <trkpt lat="45.33117" lon="5.69829">
        <ele>1543</ele>
        <time>2010-12-04T14:46:28Z</time>
      </trkpt>
      <trkpt lat="45.33118" lon="5.69827">
        <ele>1544</ele>
        <time>2010-12-04T14:46:35Z</time>
      </trkpt>
      <trkpt lat="45.33121" lon="5.69826">
        <ele>1544.4</ele>
        <time>2010-12-04T14:46:39Z</time>
      </trkpt>
      <trkpt lat="45.33121" lon="5.69826">
        <ele>1544.4</ele>
        <time>2010-12-04T14:46:40Z</time>
      </trkpt>
      <trkpt lat="45.33123" lon="5.69826">
        <ele>1545</ele>
        <time>2010-12-04T14:46:45Z</time>
      </trkpt>
      <trkpt lat="45.33124" lon="5.69825">
        <ele>1545</ele>
        <time>2010-12-04T14:46:46Z</time>
      </trkpt>
      <trkpt lat="45.33126" lon="5.69825">
        <ele>1545.4</ele>
        <time>2010-12-04T14:46:51Z</time>
      </trkpt>
      <trkpt lat="45.33127" lon="5.69822">
        <ele>1546.2</ele>
        <time>2010-12-04T14:46:57Z</time>
      </trkpt>
      <trkpt lat="45.33129" lon="5.69821">
        <ele>1546.6</ele>
        <time>2010-12-04T14:47:02Z</time>
      </trkpt>
      <trkpt lat="45.33131" lon="5.69819">
        <ele>1547.6</ele>
        <time>2010-12-04T14:47:11Z</time>
      </trkpt>
      <trkpt lat="45.33133" lon="5.69812">
        <ele>1549</ele>
        <time>2010-12-04T14:47:27Z</time>
      </trkpt>
      <trkpt lat="45.33134" lon="5.69814">
        <ele>1549.8</ele>
        <time>2010-12-04T14:47:33Z</time>
      </trkpt>
      <trkpt lat="45.33134" lon="5.69814">
        <ele>1551.4</ele>
        <time>2010-12-04T14:47:40Z</time>
      </trkpt>
      <trkpt lat="45.33133" lon="5.6981">
        <ele>1553.4</ele>
        <time>2010-12-04T14:47:50Z</time>
      </trkpt>
      <trkpt lat="45.3313" lon="5.69807">
        <ele>1554.8</ele>
        <time>2010-12-04T14:47:59Z</time>
      </trkpt>
      <trkpt lat="45.33127" lon="5.69806">
        <ele>1555.6</ele>
        <time>2010-12-04T14:48:04Z</time>
      </trkpt>
      <trkpt lat="45.33123" lon="5.69804">
        <ele>1556.6</ele>
        <time>2010-12-04T14:48:12Z</time>
      </trkpt>
      <trkpt lat="45.3312" lon="5.69801">
        <ele>1557</ele>
        <time>2010-12-04T14:48:18Z</time>
      </trkpt>
      <trkpt lat="45.3312" lon="5.69801">
        <ele>1557</ele>
        <time>2010-12-04T14:48:19Z</time>
      </trkpt>
      <trkpt lat="45.33119" lon="5.69798">
        <ele>1557.2</ele>
        <time>2010-12-04T14:48:23Z</time>
      </trkpt>
      <trkpt lat="45.33119" lon="5.69795">
        <ele>1558.2</ele>
        <time>2010-12-04T14:48:32Z</time>
      </trkpt>
      <trkpt lat="45.3312" lon="5.69792">
        <ele>1558.8</ele>
        <time>2010-12-04T14:48:38Z</time>
      </trkpt>
      <trkpt lat="45.33123" lon="5.69789">
        <ele>1559.4</ele>
        <time>2010-12-04T14:48:45Z</time>
      </trkpt>
      <trkpt lat="45.33125" lon="5.69787">
        <ele>1561</ele>
        <time>2010-12-04T14:48:56Z</time>
      </trkpt>
      <trkpt lat="45.33127" lon="5.69785">
        <ele>1561.6</ele>
        <time>2010-12-04T14:49:04Z</time>
      </trkpt>
      <trkpt lat="45.33129" lon="5.69783">
        <ele>1561.4</ele>
        <time>2010-12-04T14:49:09Z</time>
      </trkpt>
      <trkpt lat="45.3313" lon="5.69783">
        <ele>1561.6</ele>
        <time>2010-12-04T14:49:12Z</time>
      </trkpt>
      <trkpt lat="45.33131" lon="5.69781">
        <ele>1561.4</ele>
        <time>2010-12-04T14:49:15Z</time>
      </trkpt>
      <trkpt lat="45.33133" lon="5.69779">
        <ele>1562</ele>
        <time>2010-12-04T14:49:25Z</time>
      </trkpt>
      <trkpt lat="45.33131" lon="5.69769">
        <ele>1566.6</ele>
        <time>2010-12-04T14:49:54Z</time>
      </trkpt>
      <trkpt lat="45.3313" lon="5.69766">
        <ele>1567.6</ele>
        <time>2010-12-04T14:50:00Z</time>
      </trkpt>
      <trkpt lat="45.3313" lon="5.69763">
        <ele>1568</ele>
        <time>2010-12-04T14:50:06Z</time>
      </trkpt>
      <trkpt lat="45.33133" lon="5.69759">
        <ele>1569</ele>
        <time>2010-12-04T14:50:22Z</time>
      </trkpt>
      <trkpt lat="45.33135" lon="5.69761">
        <ele>1569.8</ele>
        <time>2010-12-04T14:50:30Z</time>
      </trkpt>
      <trkpt lat="45.33136" lon="5.6976">
        <ele>1570.2</ele>
        <time>2010-12-04T14:50:33Z</time>
      </trkpt>
      <trkpt lat="45.33138" lon="5.6976">
        <ele>1570.6</ele>
        <time>2010-12-04T14:50:39Z</time>
      </trkpt>
      <trkpt lat="45.3314" lon="5.69761">
        <ele>1571</ele>
        <time>2010-12-04T14:50:49Z</time>
      </trkpt>
      <trkpt lat="45.33144" lon="5.69761">
        <ele>1571</ele>
        <time>2010-12-04T14:50:55Z</time>
      </trkpt>
      <trkpt lat="45.33147" lon="5.6976">
        <ele>1571.2</ele>
        <time>2010-12-04T14:51:01Z</time>
      </trkpt>
      <trkpt lat="45.33148" lon="5.69761">
        <ele>1572.2</ele>
        <time>2010-12-04T14:51:10Z</time>
      </trkpt>
      <trkpt lat="45.33149" lon="5.69758">
        <ele>1573</ele>
        <time>2010-12-04T14:51:17Z</time>
      </trkpt>
      <trkpt lat="45.3315" lon="5.69759">
        <ele>1575.6</ele>
        <time>2010-12-04T14:51:35Z</time>
      </trkpt>
      <trkpt lat="45.33151" lon="5.69759">
        <ele>1576</ele>
        <time>2010-12-04T14:51:40Z</time>
      </trkpt>
      <trkpt lat="45.33148" lon="5.69762">
        <ele>1577</ele>
        <time>2010-12-04T14:52:00Z</time>
      </trkpt>
      <trkpt lat="45.3315" lon="5.69761">
        <ele>1577.4</ele>
        <time>2010-12-04T14:52:07Z</time>
      </trkpt>
      <trkpt lat="45.33152" lon="5.6976">
        <ele>1577.2</ele>
        <time>2010-12-04T14:52:14Z</time>
      </trkpt>
      <trkpt lat="45.33152" lon="5.69761">
        <ele>1577</ele>
        <time>2010-12-04T14:52:18Z</time>
      </trkpt>
      <trkpt lat="45.33151" lon="5.69763">
        <ele>1577</ele>
        <time>2010-12-04T14:52:20Z</time>
      </trkpt>
      <trkpt lat="45.33154" lon="5.69758">
        <ele>1576.6</ele>
        <time>2010-12-04T14:52:27Z</time>
      </trkpt>
      <trkpt lat="45.33156" lon="5.69756">
        <ele>1576.4</ele>
        <time>2010-12-04T14:52:30Z</time>
      </trkpt>
      <trkpt lat="45.33155" lon="5.69759">
        <ele>1577.4</ele>
        <time>2010-12-04T14:53:52Z</time>
      </trkpt>
      <trkpt lat="45.3315" lon="5.69756">
        <ele>1580.6</ele>
        <time>2010-12-04T14:54:35Z</time>
      </trkpt>
      <trkpt lat="45.33157" lon="5.6976">
        <ele>1580</ele>
        <time>2010-12-04T14:55:10Z</time>
      </trkpt>
      <trkpt lat="45.33156" lon="5.69759">
        <ele>1579.6</ele>
        <time>2010-12-04T14:55:15Z</time>
      </trkpt>
      <trkpt lat="45.33153" lon="5.69761">
        <ele>1579.4</ele>
        <time>2010-12-04T14:55:19Z</time>
      </trkpt>
      <trkpt lat="45.33154" lon="5.69761">
        <ele>1579.2</ele>
        <time>2010-12-04T14:55:21Z</time>
      </trkpt>
      <trkpt lat="45.33155" lon="5.69759">
        <ele>1578.8</ele>
        <time>2010-12-04T14:55:28Z</time>
      </trkpt>
      <trkpt lat="45.33155" lon="5.69757">
        <ele>1578.2</ele>
        <time>2010-12-04T14:55:37Z</time>
      </trkpt>
      <trkpt lat="45.33153" lon="5.69755">
        <ele>1578</ele>
        <time>2010-12-04T14:55:43Z</time>
      </trkpt>
      <trkpt lat="45.33152" lon="5.69758">
        <ele>1577.8</ele>
        <time>2010-12-04T14:56:12Z</time>
      </trkpt>
      <trkpt lat="45.33156" lon="5.69751">
        <ele>1577.4</ele>
        <time>2010-12-04T14:57:03Z</time>
      </trkpt>
      <trkpt lat="45.33158" lon="5.69753">
        <ele>1577.2</ele>
        <time>2010-12-04T14:57:09Z</time>
      </trkpt>
      <trkpt lat="45.33157" lon="5.69758">
        <ele>1577.4</ele>
        <time>2010-12-04T14:57:26Z</time>
      </trkpt>
      <trkpt lat="45.33153" lon="5.69759">
        <ele>1576</ele>
        <time>2010-12-04T14:59:00Z</time>
      </trkpt>
      <trkpt lat="45.33157" lon="5.69759">
        <ele>1577.2</ele>
        <time>2010-12-04T14:59:13Z</time>
      </trkpt>
      <trkpt lat="45.33153" lon="5.69769">
        <ele>1581.2</ele>
        <time>2010-12-04T14:59:42Z</time>
      </trkpt>
      <trkpt lat="45.33151" lon="5.69766">
        <ele>1582.8</ele>
        <time>2010-12-04T15:00:12Z</time>
      </trkpt>
      <trkpt lat="45.33151" lon="5.69762">
        <ele>1582.2</ele>
        <time>2010-12-04T15:00:42Z</time>
      </trkpt>
      <trkpt lat="45.33153" lon="5.69759">
        <ele>1581.8</ele>
        <time>2010-12-04T15:00:53Z</time>
      </trkpt>
      <trkpt lat="45.3315" lon="5.69759">
        <ele>1580.4</ele>
        <time>2010-12-04T15:01:40Z</time>
      </trkpt>
      <trkpt lat="45.33151" lon="5.69759">
        <ele>1580.2</ele>
        <time>2010-12-04T15:01:44Z</time>
      </trkpt>
      <trkpt lat="45.3315" lon="5.69762">
        <ele>1579.8</ele>
        <time>2010-12-04T15:02:02Z</time>
      </trkpt>
      <trkpt lat="45.33152" lon="5.69762">
        <ele>1579.6</ele>
        <time>2010-12-04T15:02:11Z</time>
      </trkpt>
      <trkpt lat="45.33154" lon="5.69761">
        <ele>1579.4</ele>
        <time>2010-12-04T15:02:15Z</time>
      </trkpt>
      <trkpt lat="45.33154" lon="5.69758">
        <ele>1579.6</ele>
        <time>2010-12-04T15:02:19Z</time>
      </trkpt>
      <trkpt lat="45.33155" lon="5.69757">
        <ele>1579.4</ele>
        <time>2010-12-04T15:02:21Z</time>
      </trkpt>
      <trkpt lat="45.33155" lon="5.69759">
        <ele>1579.6</ele>
        <time>2010-12-04T15:02:24Z</time>
      </trkpt>
      <trkpt lat="45.33157" lon="5.69761">
        <ele>1580</ele>
        <time>2010-12-04T15:02:30Z</time>
      </trkpt>
      <trkpt lat="45.33159" lon="5.6976">
        <ele>1579.8</ele>
        <time>2010-12-04T15:02:37Z</time>
      </trkpt>
      <trkpt lat="45.33162" lon="5.69759">
        <ele>1579.8</ele>
        <time>2010-12-04T15:02:45Z</time>
      </trkpt>
      <trkpt lat="45.33165" lon="5.69759">
        <ele>1579.6</ele>
        <time>2010-12-04T15:02:51Z</time>
      </trkpt>
      <trkpt lat="45.33166" lon="5.6976">
        <ele>1580.2</ele>
        <time>2010-12-04T15:02:58Z</time>
      </trkpt>
      <trkpt lat="45.33169" lon="5.69758">
        <ele>1580.2</ele>
        <time>2010-12-04T15:03:01Z</time>
      </trkpt>
      <trkpt lat="45.33169" lon="5.6976">
        <ele>1580.6</ele>
        <time>2010-12-04T15:03:03Z</time>
      </trkpt>
      <trkpt lat="45.33169" lon="5.69761">
        <ele>1582.6</ele>
        <time>2010-12-04T15:03:17Z</time>
      </trkpt>
      <trkpt lat="45.3317" lon="5.6976">
        <ele>1582.8</ele>
        <time>2010-12-04T15:03:20Z</time>
      </trkpt>
      <trkpt lat="45.33172" lon="5.69759">
        <ele>1582.8</ele>
        <time>2010-12-04T15:03:24Z</time>
      </trkpt>
      <trkpt lat="45.33171" lon="5.69759">
        <ele>1583.4</ele>
        <time>2010-12-04T15:03:29Z</time>
      </trkpt>
      <trkpt lat="45.33173" lon="5.69759">
        <ele>1583.6</ele>
        <time>2010-12-04T15:04:01Z</time>
      </trkpt>
      <trkpt lat="45.33175" lon="5.69763">
        <ele>1585.4</ele>
        <time>2010-12-04T15:04:32Z</time>
      </trkpt>
      <trkpt lat="45.33176" lon="5.69765">
        <ele>1586.2</ele>
        <time>2010-12-04T15:04:39Z</time>
      </trkpt>
      <trkpt lat="45.33176" lon="5.69764">
        <ele>1586.4</ele>
        <time>2010-12-04T15:04:42Z</time>
      </trkpt>
      <trkpt lat="45.33177" lon="5.69764">
        <ele>1586.6</ele>
        <time>2010-12-04T15:04:47Z</time>
      </trkpt>
      <trkpt lat="45.33178" lon="5.69764">
        <ele>1586.8</ele>
        <time>2010-12-04T15:04:53Z</time>
      </trkpt>
      <trkpt lat="45.33179" lon="5.69766">
        <ele>1587.2</ele>
        <time>2010-12-04T15:05:01Z</time>
      </trkpt>
      <trkpt lat="45.3318" lon="5.69764">
        <ele>1587.2</ele>
        <time>2010-12-04T15:05:06Z</time>
      </trkpt>
      <trkpt lat="45.33181" lon="5.69761">
        <ele>1587.2</ele>
        <time>2010-12-04T15:05:14Z</time>
      </trkpt>
      <trkpt lat="45.33181" lon="5.69763">
        <ele>1587</ele>
        <time>2010-12-04T15:05:23Z</time>
      </trkpt>
      <trkpt lat="45.33179" lon="5.69763">
        <ele>1587.2</ele>
        <time>2010-12-04T15:05:42Z</time>
      </trkpt>
      <trkpt lat="45.33177" lon="5.6976">
        <ele>1587.6</ele>
        <time>2010-12-04T15:05:47Z</time>
      </trkpt>
      <trkpt lat="45.33177" lon="5.69758">
        <ele>1587.8</ele>
        <time>2010-12-04T15:05:53Z</time>
      </trkpt>
      <trkpt lat="45.33177" lon="5.69758">
        <ele>1587.8</ele>
        <time>2010-12-04T15:05:54Z</time>
      </trkpt>
      <trkpt lat="45.33177" lon="5.69755">
        <ele>1588</ele>
        <time>2010-12-04T15:06:02Z</time>
      </trkpt>
      <trkpt lat="45.33177" lon="5.69751">
        <ele>1588.2</ele>
        <time>2010-12-04T15:06:09Z</time>
      </trkpt>
      <trkpt lat="45.33176" lon="5.69748">
        <ele>1588.6</ele>
        <time>2010-12-04T15:06:14Z</time>
      </trkpt>
      <trkpt lat="45.3318" lon="5.69745">
        <ele>1590.4</ele>
        <time>2010-12-04T15:06:52Z</time>
      </trkpt>
      <trkpt lat="45.3318" lon="5.69746">
        <ele>1590.4</ele>
        <time>2010-12-04T15:07:02Z</time>
      </trkpt>
      <trkpt lat="45.33181" lon="5.69744">
        <ele>1590.4</ele>
        <time>2010-12-04T15:07:17Z</time>
      </trkpt>
      <trkpt lat="45.33181" lon="5.69744">
        <ele>1590.4</ele>
        <time>2010-12-04T15:07:20Z</time>
      </trkpt>
      <trkpt lat="45.33181" lon="5.69745">
        <ele>1590.8</ele>
        <time>2010-12-04T15:07:27Z</time>
      </trkpt>
      <trkpt lat="45.33179" lon="5.69746">
        <ele>1595.4</ele>
        <time>2010-12-04T15:07:53Z</time>
      </trkpt>
      <trkpt lat="45.33179" lon="5.69743">
        <ele>1595.2</ele>
        <time>2010-12-04T15:08:09Z</time>
      </trkpt>
      <trkpt lat="45.33178" lon="5.69747">
        <ele>1595.6</ele>
        <time>2010-12-04T15:08:20Z</time>
      </trkpt>
      <trkpt lat="45.33178" lon="5.69744">
        <ele>1595.6</ele>
        <time>2010-12-04T15:08:33Z</time>
      </trkpt>
      <trkpt lat="45.3318" lon="5.69744">
        <ele>1595.6</ele>
        <time>2010-12-04T15:08:42Z</time>
      </trkpt>
      <trkpt lat="45.33185" lon="5.69745">
        <ele>1595.4</ele>
        <time>2010-12-04T15:09:01Z</time>
      </trkpt>
      <trkpt lat="45.33186" lon="5.6974">
        <ele>1595.2</ele>
        <time>2010-12-04T15:09:12Z</time>
      </trkpt>
      <trkpt lat="45.33184" lon="5.69733">
        <ele>1595.2</ele>
        <time>2010-12-04T15:09:45Z</time>
      </trkpt>
      <trkpt lat="45.33186" lon="5.69731">
        <ele>1595.2</ele>
        <time>2010-12-04T15:10:19Z</time>
      </trkpt>
      <trkpt lat="45.33187" lon="5.69729">
        <ele>1595</ele>
        <time>2010-12-04T15:10:32Z</time>
      </trkpt>
      <trkpt lat="45.3319" lon="5.69731">
        <ele>1594.6</ele>
        <time>2010-12-04T15:10:47Z</time>
      </trkpt>
      <trkpt lat="45.33191" lon="5.69729">
        <ele>1594.4</ele>
        <time>2010-12-04T15:10:55Z</time>
      </trkpt>
      <trkpt lat="45.33186" lon="5.69728">
        <ele>1596.6</ele>
        <time>2010-12-04T15:11:45Z</time>
      </trkpt>
      <trkpt lat="45.33184" lon="5.69726">
        <ele>1597</ele>
        <time>2010-12-04T15:11:49Z</time>
      </trkpt>
      <trkpt lat="45.33186" lon="5.6973">
        <ele>1598</ele>
        <time>2010-12-04T15:12:46Z</time>
      </trkpt>
      <trkpt lat="45.33188" lon="5.69724">
        <ele>1598.2</ele>
        <time>2010-12-04T15:13:30Z</time>
      </trkpt>
      <trkpt lat="45.3319" lon="5.69723">
        <ele>1598.2</ele>
        <time>2010-12-04T15:13:39Z</time>
      </trkpt>
      <trkpt lat="45.33191" lon="5.69722">
        <ele>1598.2</ele>
        <time>2010-12-04T15:13:44Z</time>
      </trkpt>
      <trkpt lat="45.33189" lon="5.6972">
        <ele>1598.2</ele>
        <time>2010-12-04T15:13:55Z</time>
      </trkpt>
      <trkpt lat="45.33183" lon="5.69719">
        <ele>1599</ele>
        <time>2010-12-04T15:14:01Z</time>
      </trkpt>
      <trkpt lat="45.33185" lon="5.69717">
        <ele>1598.6</ele>
        <time>2010-12-04T15:14:06Z</time>
      </trkpt>
      <trkpt lat="45.33186" lon="5.69714">
        <ele>1598.6</ele>
        <time>2010-12-04T15:14:14Z</time>
      </trkpt>
      <trkpt lat="45.33185" lon="5.69712">
        <ele>1598.6</ele>
        <time>2010-12-04T15:14:22Z</time>
      </trkpt>
      <trkpt lat="45.33181" lon="5.69712">
        <ele>1599.4</ele>
        <time>2010-12-04T15:14:49Z</time>
      </trkpt>
      <trkpt lat="45.33185" lon="5.69704">
        <ele>1599.4</ele>
        <time>2010-12-04T15:16:10Z</time>
      </trkpt>
      <trkpt lat="45.33185" lon="5.69704">
        <ele>1599.8</ele>
        <time>2010-12-04T15:16:20Z</time>
      </trkpt>
      <trkpt lat="45.33183" lon="5.697">
        <ele>1602.6</ele>
        <time>2010-12-04T15:17:08Z</time>
      </trkpt>
      <trkpt lat="45.33183" lon="5.69699">
        <ele>1602.6</ele>
        <time>2010-12-04T15:17:19Z</time>
      </trkpt>
      <trkpt lat="45.33183" lon="5.69698">
        <ele>1602.6</ele>
        <time>2010-12-04T15:17:23Z</time>
      </trkpt>
      <trkpt lat="45.33181" lon="5.69694">
        <ele>1603</ele>
        <time>2010-12-04T15:17:45Z</time>
      </trkpt>
      <trkpt lat="45.3318" lon="5.69694">
        <ele>1603.4</ele>
        <time>2010-12-04T15:17:58Z</time>
      </trkpt>
      <trkpt lat="45.3318" lon="5.69693">
        <ele>1603.8</ele>
        <time>2010-12-04T15:18:06Z</time>
      </trkpt>
      <trkpt lat="45.33175" lon="5.69689">
        <ele>1605.8</ele>
        <time>2010-12-04T15:18:26Z</time>
      </trkpt>
      <trkpt lat="45.33175" lon="5.69688">
        <ele>1607.2</ele>
        <time>2010-12-04T15:18:35Z</time>
      </trkpt>
      <trkpt lat="45.33176" lon="5.69688">
        <ele>1608.6</ele>
        <time>2010-12-04T15:18:46Z</time>
      </trkpt>
      <trkpt lat="45.33175" lon="5.69687">
        <ele>1609.8</ele>
        <time>2010-12-04T15:18:54Z</time>
      </trkpt>
      <trkpt lat="45.33174" lon="5.69688">
        <ele>1611</ele>
        <time>2010-12-04T15:19:03Z</time>
      </trkpt>
      <trkpt lat="45.33175" lon="5.69693">
        <ele>1611.2</ele>
        <time>2010-12-04T15:19:12Z</time>
      </trkpt>
      <trkpt lat="45.33177" lon="5.69694">
        <ele>1610.6</ele>
        <time>2010-12-04T15:19:42Z</time>
      </trkpt>
      <trkpt lat="45.33181" lon="5.69689">
        <ele>1608</ele>
        <time>2010-12-04T15:21:49Z</time>
      </trkpt>
      <trkpt lat="45.33178" lon="5.69688">
        <ele>1606.8</ele>
        <time>2010-12-04T15:22:41Z</time>
      </trkpt>
      <trkpt lat="45.33179" lon="5.69687">
        <ele>1606.6</ele>
        <time>2010-12-04T15:23:13Z</time>
      </trkpt>
      <trkpt lat="45.33179" lon="5.69687">
        <ele>1606.4</ele>
        <time>2010-12-04T15:23:17Z</time>
      </trkpt>
      <trkpt lat="45.3318" lon="5.69684">
        <ele>1606.4</ele>
        <time>2010-12-04T15:23:22Z</time>
      </trkpt>
      <trkpt lat="45.33181" lon="5.69681">
        <ele>1606.4</ele>
        <time>2010-12-04T15:23:26Z</time>
      </trkpt>
      <trkpt lat="45.33181" lon="5.6968">
        <ele>1606.4</ele>
        <time>2010-12-04T15:23:27Z</time>
      </trkpt>
      <trkpt lat="45.33182" lon="5.69678">
        <ele>1606.4</ele>
        <time>2010-12-04T15:23:30Z</time>
      </trkpt>
      <trkpt lat="45.33183" lon="5.69675">
        <ele>1606.2</ele>
        <time>2010-12-04T15:23:34Z</time>
      </trkpt>
      <trkpt lat="45.33185" lon="5.69673">
        <ele>1606.2</ele>
        <time>2010-12-04T15:23:39Z</time>
      </trkpt>
      <trkpt lat="45.33188" lon="5.69669">
        <ele>1606.2</ele>
        <time>2010-12-04T15:23:45Z</time>
      </trkpt>
      <trkpt lat="45.3319" lon="5.69666">
        <ele>1606.2</ele>
        <time>2010-12-04T15:23:50Z</time>
      </trkpt>
      <trkpt lat="45.33193" lon="5.69663">
        <ele>1606.2</ele>
        <time>2010-12-04T15:23:54Z</time>
      </trkpt>
      <trkpt lat="45.33194" lon="5.69662">
        <ele>1606</ele>
        <time>2010-12-04T15:23:56Z</time>
      </trkpt>
      <trkpt lat="45.33195" lon="5.6966">
        <ele>1606</ele>
        <time>2010-12-04T15:23:59Z</time>
      </trkpt>
      <trkpt lat="45.33198" lon="5.69657">
        <ele>1606</ele>
        <time>2010-12-04T15:24:03Z</time>
      </trkpt>
      <trkpt lat="45.33201" lon="5.69654">
        <ele>1605.8</ele>
        <time>2010-12-04T15:24:09Z</time>
      </trkpt>
      <trkpt lat="45.33204" lon="5.69651">
        <ele>1605.8</ele>
        <time>2010-12-04T15:24:13Z</time>
      </trkpt>
      <trkpt lat="45.33204" lon="5.6965">
        <ele>1605.8</ele>
        <time>2010-12-04T15:24:14Z</time>
      </trkpt>
      <trkpt lat="45.33208" lon="5.69647">
        <ele>1605.6</ele>
        <time>2010-12-04T15:24:19Z</time>
      </trkpt>
      <trkpt lat="45.33209" lon="5.69646">
        <ele>1605.6</ele>
        <time>2010-12-04T15:24:20Z</time>
      </trkpt>
      <trkpt lat="45.33211" lon="5.69645">
        <ele>1605.4</ele>
        <time>2010-12-04T15:24:23Z</time>
      </trkpt>
      <trkpt lat="45.33214" lon="5.69643">
        <ele>1605.2</ele>
        <time>2010-12-04T15:24:28Z</time>
      </trkpt>
      <trkpt lat="45.33217" lon="5.69642">
        <ele>1605</ele>
        <time>2010-12-04T15:24:34Z</time>
      </trkpt>
      <trkpt lat="45.33219" lon="5.6964">
        <ele>1604.8</ele>
        <time>2010-12-04T15:24:39Z</time>
      </trkpt>
      <trkpt lat="45.33223" lon="5.69638">
        <ele>1604.6</ele>
        <time>2010-12-04T15:24:45Z</time>
      </trkpt>
      <trkpt lat="45.33226" lon="5.69636">
        <ele>1604.4</ele>
        <time>2010-12-04T15:24:49Z</time>
      </trkpt>
      <trkpt lat="45.33227" lon="5.69636">
        <ele>1604.4</ele>
        <time>2010-12-04T15:24:50Z</time>
      </trkpt>
      <trkpt lat="45.33232" lon="5.69633">
        <ele>1604</ele>
        <time>2010-12-04T15:24:56Z</time>
      </trkpt>
      <trkpt lat="45.33235" lon="5.69631">
        <ele>1603.8</ele>
        <time>2010-12-04T15:24:59Z</time>
      </trkpt>
      <trkpt lat="45.33237" lon="5.69631">
        <ele>1603.6</ele>
        <time>2010-12-04T15:25:01Z</time>
      </trkpt>
      <trkpt lat="45.33242" lon="5.69628">
        <ele>1603.4</ele>
        <time>2010-12-04T15:25:06Z</time>
      </trkpt>
      <trkpt lat="45.33244" lon="5.69627">
        <ele>1603.2</ele>
        <time>2010-12-04T15:25:07Z</time>
      </trkpt>
      <trkpt lat="45.33247" lon="5.69625">
        <ele>1603</ele>
        <time>2010-12-04T15:25:11Z</time>
      </trkpt>
      <trkpt lat="45.33254" lon="5.69622">
        <ele>1602.4</ele>
        <time>2010-12-04T15:25:16Z</time>
      </trkpt>
      <trkpt lat="45.33261" lon="5.69618">
        <ele>1602</ele>
        <time>2010-12-04T15:25:21Z</time>
      </trkpt>
      <trkpt lat="45.33262" lon="5.69618">
        <ele>1602</ele>
        <time>2010-12-04T15:25:22Z</time>
      </trkpt>
      <trkpt lat="45.33266" lon="5.69616">
        <ele>1601.6</ele>
        <time>2010-12-04T15:25:25Z</time>
      </trkpt>
      <trkpt lat="45.33279" lon="5.6961">
        <ele>1600.8</ele>
        <time>2010-12-04T15:25:32Z</time>
      </trkpt>
      <trkpt lat="45.333" lon="5.69606">
        <ele>1599.6</ele>
        <time>2010-12-04T15:25:38Z</time>
      </trkpt>
      <trkpt lat="45.3332" lon="5.69604">
        <ele>1598.4</ele>
        <time>2010-12-04T15:25:43Z</time>
      </trkpt>
      <trkpt lat="45.33324" lon="5.69602">
        <ele>1598.2</ele>
        <time>2010-12-04T15:25:44Z</time>
      </trkpt>
      <trkpt lat="45.33333" lon="5.69598">
        <ele>1597.6</ele>
        <time>2010-12-04T15:25:46Z</time>
      </trkpt>
      <trkpt lat="45.33338" lon="5.69593">
        <ele>1597.2</ele>
        <time>2010-12-04T15:25:48Z</time>
      </trkpt>
      <trkpt lat="45.33351" lon="5.6958">
        <ele>1595.4</ele>
        <time>2010-12-04T15:25:54Z</time>
      </trkpt>
      <trkpt lat="45.33353" lon="5.69579">
        <ele>1595</ele>
        <time>2010-12-04T15:25:55Z</time>
      </trkpt>
      <trkpt lat="45.33364" lon="5.69569">
        <ele>1593.4</ele>
        <time>2010-12-04T15:26:00Z</time>
      </trkpt>
      <trkpt lat="45.3337" lon="5.69567">
        <ele>1592.8</ele>
        <time>2010-12-04T15:26:02Z</time>
      </trkpt>
      <trkpt lat="45.33373" lon="5.69565">
        <ele>1592.4</ele>
        <time>2010-12-04T15:26:03Z</time>
      </trkpt>
      <trkpt lat="45.33381" lon="5.6956">
        <ele>1591.6</ele>
        <time>2010-12-04T15:26:05Z</time>
      </trkpt>
      <trkpt lat="45.3339" lon="5.69552">
        <ele>1590.8</ele>
        <time>2010-12-04T15:26:07Z</time>
      </trkpt>
      <trkpt lat="45.33396" lon="5.69546">
        <ele>1590</ele>
        <time>2010-12-04T15:26:09Z</time>
      </trkpt>
      <trkpt lat="45.33405" lon="5.69537">
        <ele>1587.6</ele>
        <time>2010-12-04T15:26:15Z</time>
      </trkpt>
      <trkpt lat="45.33406" lon="5.69537">
        <ele>1583.6</ele>
        <time>2010-12-04T15:26:26Z</time>
      </trkpt>
      <trkpt lat="45.33406" lon="5.69538">
        <ele>1563.2</ele>
        <time>2010-12-04T15:27:51Z</time>
      </trkpt>
      <trkpt lat="45.33413" lon="5.69534">
        <ele>1555.4</ele>
        <time>2010-12-04T15:29:06Z</time>
      </trkpt>
      <trkpt lat="45.33419" lon="5.69529">
        <ele>1555.2</ele>
        <time>2010-12-04T15:29:08Z</time>
      </trkpt>
      <trkpt lat="45.33426" lon="5.69517">
        <ele>1555</ele>
        <time>2010-12-04T15:29:10Z</time>
      </trkpt>
      <trkpt lat="45.3343" lon="5.69502">
        <ele>1554.6</ele>
        <time>2010-12-04T15:29:12Z</time>
      </trkpt>
      <trkpt lat="45.33434" lon="5.6949">
        <ele>1554.4</ele>
        <time>2010-12-04T15:29:14Z</time>
      </trkpt>
      <trkpt lat="45.33436" lon="5.69485">
        <ele>1554.2</ele>
        <time>2010-12-04T15:29:15Z</time>
      </trkpt>
      <trkpt lat="45.3344" lon="5.69475">
        <ele>1553.6</ele>
        <time>2010-12-04T15:29:17Z</time>
      </trkpt>
      <trkpt lat="45.33444" lon="5.69466">
        <ele>1553.2</ele>
        <time>2010-12-04T15:29:19Z</time>
      </trkpt>
      <trkpt lat="45.33451" lon="5.6946">
        <ele>1552.4</ele>
        <time>2010-12-04T15:29:22Z</time>
      </trkpt>
      <trkpt lat="45.33453" lon="5.69459">
        <ele>1552</ele>
        <time>2010-12-04T15:29:23Z</time>
      </trkpt>
      <trkpt lat="45.33459" lon="5.69456">
        <ele>1551.2</ele>
        <time>2010-12-04T15:29:26Z</time>
      </trkpt>
      <trkpt lat="45.33467" lon="5.69448">
        <ele>1550</ele>
        <time>2010-12-04T15:29:30Z</time>
      </trkpt>
      <trkpt lat="45.3347" lon="5.69448">
        <ele>1549.6</ele>
        <time>2010-12-04T15:29:31Z</time>
      </trkpt>
      <trkpt lat="45.33477" lon="5.69449">
        <ele>1548.4</ele>
        <time>2010-12-04T15:29:34Z</time>
      </trkpt>
      <trkpt lat="45.33478" lon="5.69448">
        <ele>1547.2</ele>
        <time>2010-12-04T15:29:38Z</time>
      </trkpt>
      <trkpt lat="45.33478" lon="5.69446">
        <ele>1546.6</ele>
        <time>2010-12-04T15:29:40Z</time>
      </trkpt>
      <trkpt lat="45.33479" lon="5.69442">
        <ele>1545.6</ele>
        <time>2010-12-04T15:29:42Z</time>
      </trkpt>
      <trkpt lat="45.33486" lon="5.69438">
        <ele>1544.4</ele>
        <time>2010-12-04T15:29:45Z</time>
      </trkpt>
      <trkpt lat="45.33488" lon="5.69436">
        <ele>1544</ele>
        <time>2010-12-04T15:29:46Z</time>
      </trkpt>
      <trkpt lat="45.33488" lon="5.69433">
        <ele>1542.8</ele>
        <time>2010-12-04T15:29:49Z</time>
      </trkpt>
      <trkpt lat="45.33486" lon="5.69422">
        <ele>1541.4</ele>
        <time>2010-12-04T15:29:52Z</time>
      </trkpt>
      <trkpt lat="45.33488" lon="5.6941">
        <ele>1540.4</ele>
        <time>2010-12-04T15:29:54Z</time>
      </trkpt>
      <trkpt lat="45.33489" lon="5.69403">
        <ele>1539.8</ele>
        <time>2010-12-04T15:29:55Z</time>
      </trkpt>
      <trkpt lat="45.33489" lon="5.69384">
        <ele>1537.8</ele>
        <time>2010-12-04T15:29:59Z</time>
      </trkpt>
      <trkpt lat="45.3349" lon="5.6938">
        <ele>1537.2</ele>
        <time>2010-12-04T15:30:00Z</time>
      </trkpt>
      <trkpt lat="45.3349" lon="5.69364">
        <ele>1535.4</ele>
        <time>2010-12-04T15:30:03Z</time>
      </trkpt>
      <trkpt lat="45.3349" lon="5.69362">
        <ele>1534.8</ele>
        <time>2010-12-04T15:30:04Z</time>
      </trkpt>
      <trkpt lat="45.33489" lon="5.69363">
        <ele>1534.2</ele>
        <time>2010-12-04T15:30:05Z</time>
      </trkpt>
      <trkpt lat="45.33488" lon="5.69364">
        <ele>1533</ele>
        <time>2010-12-04T15:30:07Z</time>
      </trkpt>
      <trkpt lat="45.33489" lon="5.69364">
        <ele>1531.4</ele>
        <time>2010-12-04T15:30:10Z</time>
      </trkpt>
      <trkpt lat="45.3349" lon="5.69364">
        <ele>1530.8</ele>
        <time>2010-12-04T15:30:11Z</time>
      </trkpt>
      <trkpt lat="45.33492" lon="5.69362">
        <ele>1527.6</ele>
        <time>2010-12-04T15:30:17Z</time>
      </trkpt>
      <trkpt lat="45.33491" lon="5.6936">
        <ele>1527.2</ele>
        <time>2010-12-04T15:30:18Z</time>
      </trkpt>
      <trkpt lat="45.33493" lon="5.69352">
        <ele>1526</ele>
        <time>2010-12-04T15:30:20Z</time>
      </trkpt>
      <trkpt lat="45.33493" lon="5.69337">
        <ele>1524.2</ele>
        <time>2010-12-04T15:30:23Z</time>
      </trkpt>
      <trkpt lat="45.33493" lon="5.69332">
        <ele>1523.6</ele>
        <time>2010-12-04T15:30:24Z</time>
      </trkpt>
      <trkpt lat="45.33493" lon="5.69327">
        <ele>1522.6</ele>
        <time>2010-12-04T15:30:26Z</time>
      </trkpt>
      <trkpt lat="45.33493" lon="5.69327">
        <ele>1521.4</ele>
        <time>2010-12-04T15:30:28Z</time>
      </trkpt>
      <trkpt lat="45.33495" lon="5.69318">
        <ele>1519.2</ele>
        <time>2010-12-04T15:30:32Z</time>
      </trkpt>
      <trkpt lat="45.33495" lon="5.69312">
        <ele>1518.6</ele>
        <time>2010-12-04T15:30:33Z</time>
      </trkpt>
      <trkpt lat="45.33496" lon="5.69301">
        <ele>1517.4</ele>
        <time>2010-12-04T15:30:35Z</time>
      </trkpt>
      <trkpt lat="45.33501" lon="5.69286">
        <ele>1515.2</ele>
        <time>2010-12-04T15:30:39Z</time>
      </trkpt>
      <trkpt lat="45.33503" lon="5.69285">
        <ele>1512</ele>
        <time>2010-12-04T15:30:45Z</time>
      </trkpt>
      <trkpt lat="45.33502" lon="5.69275">
        <ele>1500.2</ele>
        <time>2010-12-04T15:31:12Z</time>
      </trkpt>
      <trkpt lat="45.33506" lon="5.69266">
        <ele>1499.2</ele>
        <time>2010-12-04T15:31:14Z</time>
      </trkpt>
      <trkpt lat="45.33508" lon="5.69254">
        <ele>1498.4</ele>
        <time>2010-12-04T15:31:16Z</time>
      </trkpt>
      <trkpt lat="45.3351" lon="5.69238">
        <ele>1497</ele>
        <time>2010-12-04T15:31:19Z</time>
      </trkpt>
      <trkpt lat="45.33511" lon="5.69233">
        <ele>1496.4</ele>
        <time>2010-12-04T15:31:20Z</time>
      </trkpt>
      <trkpt lat="45.33517" lon="5.6921">
        <ele>1494.2</ele>
        <time>2010-12-04T15:31:24Z</time>
      </trkpt>
      <trkpt lat="45.33518" lon="5.69206">
        <ele>1493.6</ele>
        <time>2010-12-04T15:31:25Z</time>
      </trkpt>
      <trkpt lat="45.33525" lon="5.69184">
        <ele>1491</ele>
        <time>2010-12-04T15:31:29Z</time>
      </trkpt>
      <trkpt lat="45.33528" lon="5.6918">
        <ele>1490.4</ele>
        <time>2010-12-04T15:31:30Z</time>
      </trkpt>
      <trkpt lat="45.33534" lon="5.69169">
        <ele>1488.2</ele>
        <time>2010-12-04T15:31:33Z</time>
      </trkpt>
      <trkpt lat="45.33535" lon="5.69168">
        <ele>1487.6</ele>
        <time>2010-12-04T15:31:34Z</time>
      </trkpt>
      <trkpt lat="45.33538" lon="5.69166">
        <ele>1485.6</ele>
        <time>2010-12-04T15:31:37Z</time>
      </trkpt>
      <trkpt lat="45.33539" lon="5.69168">
        <ele>1481.2</ele>
        <time>2010-12-04T15:31:44Z</time>
      </trkpt>
      <trkpt lat="45.33539" lon="5.69168">
        <ele>1480.6</ele>
        <time>2010-12-04T15:31:45Z</time>
      </trkpt>
      <trkpt lat="45.33539" lon="5.6916">
        <ele>1475.6</ele>
        <time>2010-12-04T15:31:53Z</time>
      </trkpt>
      <trkpt lat="45.33539" lon="5.69136">
        <ele>1473.2</ele>
        <time>2010-12-04T15:31:57Z</time>
      </trkpt>
      <trkpt lat="45.33545" lon="5.69123">
        <ele>1471.2</ele>
        <time>2010-12-04T15:32:00Z</time>
      </trkpt>
      <trkpt lat="45.33547" lon="5.69112">
        <ele>1469.2</ele>
        <time>2010-12-04T15:32:03Z</time>
      </trkpt>
      <trkpt lat="45.33547" lon="5.69109">
        <ele>1468.4</ele>
        <time>2010-12-04T15:32:04Z</time>
      </trkpt>
      <trkpt lat="45.33546" lon="5.69098">
        <ele>1465.6</ele>
        <time>2010-12-04T15:32:08Z</time>
      </trkpt>
      <trkpt lat="45.33547" lon="5.69098">
        <ele>1465</ele>
        <time>2010-12-04T15:32:09Z</time>
      </trkpt>
      <trkpt lat="45.33548" lon="5.69098">
        <ele>1460.6</ele>
        <time>2010-12-04T15:32:16Z</time>
      </trkpt>
      <trkpt lat="45.3355" lon="5.69097">
        <ele>1456</ele>
        <time>2010-12-04T15:32:24Z</time>
      </trkpt>
      <trkpt lat="45.33551" lon="5.69099">
        <ele>1454.6</ele>
        <time>2010-12-04T15:32:27Z</time>
      </trkpt>
      <trkpt lat="45.33552" lon="5.69098">
        <ele>1454</ele>
        <time>2010-12-04T15:32:28Z</time>
      </trkpt>
      <trkpt lat="45.33553" lon="5.69096">
        <ele>1451.8</ele>
        <time>2010-12-04T15:32:33Z</time>
      </trkpt>
      <trkpt lat="45.33554" lon="5.69096">
        <ele>1449.6</ele>
        <time>2010-12-04T15:32:38Z</time>
      </trkpt>
      <trkpt lat="45.33547" lon="5.69093">
        <ele>1430.6</ele>
        <time>2010-12-04T15:33:36Z</time>
      </trkpt>
      <trkpt lat="45.33547" lon="5.69093">
        <ele>1430</ele>
        <time>2010-12-04T15:33:38Z</time>
      </trkpt>
      <trkpt lat="45.33549" lon="5.69092">
        <ele>1427.8</ele>
        <time>2010-12-04T15:33:46Z</time>
      </trkpt>
      <trkpt lat="45.33548" lon="5.69091">
        <ele>1426</ele>
        <time>2010-12-04T15:33:53Z</time>
      </trkpt>
      <trkpt lat="45.33547" lon="5.69088">
        <ele>1424.8</ele>
        <time>2010-12-04T15:33:58Z</time>
      </trkpt>
      <trkpt lat="45.33547" lon="5.69086">
        <ele>1423.4</ele>
        <time>2010-12-04T15:34:05Z</time>
      </trkpt>
      <trkpt lat="45.33544" lon="5.69086">
        <ele>1419.6</ele>
        <time>2010-12-04T15:34:30Z</time>
      </trkpt>
      <trkpt lat="45.33543" lon="5.69087">
        <ele>1419.2</ele>
        <time>2010-12-04T15:34:32Z</time>
      </trkpt>
      <trkpt lat="45.3354" lon="5.69087">
        <ele>1418.6</ele>
        <time>2010-12-04T15:34:36Z</time>
      </trkpt>
      <trkpt lat="45.33538" lon="5.69085">
        <ele>1417.4</ele>
        <time>2010-12-04T15:34:43Z</time>
      </trkpt>
      <trkpt lat="45.33536" lon="5.69081">
        <ele>1416.8</ele>
        <time>2010-12-04T15:34:47Z</time>
      </trkpt>
      <trkpt lat="45.3353" lon="5.6908">
        <ele>1415.8</ele>
        <time>2010-12-04T15:34:54Z</time>
      </trkpt>
      <trkpt lat="45.33527" lon="5.6908">
        <ele>1415</ele>
        <time>2010-12-04T15:35:00Z</time>
      </trkpt>
      <trkpt lat="45.33525" lon="5.69081">
        <ele>1413.4</ele>
        <time>2010-12-04T15:35:13Z</time>
      </trkpt>
      <trkpt lat="45.33523" lon="5.69081">
        <ele>1412.6</ele>
        <time>2010-12-04T15:35:20Z</time>
      </trkpt>
      <trkpt lat="45.33523" lon="5.69082">
        <ele>1412</ele>
        <time>2010-12-04T15:35:25Z</time>
      </trkpt>
      <trkpt lat="45.3352" lon="5.69084">
        <ele>1410.8</ele>
        <time>2010-12-04T15:35:38Z</time>
      </trkpt>
      <trkpt lat="45.33519" lon="5.69083">
        <ele>1410</ele>
        <time>2010-12-04T15:35:46Z</time>
      </trkpt>
      <trkpt lat="45.33517" lon="5.69084">
        <ele>1409.6</ele>
        <time>2010-12-04T15:35:51Z</time>
      </trkpt>
      <trkpt lat="45.33515" lon="5.69084">
        <ele>1409</ele>
        <time>2010-12-04T15:35:57Z</time>
      </trkpt>
      <trkpt lat="45.33511" lon="5.69085">
        <ele>1408.8</ele>
        <time>2010-12-04T15:36:02Z</time>
      </trkpt>
      <trkpt lat="45.3351" lon="5.69084">
        <ele>1408.4</ele>
        <time>2010-12-04T15:36:10Z</time>
      </trkpt>
      <trkpt lat="45.33507" lon="5.69085">
        <ele>1408</ele>
        <time>2010-12-04T15:36:22Z</time>
      </trkpt>
      <trkpt lat="45.33505" lon="5.69083">
        <ele>1407.4</ele>
        <time>2010-12-04T15:36:32Z</time>
      </trkpt>
      <trkpt lat="45.33503" lon="5.69084">
        <ele>1407</ele>
        <time>2010-12-04T15:36:38Z</time>
      </trkpt>
      <trkpt lat="45.33499" lon="5.69084">
        <ele>1406.8</ele>
        <time>2010-12-04T15:36:46Z</time>
      </trkpt>
      <trkpt lat="45.33495" lon="5.69086">
        <ele>1406</ele>
        <time>2010-12-04T15:37:00Z</time>
      </trkpt>
      <trkpt lat="45.33495" lon="5.69087">
        <ele>1406</ele>
        <time>2010-12-04T15:37:04Z</time>
      </trkpt>
      <trkpt lat="45.33494" lon="5.69086">
        <ele>1405.8</ele>
        <time>2010-12-04T15:37:09Z</time>
      </trkpt>
      <trkpt lat="45.33491" lon="5.69087">
        <ele>1405.6</ele>
        <time>2010-12-04T15:37:14Z</time>
      </trkpt>
      <trkpt lat="45.33488" lon="5.69087">
        <ele>1405.6</ele>
        <time>2010-12-04T15:37:19Z</time>
      </trkpt>
      <trkpt lat="45.33485" lon="5.69086">
        <ele>1405.4</ele>
        <time>2010-12-04T15:37:33Z</time>
      </trkpt>
      <trkpt lat="45.33482" lon="5.69085">
        <ele>1405</ele>
        <time>2010-12-04T15:37:52Z</time>
      </trkpt>
      <trkpt lat="45.33478" lon="5.69086">
        <ele>1404.4</ele>
        <time>2010-12-04T15:38:01Z</time>
      </trkpt>
      <trkpt lat="45.33475" lon="5.69087">
        <ele>1403.8</ele>
        <time>2010-12-04T15:38:16Z</time>
      </trkpt>
      <trkpt lat="45.33471" lon="5.69087">
        <ele>1404</ele>
        <time>2010-12-04T15:38:33Z</time>
      </trkpt>
      <trkpt lat="45.33469" lon="5.69087">
        <ele>1404</ele>
        <time>2010-12-04T15:38:36Z</time>
      </trkpt>
      <trkpt lat="45.33467" lon="5.69088">
        <ele>1404</ele>
        <time>2010-12-04T15:38:43Z</time>
      </trkpt>
      <trkpt lat="45.33466" lon="5.69091">
        <ele>1404.6</ele>
        <time>2010-12-04T15:38:52Z</time>
      </trkpt>
      <trkpt lat="45.33467" lon="5.69091">
        <ele>1405</ele>
        <time>2010-12-04T15:38:58Z</time>
      </trkpt>
      <trkpt lat="45.33466" lon="5.69091">
        <ele>1405.4</ele>
        <time>2010-12-04T15:39:03Z</time>
      </trkpt>
      <trkpt lat="45.33465" lon="5.6909">
        <ele>1406.4</ele>
        <time>2010-12-04T15:39:12Z</time>
      </trkpt>
      <trkpt lat="45.3346" lon="5.69091">
        <ele>1408.8</ele>
        <time>2010-12-04T15:39:36Z</time>
      </trkpt>
      <trkpt lat="45.33461" lon="5.69094">
        <ele>1409.4</ele>
        <time>2010-12-04T15:39:42Z</time>
      </trkpt>
      <trkpt lat="45.33463" lon="5.69096">
        <ele>1409.4</ele>
        <time>2010-12-04T15:40:03Z</time>
      </trkpt>
      <trkpt lat="45.33463" lon="5.69097">
        <ele>1409.2</ele>
        <time>2010-12-04T15:40:06Z</time>
      </trkpt>
      <trkpt lat="45.33463" lon="5.69097">
        <ele>1409.2</ele>
        <time>2010-12-04T15:40:14Z</time>
      </trkpt>
      <trkpt lat="45.33463" lon="5.69095">
        <ele>1409.2</ele>
        <time>2010-12-04T15:40:22Z</time>
      </trkpt>
      <trkpt lat="45.33461" lon="5.69095">
        <ele>1409.6</ele>
        <time>2010-12-04T15:40:28Z</time>
      </trkpt>
      <trkpt lat="45.33464" lon="5.69097">
        <ele>1409.8</ele>
        <time>2010-12-04T15:40:34Z</time>
      </trkpt>
      <trkpt lat="45.33465" lon="5.691">
        <ele>1410.6</ele>
        <time>2010-12-04T15:40:44Z</time>
      </trkpt>
      <trkpt lat="45.33461" lon="5.69104">
        <ele>1410.2</ele>
        <time>2010-12-04T15:40:52Z</time>
      </trkpt>
      <trkpt lat="45.33459" lon="5.69101">
        <ele>1410.2</ele>
        <time>2010-12-04T15:41:04Z</time>
      </trkpt>
      <trkpt lat="45.33458" lon="5.691">
        <ele>1410.4</ele>
        <time>2010-12-04T15:41:05Z</time>
      </trkpt>
      <trkpt lat="45.33454" lon="5.691">
        <ele>1410.6</ele>
        <time>2010-12-04T15:41:08Z</time>
      </trkpt>
      <trkpt lat="45.33454" lon="5.69099">
        <ele>1410.6</ele>
        <time>2010-12-04T15:41:10Z</time>
      </trkpt>
      <trkpt lat="45.33445" lon="5.69093">
        <ele>1411</ele>
        <time>2010-12-04T15:41:20Z</time>
      </trkpt>
      <trkpt lat="45.33444" lon="5.69091">
        <ele>1411</ele>
        <time>2010-12-04T15:41:21Z</time>
      </trkpt>
      <trkpt lat="45.33441" lon="5.69086">
        <ele>1410.8</ele>
        <time>2010-12-04T15:41:24Z</time>
      </trkpt>
      <trkpt lat="45.33438" lon="5.69084">
        <ele>1410.8</ele>
        <time>2010-12-04T15:41:26Z</time>
      </trkpt>
      <trkpt lat="45.33434" lon="5.69081">
        <ele>1410.8</ele>
        <time>2010-12-04T15:41:28Z</time>
      </trkpt>
      <trkpt lat="45.33429" lon="5.69078">
        <ele>1410.8</ele>
        <time>2010-12-04T15:41:35Z</time>
      </trkpt>
      <trkpt lat="45.33429" lon="5.69077">
        <ele>1410.8</ele>
        <time>2010-12-04T15:41:36Z</time>
      </trkpt>
      <trkpt lat="45.33426" lon="5.69068">
        <ele>1410.6</ele>
        <time>2010-12-04T15:41:46Z</time>
      </trkpt>
      <trkpt lat="45.33424" lon="5.69066">
        <ele>1410.6</ele>
        <time>2010-12-04T15:41:48Z</time>
      </trkpt>
      <trkpt lat="45.33423" lon="5.69066">
        <ele>1410.6</ele>
        <time>2010-12-04T15:41:49Z</time>
      </trkpt>
      <trkpt lat="45.33421" lon="5.69066">
        <ele>1410.4</ele>
        <time>2010-12-04T15:41:51Z</time>
      </trkpt>
      <trkpt lat="45.3342" lon="5.69066">
        <ele>1410.4</ele>
        <time>2010-12-04T15:41:53Z</time>
      </trkpt>
      <trkpt lat="45.33418" lon="5.69065">
        <ele>1410.2</ele>
        <time>2010-12-04T15:41:55Z</time>
      </trkpt>
      <trkpt lat="45.33415" lon="5.69064">
        <ele>1410</ele>
        <time>2010-12-04T15:41:59Z</time>
      </trkpt>
      <trkpt lat="45.33412" lon="5.69061">
        <ele>1409.6</ele>
        <time>2010-12-04T15:42:04Z</time>
      </trkpt>
      <trkpt lat="45.33411" lon="5.69059">
        <ele>1409.6</ele>
        <time>2010-12-04T15:42:05Z</time>
      </trkpt>
      <trkpt lat="45.33406" lon="5.69052">
        <ele>1409.4</ele>
        <time>2010-12-04T15:42:07Z</time>
      </trkpt>
      <trkpt lat="45.334" lon="5.69045">
        <ele>1409.2</ele>
        <time>2010-12-04T15:42:09Z</time>
      </trkpt>
      <trkpt lat="45.33395" lon="5.69043">
        <ele>1409</ele>
        <time>2010-12-04T15:42:11Z</time>
      </trkpt>
      <trkpt lat="45.33394" lon="5.69042">
        <ele>1408.8</ele>
        <time>2010-12-04T15:42:12Z</time>
      </trkpt>
      <trkpt lat="45.33391" lon="5.69034">
        <ele>1408</ele>
        <time>2010-12-04T15:42:27Z</time>
      </trkpt>
      <trkpt lat="45.33391" lon="5.69033">
        <ele>1407.8</ele>
        <time>2010-12-04T15:42:30Z</time>
      </trkpt>
      <trkpt lat="45.3339" lon="5.69032">
        <ele>1407.6</ele>
        <time>2010-12-04T15:42:33Z</time>
      </trkpt>
      <trkpt lat="45.33388" lon="5.6903">
        <ele>1407.6</ele>
        <time>2010-12-04T15:42:35Z</time>
      </trkpt>
      <trkpt lat="45.33386" lon="5.69029">
        <ele>1407.4</ele>
        <time>2010-12-04T15:42:38Z</time>
      </trkpt>
      <trkpt lat="45.33386" lon="5.69027">
        <ele>1406.8</ele>
        <time>2010-12-04T15:42:47Z</time>
      </trkpt>
      <trkpt lat="45.33385" lon="5.69024">
        <ele>1406.4</ele>
        <time>2010-12-04T15:42:52Z</time>
      </trkpt>
      <trkpt lat="45.33386" lon="5.69016">
        <ele>1406</ele>
        <time>2010-12-04T15:42:57Z</time>
      </trkpt>
      <trkpt lat="45.33386" lon="5.69015">
        <ele>1405.8</ele>
        <time>2010-12-04T15:42:58Z</time>
      </trkpt>
      <trkpt lat="45.33385" lon="5.69013">
        <ele>1405.6</ele>
        <time>2010-12-04T15:43:01Z</time>
      </trkpt>
      <trkpt lat="45.33385" lon="5.69012">
        <ele>1405.6</ele>
        <time>2010-12-04T15:43:02Z</time>
      </trkpt>
      <trkpt lat="45.33384" lon="5.69009">
        <ele>1405.4</ele>
        <time>2010-12-04T15:43:04Z</time>
      </trkpt>
      <trkpt lat="45.33382" lon="5.69006">
        <ele>1405.2</ele>
        <time>2010-12-04T15:43:07Z</time>
      </trkpt>
      <trkpt lat="45.33377" lon="5.68996">
        <ele>1404.8</ele>
        <time>2010-12-04T15:43:10Z</time>
      </trkpt>
      <trkpt lat="45.33373" lon="5.68989">
        <ele>1404.6</ele>
        <time>2010-12-04T15:43:12Z</time>
      </trkpt>
      <trkpt lat="45.33369" lon="5.68985">
        <ele>1404.4</ele>
        <time>2010-12-04T15:43:14Z</time>
      </trkpt>
      <trkpt lat="45.33368" lon="5.68983">
        <ele>1404.2</ele>
        <time>2010-12-04T15:43:16Z</time>
      </trkpt>
      <trkpt lat="45.33367" lon="5.68982">
        <ele>1404.2</ele>
        <time>2010-12-04T15:43:17Z</time>
      </trkpt>
      <trkpt lat="45.33366" lon="5.6898">
        <ele>1404</ele>
        <time>2010-12-04T15:43:18Z</time>
      </trkpt>
      <trkpt lat="45.33358" lon="5.68971">
        <ele>1403.6</ele>
        <time>2010-12-04T15:43:21Z</time>
      </trkpt>
      <trkpt lat="45.33357" lon="5.6897">
        <ele>1403.4</ele>
        <time>2010-12-04T15:43:22Z</time>
      </trkpt>
      <trkpt lat="45.33356" lon="5.68968">
        <ele>1403.4</ele>
        <time>2010-12-04T15:43:23Z</time>
      </trkpt>
      <trkpt lat="45.33352" lon="5.68968">
        <ele>1402.8</ele>
        <time>2010-12-04T15:43:26Z</time>
      </trkpt>
      <trkpt lat="45.3335" lon="5.68966">
        <ele>1402</ele>
        <time>2010-12-04T15:43:32Z</time>
      </trkpt>
      <trkpt lat="45.33345" lon="5.68955">
        <ele>1401</ele>
        <time>2010-12-04T15:43:37Z</time>
      </trkpt>
      <trkpt lat="45.33341" lon="5.6894">
        <ele>1400.2</ele>
        <time>2010-12-04T15:43:41Z</time>
      </trkpt>
      <trkpt lat="45.33335" lon="5.68929">
        <ele>1399.8</ele>
        <time>2010-12-04T15:43:43Z</time>
      </trkpt>
      <trkpt lat="45.33332" lon="5.68925">
        <ele>1399.6</ele>
        <time>2010-12-04T15:43:44Z</time>
      </trkpt>
      <trkpt lat="45.33329" lon="5.68923">
        <ele>1399.4</ele>
        <time>2010-12-04T15:43:45Z</time>
      </trkpt>
      <trkpt lat="45.33325" lon="5.68922">
        <ele>1398.8</ele>
        <time>2010-12-04T15:43:47Z</time>
      </trkpt>
      <trkpt lat="45.33322" lon="5.68922">
        <ele>1398.2</ele>
        <time>2010-12-04T15:43:50Z</time>
      </trkpt>
      <trkpt lat="45.3332" lon="5.68921">
        <ele>1397.4</ele>
        <time>2010-12-04T15:43:53Z</time>
      </trkpt>
      <trkpt lat="45.33318" lon="5.6892">
        <ele>1396.8</ele>
        <time>2010-12-04T15:43:56Z</time>
      </trkpt>
      <trkpt lat="45.33314" lon="5.68918">
        <ele>1396.2</ele>
        <time>2010-12-04T15:43:58Z</time>
      </trkpt>
      <trkpt lat="45.3331" lon="5.68918">
        <ele>1395.8</ele>
        <time>2010-12-04T15:44:00Z</time>
      </trkpt>
      <trkpt lat="45.33308" lon="5.68918">
        <ele>1395</ele>
        <time>2010-12-04T15:44:03Z</time>
      </trkpt>
      <trkpt lat="45.33298" lon="5.6892">
        <ele>1394</ele>
        <time>2010-12-04T15:44:06Z</time>
      </trkpt>
      <trkpt lat="45.33292" lon="5.68918">
        <ele>1393.6</ele>
        <time>2010-12-04T15:44:08Z</time>
      </trkpt>
      <trkpt lat="45.33289" lon="5.68914">
        <ele>1392.4</ele>
        <time>2010-12-04T15:44:12Z</time>
      </trkpt>
      <trkpt lat="45.33286" lon="5.68911">
        <ele>1391.8</ele>
        <time>2010-12-04T15:44:15Z</time>
      </trkpt>
      <trkpt lat="45.33284" lon="5.6891">
        <ele>1391.2</ele>
        <time>2010-12-04T15:44:17Z</time>
      </trkpt>
      <trkpt lat="45.33282" lon="5.68907">
        <ele>1390.6</ele>
        <time>2010-12-04T15:44:20Z</time>
      </trkpt>
      <trkpt lat="45.33281" lon="5.68905">
        <ele>1390.2</ele>
        <time>2010-12-04T15:44:22Z</time>
      </trkpt>
      <trkpt lat="45.33279" lon="5.68895">
        <ele>1389</ele>
        <time>2010-12-04T15:44:28Z</time>
      </trkpt>
      <trkpt lat="45.33273" lon="5.68885">
        <ele>1388.2</ele>
        <time>2010-12-04T15:44:31Z</time>
      </trkpt>
      <trkpt lat="45.33272" lon="5.68882">
        <ele>1388</ele>
        <time>2010-12-04T15:44:32Z</time>
      </trkpt>
      <trkpt lat="45.33268" lon="5.68873">
        <ele>1387</ele>
        <time>2010-12-04T15:44:36Z</time>
      </trkpt>
      <trkpt lat="45.33264" lon="5.68873">
        <ele>1385</ele>
        <time>2010-12-04T15:44:43Z</time>
      </trkpt>
      <trkpt lat="45.33258" lon="5.68872">
        <ele>1383</ele>
        <time>2010-12-04T15:44:51Z</time>
      </trkpt>
      <trkpt lat="45.33258" lon="5.6887">
        <ele>1382.8</ele>
        <time>2010-12-04T15:44:52Z</time>
      </trkpt>
      <trkpt lat="45.33256" lon="5.68869">
        <ele>1382.4</ele>
        <time>2010-12-04T15:44:54Z</time>
      </trkpt>
      <trkpt lat="45.33254" lon="5.68863">
        <ele>1381.6</ele>
        <time>2010-12-04T15:44:57Z</time>
      </trkpt>
      <trkpt lat="45.33249" lon="5.68847">
        <ele>1380.6</ele>
        <time>2010-12-04T15:45:01Z</time>
      </trkpt>
      <trkpt lat="45.33247" lon="5.68845">
        <ele>1379.6</ele>
        <time>2010-12-04T15:45:05Z</time>
      </trkpt>
      <trkpt lat="45.33243" lon="5.68844">
        <ele>1379</ele>
        <time>2010-12-04T15:45:08Z</time>
      </trkpt>
      <trkpt lat="45.3324" lon="5.68844">
        <ele>1378.4</ele>
        <time>2010-12-04T15:45:10Z</time>
      </trkpt>
      <trkpt lat="45.33231" lon="5.68833">
        <ele>1377.2</ele>
        <time>2010-12-04T15:45:14Z</time>
      </trkpt>
      <trkpt lat="45.33219" lon="5.68819">
        <ele>1375.6</ele>
        <time>2010-12-04T15:45:19Z</time>
      </trkpt>
      <trkpt lat="45.33217" lon="5.68815">
        <ele>1375.4</ele>
        <time>2010-12-04T15:45:20Z</time>
      </trkpt>
      <trkpt lat="45.33212" lon="5.6881">
        <ele>1374.6</ele>
        <time>2010-12-04T15:45:22Z</time>
      </trkpt>
      <trkpt lat="45.3321" lon="5.68809">
        <ele>1374.2</ele>
        <time>2010-12-04T15:45:23Z</time>
      </trkpt>
      <trkpt lat="45.33209" lon="5.68806">
        <ele>1372.8</ele>
        <time>2010-12-04T15:45:27Z</time>
      </trkpt>
      <trkpt lat="45.33206" lon="5.68805">
        <ele>1371.8</ele>
        <time>2010-12-04T15:45:30Z</time>
      </trkpt>
      <trkpt lat="45.33205" lon="5.68804">
        <ele>1371.6</ele>
        <time>2010-12-04T15:45:31Z</time>
      </trkpt>
      <trkpt lat="45.33205" lon="5.68805">
        <ele>1370.8</ele>
        <time>2010-12-04T15:45:33Z</time>
      </trkpt>
      <trkpt lat="45.33202" lon="5.68802">
        <ele>1369.6</ele>
        <time>2010-12-04T15:45:37Z</time>
      </trkpt>
      <trkpt lat="45.33201" lon="5.68801">
        <ele>1369.4</ele>
        <time>2010-12-04T15:45:38Z</time>
      </trkpt>
      <trkpt lat="45.33199" lon="5.688">
        <ele>1368.8</ele>
        <time>2010-12-04T15:45:40Z</time>
      </trkpt>
      <trkpt lat="45.33192" lon="5.68788">
        <ele>1367.4</ele>
        <time>2010-12-04T15:45:44Z</time>
      </trkpt>
      <trkpt lat="45.33189" lon="5.68783">
        <ele>1367.2</ele>
        <time>2010-12-04T15:45:45Z</time>
      </trkpt>
      <trkpt lat="45.33184" lon="5.68777">
        <ele>1366.2</ele>
        <time>2010-12-04T15:45:48Z</time>
      </trkpt>
      <trkpt lat="45.33186" lon="5.68776">
        <ele>1364.4</ele>
        <time>2010-12-04T15:45:54Z</time>
      </trkpt>
      <trkpt lat="45.33177" lon="5.6877">
        <ele>1361.4</ele>
        <time>2010-12-04T15:46:06Z</time>
      </trkpt>
      <trkpt lat="45.33176" lon="5.68762">
        <ele>1360.6</ele>
        <time>2010-12-04T15:46:09Z</time>
      </trkpt>
      <trkpt lat="45.33175" lon="5.68758">
        <ele>1360</ele>
        <time>2010-12-04T15:46:12Z</time>
      </trkpt>
      <trkpt lat="45.33174" lon="5.68757">
        <ele>1359.4</ele>
        <time>2010-12-04T15:46:14Z</time>
      </trkpt>
      <trkpt lat="45.33169" lon="5.68755">
        <ele>1357</ele>
        <time>2010-12-04T15:46:25Z</time>
      </trkpt>
      <trkpt lat="45.33165" lon="5.68752">
        <ele>1353.6</ele>
        <time>2010-12-04T15:46:43Z</time>
      </trkpt>
      <trkpt lat="45.33175" lon="5.68747">
        <ele>1352.2</ele>
        <time>2010-12-04T15:46:57Z</time>
      </trkpt>
      <trkpt lat="45.33174" lon="5.68749">
        <ele>1351</ele>
        <time>2010-12-04T15:47:07Z</time>
      </trkpt>
      <trkpt lat="45.3317" lon="5.6875">
        <ele>1350.8</ele>
        <time>2010-12-04T15:47:09Z</time>
      </trkpt>
      <trkpt lat="45.33167" lon="5.68747">
        <ele>1350</ele>
        <time>2010-12-04T15:47:15Z</time>
      </trkpt>
      <trkpt lat="45.33168" lon="5.68745">
        <ele>1349.2</ele>
        <time>2010-12-04T15:47:21Z</time>
      </trkpt>
      <trkpt lat="45.33168" lon="5.68742">
        <ele>1348.2</ele>
        <time>2010-12-04T15:47:30Z</time>
      </trkpt>
      <trkpt lat="45.33168" lon="5.68741">
        <ele>1347.8</ele>
        <time>2010-12-04T15:47:33Z</time>
      </trkpt>
      <trkpt lat="45.33165" lon="5.68739">
        <ele>1346.2</ele>
        <time>2010-12-04T15:47:47Z</time>
      </trkpt>
      <trkpt lat="45.33166" lon="5.68738">
        <ele>1342</ele>
        <time>2010-12-04T15:48:31Z</time>
      </trkpt>
      <trkpt lat="45.33165" lon="5.68731">
        <ele>1341</ele>
        <time>2010-12-04T15:48:45Z</time>
      </trkpt>
      <trkpt lat="45.33164" lon="5.68726">
        <ele>1340.8</ele>
        <time>2010-12-04T15:48:46Z</time>
      </trkpt>
      <trkpt lat="45.33161" lon="5.68713">
        <ele>1340.6</ele>
        <time>2010-12-04T15:48:48Z</time>
      </trkpt>
      <trkpt lat="45.33158" lon="5.68702">
        <ele>1340.2</ele>
        <time>2010-12-04T15:48:50Z</time>
      </trkpt>
      <trkpt lat="45.33158" lon="5.68686">
        <ele>1339.8</ele>
        <time>2010-12-04T15:48:53Z</time>
      </trkpt>
      <trkpt lat="45.33157" lon="5.6868">
        <ele>1339.4</ele>
        <time>2010-12-04T15:48:55Z</time>
      </trkpt>
      <trkpt lat="45.33155" lon="5.68656">
        <ele>1338</ele>
        <time>2010-12-04T15:49:01Z</time>
      </trkpt>
      <trkpt lat="45.33156" lon="5.68636">
        <ele>1336.8</ele>
        <time>2010-12-04T15:49:05Z</time>
      </trkpt>
      <trkpt lat="45.33157" lon="5.6863">
        <ele>1336.6</ele>
        <time>2010-12-04T15:49:06Z</time>
      </trkpt>
      <trkpt lat="45.33163" lon="5.68609">
        <ele>1335.2</ele>
        <time>2010-12-04T15:49:10Z</time>
      </trkpt>
      <trkpt lat="45.33163" lon="5.68603">
        <ele>1334.8</ele>
        <time>2010-12-04T15:49:11Z</time>
      </trkpt>
      <trkpt lat="45.33162" lon="5.68594">
        <ele>1333.6</ele>
        <time>2010-12-04T15:49:14Z</time>
      </trkpt>
      <trkpt lat="45.33161" lon="5.68579">
        <ele>1331.8</ele>
        <time>2010-12-04T15:49:18Z</time>
      </trkpt>
      <trkpt lat="45.33161" lon="5.68572">
        <ele>1331.4</ele>
        <time>2010-12-04T15:49:19Z</time>
      </trkpt>
      <trkpt lat="45.33161" lon="5.68555">
        <ele>1330</ele>
        <time>2010-12-04T15:49:22Z</time>
      </trkpt>
      <trkpt lat="45.33162" lon="5.68551">
        <ele>1329.6</ele>
        <time>2010-12-04T15:49:23Z</time>
      </trkpt>
      <trkpt lat="45.33163" lon="5.68547">
        <ele>1329</ele>
        <time>2010-12-04T15:49:24Z</time>
      </trkpt>
      <trkpt lat="45.33163" lon="5.68529">
        <ele>1327.4</ele>
        <time>2010-12-04T15:49:27Z</time>
      </trkpt>
      <trkpt lat="45.33168" lon="5.68518">
        <ele>1326.4</ele>
        <time>2010-12-04T15:49:29Z</time>
      </trkpt>
      <trkpt lat="45.3317" lon="5.68514">
        <ele>1325.8</ele>
        <time>2010-12-04T15:49:30Z</time>
      </trkpt>
      <trkpt lat="45.33179" lon="5.68497">
        <ele>1323.6</ele>
        <time>2010-12-04T15:49:34Z</time>
      </trkpt>
      <trkpt lat="45.33187" lon="5.68487">
        <ele>1321.2</ele>
        <time>2010-12-04T15:49:38Z</time>
      </trkpt>
      <trkpt lat="45.33188" lon="5.68487">
        <ele>1320.6</ele>
        <time>2010-12-04T15:49:39Z</time>
      </trkpt>
      <trkpt lat="45.33187" lon="5.68487">
        <ele>1319</ele>
        <time>2010-12-04T15:49:42Z</time>
      </trkpt>
      <trkpt lat="45.33187" lon="5.6849">
        <ele>1313.2</ele>
        <time>2010-12-04T15:49:54Z</time>
      </trkpt>
      <trkpt lat="45.33186" lon="5.68495">
        <ele>1297.8</ele>
        <time>2010-12-04T15:50:36Z</time>
      </trkpt>
      <trkpt lat="45.33187" lon="5.68487">
        <ele>1290.4</ele>
        <time>2010-12-04T15:51:07Z</time>
      </trkpt>
      <trkpt lat="45.33187" lon="5.68486">
        <ele>1289.4</ele>
        <time>2010-12-04T15:51:12Z</time>
      </trkpt>
      <trkpt lat="45.33184" lon="5.68488">
        <ele>1283.2</ele>
        <time>2010-12-04T15:51:59Z</time>
      </trkpt>
      <trkpt lat="45.33186" lon="5.68484">
        <ele>1281.6</ele>
        <time>2010-12-04T15:52:12Z</time>
      </trkpt>
      <trkpt lat="45.33187" lon="5.6848">
        <ele>1281.4</ele>
        <time>2010-12-04T15:52:13Z</time>
      </trkpt>
      <trkpt lat="45.33193" lon="5.68466">
        <ele>1280.6</ele>
        <time>2010-12-04T15:52:17Z</time>
      </trkpt>
      <trkpt lat="45.33196" lon="5.68462">
        <ele>1280.4</ele>
        <time>2010-12-04T15:52:18Z</time>
      </trkpt>
      <trkpt lat="45.33204" lon="5.68447">
        <ele>1279.6</ele>
        <time>2010-12-04T15:52:21Z</time>
      </trkpt>
      <trkpt lat="45.33206" lon="5.6844">
        <ele>1279.2</ele>
        <time>2010-12-04T15:52:22Z</time>
      </trkpt>
      <trkpt lat="45.33211" lon="5.68425">
        <ele>1278.2</ele>
        <time>2010-12-04T15:52:25Z</time>
      </trkpt>
      <trkpt lat="45.33213" lon="5.68422">
        <ele>1277.6</ele>
        <time>2010-12-04T15:52:27Z</time>
      </trkpt>
      <trkpt lat="45.33215" lon="5.68422">
        <ele>1277.2</ele>
        <time>2010-12-04T15:52:28Z</time>
      </trkpt>
      <trkpt lat="45.33218" lon="5.6842">
        <ele>1277</ele>
        <time>2010-12-04T15:52:29Z</time>
      </trkpt>
      <trkpt lat="45.33219" lon="5.68416">
        <ele>1276.2</ele>
        <time>2010-12-04T15:52:31Z</time>
      </trkpt>
      <trkpt lat="45.33222" lon="5.68409">
        <ele>1275</ele>
        <time>2010-12-04T15:52:34Z</time>
      </trkpt>
      <trkpt lat="45.33222" lon="5.68411">
        <ele>1273.2</ele>
        <time>2010-12-04T15:52:39Z</time>
      </trkpt>
      <trkpt lat="45.33222" lon="5.6841">
        <ele>1272.4</ele>
        <time>2010-12-04T15:52:41Z</time>
      </trkpt>
      <trkpt lat="45.33222" lon="5.68404">
        <ele>1271.6</ele>
        <time>2010-12-04T15:52:43Z</time>
      </trkpt>
      <trkpt lat="45.33222" lon="5.68399">
        <ele>1271.2</ele>
        <time>2010-12-04T15:52:44Z</time>
      </trkpt>
      <trkpt lat="45.33221" lon="5.68394">
        <ele>1270.4</ele>
        <time>2010-12-04T15:52:46Z</time>
      </trkpt>
      <trkpt lat="45.3322" lon="5.68397">
        <ele>1267.4</ele>
        <time>2010-12-04T15:52:55Z</time>
      </trkpt>
      <trkpt lat="45.33218" lon="5.68398">
        <ele>1266</ele>
        <time>2010-12-04T15:52:59Z</time>
      </trkpt>
      <trkpt lat="45.33215" lon="5.68403">
        <ele>1265.4</ele>
        <time>2010-12-04T15:53:01Z</time>
      </trkpt>
      <trkpt lat="45.33215" lon="5.68405">
        <ele>1264.4</ele>
        <time>2010-12-04T15:53:04Z</time>
      </trkpt>
      <trkpt lat="45.33216" lon="5.68409">
        <ele>1263</ele>
        <time>2010-12-04T15:53:09Z</time>
      </trkpt>
      <trkpt lat="45.33216" lon="5.6841">
        <ele>1261.2</ele>
        <time>2010-12-04T15:53:15Z</time>
      </trkpt>
      <trkpt lat="45.33214" lon="5.68411">
        <ele>1260</ele>
        <time>2010-12-04T15:53:19Z</time>
      </trkpt>
      <trkpt lat="45.33213" lon="5.68411">
        <ele>1259.2</ele>
        <time>2010-12-04T15:53:22Z</time>
      </trkpt>
      <trkpt lat="45.33212" lon="5.68413">
        <ele>1257.4</ele>
        <time>2010-12-04T15:53:29Z</time>
      </trkpt>
      <trkpt lat="45.3321" lon="5.68416">
        <ele>1255.4</ele>
        <time>2010-12-04T15:53:37Z</time>
      </trkpt>
      <trkpt lat="45.33209" lon="5.68416">
        <ele>1255.2</ele>
        <time>2010-12-04T15:53:38Z</time>
      </trkpt>
      <trkpt lat="45.33198" lon="5.68418">
        <ele>1254.2</ele>
        <time>2010-12-04T15:53:42Z</time>
      </trkpt>
      <trkpt lat="45.33196" lon="5.68418">
        <ele>1253.8</ele>
        <time>2010-12-04T15:53:43Z</time>
      </trkpt>
      <trkpt lat="45.33194" lon="5.68418">
        <ele>1253.6</ele>
        <time>2010-12-04T15:53:44Z</time>
      </trkpt>
      <trkpt lat="45.33194" lon="5.68419">
        <ele>1253.2</ele>
        <time>2010-12-04T15:53:45Z</time>
      </trkpt>
      <trkpt lat="45.33192" lon="5.6842">
        <ele>1250.4</ele>
        <time>2010-12-04T15:53:57Z</time>
      </trkpt>
      <trkpt lat="45.33189" lon="5.68422">
        <ele>1248.6</ele>
        <time>2010-12-04T15:54:05Z</time>
      </trkpt>
      <trkpt lat="45.33183" lon="5.68424">
        <ele>1247.8</ele>
        <time>2010-12-04T15:54:09Z</time>
      </trkpt>
      <trkpt lat="45.33184" lon="5.68421">
        <ele>1246.4</ele>
        <time>2010-12-04T15:54:16Z</time>
      </trkpt>
      <trkpt lat="45.33187" lon="5.68415">
        <ele>1246</ele>
        <time>2010-12-04T15:54:18Z</time>
      </trkpt>
      <trkpt lat="45.33187" lon="5.68414">
        <ele>1245.6</ele>
        <time>2010-12-04T15:54:19Z</time>
      </trkpt>
      <trkpt lat="45.33187" lon="5.68415">
        <ele>1245</ele>
        <time>2010-12-04T15:54:22Z</time>
      </trkpt>
      <trkpt lat="45.33186" lon="5.68417">
        <ele>1243.4</ele>
        <time>2010-12-04T15:54:31Z</time>
      </trkpt>
      <trkpt lat="45.33186" lon="5.68414">
        <ele>1241.4</ele>
        <time>2010-12-04T15:54:41Z</time>
      </trkpt>
      <trkpt lat="45.33186" lon="5.68411">
        <ele>1240</ele>
        <time>2010-12-04T15:54:49Z</time>
      </trkpt>
      <trkpt lat="45.33186" lon="5.68406">
        <ele>1230.8</ele>
        <time>2010-12-04T15:56:03Z</time>
      </trkpt>
      <trkpt lat="45.33186" lon="5.68406">
        <ele>1230.4</ele>
        <time>2010-12-04T15:56:07Z</time>
      </trkpt>
      <trkpt lat="45.33186" lon="5.68404">
        <ele>1229.4</ele>
        <time>2010-12-04T15:56:19Z</time>
      </trkpt>
      <trkpt lat="45.33187" lon="5.68405">
        <ele>1223</ele>
        <time>2010-12-04T15:57:21Z</time>
      </trkpt>
      <trkpt lat="45.33187" lon="5.68406">
        <ele>1223</ele>
        <time>2010-12-04T15:57:22Z</time>
      </trkpt>
      <trkpt lat="45.33185" lon="5.68406">
        <ele>1222.4</ele>
        <time>2010-12-04T15:57:28Z</time>
      </trkpt>
      <trkpt lat="45.33183" lon="5.68408">
        <ele>1221.2</ele>
        <time>2010-12-04T15:57:39Z</time>
      </trkpt>
      <trkpt lat="45.33181" lon="5.68409">
        <ele>1220.8</ele>
        <time>2010-12-04T15:57:43Z</time>
      </trkpt>
      <trkpt lat="45.33178" lon="5.68405">
        <ele>1219.6</ele>
        <time>2010-12-04T15:57:53Z</time>
      </trkpt>
      <trkpt lat="45.33176" lon="5.68397">
        <ele>1217.6</ele>
        <time>2010-12-04T15:58:08Z</time>
      </trkpt>
      <trkpt lat="45.33177" lon="5.68397">
        <ele>1216.2</ele>
        <time>2010-12-04T15:58:18Z</time>
      </trkpt>
      <trkpt lat="45.33177" lon="5.68395">
        <ele>1215.8</ele>
        <time>2010-12-04T15:58:22Z</time>
      </trkpt>
      <trkpt lat="45.33177" lon="5.68394">
        <ele>1215.6</ele>
        <time>2010-12-04T15:58:24Z</time>
      </trkpt>
      <trkpt lat="45.33178" lon="5.68388">
        <ele>1213.2</ele>
        <time>2010-12-04T15:58:37Z</time>
      </trkpt>
      <trkpt lat="45.33179" lon="5.68381">
        <ele>1209.8</ele>
        <time>2010-12-04T15:58:56Z</time>
      </trkpt>
      <trkpt lat="45.3318" lon="5.68379">
        <ele>1209</ele>
        <time>2010-12-04T15:59:01Z</time>
      </trkpt>
      <trkpt lat="45.33182" lon="5.68378">
        <ele>1206.4</ele>
        <time>2010-12-04T15:59:15Z</time>
      </trkpt>
      <trkpt lat="45.3318" lon="5.68375">
        <ele>1203.8</ele>
        <time>2010-12-04T15:59:33Z</time>
      </trkpt>
      <trkpt lat="45.3318" lon="5.6837">
        <ele>1201.6</ele>
        <time>2010-12-04T15:59:47Z</time>
      </trkpt>
      <trkpt lat="45.33179" lon="5.68366">
        <ele>1201</ele>
        <time>2010-12-04T15:59:52Z</time>
      </trkpt>
      <trkpt lat="45.33179" lon="5.68363">
        <ele>1199.8</ele>
        <time>2010-12-04T15:59:59Z</time>
      </trkpt>
      <trkpt lat="45.33179" lon="5.68362">
        <ele>1198</ele>
        <time>2010-12-04T16:00:09Z</time>
      </trkpt>
      <trkpt lat="45.33177" lon="5.68362">
        <ele>1196.2</ele>
        <time>2010-12-04T16:00:18Z</time>
      </trkpt>
      <trkpt lat="45.33176" lon="5.6836">
        <ele>1193.8</ele>
        <time>2010-12-04T16:00:32Z</time>
      </trkpt>
      <trkpt lat="45.33176" lon="5.68363">
        <ele>1193</ele>
        <time>2010-12-04T16:00:36Z</time>
      </trkpt>
      <trkpt lat="45.33174" lon="5.68365">
        <ele>1192</ele>
        <time>2010-12-04T16:00:41Z</time>
      </trkpt>
      <trkpt lat="45.33172" lon="5.68366">
        <ele>1191.2</ele>
        <time>2010-12-04T16:00:45Z</time>
      </trkpt>
      <trkpt lat="45.33171" lon="5.68368">
        <ele>1189.6</ele>
        <time>2010-12-04T16:00:52Z</time>
      </trkpt>
      <trkpt lat="45.33169" lon="5.68368">
        <ele>1188</ele>
        <time>2010-12-04T16:01:00Z</time>
      </trkpt>
      <trkpt lat="45.33168" lon="5.68365">
        <ele>1186.2</ele>
        <time>2010-12-04T16:01:10Z</time>
      </trkpt>
      <trkpt lat="45.33165" lon="5.68363">
        <ele>1183.8</ele>
        <time>2010-12-04T16:01:22Z</time>
      </trkpt>
      <trkpt lat="45.33169" lon="5.68358">
        <ele>1182.2</ele>
        <time>2010-12-04T16:01:29Z</time>
      </trkpt>
      <trkpt lat="45.33171" lon="5.68357">
        <ele>1180.8</ele>
        <time>2010-12-04T16:01:35Z</time>
      </trkpt>
      <trkpt lat="45.33172" lon="5.68354">
        <ele>1180</ele>
        <time>2010-12-04T16:01:39Z</time>
      </trkpt>
      <trkpt lat="45.33171" lon="5.68351">
        <ele>1177.4</ele>
        <time>2010-12-04T16:01:50Z</time>
      </trkpt>
      <trkpt lat="45.33172" lon="5.6835">
        <ele>1177.4</ele>
        <time>2010-12-04T16:01:51Z</time>
      </trkpt>
      <trkpt lat="45.33173" lon="5.68346">
        <ele>1176.2</ele>
        <time>2010-12-04T16:01:56Z</time>
      </trkpt>
      <trkpt lat="45.33173" lon="5.68343">
        <ele>1175.4</ele>
        <time>2010-12-04T16:02:00Z</time>
      </trkpt>
      <trkpt lat="45.33174" lon="5.68339">
        <ele>1174</ele>
        <time>2010-12-04T16:02:06Z</time>
      </trkpt>
      <trkpt lat="45.33175" lon="5.68334">
        <ele>1172.8</ele>
        <time>2010-12-04T16:02:12Z</time>
      </trkpt>
      <trkpt lat="45.33176" lon="5.6833">
        <ele>1171.2</ele>
        <time>2010-12-04T16:02:18Z</time>
      </trkpt>
      <trkpt lat="45.33178" lon="5.68327">
        <ele>1169.8</ele>
        <time>2010-12-04T16:02:24Z</time>
      </trkpt>
      <trkpt lat="45.33178" lon="5.68326">
        <ele>1169.4</ele>
        <time>2010-12-04T16:02:26Z</time>
      </trkpt>
      <trkpt lat="45.33177" lon="5.68316">
        <ele>1167</ele>
        <time>2010-12-04T16:02:37Z</time>
      </trkpt>
      <trkpt lat="45.33178" lon="5.68311">
        <ele>1165.8</ele>
        <time>2010-12-04T16:02:43Z</time>
      </trkpt>
      <trkpt lat="45.33179" lon="5.68306">
        <ele>1164.8</ele>
        <time>2010-12-04T16:02:48Z</time>
      </trkpt>
      <trkpt lat="45.33181" lon="5.68305">
        <ele>1163.6</ele>
        <time>2010-12-04T16:02:54Z</time>
      </trkpt>
      <trkpt lat="45.33183" lon="5.68303">
        <ele>1162</ele>
        <time>2010-12-04T16:03:01Z</time>
      </trkpt>
      <trkpt lat="45.33182" lon="5.68301">
        <ele>1161.4</ele>
        <time>2010-12-04T16:03:04Z</time>
      </trkpt>
      <trkpt lat="45.33183" lon="5.68299">
        <ele>1160.8</ele>
        <time>2010-12-04T16:03:07Z</time>
      </trkpt>
      <trkpt lat="45.33185" lon="5.68298">
        <ele>1159.4</ele>
        <time>2010-12-04T16:03:13Z</time>
      </trkpt>
      <trkpt lat="45.33186" lon="5.68295">
        <ele>1158.4</ele>
        <time>2010-12-04T16:03:18Z</time>
      </trkpt>
      <trkpt lat="45.33188" lon="5.68292">
        <ele>1156.6</ele>
        <time>2010-12-04T16:03:26Z</time>
      </trkpt>
      <trkpt lat="45.33189" lon="5.6829">
        <ele>1155.4</ele>
        <time>2010-12-04T16:03:32Z</time>
      </trkpt>
      <trkpt lat="45.33189" lon="5.68282">
        <ele>1154</ele>
        <time>2010-12-04T16:03:42Z</time>
      </trkpt>
      <trkpt lat="45.33188" lon="5.68277">
        <ele>1153.4</ele>
        <time>2010-12-04T16:03:47Z</time>
      </trkpt>
      <trkpt lat="45.33189" lon="5.68274">
        <ele>1152.8</ele>
        <time>2010-12-04T16:03:51Z</time>
      </trkpt>
      <trkpt lat="45.33189" lon="5.68273">
        <ele>1152.2</ele>
        <time>2010-12-04T16:03:55Z</time>
      </trkpt>
      <trkpt lat="45.33188" lon="5.68269">
        <ele>1151.2</ele>
        <time>2010-12-04T16:04:02Z</time>
      </trkpt>
      <trkpt lat="45.33188" lon="5.68269">
        <ele>1150.2</ele>
        <time>2010-12-04T16:04:08Z</time>
      </trkpt>
      <trkpt lat="45.33189" lon="5.68267">
        <ele>1149.2</ele>
        <time>2010-12-04T16:04:13Z</time>
      </trkpt>
      <trkpt lat="45.33186" lon="5.68265">
        <ele>1147.4</ele>
        <time>2010-12-04T16:04:22Z</time>
      </trkpt>
      <trkpt lat="45.33186" lon="5.68265">
        <ele>1146.6</ele>
        <time>2010-12-04T16:04:26Z</time>
      </trkpt>
      <trkpt lat="45.33184" lon="5.68263">
        <ele>1145.2</ele>
        <time>2010-12-04T16:04:32Z</time>
      </trkpt>
      <trkpt lat="45.3318" lon="5.68264">
        <ele>1144.2</ele>
        <time>2010-12-04T16:04:37Z</time>
      </trkpt>
      <trkpt lat="45.33179" lon="5.68268">
        <ele>1142.4</ele>
        <time>2010-12-04T16:04:46Z</time>
      </trkpt>
      <trkpt lat="45.33179" lon="5.68268">
        <ele>1142.2</ele>
        <time>2010-12-04T16:04:47Z</time>
      </trkpt>
      <trkpt lat="45.33177" lon="5.68268">
        <ele>1141.4</ele>
        <time>2010-12-04T16:04:52Z</time>
      </trkpt>
      <trkpt lat="45.33175" lon="5.68271">
        <ele>1140.4</ele>
        <time>2010-12-04T16:04:57Z</time>
      </trkpt>
      <trkpt lat="45.3317" lon="5.68274">
        <ele>1138.4</ele>
        <time>2010-12-04T16:05:09Z</time>
      </trkpt>
      <trkpt lat="45.33168" lon="5.68277">
        <ele>1137.4</ele>
        <time>2010-12-04T16:05:15Z</time>
      </trkpt>
      <trkpt lat="45.33166" lon="5.68278">
        <ele>1136.4</ele>
        <time>2010-12-04T16:05:21Z</time>
      </trkpt>
      <trkpt lat="45.33165" lon="5.68278">
        <ele>1135.4</ele>
        <time>2010-12-04T16:05:27Z</time>
      </trkpt>
      <trkpt lat="45.33164" lon="5.6828">
        <ele>1134.6</ele>
        <time>2010-12-04T16:05:32Z</time>
      </trkpt>
      <trkpt lat="45.33163" lon="5.6828">
        <ele>1134.2</ele>
        <time>2010-12-04T16:05:35Z</time>
      </trkpt>
      <trkpt lat="45.33162" lon="5.68282">
        <ele>1133.4</ele>
        <time>2010-12-04T16:05:40Z</time>
      </trkpt>
      <trkpt lat="45.3316" lon="5.68287">
        <ele>1131.4</ele>
        <time>2010-12-04T16:05:57Z</time>
      </trkpt>
      <trkpt lat="45.33158" lon="5.68289">
        <ele>1131</ele>
        <time>2010-12-04T16:06:01Z</time>
      </trkpt>
      <trkpt lat="45.33155" lon="5.68291">
        <ele>1130.2</ele>
        <time>2010-12-04T16:06:08Z</time>
      </trkpt>
      <trkpt lat="45.3315" lon="5.68292">
        <ele>1129.2</ele>
        <time>2010-12-04T16:06:16Z</time>
      </trkpt>
      <trkpt lat="45.33147" lon="5.68293">
        <ele>1129</ele>
        <time>2010-12-04T16:06:21Z</time>
      </trkpt>
      <trkpt lat="45.33146" lon="5.68293">
        <ele>1128.8</ele>
        <time>2010-12-04T16:06:24Z</time>
      </trkpt>
      <trkpt lat="45.33143" lon="5.68294">
        <ele>1128</ele>
        <time>2010-12-04T16:06:38Z</time>
      </trkpt>
      <trkpt lat="45.3314" lon="5.68296">
        <ele>1127.4</ele>
        <time>2010-12-04T16:06:43Z</time>
      </trkpt>
      <trkpt lat="45.33139" lon="5.683">
        <ele>1126.8</ele>
        <time>2010-12-04T16:06:50Z</time>
      </trkpt>
      <trkpt lat="45.33137" lon="5.683">
        <ele>1126.6</ele>
        <time>2010-12-04T16:06:53Z</time>
      </trkpt>
      <trkpt lat="45.33135" lon="5.68283">
        <ele>1127</ele>
        <time>2010-12-04T16:08:11Z</time>
      </trkpt>
      <trkpt lat="45.33138" lon="5.68272">
        <ele>1126.6</ele>
        <time>2010-12-04T16:08:15Z</time>
      </trkpt>
      <trkpt lat="45.33145" lon="5.68263">
        <ele>1126.2</ele>
        <time>2010-12-04T16:08:19Z</time>
      </trkpt>
      <trkpt lat="45.33146" lon="5.68265">
        <ele>1125.8</ele>
        <time>2010-12-04T16:08:23Z</time>
      </trkpt>
      <trkpt lat="45.33147" lon="5.68255">
        <ele>1124</ele>
        <time>2010-12-04T16:08:39Z</time>
      </trkpt>
      <trkpt lat="45.33147" lon="5.68245">
        <ele>1123.6</ele>
        <time>2010-12-04T16:08:42Z</time>
      </trkpt>
      <trkpt lat="45.3315" lon="5.68242">
        <ele>1122.2</ele>
        <time>2010-12-04T16:08:50Z</time>
      </trkpt>
      <trkpt lat="45.33151" lon="5.68237">
        <ele>1122</ele>
        <time>2010-12-04T16:08:51Z</time>
      </trkpt>
      <trkpt lat="45.33154" lon="5.68229">
        <ele>1121.4</ele>
        <time>2010-12-04T16:08:55Z</time>
      </trkpt>
      <trkpt lat="45.33152" lon="5.6823">
        <ele>1120.2</ele>
        <time>2010-12-04T16:09:02Z</time>
      </trkpt>
      <trkpt lat="45.33152" lon="5.68228">
        <ele>1119.2</ele>
        <time>2010-12-04T16:09:08Z</time>
      </trkpt>
      <trkpt lat="45.33154" lon="5.6822">
        <ele>1118</ele>
        <time>2010-12-04T16:09:15Z</time>
      </trkpt>
      <trkpt lat="45.3316" lon="5.68204">
        <ele>1117.2</ele>
        <time>2010-12-04T16:09:19Z</time>
      </trkpt>
      <trkpt lat="45.33162" lon="5.68206">
        <ele>1116.6</ele>
        <time>2010-12-04T16:09:23Z</time>
      </trkpt>
      <trkpt lat="45.33164" lon="5.68201">
        <ele>1114.4</ele>
        <time>2010-12-04T16:09:38Z</time>
      </trkpt>
      <trkpt lat="45.33165" lon="5.68198">
        <ele>1114.2</ele>
        <time>2010-12-04T16:09:39Z</time>
      </trkpt>
      <trkpt lat="45.33174" lon="5.68188">
        <ele>1113.6</ele>
        <time>2010-12-04T16:09:43Z</time>
      </trkpt>
      <trkpt lat="45.33178" lon="5.68182">
        <ele>1113.2</ele>
        <time>2010-12-04T16:09:45Z</time>
      </trkpt>
      <trkpt lat="45.3318" lon="5.68178">
        <ele>1112.8</ele>
        <time>2010-12-04T16:09:47Z</time>
      </trkpt>
      <trkpt lat="45.33178" lon="5.68176">
        <ele>1112.2</ele>
        <time>2010-12-04T16:09:51Z</time>
      </trkpt>
      <trkpt lat="45.33173" lon="5.68174">
        <ele>1111.8</ele>
        <time>2010-12-04T16:09:53Z</time>
      </trkpt>
      <trkpt lat="45.33166" lon="5.68168">
        <ele>1111.2</ele>
        <time>2010-12-04T16:09:56Z</time>
      </trkpt>
      <trkpt lat="45.33165" lon="5.68165">
        <ele>1110.8</ele>
        <time>2010-12-04T16:09:57Z</time>
      </trkpt>
      <trkpt lat="45.33154" lon="5.68148">
        <ele>1109.6</ele>
        <time>2010-12-04T16:10:01Z</time>
      </trkpt>
      <trkpt lat="45.33149" lon="5.68144">
        <ele>1108.6</ele>
        <time>2010-12-04T16:10:04Z</time>
      </trkpt>
      <trkpt lat="45.33151" lon="5.68144">
        <ele>1107.6</ele>
        <time>2010-12-04T16:10:07Z</time>
      </trkpt>
      <trkpt lat="45.33152" lon="5.68144">
        <ele>1107.2</ele>
        <time>2010-12-04T16:10:08Z</time>
      </trkpt>
      <trkpt lat="45.33155" lon="5.68146">
        <ele>1105.4</ele>
        <time>2010-12-04T16:10:13Z</time>
      </trkpt>
      <trkpt lat="45.33156" lon="5.68145">
        <ele>1104.6</ele>
        <time>2010-12-04T16:10:15Z</time>
      </trkpt>
      <trkpt lat="45.33158" lon="5.68143">
        <ele>1103.6</ele>
        <time>2010-12-04T16:10:18Z</time>
      </trkpt>
      <trkpt lat="45.33154" lon="5.6814">
        <ele>1102</ele>
        <time>2010-12-04T16:10:22Z</time>
      </trkpt>
      <trkpt lat="45.33146" lon="5.68138">
        <ele>1100.4</ele>
        <time>2010-12-04T16:10:26Z</time>
      </trkpt>
      <trkpt lat="45.33146" lon="5.68139">
        <ele>1100</ele>
        <time>2010-12-04T16:10:27Z</time>
      </trkpt>
      <trkpt lat="45.33146" lon="5.68141">
        <ele>1096.6</ele>
        <time>2010-12-04T16:10:35Z</time>
      </trkpt>
      <trkpt lat="45.3314" lon="5.68138">
        <ele>1095.8</ele>
        <time>2010-12-04T16:10:37Z</time>
      </trkpt>
      <trkpt lat="45.33137" lon="5.68138">
        <ele>1095.4</ele>
        <time>2010-12-04T16:10:38Z</time>
      </trkpt>
      <trkpt lat="45.33133" lon="5.68134">
        <ele>1094.2</ele>
        <time>2010-12-04T16:10:41Z</time>
      </trkpt>
      <trkpt lat="45.33138" lon="5.6812">
        <ele>1092.8</ele>
        <time>2010-12-04T16:10:44Z</time>
      </trkpt>
      <trkpt lat="45.33138" lon="5.68117">
        <ele>1092.4</ele>
        <time>2010-12-04T16:10:45Z</time>
      </trkpt>
      <trkpt lat="45.33137" lon="5.68117">
        <ele>1091.6</ele>
        <time>2010-12-04T16:10:47Z</time>
      </trkpt>
      <trkpt lat="45.33135" lon="5.68116">
        <ele>1086.6</ele>
        <time>2010-12-04T16:11:02Z</time>
      </trkpt>
      <trkpt lat="45.33134" lon="5.68116">
        <ele>1085.6</ele>
        <time>2010-12-04T16:11:05Z</time>
      </trkpt>
      <trkpt lat="45.3313" lon="5.68117">
        <ele>1084.2</ele>
        <time>2010-12-04T16:11:09Z</time>
      </trkpt>
      <trkpt lat="45.3312" lon="5.68114">
        <ele>1082.2</ele>
        <time>2010-12-04T16:11:14Z</time>
      </trkpt>
      <trkpt lat="45.33119" lon="5.68114">
        <ele>1082</ele>
        <time>2010-12-04T16:11:15Z</time>
      </trkpt>
      <trkpt lat="45.33118" lon="5.68114">
        <ele>1081.6</ele>
        <time>2010-12-04T16:11:16Z</time>
      </trkpt>
      <trkpt lat="45.33115" lon="5.6811">
        <ele>1080.4</ele>
        <time>2010-12-04T16:11:19Z</time>
      </trkpt>
      <trkpt lat="45.33113" lon="5.68108">
        <ele>1079.4</ele>
        <time>2010-12-04T16:11:22Z</time>
      </trkpt>
      <trkpt lat="45.33108" lon="5.68096">
        <ele>1076.4</ele>
        <time>2010-12-04T16:11:30Z</time>
      </trkpt>
      <trkpt lat="45.33096" lon="5.68091">
        <ele>1075</ele>
        <time>2010-12-04T16:11:34Z</time>
      </trkpt>
      <trkpt lat="45.33097" lon="5.68092">
        <ele>1073.8</ele>
        <time>2010-12-04T16:11:37Z</time>
      </trkpt>
      <trkpt lat="45.33094" lon="5.68089">
        <ele>1072.2</ele>
        <time>2010-12-04T16:11:41Z</time>
      </trkpt>
      <trkpt lat="45.33091" lon="5.68088">
        <ele>1071.8</ele>
        <time>2010-12-04T16:11:42Z</time>
      </trkpt>
      <trkpt lat="45.33086" lon="5.68086">
        <ele>1070.4</ele>
        <time>2010-12-04T16:11:45Z</time>
      </trkpt>
      <trkpt lat="45.33084" lon="5.68087">
        <ele>1068.8</ele>
        <time>2010-12-04T16:11:49Z</time>
      </trkpt>
      <trkpt lat="45.33084" lon="5.68087">
        <ele>1068</ele>
        <time>2010-12-04T16:11:51Z</time>
      </trkpt>
      <trkpt lat="45.33081" lon="5.68089">
        <ele>1063.6</ele>
        <time>2010-12-04T16:12:02Z</time>
      </trkpt>
      <trkpt lat="45.33081" lon="5.68093">
        <ele>1062.4</ele>
        <time>2010-12-04T16:12:05Z</time>
      </trkpt>
      <trkpt lat="45.33081" lon="5.68095">
        <ele>1062</ele>
        <time>2010-12-04T16:12:06Z</time>
      </trkpt>
      <trkpt lat="45.33079" lon="5.681">
        <ele>1061.2</ele>
        <time>2010-12-04T16:12:08Z</time>
      </trkpt>
      <trkpt lat="45.33078" lon="5.68101">
        <ele>1060.8</ele>
        <time>2010-12-04T16:12:09Z</time>
      </trkpt>
      <trkpt lat="45.33078" lon="5.68101">
        <ele>1060.4</ele>
        <time>2010-12-04T16:12:10Z</time>
      </trkpt>
      <trkpt lat="45.33076" lon="5.68102">
        <ele>1059.4</ele>
        <time>2010-12-04T16:12:13Z</time>
      </trkpt>
      <trkpt lat="45.33075" lon="5.68103">
        <ele>1058.6</ele>
        <time>2010-12-04T16:12:15Z</time>
      </trkpt>
      <trkpt lat="45.3307" lon="5.68105">
        <ele>1057</ele>
        <time>2010-12-04T16:12:19Z</time>
      </trkpt>
      <trkpt lat="45.33068" lon="5.68105">
        <ele>1055.8</ele>
        <time>2010-12-04T16:12:22Z</time>
      </trkpt>
      <trkpt lat="45.33064" lon="5.68106">
        <ele>1055</ele>
        <time>2010-12-04T16:12:24Z</time>
      </trkpt>
      <trkpt lat="45.33063" lon="5.68108">
        <ele>1053.4</ele>
        <time>2010-12-04T16:12:28Z</time>
      </trkpt>
      <trkpt lat="45.33064" lon="5.68106">
        <ele>1049.6</ele>
        <time>2010-12-04T16:12:38Z</time>
      </trkpt>
      <trkpt lat="45.33063" lon="5.68105">
        <ele>1049.2</ele>
        <time>2010-12-04T16:12:39Z</time>
      </trkpt>
      <trkpt lat="45.3306" lon="5.68106">
        <ele>1048.4</ele>
        <time>2010-12-04T16:12:41Z</time>
      </trkpt>
      <trkpt lat="45.33058" lon="5.68104">
        <ele>1045.8</ele>
        <time>2010-12-04T16:12:49Z</time>
      </trkpt>
      <trkpt lat="45.33055" lon="5.68105">
        <ele>1045.2</ele>
        <time>2010-12-04T16:12:51Z</time>
      </trkpt>
      <trkpt lat="45.33054" lon="5.68106">
        <ele>1044.2</ele>
        <time>2010-12-04T16:12:54Z</time>
      </trkpt>
      <trkpt lat="45.33052" lon="5.68107">
        <ele>1043.4</ele>
        <time>2010-12-04T16:12:57Z</time>
      </trkpt>
      <trkpt lat="45.33047" lon="5.68108">
        <ele>1041.8</ele>
        <time>2010-12-04T16:13:02Z</time>
      </trkpt>
      <trkpt lat="45.33046" lon="5.68107">
        <ele>1039.8</ele>
        <time>2010-12-04T16:13:08Z</time>
      </trkpt>
      <trkpt lat="45.33045" lon="5.681">
        <ele>1038.8</ele>
        <time>2010-12-04T16:13:11Z</time>
      </trkpt>
      <trkpt lat="45.33041" lon="5.68097">
        <ele>1037.2</ele>
        <time>2010-12-04T16:13:15Z</time>
      </trkpt>
      <trkpt lat="45.33037" lon="5.68092">
        <ele>1035.4</ele>
        <time>2010-12-04T16:13:20Z</time>
      </trkpt>
      <trkpt lat="45.33035" lon="5.68092">
        <ele>1035</ele>
        <time>2010-12-04T16:13:21Z</time>
      </trkpt>
      <trkpt lat="45.3303" lon="5.68093">
        <ele>1033.8</ele>
        <time>2010-12-04T16:13:24Z</time>
      </trkpt>
      <trkpt lat="45.33027" lon="5.68091">
        <ele>1033.4</ele>
        <time>2010-12-04T16:13:25Z</time>
      </trkpt>
      <trkpt lat="45.33026" lon="5.68083">
        <ele>1032.6</ele>
        <time>2010-12-04T16:13:27Z</time>
      </trkpt>
      <trkpt lat="45.33024" lon="5.68079">
        <ele>1032.2</ele>
        <time>2010-12-04T16:13:28Z</time>
      </trkpt>
      <trkpt lat="45.33019" lon="5.6807">
        <ele>1031.2</ele>
        <time>2010-12-04T16:13:30Z</time>
      </trkpt>
      <trkpt lat="45.33011" lon="5.68062">
        <ele>1030.2</ele>
        <time>2010-12-04T16:13:32Z</time>
      </trkpt>
      <trkpt lat="45.3301" lon="5.68054">
        <ele>1029.8</ele>
        <time>2010-12-04T16:13:33Z</time>
      </trkpt>
      <trkpt lat="45.33009" lon="5.68052">
        <ele>1029.2</ele>
        <time>2010-12-04T16:13:34Z</time>
      </trkpt>
      <trkpt lat="45.33008" lon="5.68037">
        <ele>1027.6</ele>
        <time>2010-12-04T16:13:37Z</time>
      </trkpt>
      <trkpt lat="45.33005" lon="5.68031">
        <ele>1026.6</ele>
        <time>2010-12-04T16:13:39Z</time>
      </trkpt>
      <trkpt lat="45.33005" lon="5.68032">
        <ele>1025.6</ele>
        <time>2010-12-04T16:13:41Z</time>
      </trkpt>
      <trkpt lat="45.33007" lon="5.68033">
        <ele>1022.8</ele>
        <time>2010-12-04T16:13:46Z</time>
      </trkpt>
      <trkpt lat="45.33007" lon="5.68034">
        <ele>1022.4</ele>
        <time>2010-12-04T16:13:47Z</time>
      </trkpt>
      <trkpt lat="45.33007" lon="5.68034">
        <ele>1021.4</ele>
        <time>2010-12-04T16:13:49Z</time>
      </trkpt>
      <trkpt lat="45.33007" lon="5.68034">
        <ele>1018.8</ele>
        <time>2010-12-04T16:13:54Z</time>
      </trkpt>
      <trkpt lat="45.33011" lon="5.68033">
        <ele>1014.2</ele>
        <time>2010-12-04T16:14:05Z</time>
      </trkpt>
      <trkpt lat="45.3301" lon="5.68029">
        <ele>1011.6</ele>
        <time>2010-12-04T16:14:12Z</time>
      </trkpt>
      <trkpt lat="45.33012" lon="5.68046">
        <ele>1001.6</ele>
        <time>2010-12-04T16:14:36Z</time>
      </trkpt>
      <trkpt lat="45.33012" lon="5.68044">
        <ele>999.4</ele>
        <time>2010-12-04T16:14:42Z</time>
      </trkpt>
      <trkpt lat="45.33011" lon="5.6803">
        <ele>991.8</ele>
        <time>2010-12-04T16:15:09Z</time>
      </trkpt>
      <trkpt lat="45.33011" lon="5.68029">
        <ele>991.2</ele>
        <time>2010-12-04T16:15:12Z</time>
      </trkpt>
      <trkpt lat="45.33012" lon="5.68037">
        <ele>985.4</ele>
        <time>2010-12-04T16:15:40Z</time>
      </trkpt>
      <trkpt lat="45.33006" lon="5.68038">
        <ele>977.8</ele>
        <time>2010-12-04T16:16:48Z</time>
      </trkpt>
      <trkpt lat="45.33004" lon="5.68037">
        <ele>977.8</ele>
        <time>2010-12-04T16:16:49Z</time>
      </trkpt>
      <trkpt lat="45.32998" lon="5.6804">
        <ele>977.4</ele>
        <time>2010-12-04T16:16:52Z</time>
      </trkpt>
      <trkpt lat="45.32987" lon="5.68031">
        <ele>976.6</ele>
        <time>2010-12-04T16:16:56Z</time>
      </trkpt>
      <trkpt lat="45.32984" lon="5.68016">
        <ele>975.8</ele>
        <time>2010-12-04T16:16:59Z</time>
      </trkpt>
      <trkpt lat="45.32988" lon="5.6801">
        <ele>975.4</ele>
        <time>2010-12-04T16:17:01Z</time>
      </trkpt>
      <trkpt lat="45.3299" lon="5.68009">
        <ele>975</ele>
        <time>2010-12-04T16:17:02Z</time>
      </trkpt>
      <trkpt lat="45.32991" lon="5.68009">
        <ele>974.8</ele>
        <time>2010-12-04T16:17:03Z</time>
      </trkpt>
      <trkpt lat="45.32993" lon="5.68003">
        <ele>973.4</ele>
        <time>2010-12-04T16:17:08Z</time>
      </trkpt>
      <trkpt lat="45.32992" lon="5.67997">
        <ele>973.2</ele>
        <time>2010-12-04T16:17:09Z</time>
      </trkpt>
      <trkpt lat="45.32992" lon="5.67984">
        <ele>972.4</ele>
        <time>2010-12-04T16:17:11Z</time>
      </trkpt>
      <trkpt lat="45.32989" lon="5.67975">
        <ele>971.8</ele>
        <time>2010-12-04T16:17:13Z</time>
      </trkpt>
      <trkpt lat="45.32987" lon="5.67973">
        <ele>971.4</ele>
        <time>2010-12-04T16:17:14Z</time>
      </trkpt>
      <trkpt lat="45.32984" lon="5.67965">
        <ele>970.2</ele>
        <time>2010-12-04T16:17:17Z</time>
      </trkpt>
      <trkpt lat="45.32984" lon="5.67963">
        <ele>970</ele>
        <time>2010-12-04T16:17:18Z</time>
      </trkpt>
      <trkpt lat="45.32985" lon="5.67963">
        <ele>969.6</ele>
        <time>2010-12-04T16:17:19Z</time>
      </trkpt>
      <trkpt lat="45.32986" lon="5.67957">
        <ele>968.6</ele>
        <time>2010-12-04T16:17:21Z</time>
      </trkpt>
      <trkpt lat="45.32978" lon="5.67945">
        <ele>967.4</ele>
        <time>2010-12-04T16:17:24Z</time>
      </trkpt>
      <trkpt lat="45.32975" lon="5.67931">
        <ele>966</ele>
        <time>2010-12-04T16:17:27Z</time>
      </trkpt>
      <trkpt lat="45.32976" lon="5.67931">
        <ele>965</ele>
        <time>2010-12-04T16:17:29Z</time>
      </trkpt>
      <trkpt lat="45.32977" lon="5.67932">
        <ele>964.4</ele>
        <time>2010-12-04T16:17:30Z</time>
      </trkpt>
      <trkpt lat="45.32968" lon="5.67931">
        <ele>962.6</ele>
        <time>2010-12-04T16:17:34Z</time>
      </trkpt>
      <trkpt lat="45.32954" lon="5.67926">
        <ele>960.6</ele>
        <time>2010-12-04T16:17:38Z</time>
      </trkpt>
      <trkpt lat="45.32949" lon="5.67926">
        <ele>960</ele>
        <time>2010-12-04T16:17:39Z</time>
      </trkpt>
      <trkpt lat="45.32943" lon="5.67927">
        <ele>959</ele>
        <time>2010-12-04T16:17:41Z</time>
      </trkpt>
      <trkpt lat="45.32943" lon="5.67927">
        <ele>957.4</ele>
        <time>2010-12-04T16:17:44Z</time>
      </trkpt>
      <trkpt lat="45.32944" lon="5.67925">
        <ele>953.8</ele>
        <time>2010-12-04T16:17:52Z</time>
      </trkpt>
      <trkpt lat="45.32942" lon="5.67925">
        <ele>953</ele>
        <time>2010-12-04T16:17:54Z</time>
      </trkpt>
      <trkpt lat="45.32938" lon="5.67926">
        <ele>952.6</ele>
        <time>2010-12-04T16:17:55Z</time>
      </trkpt>
      <trkpt lat="45.32929" lon="5.67926">
        <ele>951.6</ele>
        <time>2010-12-04T16:17:57Z</time>
      </trkpt>
      <trkpt lat="45.32919" lon="5.67925">
        <ele>950.6</ele>
        <time>2010-12-04T16:17:59Z</time>
      </trkpt>
      <trkpt lat="45.32908" lon="5.67925">
        <ele>949.6</ele>
        <time>2010-12-04T16:18:01Z</time>
      </trkpt>
      <trkpt lat="45.32894" lon="5.67923">
        <ele>947.8</ele>
        <time>2010-12-04T16:18:04Z</time>
      </trkpt>
      <trkpt lat="45.32889" lon="5.67922">
        <ele>947.2</ele>
        <time>2010-12-04T16:18:05Z</time>
      </trkpt>
      <trkpt lat="45.3288" lon="5.67922">
        <ele>945.8</ele>
        <time>2010-12-04T16:18:07Z</time>
      </trkpt>
      <trkpt lat="45.32876" lon="5.67922">
        <ele>945.2</ele>
        <time>2010-12-04T16:18:08Z</time>
      </trkpt>
      <trkpt lat="45.32873" lon="5.67921">
        <ele>943.4</ele>
        <time>2010-12-04T16:18:11Z</time>
      </trkpt>
      <trkpt lat="45.32873" lon="5.67921">
        <ele>942.8</ele>
        <time>2010-12-04T16:18:12Z</time>
      </trkpt>
      <trkpt lat="45.32873" lon="5.67921">
        <ele>941</ele>
        <time>2010-12-04T16:18:15Z</time>
      </trkpt>
      <trkpt lat="45.3287" lon="5.67922">
        <ele>940.4</ele>
        <time>2010-12-04T16:18:16Z</time>
      </trkpt>
      <trkpt lat="45.32858" lon="5.67921">
        <ele>938.2</ele>
        <time>2010-12-04T16:18:19Z</time>
      </trkpt>
      <trkpt lat="45.32852" lon="5.67917">
        <ele>937.6</ele>
        <time>2010-12-04T16:18:20Z</time>
      </trkpt>
      <trkpt lat="45.32846" lon="5.67915">
        <ele>937</ele>
        <time>2010-12-04T16:18:21Z</time>
      </trkpt>
      <trkpt lat="45.32836" lon="5.67912">
        <ele>935.4</ele>
        <time>2010-12-04T16:18:23Z</time>
      </trkpt>
      <trkpt lat="45.32831" lon="5.67909">
        <ele>934.8</ele>
        <time>2010-12-04T16:18:24Z</time>
      </trkpt>
      <trkpt lat="45.32825" lon="5.67909">
        <ele>934</ele>
        <time>2010-12-04T16:18:25Z</time>
      </trkpt>
      <trkpt lat="45.32815" lon="5.67903">
        <ele>932.6</ele>
        <time>2010-12-04T16:18:27Z</time>
      </trkpt>
      <trkpt lat="45.3281" lon="5.67901">
        <ele>931.6</ele>
        <time>2010-12-04T16:18:28Z</time>
      </trkpt>
      <trkpt lat="45.32804" lon="5.67899">
        <ele>930.8</ele>
        <time>2010-12-04T16:18:29Z</time>
      </trkpt>
      <trkpt lat="45.32792" lon="5.67897">
        <ele>929.2</ele>
        <time>2010-12-04T16:18:31Z</time>
      </trkpt>
      <trkpt lat="45.32786" lon="5.67894">
        <ele>928.4</ele>
        <time>2010-12-04T16:18:32Z</time>
      </trkpt>
      <trkpt lat="45.32781" lon="5.67892">
        <ele>927.6</ele>
        <time>2010-12-04T16:18:33Z</time>
      </trkpt>
      <trkpt lat="45.32771" lon="5.67888">
        <ele>925.8</ele>
        <time>2010-12-04T16:18:35Z</time>
      </trkpt>
      <trkpt lat="45.32766" lon="5.67886">
        <ele>925</ele>
        <time>2010-12-04T16:18:36Z</time>
      </trkpt>
      <trkpt lat="45.32753" lon="5.67882">
        <ele>922.2</ele>
        <time>2010-12-04T16:18:39Z</time>
      </trkpt>
      <trkpt lat="45.32749" lon="5.67882">
        <ele>921.4</ele>
        <time>2010-12-04T16:18:40Z</time>
      </trkpt>
      <trkpt lat="45.32745" lon="5.67881">
        <ele>920.4</ele>
        <time>2010-12-04T16:18:41Z</time>
      </trkpt>
      <trkpt lat="45.32735" lon="5.67879">
        <ele>918.4</ele>
        <time>2010-12-04T16:18:43Z</time>
      </trkpt>
      <trkpt lat="45.32725" lon="5.67879">
        <ele>916.6</ele>
        <time>2010-12-04T16:18:45Z</time>
      </trkpt>
      <trkpt lat="45.3272" lon="5.67879">
        <ele>915.6</ele>
        <time>2010-12-04T16:18:46Z</time>
      </trkpt>
      <trkpt lat="45.32711" lon="5.67881">
        <ele>913.6</ele>
        <time>2010-12-04T16:18:48Z</time>
      </trkpt>
      <trkpt lat="45.32707" lon="5.67883">
        <ele>912.6</ele>
        <time>2010-12-04T16:18:49Z</time>
      </trkpt>
      <trkpt lat="45.32695" lon="5.67884">
        <ele>909.6</ele>
        <time>2010-12-04T16:18:52Z</time>
      </trkpt>
      <trkpt lat="45.32694" lon="5.67883">
        <ele>908.6</ele>
        <time>2010-12-04T16:18:53Z</time>
      </trkpt>
      <trkpt lat="45.32695" lon="5.67882">
        <ele>906.6</ele>
        <time>2010-12-04T16:18:55Z</time>
      </trkpt>
      <trkpt lat="45.32697" lon="5.67883">
        <ele>904.6</ele>
        <time>2010-12-04T16:18:57Z</time>
      </trkpt>
      <trkpt lat="45.32698" lon="5.67884">
        <ele>900</ele>
        <time>2010-12-04T16:19:02Z</time>
      </trkpt>
      <trkpt lat="45.32696" lon="5.67881">
        <ele>889.4</ele>
        <time>2010-12-04T16:19:15Z</time>
      </trkpt>
      <trkpt lat="45.32694" lon="5.67881">
        <ele>888.6</ele>
        <time>2010-12-04T16:19:16Z</time>
      </trkpt>
      <trkpt lat="45.3269" lon="5.67882">
        <ele>887.8</ele>
        <time>2010-12-04T16:19:17Z</time>
      </trkpt>
      <trkpt lat="45.32674" lon="5.67879">
        <ele>884.8</ele>
        <time>2010-12-04T16:19:21Z</time>
      </trkpt>
      <trkpt lat="45.32663" lon="5.67875">
        <ele>883.2</ele>
        <time>2010-12-04T16:19:23Z</time>
      </trkpt>
      <trkpt lat="45.32654" lon="5.67872">
        <ele>881.6</ele>
        <time>2010-12-04T16:19:25Z</time>
      </trkpt>
      <trkpt lat="45.32649" lon="5.67871">
        <ele>880.8</ele>
        <time>2010-12-04T16:19:26Z</time>
      </trkpt>
      <trkpt lat="45.32635" lon="5.67868">
        <ele>878.4</ele>
        <time>2010-12-04T16:19:29Z</time>
      </trkpt>
      <trkpt lat="45.32614" lon="5.67867">
        <ele>875.2</ele>
        <time>2010-12-04T16:19:33Z</time>
      </trkpt>
      <trkpt lat="45.32609" lon="5.67866">
        <ele>874.2</ele>
        <time>2010-12-04T16:19:34Z</time>
      </trkpt>
      <trkpt lat="45.32604" lon="5.67863">
        <ele>871.8</ele>
        <time>2010-12-04T16:19:37Z</time>
      </trkpt>
      <trkpt lat="45.32605" lon="5.67862">
        <ele>871</ele>
        <time>2010-12-04T16:19:38Z</time>
      </trkpt>
      <trkpt lat="45.32606" lon="5.67862">
        <ele>867.6</ele>
        <time>2010-12-04T16:19:42Z</time>
      </trkpt>
      <trkpt lat="45.32608" lon="5.67863">
        <ele>858.8</ele>
        <time>2010-12-04T16:19:54Z</time>
      </trkpt>
      <trkpt lat="45.32609" lon="5.67861">
        <ele>856</ele>
        <time>2010-12-04T16:19:58Z</time>
      </trkpt>
      <trkpt lat="45.32606" lon="5.67864">
        <ele>838</ele>
        <time>2010-12-04T16:20:31Z</time>
      </trkpt>
      <trkpt lat="45.32604" lon="5.67868">
        <ele>836.6</ele>
        <time>2010-12-04T16:20:34Z</time>
      </trkpt>
      <trkpt lat="45.32601" lon="5.67874">
        <ele>835.2</ele>
        <time>2010-12-04T16:20:37Z</time>
      </trkpt>
      <trkpt lat="45.32597" lon="5.67876">
        <ele>834.4</ele>
        <time>2010-12-04T16:20:39Z</time>
      </trkpt>
      <trkpt lat="45.32595" lon="5.6788">
        <ele>833.4</ele>
        <time>2010-12-04T16:20:41Z</time>
      </trkpt>
      <trkpt lat="45.32594" lon="5.67883">
        <ele>833</ele>
        <time>2010-12-04T16:20:42Z</time>
      </trkpt>
      <trkpt lat="45.32593" lon="5.67885">
        <ele>832.6</ele>
        <time>2010-12-04T16:20:43Z</time>
      </trkpt>
      <trkpt lat="45.32587" lon="5.67892">
        <ele>830.8</ele>
        <time>2010-12-04T16:20:47Z</time>
      </trkpt>
      <trkpt lat="45.32584" lon="5.67897">
        <ele>829.6</ele>
        <time>2010-12-04T16:20:50Z</time>
      </trkpt>
      <trkpt lat="45.32582" lon="5.67901">
        <ele>828.2</ele>
        <time>2010-12-04T16:20:53Z</time>
      </trkpt>
      <trkpt lat="45.32581" lon="5.67903">
        <ele>827.8</ele>
        <time>2010-12-04T16:20:54Z</time>
      </trkpt>
      <trkpt lat="45.32578" lon="5.67908">
        <ele>826.2</ele>
        <time>2010-12-04T16:20:58Z</time>
      </trkpt>
      <trkpt lat="45.32576" lon="5.67912">
        <ele>824.2</ele>
        <time>2010-12-04T16:21:03Z</time>
      </trkpt>
      <trkpt lat="45.32573" lon="5.67917">
        <ele>822.4</ele>
        <time>2010-12-04T16:21:08Z</time>
      </trkpt>
      <trkpt lat="45.32572" lon="5.67917">
        <ele>822</ele>
        <time>2010-12-04T16:21:09Z</time>
      </trkpt>
      <trkpt lat="45.32571" lon="5.6792">
        <ele>821.2</ele>
        <time>2010-12-04T16:21:11Z</time>
      </trkpt>
      <trkpt lat="45.32569" lon="5.67923">
        <ele>820.6</ele>
        <time>2010-12-04T16:21:13Z</time>
      </trkpt>
      <trkpt lat="45.32568" lon="5.67924">
        <ele>820.4</ele>
        <time>2010-12-04T16:21:14Z</time>
      </trkpt>
      <trkpt lat="45.32568" lon="5.67925">
        <ele>820</ele>
        <time>2010-12-04T16:21:15Z</time>
      </trkpt>
      <trkpt lat="45.32565" lon="5.67928">
        <ele>819.2</ele>
        <time>2010-12-04T16:21:18Z</time>
      </trkpt>
      <trkpt lat="45.32562" lon="5.67932">
        <ele>817.8</ele>
        <time>2010-12-04T16:21:22Z</time>
      </trkpt>
      <trkpt lat="45.32559" lon="5.67937">
        <ele>816.8</ele>
        <time>2010-12-04T16:21:26Z</time>
      </trkpt>
      <trkpt lat="45.32559" lon="5.67939">
        <ele>816.4</ele>
        <time>2010-12-04T16:21:27Z</time>
      </trkpt>
      <trkpt lat="45.32556" lon="5.67942">
        <ele>816</ele>
        <time>2010-12-04T16:21:29Z</time>
      </trkpt>
      <trkpt lat="45.32555" lon="5.67943">
        <ele>815.6</ele>
        <time>2010-12-04T16:21:30Z</time>
      </trkpt>
      <trkpt lat="45.3255" lon="5.67947">
        <ele>814.6</ele>
        <time>2010-12-04T16:21:34Z</time>
      </trkpt>
      <trkpt lat="45.32548" lon="5.67951">
        <ele>813.6</ele>
        <time>2010-12-04T16:21:38Z</time>
      </trkpt>
      <trkpt lat="45.32546" lon="5.67955">
        <ele>812.8</ele>
        <time>2010-12-04T16:21:41Z</time>
      </trkpt>
      <trkpt lat="45.32542" lon="5.67959">
        <ele>812</ele>
        <time>2010-12-04T16:21:45Z</time>
      </trkpt>
      <trkpt lat="45.3254" lon="5.67961">
        <ele>811.4</ele>
        <time>2010-12-04T16:21:47Z</time>
      </trkpt>
      <trkpt lat="45.32533" lon="5.67966">
        <ele>810.6</ele>
        <time>2010-12-04T16:21:52Z</time>
      </trkpt>
      <trkpt lat="45.32528" lon="5.67971">
        <ele>809.8</ele>
        <time>2010-12-04T16:21:56Z</time>
      </trkpt>
      <trkpt lat="45.32525" lon="5.67974">
        <ele>809.2</ele>
        <time>2010-12-04T16:21:59Z</time>
      </trkpt>
      <trkpt lat="45.32522" lon="5.67976">
        <ele>808.8</ele>
        <time>2010-12-04T16:22:01Z</time>
      </trkpt>
      <trkpt lat="45.32519" lon="5.67982">
        <ele>808</ele>
        <time>2010-12-04T16:22:06Z</time>
      </trkpt>
      <trkpt lat="45.32517" lon="5.67984">
        <ele>807.4</ele>
        <time>2010-12-04T16:22:10Z</time>
      </trkpt>
      <trkpt lat="45.32519" lon="5.67985">
        <ele>800.8</ele>
        <time>2010-12-04T16:22:52Z</time>
      </trkpt>
      <trkpt lat="45.32517" lon="5.67983">
        <ele>800.6</ele>
        <time>2010-12-04T16:22:53Z</time>
      </trkpt>
      <trkpt lat="45.32517" lon="5.67977">
        <ele>800.6</ele>
        <time>2010-12-04T16:22:56Z</time>
      </trkpt>
      <trkpt lat="45.32516" lon="5.67981">
        <ele>800.4</ele>
        <time>2010-12-04T16:23:00Z</time>
      </trkpt>
      <trkpt lat="45.32518" lon="5.67985">
        <ele>800</ele>
        <time>2010-12-04T16:23:03Z</time>
      </trkpt>
      <trkpt lat="45.32518" lon="5.6799">
        <ele>799.6</ele>
        <time>2010-12-04T16:23:07Z</time>
      </trkpt>
      <trkpt lat="45.32518" lon="5.67989">
        <ele>799.2</ele>
        <time>2010-12-04T16:23:10Z</time>
      </trkpt>
      <trkpt lat="45.32518" lon="5.67984">
        <ele>798.8</ele>
        <time>2010-12-04T16:23:16Z</time>
      </trkpt>
      <trkpt lat="45.32516" lon="5.6798">
        <ele>798.2</ele>
        <time>2010-12-04T16:23:23Z</time>
      </trkpt>
      <trkpt lat="45.32515" lon="5.67979">
        <ele>798</ele>
        <time>2010-12-04T16:23:25Z</time>
      </trkpt>
      <trkpt lat="45.32515" lon="5.67983">
        <ele>794.6</ele>
        <time>2010-12-04T16:24:37Z</time>
      </trkpt>
      <trkpt lat="45.32509" lon="5.67983">
        <ele>799.8</ele>
        <time>2010-12-04T16:25:36Z</time>
      </trkpt>
      <trkpt lat="45.32507" lon="5.67988">
        <ele>799.6</ele>
        <time>2010-12-04T16:25:40Z</time>
      </trkpt>
      <trkpt lat="45.32506" lon="5.67992">
        <ele>799.6</ele>
        <time>2010-12-04T16:25:43Z</time>
      </trkpt>
      <trkpt lat="45.32505" lon="5.67993">
        <ele>799.6</ele>
        <time>2010-12-04T16:25:44Z</time>
      </trkpt>
      <trkpt lat="45.32502" lon="5.67996">
        <ele>799.4</ele>
        <time>2010-12-04T16:25:47Z</time>
      </trkpt>
      <trkpt lat="45.32501" lon="5.67997">
        <ele>799.4</ele>
        <time>2010-12-04T16:25:48Z</time>
      </trkpt>
      <trkpt lat="45.32497" lon="5.67999">
        <ele>799.2</ele>
        <time>2010-12-04T16:25:51Z</time>
      </trkpt>
      <trkpt lat="45.32491" lon="5.68001">
        <ele>798.8</ele>
        <time>2010-12-04T16:25:55Z</time>
      </trkpt>
      <trkpt lat="45.32488" lon="5.68001">
        <ele>798.6</ele>
        <time>2010-12-04T16:25:57Z</time>
      </trkpt>
      <trkpt lat="45.32484" lon="5.68">
        <ele>798.4</ele>
        <time>2010-12-04T16:26:00Z</time>
      </trkpt>
      <trkpt lat="45.32478" lon="5.67997">
        <ele>798</ele>
        <time>2010-12-04T16:26:04Z</time>
      </trkpt>
      <trkpt lat="45.32476" lon="5.67995">
        <ele>797.8</ele>
        <time>2010-12-04T16:26:06Z</time>
      </trkpt>
      <trkpt lat="45.32474" lon="5.67994">
        <ele>797.6</ele>
        <time>2010-12-04T16:26:08Z</time>
      </trkpt>
      <trkpt lat="45.32472" lon="5.67992">
        <ele>797.4</ele>
        <time>2010-12-04T16:26:10Z</time>
      </trkpt>
      <trkpt lat="45.32471" lon="5.67991">
        <ele>797.4</ele>
        <time>2010-12-04T16:26:11Z</time>
      </trkpt>
      <trkpt lat="45.32469" lon="5.67989">
        <ele>797.2</ele>
        <time>2010-12-04T16:26:14Z</time>
      </trkpt>
      <trkpt lat="45.32467" lon="5.67988">
        <ele>796.8</ele>
        <time>2010-12-04T16:26:17Z</time>
      </trkpt>
      <trkpt lat="45.32467" lon="5.67988">
        <ele>796.8</ele>
        <time>2010-12-04T16:26:19Z</time>
      </trkpt>
      <trkpt lat="45.32465" lon="5.67987">
        <ele>796.6</ele>
        <time>2010-12-04T16:26:20Z</time>
      </trkpt>
      <trkpt lat="45.32463" lon="5.67983">
        <ele>796.2</ele>
        <time>2010-12-04T16:26:24Z</time>
      </trkpt>
      <trkpt lat="45.32461" lon="5.6798">
        <ele>796</ele>
        <time>2010-12-04T16:26:29Z</time>
      </trkpt>
      <trkpt lat="45.32459" lon="5.67979">
        <ele>795.8</ele>
        <time>2010-12-04T16:26:33Z</time>
      </trkpt>
      <trkpt lat="45.32457" lon="5.67977">
        <ele>795.8</ele>
        <time>2010-12-04T16:26:36Z</time>
      </trkpt>
      <trkpt lat="45.32455" lon="5.67976">
        <ele>795.6</ele>
        <time>2010-12-04T16:26:38Z</time>
      </trkpt>
      <trkpt lat="45.32453" lon="5.67973">
        <ele>795.4</ele>
        <time>2010-12-04T16:26:42Z</time>
      </trkpt>
      <trkpt lat="45.32452" lon="5.67972">
        <ele>795.4</ele>
        <time>2010-12-04T16:26:43Z</time>
      </trkpt>
      <trkpt lat="45.32448" lon="5.67969">
        <ele>795.2</ele>
        <time>2010-12-04T16:26:46Z</time>
      </trkpt>
      <trkpt lat="45.32442" lon="5.67963">
        <ele>794.8</ele>
        <time>2010-12-04T16:26:51Z</time>
      </trkpt>
      <trkpt lat="45.32441" lon="5.67962">
        <ele>794.8</ele>
        <time>2010-12-04T16:26:52Z</time>
      </trkpt>
      <trkpt lat="45.32439" lon="5.67959">
        <ele>794.4</ele>
        <time>2010-12-04T16:26:56Z</time>
      </trkpt>
      <trkpt lat="45.32436" lon="5.67955">
        <ele>794</ele>
        <time>2010-12-04T16:27:01Z</time>
      </trkpt>
      <trkpt lat="45.32436" lon="5.67955">
        <ele>793.4</ele>
        <time>2010-12-04T16:27:10Z</time>
      </trkpt>
      <trkpt lat="45.32434" lon="5.67945">
        <ele>792.6</ele>
        <time>2010-12-04T16:27:25Z</time>
      </trkpt>
      <trkpt lat="45.32433" lon="5.67941">
        <ele>792.4</ele>
        <time>2010-12-04T16:27:28Z</time>
      </trkpt>
      <trkpt lat="45.32431" lon="5.67935">
        <ele>792</ele>
        <time>2010-12-04T16:27:32Z</time>
      </trkpt>
      <trkpt lat="45.32429" lon="5.67929">
        <ele>791.6</ele>
        <time>2010-12-04T16:27:36Z</time>
      </trkpt>
      <trkpt lat="45.32428" lon="5.67926">
        <ele>791.4</ele>
        <time>2010-12-04T16:27:38Z</time>
      </trkpt>
      <trkpt lat="45.32427" lon="5.67921">
        <ele>791.4</ele>
        <time>2010-12-04T16:27:41Z</time>
      </trkpt>
      <trkpt lat="45.32426" lon="5.67919">
        <ele>791.2</ele>
        <time>2010-12-04T16:27:43Z</time>
      </trkpt>
      <trkpt lat="45.32425" lon="5.67917">
        <ele>791.2</ele>
        <time>2010-12-04T16:27:44Z</time>
      </trkpt>
      <trkpt lat="45.32426" lon="5.67914">
        <ele>791</ele>
        <time>2010-12-04T16:27:47Z</time>
      </trkpt>
      <trkpt lat="45.32426" lon="5.6791">
        <ele>790.8</ele>
        <time>2010-12-04T16:27:50Z</time>
      </trkpt>
      <trkpt lat="45.32426" lon="5.67908">
        <ele>790.8</ele>
        <time>2010-12-04T16:27:51Z</time>
      </trkpt>
      <trkpt lat="45.32425" lon="5.67906">
        <ele>790.8</ele>
        <time>2010-12-04T16:27:52Z</time>
      </trkpt>
      <trkpt lat="45.32425" lon="5.67902">
        <ele>790.6</ele>
        <time>2010-12-04T16:27:55Z</time>
      </trkpt>
      <trkpt lat="45.32425" lon="5.67896">
        <ele>790.4</ele>
        <time>2010-12-04T16:27:59Z</time>
      </trkpt>
      <trkpt lat="45.32423" lon="5.6789">
        <ele>790.4</ele>
        <time>2010-12-04T16:28:02Z</time>
      </trkpt>
      <trkpt lat="45.32422" lon="5.67885">
        <ele>790.2</ele>
        <time>2010-12-04T16:28:05Z</time>
      </trkpt>
      <trkpt lat="45.32421" lon="5.67879">
        <ele>790</ele>
        <time>2010-12-04T16:28:10Z</time>
      </trkpt>
      <trkpt lat="45.3242" lon="5.67872">
        <ele>789.8</ele>
        <time>2010-12-04T16:28:15Z</time>
      </trkpt>
      <trkpt lat="45.32419" lon="5.67866">
        <ele>789.4</ele>
        <time>2010-12-04T16:28:19Z</time>
      </trkpt>
      <trkpt lat="45.32417" lon="5.67858">
        <ele>789.4</ele>
        <time>2010-12-04T16:28:22Z</time>
      </trkpt>
      <trkpt lat="45.32416" lon="5.67845">
        <ele>789.2</ele>
        <time>2010-12-04T16:28:29Z</time>
      </trkpt>
      <trkpt lat="45.32415" lon="5.67839">
        <ele>789.2</ele>
        <time>2010-12-04T16:28:34Z</time>
      </trkpt>
      <trkpt lat="45.32414" lon="5.6783">
        <ele>789.4</ele>
        <time>2010-12-04T16:28:40Z</time>
      </trkpt>
      <trkpt lat="45.32413" lon="5.67821">
        <ele>789.8</ele>
        <time>2010-12-04T16:28:44Z</time>
      </trkpt>
      <trkpt lat="45.32411" lon="5.67816">
        <ele>790</ele>
        <time>2010-12-04T16:28:47Z</time>
      </trkpt>
      <trkpt lat="45.32411" lon="5.67814">
        <ele>790</ele>
        <time>2010-12-04T16:28:49Z</time>
      </trkpt>
      <trkpt lat="45.32411" lon="5.67811">
        <ele>790.2</ele>
        <time>2010-12-04T16:28:50Z</time>
      </trkpt>
      <trkpt lat="45.32409" lon="5.67797">
        <ele>791.6</ele>
        <time>2010-12-04T16:28:56Z</time>
      </trkpt>
      <trkpt lat="45.32407" lon="5.67786">
        <ele>792.8</ele>
        <time>2010-12-04T16:29:02Z</time>
      </trkpt>
      <trkpt lat="45.32407" lon="5.67783">
        <ele>793.4</ele>
        <time>2010-12-04T16:29:04Z</time>
      </trkpt>
      <trkpt lat="45.32406" lon="5.67779">
        <ele>794.6</ele>
        <time>2010-12-04T16:29:10Z</time>
      </trkpt>
      <trkpt lat="45.32405" lon="5.67779">
        <ele>796.2</ele>
        <time>2010-12-04T16:29:22Z</time>
      </trkpt>
      <trkpt lat="45.32407" lon="5.67773">
        <ele>796.6</ele>
        <time>2010-12-04T16:29:43Z</time>
      </trkpt>
      <trkpt lat="45.32406" lon="5.67764">
        <ele>796.4</ele>
        <time>2010-12-04T16:29:48Z</time>
      </trkpt>
      <trkpt lat="45.32407" lon="5.67763">
        <ele>796.4</ele>
        <time>2010-12-04T16:29:49Z</time>
      </trkpt>
      <trkpt lat="45.32407" lon="5.67751">
        <ele>796.2</ele>
        <time>2010-12-04T16:29:53Z</time>
      </trkpt>
      <trkpt lat="45.32412" lon="5.67735">
        <ele>796</ele>
        <time>2010-12-04T16:29:57Z</time>
      </trkpt>
      <trkpt lat="45.32415" lon="5.67725">
        <ele>795.8</ele>
        <time>2010-12-04T16:29:59Z</time>
      </trkpt>
      <trkpt lat="45.32418" lon="5.67708">
        <ele>795.4</ele>
        <time>2010-12-04T16:30:02Z</time>
      </trkpt>
      <trkpt lat="45.32419" lon="5.67702">
        <ele>795.4</ele>
        <time>2010-12-04T16:30:03Z</time>
      </trkpt>
      <trkpt lat="45.32421" lon="5.67682">
        <ele>794.8</ele>
        <time>2010-12-04T16:30:07Z</time>
      </trkpt>
      <trkpt lat="45.32422" lon="5.67677">
        <ele>794.8</ele>
        <time>2010-12-04T16:30:08Z</time>
      </trkpt>
      <trkpt lat="45.32423" lon="5.67653">
        <ele>794.2</ele>
        <time>2010-12-04T16:30:12Z</time>
      </trkpt>
      <trkpt lat="45.32424" lon="5.67627">
        <ele>793.8</ele>
        <time>2010-12-04T16:30:16Z</time>
      </trkpt>
      <trkpt lat="45.32423" lon="5.67621">
        <ele>793.8</ele>
        <time>2010-12-04T16:30:17Z</time>
      </trkpt>
      <trkpt lat="45.32423" lon="5.67606">
        <ele>793.2</ele>
        <time>2010-12-04T16:30:20Z</time>
      </trkpt>
      <trkpt lat="45.32424" lon="5.67601">
        <ele>793.2</ele>
        <time>2010-12-04T16:30:21Z</time>
      </trkpt>
      <trkpt lat="45.32424" lon="5.67597">
        <ele>793</ele>
        <time>2010-12-04T16:30:22Z</time>
      </trkpt>
      <trkpt lat="45.32424" lon="5.67581">
        <ele>792.4</ele>
        <time>2010-12-04T16:30:25Z</time>
      </trkpt>
      <trkpt lat="45.32423" lon="5.67569">
        <ele>792</ele>
        <time>2010-12-04T16:30:27Z</time>
      </trkpt>
      <trkpt lat="45.32422" lon="5.67558">
        <ele>791.6</ele>
        <time>2010-12-04T16:30:29Z</time>
      </trkpt>
      <trkpt lat="45.3242" lon="5.67542">
        <ele>791</ele>
        <time>2010-12-04T16:30:32Z</time>
      </trkpt>
      <trkpt lat="45.32417" lon="5.67533">
        <ele>790.6</ele>
        <time>2010-12-04T16:30:34Z</time>
      </trkpt>
      <trkpt lat="45.32417" lon="5.67517">
        <ele>790.2</ele>
        <time>2010-12-04T16:30:37Z</time>
      </trkpt>
      <trkpt lat="45.32418" lon="5.67501">
        <ele>789.6</ele>
        <time>2010-12-04T16:30:40Z</time>
      </trkpt>
      <trkpt lat="45.3242" lon="5.67491">
        <ele>789.2</ele>
        <time>2010-12-04T16:30:42Z</time>
      </trkpt>
      <trkpt lat="45.3242" lon="5.67481">
        <ele>788.8</ele>
        <time>2010-12-04T16:30:44Z</time>
      </trkpt>
      <trkpt lat="45.3242" lon="5.67465">
        <ele>788.2</ele>
        <time>2010-12-04T16:30:47Z</time>
      </trkpt>
      <trkpt lat="45.32418" lon="5.67448">
        <ele>787.6</ele>
        <time>2010-12-04T16:30:50Z</time>
      </trkpt>
      <trkpt lat="45.32417" lon="5.67436">
        <ele>787.4</ele>
        <time>2010-12-04T16:30:52Z</time>
      </trkpt>
      <trkpt lat="45.32414" lon="5.67418">
        <ele>786.8</ele>
        <time>2010-12-04T16:30:55Z</time>
      </trkpt>
      <trkpt lat="45.32414" lon="5.67411">
        <ele>786.8</ele>
        <time>2010-12-04T16:30:56Z</time>
      </trkpt>
      <trkpt lat="45.32417" lon="5.67383">
        <ele>786.2</ele>
        <time>2010-12-04T16:31:00Z</time>
      </trkpt>
      <trkpt lat="45.32417" lon="5.67376">
        <ele>786</ele>
        <time>2010-12-04T16:31:01Z</time>
      </trkpt>
      <trkpt lat="45.32418" lon="5.67358">
        <ele>785.6</ele>
        <time>2010-12-04T16:31:04Z</time>
      </trkpt>
      <trkpt lat="45.32418" lon="5.67352">
        <ele>785.6</ele>
        <time>2010-12-04T16:31:05Z</time>
      </trkpt>
      <trkpt lat="45.32417" lon="5.67345">
        <ele>785.4</ele>
        <time>2010-12-04T16:31:06Z</time>
      </trkpt>
      <trkpt lat="45.32416" lon="5.67327">
        <ele>785</ele>
        <time>2010-12-04T16:31:09Z</time>
      </trkpt>
      <trkpt lat="45.32415" lon="5.67322">
        <ele>784.8</ele>
        <time>2010-12-04T16:31:10Z</time>
      </trkpt>
      <trkpt lat="45.32415" lon="5.67317">
        <ele>784.6</ele>
        <time>2010-12-04T16:31:11Z</time>
      </trkpt>
      <trkpt lat="45.32413" lon="5.67307">
        <ele>784.4</ele>
        <time>2010-12-04T16:31:13Z</time>
      </trkpt>
      <trkpt lat="45.32412" lon="5.67296">
        <ele>784</ele>
        <time>2010-12-04T16:31:15Z</time>
      </trkpt>
      <trkpt lat="45.32411" lon="5.67291">
        <ele>783.8</ele>
        <time>2010-12-04T16:31:16Z</time>
      </trkpt>
      <trkpt lat="45.32407" lon="5.67271">
        <ele>783.2</ele>
        <time>2010-12-04T16:31:20Z</time>
      </trkpt>
      <trkpt lat="45.32407" lon="5.67266">
        <ele>783</ele>
        <time>2010-12-04T16:31:21Z</time>
      </trkpt>
      <trkpt lat="45.32402" lon="5.67244">
        <ele>782.2</ele>
        <time>2010-12-04T16:31:26Z</time>
      </trkpt>
      <trkpt lat="45.32396" lon="5.67215">
        <ele>781.2</ele>
        <time>2010-12-04T16:31:32Z</time>
      </trkpt>
      <trkpt lat="45.32394" lon="5.67196">
        <ele>780.6</ele>
        <time>2010-12-04T16:31:36Z</time>
      </trkpt>
      <trkpt lat="45.32395" lon="5.67187">
        <ele>780.2</ele>
        <time>2010-12-04T16:31:38Z</time>
      </trkpt>
      <trkpt lat="45.32398" lon="5.67173">
        <ele>779.6</ele>
        <time>2010-12-04T16:31:42Z</time>
      </trkpt>
      <trkpt lat="45.324" lon="5.67162">
        <ele>779</ele>
        <time>2010-12-04T16:31:45Z</time>
      </trkpt>
      <trkpt lat="45.32401" lon="5.6716">
        <ele>778.8</ele>
        <time>2010-12-04T16:31:46Z</time>
      </trkpt>
      <trkpt lat="45.32405" lon="5.67147">
        <ele>778.2</ele>
        <time>2010-12-04T16:31:50Z</time>
      </trkpt>
      <trkpt lat="45.32408" lon="5.67137">
        <ele>777.6</ele>
        <time>2010-12-04T16:31:54Z</time>
      </trkpt>
      <trkpt lat="45.32408" lon="5.67136">
        <ele>777.6</ele>
        <time>2010-12-04T16:31:55Z</time>
      </trkpt>
      <trkpt lat="45.32408" lon="5.67133">
        <ele>776.8</ele>
        <time>2010-12-04T16:32:01Z</time>
      </trkpt>
      <trkpt lat="45.32402" lon="5.67127">
        <ele>774.4</ele>
        <time>2010-12-04T16:32:37Z</time>
      </trkpt>
      <trkpt lat="45.32394" lon="5.6712">
        <ele>774.2</ele>
        <time>2010-12-04T16:32:46Z</time>
      </trkpt>
      <trkpt lat="45.3239" lon="5.67117">
        <ele>774</ele>
        <time>2010-12-04T16:32:51Z</time>
      </trkpt>
      <trkpt lat="45.32389" lon="5.67116">
        <ele>774</ele>
        <time>2010-12-04T16:32:52Z</time>
      </trkpt>
      <trkpt lat="45.32381" lon="5.67113">
        <ele>773.8</ele>
        <time>2010-12-04T16:32:59Z</time>
      </trkpt>
      <trkpt lat="45.32377" lon="5.67111">
        <ele>773.6</ele>
        <time>2010-12-04T16:33:03Z</time>
      </trkpt>
      <trkpt lat="45.32375" lon="5.67111">
        <ele>773.6</ele>
        <time>2010-12-04T16:33:05Z</time>
      </trkpt>
      <trkpt lat="45.32369" lon="5.67108">
        <ele>773.4</ele>
        <time>2010-12-04T16:33:11Z</time>
      </trkpt>
      <trkpt lat="45.32368" lon="5.67108">
        <ele>773.4</ele>
        <time>2010-12-04T16:33:12Z</time>
      </trkpt>
      <trkpt lat="45.32362" lon="5.67106">
        <ele>773.2</ele>
        <time>2010-12-04T16:33:17Z</time>
      </trkpt>
      <trkpt lat="45.3236" lon="5.67106">
        <ele>773.2</ele>
        <time>2010-12-04T16:33:19Z</time>
      </trkpt>
      <trkpt lat="45.32358" lon="5.67105">
        <ele>773</ele>
        <time>2010-12-04T16:33:20Z</time>
      </trkpt>
      <trkpt lat="45.32355" lon="5.67105">
        <ele>773</ele>
        <time>2010-12-04T16:33:23Z</time>
      </trkpt>
      <trkpt lat="45.3235" lon="5.67105">
        <ele>773</ele>
        <time>2010-12-04T16:33:27Z</time>
      </trkpt>
      <trkpt lat="45.32342" lon="5.67105">
        <ele>772.8</ele>
        <time>2010-12-04T16:33:34Z</time>
      </trkpt>
      <trkpt lat="45.3234" lon="5.67104">
        <ele>772.8</ele>
        <time>2010-12-04T16:33:36Z</time>
      </trkpt>
      <trkpt lat="45.32336" lon="5.67104">
        <ele>772.8</ele>
        <time>2010-12-04T16:33:39Z</time>
      </trkpt>
      <trkpt lat="45.32334" lon="5.67103">
        <ele>772.8</ele>
        <time>2010-12-04T16:33:41Z</time>
      </trkpt>
      <trkpt lat="45.32326" lon="5.67102">
        <ele>772.6</ele>
        <time>2010-12-04T16:33:48Z</time>
      </trkpt>
      <trkpt lat="45.32321" lon="5.67102">
        <ele>772.6</ele>
        <time>2010-12-04T16:33:52Z</time>
      </trkpt>
      <trkpt lat="45.32317" lon="5.67102">
        <ele>772.6</ele>
        <time>2010-12-04T16:33:55Z</time>
      </trkpt>
      <trkpt lat="45.3231" lon="5.67098">
        <ele>772.6</ele>
        <time>2010-12-04T16:34:03Z</time>
      </trkpt>
      <trkpt lat="45.32303" lon="5.67095">
        <ele>772.6</ele>
        <time>2010-12-04T16:34:10Z</time>
      </trkpt>
      <trkpt lat="45.32297" lon="5.67092">
        <ele>772.4</ele>
        <time>2010-12-04T16:34:17Z</time>
      </trkpt>
      <trkpt lat="45.32295" lon="5.6709">
        <ele>772.4</ele>
        <time>2010-12-04T16:34:19Z</time>
      </trkpt>
      <trkpt lat="45.32289" lon="5.67083">
        <ele>772.4</ele>
        <time>2010-12-04T16:34:25Z</time>
      </trkpt>
      <trkpt lat="45.32288" lon="5.67082">
        <ele>772.4</ele>
        <time>2010-12-04T16:34:26Z</time>
      </trkpt>
      <trkpt lat="45.32282" lon="5.67075">
        <ele>772.4</ele>
        <time>2010-12-04T16:34:33Z</time>
      </trkpt>
      <trkpt lat="45.32277" lon="5.67069">
        <ele>772.8</ele>
        <time>2010-12-04T16:34:40Z</time>
      </trkpt>
      <trkpt lat="45.32273" lon="5.67064">
        <ele>773.2</ele>
        <time>2010-12-04T16:34:44Z</time>
      </trkpt>
      <trkpt lat="45.32272" lon="5.67063">
        <ele>773.4</ele>
        <time>2010-12-04T16:34:46Z</time>
      </trkpt>
      <trkpt lat="45.32267" lon="5.67056">
        <ele>774</ele>
        <time>2010-12-04T16:34:52Z</time>
      </trkpt>
      <trkpt lat="45.32266" lon="5.67055">
        <ele>774</ele>
        <time>2010-12-04T16:34:53Z</time>
      </trkpt>
      <trkpt lat="45.32264" lon="5.67054">
        <ele>774.2</ele>
        <time>2010-12-04T16:34:55Z</time>
      </trkpt>
      <trkpt lat="45.3226" lon="5.6705">
        <ele>774.6</ele>
        <time>2010-12-04T16:34:59Z</time>
      </trkpt>
      <trkpt lat="45.32259" lon="5.67048">
        <ele>774.8</ele>
        <time>2010-12-04T16:35:01Z</time>
      </trkpt>
      <trkpt lat="45.32254" lon="5.67043">
        <ele>775.2</ele>
        <time>2010-12-04T16:35:06Z</time>
      </trkpt>
      <trkpt lat="45.32251" lon="5.67041">
        <ele>775.6</ele>
        <time>2010-12-04T16:35:09Z</time>
      </trkpt>
      <trkpt lat="45.32248" lon="5.67038">
        <ele>776</ele>
        <time>2010-12-04T16:35:12Z</time>
      </trkpt>
      <trkpt lat="45.32246" lon="5.67037">
        <ele>776</ele>
        <time>2010-12-04T16:35:13Z</time>
      </trkpt>
      <trkpt lat="45.32242" lon="5.67034">
        <ele>776.4</ele>
        <time>2010-12-04T16:35:17Z</time>
      </trkpt>
      <trkpt lat="45.32241" lon="5.67033">
        <ele>776.6</ele>
        <time>2010-12-04T16:35:18Z</time>
      </trkpt>
      <trkpt lat="45.32234" lon="5.67029">
        <ele>777.2</ele>
        <time>2010-12-04T16:35:24Z</time>
      </trkpt>
      <trkpt lat="45.32224" lon="5.67027">
        <ele>777.8</ele>
        <time>2010-12-04T16:35:31Z</time>
      </trkpt>
      <trkpt lat="45.32215" lon="5.67023">
        <ele>778.6</ele>
        <time>2010-12-04T16:35:39Z</time>
      </trkpt>
      <trkpt lat="45.32207" lon="5.67018">
        <ele>779.4</ele>
        <time>2010-12-04T16:35:46Z</time>
      </trkpt>
      <trkpt lat="45.32206" lon="5.67017">
        <ele>779.6</ele>
        <time>2010-12-04T16:35:47Z</time>
      </trkpt>
      <trkpt lat="45.32198" lon="5.67009">
        <ele>780.6</ele>
        <time>2010-12-04T16:35:55Z</time>
      </trkpt>
      <trkpt lat="45.32192" lon="5.67001">
        <ele>781.4</ele>
        <time>2010-12-04T16:36:01Z</time>
      </trkpt>
      <trkpt lat="45.3219" lon="5.66998">
        <ele>781.8</ele>
        <time>2010-12-04T16:36:03Z</time>
      </trkpt>
      <trkpt lat="45.32184" lon="5.66992">
        <ele>782.2</ele>
        <time>2010-12-04T16:36:09Z</time>
      </trkpt>
      <trkpt lat="45.32177" lon="5.66985">
        <ele>783</ele>
        <time>2010-12-04T16:36:16Z</time>
      </trkpt>
      <trkpt lat="45.32176" lon="5.66982">
        <ele>783</ele>
        <time>2010-12-04T16:36:19Z</time>
      </trkpt>
      <trkpt lat="45.32176" lon="5.66981">
        <ele>783.2</ele>
        <time>2010-12-04T16:36:22Z</time>
      </trkpt>
      <trkpt lat="45.32177" lon="5.66981">
        <ele>782.8</ele>
        <time>2010-12-04T16:36:55Z</time>
      </trkpt>
      <trkpt lat="45.32175" lon="5.66978">
        <ele>783</ele>
        <time>2010-12-04T16:37:05Z</time>
      </trkpt>
      <trkpt lat="45.32174" lon="5.66965">
        <ele>787.6</ele>
        <time>2010-12-04T16:38:18Z</time>
      </trkpt>
      <trkpt lat="45.32173" lon="5.66959">
        <ele>787.8</ele>
        <time>2010-12-04T16:38:20Z</time>
      </trkpt>
      <trkpt lat="45.32174" lon="5.66941">
        <ele>787.6</ele>
        <time>2010-12-04T16:38:23Z</time>
      </trkpt>
      <trkpt lat="45.32175" lon="5.66938">
        <ele>787.6</ele>
        <time>2010-12-04T16:38:24Z</time>
      </trkpt>
      <trkpt lat="45.32177" lon="5.66935">
        <ele>787.6</ele>
        <time>2010-12-04T16:38:26Z</time>
      </trkpt>
      <trkpt lat="45.32181" lon="5.66928">
        <ele>787.6</ele>
        <time>2010-12-04T16:38:30Z</time>
      </trkpt>
      <trkpt lat="45.32183" lon="5.66922">
        <ele>787.6</ele>
        <time>2010-12-04T16:38:34Z</time>
      </trkpt>
      <trkpt lat="45.32186" lon="5.66918">
        <ele>787.4</ele>
        <time>2010-12-04T16:38:38Z</time>
      </trkpt>
      <trkpt lat="45.32187" lon="5.66915">
        <ele>787.2</ele>
        <time>2010-12-04T16:38:40Z</time>
      </trkpt>
      <trkpt lat="45.32188" lon="5.66912">
        <ele>787.2</ele>
        <time>2010-12-04T16:38:42Z</time>
      </trkpt>
      <trkpt lat="45.32191" lon="5.66897">
        <ele>786.8</ele>
        <time>2010-12-04T16:38:49Z</time>
      </trkpt>
      <trkpt lat="45.32191" lon="5.66893">
        <ele>786.8</ele>
        <time>2010-12-04T16:38:50Z</time>
      </trkpt>
      <trkpt lat="45.32192" lon="5.6688">
        <ele>786.6</ele>
        <time>2010-12-04T16:38:52Z</time>
      </trkpt>
      <trkpt lat="45.32194" lon="5.66864">
        <ele>786.4</ele>
        <time>2010-12-04T16:38:54Z</time>
      </trkpt>
      <trkpt lat="45.32197" lon="5.6685">
        <ele>786</ele>
        <time>2010-12-04T16:38:56Z</time>
      </trkpt>
      <trkpt lat="45.32202" lon="5.66839">
        <ele>785.8</ele>
        <time>2010-12-04T16:38:58Z</time>
      </trkpt>
      <trkpt lat="45.32204" lon="5.66833">
        <ele>785.6</ele>
        <time>2010-12-04T16:38:59Z</time>
      </trkpt>
      <trkpt lat="45.32207" lon="5.6682">
        <ele>785.2</ele>
        <time>2010-12-04T16:39:01Z</time>
      </trkpt>
      <trkpt lat="45.32208" lon="5.66814">
        <ele>784.8</ele>
        <time>2010-12-04T16:39:02Z</time>
      </trkpt>
      <trkpt lat="45.32207" lon="5.668">
        <ele>784.4</ele>
        <time>2010-12-04T16:39:04Z</time>
      </trkpt>
      <trkpt lat="45.32202" lon="5.66788">
        <ele>783.8</ele>
        <time>2010-12-04T16:39:06Z</time>
      </trkpt>
      <trkpt lat="45.32197" lon="5.66783">
        <ele>783.4</ele>
        <time>2010-12-04T16:39:08Z</time>
      </trkpt>
      <trkpt lat="45.32195" lon="5.66781">
        <ele>782.8</ele>
        <time>2010-12-04T16:39:10Z</time>
      </trkpt>
      <trkpt lat="45.32195" lon="5.66781">
        <ele>782.6</ele>
        <time>2010-12-04T16:39:11Z</time>
      </trkpt>
      <trkpt lat="45.32192" lon="5.66778">
        <ele>780.4</ele>
        <time>2010-12-04T16:39:21Z</time>
      </trkpt>
      <trkpt lat="45.32189" lon="5.66776">
        <ele>779.2</ele>
        <time>2010-12-04T16:39:27Z</time>
      </trkpt>
      <trkpt lat="45.32189" lon="5.66777">
        <ele>777.2</ele>
        <time>2010-12-04T16:39:38Z</time>
      </trkpt>
      <trkpt lat="45.32189" lon="5.66778">
        <ele>775.4</ele>
        <time>2010-12-04T16:39:49Z</time>
      </trkpt>
      <trkpt lat="45.3219" lon="5.66775">
        <ele>774</ele>
        <time>2010-12-04T16:39:58Z</time>
      </trkpt>
      <trkpt lat="45.32191" lon="5.66775">
        <ele>773.4</ele>
        <time>2010-12-04T16:40:02Z</time>
      </trkpt>
      <trkpt lat="45.32192" lon="5.66774">
        <ele>772.8</ele>
        <time>2010-12-04T16:40:07Z</time>
      </trkpt>
      <trkpt lat="45.3219" lon="5.66774">
        <ele>771.6</ele>
        <time>2010-12-04T16:40:14Z</time>
      </trkpt>
      <trkpt lat="45.3219" lon="5.66767">
        <ele>770.4</ele>
        <time>2010-12-04T16:40:23Z</time>
      </trkpt>
      <trkpt lat="45.32191" lon="5.66766">
        <ele>769.6</ele>
        <time>2010-12-04T16:40:30Z</time>
      </trkpt>
      <trkpt lat="45.3219" lon="5.66766">
        <ele>768</ele>
        <time>2010-12-04T16:40:47Z</time>
      </trkpt>
      <trkpt lat="45.32192" lon="5.66767">
        <ele>762.2</ele>
        <time>2010-12-04T16:42:03Z</time>
      </trkpt>
      <trkpt lat="45.32192" lon="5.66764">
        <ele>761.4</ele>
        <time>2010-12-04T16:42:15Z</time>
      </trkpt>
      <trkpt lat="45.32197" lon="5.6676">
        <ele>761.2</ele>
        <time>2010-12-04T16:42:19Z</time>
      </trkpt>
      <trkpt lat="45.32208" lon="5.66752">
        <ele>761</ele>
        <time>2010-12-04T16:42:22Z</time>
      </trkpt>
      <trkpt lat="45.32212" lon="5.66748">
        <ele>760.8</ele>
        <time>2010-12-04T16:42:23Z</time>
      </trkpt>
      <trkpt lat="45.32225" lon="5.66738">
        <ele>760.4</ele>
        <time>2010-12-04T16:42:26Z</time>
      </trkpt>
      <trkpt lat="45.32234" lon="5.66733">
        <ele>760.2</ele>
        <time>2010-12-04T16:42:28Z</time>
      </trkpt>
      <trkpt lat="45.32243" lon="5.6673">
        <ele>759.8</ele>
        <time>2010-12-04T16:42:30Z</time>
      </trkpt>
      <trkpt lat="45.32264" lon="5.66722">
        <ele>759.2</ele>
        <time>2010-12-04T16:42:34Z</time>
      </trkpt>
      <trkpt lat="45.32282" lon="5.66716">
        <ele>758.4</ele>
        <time>2010-12-04T16:42:37Z</time>
      </trkpt>
      <trkpt lat="45.3229" lon="5.66715">
        <ele>758.2</ele>
        <time>2010-12-04T16:42:38Z</time>
      </trkpt>
      <trkpt lat="45.32297" lon="5.66714">
        <ele>758</ele>
        <time>2010-12-04T16:42:39Z</time>
      </trkpt>
      <trkpt lat="45.32303" lon="5.66716">
        <ele>757.4</ele>
        <time>2010-12-04T16:42:41Z</time>
      </trkpt>
      <trkpt lat="45.32304" lon="5.66716">
        <ele>756.6</ele>
        <time>2010-12-04T16:42:45Z</time>
      </trkpt>
      <trkpt lat="45.32303" lon="5.6672">
        <ele>751</ele>
        <time>2010-12-04T16:43:11Z</time>
      </trkpt>
      <trkpt lat="45.32303" lon="5.66721">
        <ele>749.6</ele>
        <time>2010-12-04T16:43:19Z</time>
      </trkpt>
      <trkpt lat="45.32304" lon="5.66723">
        <ele>748.8</ele>
        <time>2010-12-04T16:43:25Z</time>
      </trkpt>
      <trkpt lat="45.32305" lon="5.66726">
        <ele>746.4</ele>
        <time>2010-12-04T16:43:42Z</time>
      </trkpt>
      <trkpt lat="45.32306" lon="5.66726">
        <ele>744.8</ele>
        <time>2010-12-04T16:43:53Z</time>
      </trkpt>
      <trkpt lat="45.32307" lon="5.66726">
        <ele>744.2</ele>
        <time>2010-12-04T16:43:57Z</time>
      </trkpt>
      <trkpt lat="45.32307" lon="5.66726">
        <ele>743.4</ele>
        <time>2010-12-04T16:44:03Z</time>
      </trkpt>
      <trkpt lat="45.32308" lon="5.66727">
        <ele>741.8</ele>
        <time>2010-12-04T16:44:15Z</time>
      </trkpt>
      <trkpt lat="45.32309" lon="5.66727">
        <ele>741.2</ele>
        <time>2010-12-04T16:44:22Z</time>
      </trkpt>
      <trkpt lat="45.3231" lon="5.66724">
        <ele>740.6</ele>
        <time>2010-12-04T16:44:28Z</time>
      </trkpt>
      <trkpt lat="45.32312" lon="5.66721">
        <ele>740.6</ele>
        <time>2010-12-04T16:44:29Z</time>
      </trkpt>
      <trkpt lat="45.32322" lon="5.66701">
        <ele>740</ele>
        <time>2010-12-04T16:44:33Z</time>
      </trkpt>
      <trkpt lat="45.32332" lon="5.66675">
        <ele>739.4</ele>
        <time>2010-12-04T16:44:37Z</time>
      </trkpt>
      <trkpt lat="45.32337" lon="5.6666">
        <ele>739</ele>
        <time>2010-12-04T16:44:39Z</time>
      </trkpt>
      <trkpt lat="45.32341" lon="5.66646">
        <ele>738.6</ele>
        <time>2010-12-04T16:44:41Z</time>
      </trkpt>
      <trkpt lat="45.32344" lon="5.66632">
        <ele>738.2</ele>
        <time>2010-12-04T16:44:43Z</time>
      </trkpt>
      <trkpt lat="45.32343" lon="5.66619">
        <ele>737.8</ele>
        <time>2010-12-04T16:44:45Z</time>
      </trkpt>
      <trkpt lat="45.32332" lon="5.66608">
        <ele>737</ele>
        <time>2010-12-04T16:44:48Z</time>
      </trkpt>
      <trkpt lat="45.32329" lon="5.66605">
        <ele>736.8</ele>
        <time>2010-12-04T16:44:49Z</time>
      </trkpt>
      <trkpt lat="45.32325" lon="5.66602">
        <ele>736.4</ele>
        <time>2010-12-04T16:44:50Z</time>
      </trkpt>
      <trkpt lat="45.32315" lon="5.666">
        <ele>735.6</ele>
        <time>2010-12-04T16:44:53Z</time>
      </trkpt>
      <trkpt lat="45.32308" lon="5.66597">
        <ele>734.2</ele>
        <time>2010-12-04T16:44:57Z</time>
      </trkpt>
      <trkpt lat="45.32306" lon="5.66596">
        <ele>733.8</ele>
        <time>2010-12-04T16:44:58Z</time>
      </trkpt>
      <trkpt lat="45.32303" lon="5.66595">
        <ele>732.8</ele>
        <time>2010-12-04T16:45:01Z</time>
      </trkpt>
      <trkpt lat="45.32302" lon="5.66594">
        <ele>732.4</ele>
        <time>2010-12-04T16:45:02Z</time>
      </trkpt>
      <trkpt lat="45.32299" lon="5.66593">
        <ele>730.6</ele>
        <time>2010-12-04T16:45:08Z</time>
      </trkpt>
      <trkpt lat="45.32298" lon="5.66594">
        <ele>729.2</ele>
        <time>2010-12-04T16:45:13Z</time>
      </trkpt>
      <trkpt lat="45.32298" lon="5.66593">
        <ele>723.4</ele>
        <time>2010-12-04T16:45:40Z</time>
      </trkpt>
      <trkpt lat="45.323" lon="5.66592">
        <ele>722</ele>
        <time>2010-12-04T16:45:49Z</time>
      </trkpt>
      <trkpt lat="45.32303" lon="5.66588">
        <ele>719.4</ele>
        <time>2010-12-04T16:46:18Z</time>
      </trkpt>
      <trkpt lat="45.32303" lon="5.66587">
        <ele>718.4</ele>
        <time>2010-12-04T16:46:29Z</time>
      </trkpt>
      <trkpt lat="45.32303" lon="5.66579">
        <ele>717.8</ele>
        <time>2010-12-04T16:46:37Z</time>
      </trkpt>
      <trkpt lat="45.32299" lon="5.66577">
        <ele>717.2</ele>
        <time>2010-12-04T16:46:43Z</time>
      </trkpt>
      <trkpt lat="45.32297" lon="5.66574">
        <ele>716.2</ele>
        <time>2010-12-04T16:46:51Z</time>
      </trkpt>
      <trkpt lat="45.323" lon="5.66582">
        <ele>713.4</ele>
        <time>2010-12-04T16:47:11Z</time>
      </trkpt>
      <trkpt lat="45.32301" lon="5.66584">
        <ele>707.2</ele>
        <time>2010-12-04T16:48:10Z</time>
      </trkpt>
      <trkpt lat="45.32301" lon="5.66583">
        <ele>706.6</ele>
        <time>2010-12-04T16:48:19Z</time>
      </trkpt>
      <trkpt lat="45.32299" lon="5.66581">
        <ele>703.8</ele>
        <time>2010-12-04T16:48:57Z</time>
      </trkpt>
      <trkpt lat="45.32296" lon="5.66581">
        <ele>703.6</ele>
        <time>2010-12-04T16:49:03Z</time>
      </trkpt>
      <trkpt lat="45.32291" lon="5.6658">
        <ele>703.4</ele>
        <time>2010-12-04T16:49:08Z</time>
      </trkpt>
      <trkpt lat="45.32285" lon="5.66577">
        <ele>703.4</ele>
        <time>2010-12-04T16:49:11Z</time>
      </trkpt>
      <trkpt lat="45.32278" lon="5.6657">
        <ele>703.2</ele>
        <time>2010-12-04T16:49:14Z</time>
      </trkpt>
      <trkpt lat="45.3227" lon="5.66562">
        <ele>703</ele>
        <time>2010-12-04T16:49:17Z</time>
      </trkpt>
      <trkpt lat="45.32258" lon="5.6655">
        <ele>702.8</ele>
        <time>2010-12-04T16:49:21Z</time>
      </trkpt>
      <trkpt lat="45.32255" lon="5.66547">
        <ele>702.6</ele>
        <time>2010-12-04T16:49:22Z</time>
      </trkpt>
      <trkpt lat="45.32237" lon="5.66536">
        <ele>702.2</ele>
        <time>2010-12-04T16:49:27Z</time>
      </trkpt>
      <trkpt lat="45.32233" lon="5.66534">
        <ele>702</ele>
        <time>2010-12-04T16:49:28Z</time>
      </trkpt>
      <trkpt lat="45.32219" lon="5.66532">
        <ele>701.8</ele>
        <time>2010-12-04T16:49:31Z</time>
      </trkpt>
      <trkpt lat="45.32211" lon="5.66531">
        <ele>701.6</ele>
        <time>2010-12-04T16:49:33Z</time>
      </trkpt>
      <trkpt lat="45.32207" lon="5.6653">
        <ele>701.6</ele>
        <time>2010-12-04T16:49:34Z</time>
      </trkpt>
      <trkpt lat="45.32198" lon="5.66528">
        <ele>701.2</ele>
        <time>2010-12-04T16:49:36Z</time>
      </trkpt>
      <trkpt lat="45.32181" lon="5.66522">
        <ele>700.8</ele>
        <time>2010-12-04T16:49:40Z</time>
      </trkpt>
      <trkpt lat="45.32176" lon="5.66519">
        <ele>700.6</ele>
        <time>2010-12-04T16:49:41Z</time>
      </trkpt>
      <trkpt lat="45.32164" lon="5.66507">
        <ele>700.4</ele>
        <time>2010-12-04T16:49:44Z</time>
      </trkpt>
      <trkpt lat="45.3216" lon="5.66502">
        <ele>700.2</ele>
        <time>2010-12-04T16:49:45Z</time>
      </trkpt>
      <trkpt lat="45.32157" lon="5.66497">
        <ele>700.2</ele>
        <time>2010-12-04T16:49:46Z</time>
      </trkpt>
      <trkpt lat="45.32149" lon="5.66488">
        <ele>699.8</ele>
        <time>2010-12-04T16:49:48Z</time>
      </trkpt>
      <trkpt lat="45.32145" lon="5.66484">
        <ele>699.8</ele>
        <time>2010-12-04T16:49:49Z</time>
      </trkpt>
      <trkpt lat="45.32135" lon="5.66478">
        <ele>699.4</ele>
        <time>2010-12-04T16:49:51Z</time>
      </trkpt>
      <trkpt lat="45.3213" lon="5.66476">
        <ele>699.4</ele>
        <time>2010-12-04T16:49:52Z</time>
      </trkpt>
      <trkpt lat="45.3211" lon="5.66471">
        <ele>698.8</ele>
        <time>2010-12-04T16:49:56Z</time>
      </trkpt>
      <trkpt lat="45.32089" lon="5.66465">
        <ele>698.2</ele>
        <time>2010-12-04T16:50:00Z</time>
      </trkpt>
      <trkpt lat="45.32069" lon="5.6646">
        <ele>697.4</ele>
        <time>2010-12-04T16:50:04Z</time>
      </trkpt>
      <trkpt lat="45.32064" lon="5.66459">
        <ele>697.4</ele>
        <time>2010-12-04T16:50:05Z</time>
      </trkpt>
      <trkpt lat="45.32049" lon="5.66459">
        <ele>696.8</ele>
        <time>2010-12-04T16:50:08Z</time>
      </trkpt>
      <trkpt lat="45.32032" lon="5.66461">
        <ele>696.2</ele>
        <time>2010-12-04T16:50:12Z</time>
      </trkpt>
      <trkpt lat="45.32028" lon="5.66461">
        <ele>696</ele>
        <time>2010-12-04T16:50:13Z</time>
      </trkpt>
      <trkpt lat="45.32011" lon="5.66465">
        <ele>695.4</ele>
        <time>2010-12-04T16:50:18Z</time>
      </trkpt>
      <trkpt lat="45.32009" lon="5.66465">
        <ele>695.2</ele>
        <time>2010-12-04T16:50:19Z</time>
      </trkpt>
      <trkpt lat="45.31996" lon="5.66469">
        <ele>694.4</ele>
        <time>2010-12-04T16:50:24Z</time>
      </trkpt>
      <trkpt lat="45.31989" lon="5.66472">
        <ele>694.2</ele>
        <time>2010-12-04T16:50:26Z</time>
      </trkpt>
      <trkpt lat="45.31971" lon="5.66482">
        <ele>693.2</ele>
        <time>2010-12-04T16:50:32Z</time>
      </trkpt>
      <trkpt lat="45.31953" lon="5.66495">
        <ele>692.2</ele>
        <time>2010-12-04T16:50:39Z</time>
      </trkpt>
      <trkpt lat="45.31943" lon="5.66499">
        <ele>691.4</ele>
        <time>2010-12-04T16:50:44Z</time>
      </trkpt>
      <trkpt lat="45.31935" lon="5.66506">
        <ele>690.6</ele>
        <time>2010-12-04T16:50:48Z</time>
      </trkpt>
      <trkpt lat="45.31924" lon="5.66507">
        <ele>690</ele>
        <time>2010-12-04T16:50:52Z</time>
      </trkpt>
      <trkpt lat="45.31918" lon="5.66502">
        <ele>689.6</ele>
        <time>2010-12-04T16:50:54Z</time>
      </trkpt>
      <trkpt lat="45.31916" lon="5.66498">
        <ele>689.4</ele>
        <time>2010-12-04T16:50:55Z</time>
      </trkpt>
      <trkpt lat="45.31916" lon="5.66492">
        <ele>689.2</ele>
        <time>2010-12-04T16:50:56Z</time>
      </trkpt>
      <trkpt lat="45.31921" lon="5.66478">
        <ele>688.4</ele>
        <time>2010-12-04T16:50:59Z</time>
      </trkpt>
      <trkpt lat="45.31925" lon="5.66476">
        <ele>688.2</ele>
        <time>2010-12-04T16:51:01Z</time>
      </trkpt>
      <trkpt lat="45.31932" lon="5.66472">
        <ele>687.8</ele>
        <time>2010-12-04T16:51:02Z</time>
      </trkpt>
      <trkpt lat="45.31937" lon="5.6647">
        <ele>687.4</ele>
        <time>2010-12-04T16:51:04Z</time>
      </trkpt>
      <trkpt lat="45.3194" lon="5.66469">
        <ele>687.2</ele>
        <time>2010-12-04T16:51:05Z</time>
      </trkpt>
      <trkpt lat="45.31948" lon="5.66462">
        <ele>686.4</ele>
        <time>2010-12-04T16:51:09Z</time>
      </trkpt>
      <trkpt lat="45.31956" lon="5.66453">
        <ele>685.6</ele>
        <time>2010-12-04T16:51:13Z</time>
      </trkpt>
      <trkpt lat="45.31964" lon="5.66439">
        <ele>684.8</ele>
        <time>2010-12-04T16:51:17Z</time>
      </trkpt>
      <trkpt lat="45.31965" lon="5.66429">
        <ele>684.4</ele>
        <time>2010-12-04T16:51:19Z</time>
      </trkpt>
      <trkpt lat="45.31965" lon="5.66418">
        <ele>684</ele>
        <time>2010-12-04T16:51:21Z</time>
      </trkpt>
      <trkpt lat="45.31961" lon="5.66399">
        <ele>683.4</ele>
        <time>2010-12-04T16:51:24Z</time>
      </trkpt>
      <trkpt lat="45.31959" lon="5.66394">
        <ele>683</ele>
        <time>2010-12-04T16:51:25Z</time>
      </trkpt>
      <trkpt lat="45.31952" lon="5.66371">
        <ele>682.2</ele>
        <time>2010-12-04T16:51:29Z</time>
      </trkpt>
      <trkpt lat="45.31949" lon="5.6636">
        <ele>681.8</ele>
        <time>2010-12-04T16:51:31Z</time>
      </trkpt>
      <trkpt lat="45.31948" lon="5.66344">
        <ele>681.2</ele>
        <time>2010-12-04T16:51:34Z</time>
      </trkpt>
      <trkpt lat="45.3195" lon="5.66333">
        <ele>680.8</ele>
        <time>2010-12-04T16:51:36Z</time>
      </trkpt>
      <trkpt lat="45.31951" lon="5.66327">
        <ele>680.6</ele>
        <time>2010-12-04T16:51:37Z</time>
      </trkpt>
      <trkpt lat="45.31955" lon="5.66317">
        <ele>680.2</ele>
        <time>2010-12-04T16:51:39Z</time>
      </trkpt>
      <trkpt lat="45.31958" lon="5.66312">
        <ele>680</ele>
        <time>2010-12-04T16:51:40Z</time>
      </trkpt>
      <trkpt lat="45.31961" lon="5.66308">
        <ele>679.8</ele>
        <time>2010-12-04T16:51:41Z</time>
      </trkpt>
      <trkpt lat="45.31969" lon="5.66303">
        <ele>679.2</ele>
        <time>2010-12-04T16:51:43Z</time>
      </trkpt>
      <trkpt lat="45.31972" lon="5.66303">
        <ele>679</ele>
        <time>2010-12-04T16:51:44Z</time>
      </trkpt>
      <trkpt lat="45.31985" lon="5.66304">
        <ele>678</ele>
        <time>2010-12-04T16:51:47Z</time>
      </trkpt>
      <trkpt lat="45.3199" lon="5.66306">
        <ele>677.8</ele>
        <time>2010-12-04T16:51:48Z</time>
      </trkpt>
      <trkpt lat="45.32005" lon="5.66308">
        <ele>676.8</ele>
        <time>2010-12-04T16:51:51Z</time>
      </trkpt>
      <trkpt lat="45.3201" lon="5.66308">
        <ele>676.4</ele>
        <time>2010-12-04T16:51:52Z</time>
      </trkpt>
      <trkpt lat="45.32028" lon="5.66311">
        <ele>675.2</ele>
        <time>2010-12-04T16:51:56Z</time>
      </trkpt>
      <trkpt lat="45.32045" lon="5.66313">
        <ele>673.8</ele>
        <time>2010-12-04T16:52:00Z</time>
      </trkpt>
      <trkpt lat="45.32049" lon="5.66313">
        <ele>673.4</ele>
        <time>2010-12-04T16:52:01Z</time>
      </trkpt>
      <trkpt lat="45.3207" lon="5.66315">
        <ele>672</ele>
        <time>2010-12-04T16:52:05Z</time>
      </trkpt>
      <trkpt lat="45.32075" lon="5.66316">
        <ele>671.6</ele>
        <time>2010-12-04T16:52:06Z</time>
      </trkpt>
      <trkpt lat="45.32091" lon="5.6632">
        <ele>670.8</ele>
        <time>2010-12-04T16:52:09Z</time>
      </trkpt>
      <trkpt lat="45.32101" lon="5.6632">
        <ele>670.2</ele>
        <time>2010-12-04T16:52:11Z</time>
      </trkpt>
      <trkpt lat="45.32112" lon="5.66319">
        <ele>669.6</ele>
        <time>2010-12-04T16:52:13Z</time>
      </trkpt>
      <trkpt lat="45.32135" lon="5.66313">
        <ele>668.4</ele>
        <time>2010-12-04T16:52:17Z</time>
      </trkpt>
      <trkpt lat="45.32156" lon="5.66307">
        <ele>667.2</ele>
        <time>2010-12-04T16:52:21Z</time>
      </trkpt>
      <trkpt lat="45.32161" lon="5.66305">
        <ele>666.8</ele>
        <time>2010-12-04T16:52:22Z</time>
      </trkpt>
      <trkpt lat="45.32177" lon="5.66301">
        <ele>666</ele>
        <time>2010-12-04T16:52:25Z</time>
      </trkpt>
      <trkpt lat="45.32189" lon="5.66297">
        <ele>665.4</ele>
        <time>2010-12-04T16:52:27Z</time>
      </trkpt>
      <trkpt lat="45.322" lon="5.66294">
        <ele>664.6</ele>
        <time>2010-12-04T16:52:29Z</time>
      </trkpt>
      <trkpt lat="45.32218" lon="5.66298">
        <ele>663.8</ele>
        <time>2010-12-04T16:52:32Z</time>
      </trkpt>
      <trkpt lat="45.32223" lon="5.66301">
        <ele>663.4</ele>
        <time>2010-12-04T16:52:33Z</time>
      </trkpt>
      <trkpt lat="45.32228" lon="5.66305">
        <ele>663</ele>
        <time>2010-12-04T16:52:34Z</time>
      </trkpt>
      <trkpt lat="45.32232" lon="5.66309">
        <ele>662.8</ele>
        <time>2010-12-04T16:52:35Z</time>
      </trkpt>
      <trkpt lat="45.32236" lon="5.66314">
        <ele>662.4</ele>
        <time>2010-12-04T16:52:36Z</time>
      </trkpt>
      <trkpt lat="45.3224" lon="5.66318">
        <ele>662.2</ele>
        <time>2010-12-04T16:52:37Z</time>
      </trkpt>
      <trkpt lat="45.32243" lon="5.66322">
        <ele>661.8</ele>
        <time>2010-12-04T16:52:38Z</time>
      </trkpt>
      <trkpt lat="45.32249" lon="5.6633">
        <ele>661.2</ele>
        <time>2010-12-04T16:52:40Z</time>
      </trkpt>
      <trkpt lat="45.32253" lon="5.66334">
        <ele>660.8</ele>
        <time>2010-12-04T16:52:41Z</time>
      </trkpt>
      <trkpt lat="45.32257" lon="5.66337">
        <ele>660.4</ele>
        <time>2010-12-04T16:52:42Z</time>
      </trkpt>
      <trkpt lat="45.32265" lon="5.66342">
        <ele>659.8</ele>
        <time>2010-12-04T16:52:44Z</time>
      </trkpt>
      <trkpt lat="45.32269" lon="5.66343">
        <ele>659.6</ele>
        <time>2010-12-04T16:52:45Z</time>
      </trkpt>
      <trkpt lat="45.32279" lon="5.66344">
        <ele>658.8</ele>
        <time>2010-12-04T16:52:47Z</time>
      </trkpt>
      <trkpt lat="45.32287" lon="5.66342">
        <ele>658.2</ele>
        <time>2010-12-04T16:52:49Z</time>
      </trkpt>
      <trkpt lat="45.32298" lon="5.66337">
        <ele>657.2</ele>
        <time>2010-12-04T16:52:52Z</time>
      </trkpt>
      <trkpt lat="45.32303" lon="5.66332">
        <ele>656.6</ele>
        <time>2010-12-04T16:52:54Z</time>
      </trkpt>
      <trkpt lat="45.32307" lon="5.6633">
        <ele>656.2</ele>
        <time>2010-12-04T16:52:55Z</time>
      </trkpt>
      <trkpt lat="45.32314" lon="5.66325">
        <ele>655.6</ele>
        <time>2010-12-04T16:52:57Z</time>
      </trkpt>
      <trkpt lat="45.32325" lon="5.66317">
        <ele>654.6</ele>
        <time>2010-12-04T16:53:00Z</time>
      </trkpt>
      <trkpt lat="45.32334" lon="5.66315">
        <ele>654</ele>
        <time>2010-12-04T16:53:02Z</time>
      </trkpt>
      <trkpt lat="45.32348" lon="5.66313">
        <ele>653.2</ele>
        <time>2010-12-04T16:53:05Z</time>
      </trkpt>
      <trkpt lat="45.32353" lon="5.66313">
        <ele>652.8</ele>
        <time>2010-12-04T16:53:06Z</time>
      </trkpt>
      <trkpt lat="45.32374" lon="5.66314">
        <ele>651.4</ele>
        <time>2010-12-04T16:53:11Z</time>
      </trkpt>
      <trkpt lat="45.32378" lon="5.66314">
        <ele>651.2</ele>
        <time>2010-12-04T16:53:12Z</time>
      </trkpt>
      <trkpt lat="45.32386" lon="5.66315">
        <ele>650.4</ele>
        <time>2010-12-04T16:53:15Z</time>
      </trkpt>
      <trkpt lat="45.32388" lon="5.66314">
        <ele>650</ele>
        <time>2010-12-04T16:53:16Z</time>
      </trkpt>
      <trkpt lat="45.32394" lon="5.66311">
        <ele>649</ele>
        <time>2010-12-04T16:53:20Z</time>
      </trkpt>
      <trkpt lat="45.32396" lon="5.6631">
        <ele>648.8</ele>
        <time>2010-12-04T16:53:21Z</time>
      </trkpt>
      <trkpt lat="45.32408" lon="5.66302">
        <ele>647.2</ele>
        <time>2010-12-04T16:53:27Z</time>
      </trkpt>
      <trkpt lat="45.32411" lon="5.66299">
        <ele>647</ele>
        <time>2010-12-04T16:53:28Z</time>
      </trkpt>
      <trkpt lat="45.32418" lon="5.66289">
        <ele>646.4</ele>
        <time>2010-12-04T16:53:31Z</time>
      </trkpt>
      <trkpt lat="45.32426" lon="5.66277">
        <ele>645.6</ele>
        <time>2010-12-04T16:53:34Z</time>
      </trkpt>
      <trkpt lat="45.32433" lon="5.66264">
        <ele>645</ele>
        <time>2010-12-04T16:53:37Z</time>
      </trkpt>
      <trkpt lat="45.32439" lon="5.66255">
        <ele>644.6</ele>
        <time>2010-12-04T16:53:39Z</time>
      </trkpt>
      <trkpt lat="45.32453" lon="5.66242">
        <ele>643.6</ele>
        <time>2010-12-04T16:53:43Z</time>
      </trkpt>
      <trkpt lat="45.32458" lon="5.66239">
        <ele>643.4</ele>
        <time>2010-12-04T16:53:44Z</time>
      </trkpt>
      <trkpt lat="45.32475" lon="5.66232">
        <ele>642.4</ele>
        <time>2010-12-04T16:53:48Z</time>
      </trkpt>
      <trkpt lat="45.32479" lon="5.6623">
        <ele>642.2</ele>
        <time>2010-12-04T16:53:49Z</time>
      </trkpt>
      <trkpt lat="45.32482" lon="5.66228">
        <ele>642</ele>
        <time>2010-12-04T16:53:50Z</time>
      </trkpt>
      <trkpt lat="45.32494" lon="5.66223">
        <ele>641.2</ele>
        <time>2010-12-04T16:53:53Z</time>
      </trkpt>
      <trkpt lat="45.32498" lon="5.66221">
        <ele>641</ele>
        <time>2010-12-04T16:53:54Z</time>
      </trkpt>
      <trkpt lat="45.32511" lon="5.66215">
        <ele>640.2</ele>
        <time>2010-12-04T16:53:57Z</time>
      </trkpt>
      <trkpt lat="45.32515" lon="5.66212">
        <ele>640</ele>
        <time>2010-12-04T16:53:58Z</time>
      </trkpt>
      <trkpt lat="45.3253" lon="5.66207">
        <ele>639.2</ele>
        <time>2010-12-04T16:54:01Z</time>
      </trkpt>
      <trkpt lat="45.32535" lon="5.66205">
        <ele>639</ele>
        <time>2010-12-04T16:54:02Z</time>
      </trkpt>
      <trkpt lat="45.32543" lon="5.66201">
        <ele>638.4</ele>
        <time>2010-12-04T16:54:04Z</time>
      </trkpt>
      <trkpt lat="45.32547" lon="5.66199">
        <ele>638.2</ele>
        <time>2010-12-04T16:54:05Z</time>
      </trkpt>
      <trkpt lat="45.32555" lon="5.66196">
        <ele>637.6</ele>
        <time>2010-12-04T16:54:07Z</time>
      </trkpt>
      <trkpt lat="45.3256" lon="5.66196">
        <ele>637.4</ele>
        <time>2010-12-04T16:54:08Z</time>
      </trkpt>
      <trkpt lat="45.32565" lon="5.66195">
        <ele>637</ele>
        <time>2010-12-04T16:54:09Z</time>
      </trkpt>
      <trkpt lat="45.32574" lon="5.66195">
        <ele>636.4</ele>
        <time>2010-12-04T16:54:11Z</time>
      </trkpt>
      <trkpt lat="45.32583" lon="5.66195">
        <ele>635.8</ele>
        <time>2010-12-04T16:54:13Z</time>
      </trkpt>
      <trkpt lat="45.32594" lon="5.66197">
        <ele>635.2</ele>
        <time>2010-12-04T16:54:15Z</time>
      </trkpt>
      <trkpt lat="45.32604" lon="5.66198">
        <ele>634.6</ele>
        <time>2010-12-04T16:54:17Z</time>
      </trkpt>
      <trkpt lat="45.32614" lon="5.66199">
        <ele>634.2</ele>
        <time>2010-12-04T16:54:19Z</time>
      </trkpt>
      <trkpt lat="45.32624" lon="5.662">
        <ele>633.6</ele>
        <time>2010-12-04T16:54:21Z</time>
      </trkpt>
      <trkpt lat="45.32634" lon="5.662">
        <ele>633</ele>
        <time>2010-12-04T16:54:23Z</time>
      </trkpt>
      <trkpt lat="45.3265" lon="5.66197">
        <ele>632.2</ele>
        <time>2010-12-04T16:54:26Z</time>
      </trkpt>
      <trkpt lat="45.32655" lon="5.66194">
        <ele>632</ele>
        <time>2010-12-04T16:54:27Z</time>
      </trkpt>
      <trkpt lat="45.32664" lon="5.66187">
        <ele>631.4</ele>
        <time>2010-12-04T16:54:30Z</time>
      </trkpt>
      <trkpt lat="45.32672" lon="5.6618">
        <ele>630.8</ele>
        <time>2010-12-04T16:54:31Z</time>
      </trkpt>
      <trkpt lat="45.32691" lon="5.66164">
        <ele>629.8</ele>
        <time>2010-12-04T16:54:35Z</time>
      </trkpt>
      <trkpt lat="45.32699" lon="5.66155">
        <ele>629.2</ele>
        <time>2010-12-04T16:54:37Z</time>
      </trkpt>
      <trkpt lat="45.32708" lon="5.66147">
        <ele>628.4</ele>
        <time>2010-12-04T16:54:39Z</time>
      </trkpt>
      <trkpt lat="45.32717" lon="5.66139">
        <ele>627.8</ele>
        <time>2010-12-04T16:54:41Z</time>
      </trkpt>
      <trkpt lat="45.32727" lon="5.66131">
        <ele>627.2</ele>
        <time>2010-12-04T16:54:43Z</time>
      </trkpt>
      <trkpt lat="45.32737" lon="5.66115">
        <ele>626.4</ele>
        <time>2010-12-04T16:54:46Z</time>
      </trkpt>
      <trkpt lat="45.3274" lon="5.66109">
        <ele>626</ele>
        <time>2010-12-04T16:54:47Z</time>
      </trkpt>
      <trkpt lat="45.32744" lon="5.66094">
        <ele>625.4</ele>
        <time>2010-12-04T16:54:49Z</time>
      </trkpt>
      <trkpt lat="45.32746" lon="5.66087">
        <ele>625.2</ele>
        <time>2010-12-04T16:54:50Z</time>
      </trkpt>
      <trkpt lat="45.32747" lon="5.6608">
        <ele>624.8</ele>
        <time>2010-12-04T16:54:51Z</time>
      </trkpt>
      <trkpt lat="45.3275" lon="5.66061">
        <ele>623.8</ele>
        <time>2010-12-04T16:54:54Z</time>
      </trkpt>
      <trkpt lat="45.32751" lon="5.66055">
        <ele>623.6</ele>
        <time>2010-12-04T16:54:55Z</time>
      </trkpt>
      <trkpt lat="45.32758" lon="5.66029">
        <ele>622</ele>
        <time>2010-12-04T16:55:00Z</time>
      </trkpt>
      <trkpt lat="45.32765" lon="5.66011">
        <ele>621</ele>
        <time>2010-12-04T16:55:04Z</time>
      </trkpt>
      <trkpt lat="45.32769" lon="5.66005">
        <ele>620.4</ele>
        <time>2010-12-04T16:55:06Z</time>
      </trkpt>
      <trkpt lat="45.32772" lon="5.66002">
        <ele>620.2</ele>
        <time>2010-12-04T16:55:07Z</time>
      </trkpt>
      <trkpt lat="45.3278" lon="5.65992">
        <ele>619</ele>
        <time>2010-12-04T16:55:11Z</time>
      </trkpt>
      <trkpt lat="45.32785" lon="5.65988">
        <ele>618.4</ele>
        <time>2010-12-04T16:55:13Z</time>
      </trkpt>
      <trkpt lat="45.3279" lon="5.65985">
        <ele>618</ele>
        <time>2010-12-04T16:55:15Z</time>
      </trkpt>
      <trkpt lat="45.32797" lon="5.65979">
        <ele>617</ele>
        <time>2010-12-04T16:55:19Z</time>
      </trkpt>
      <trkpt lat="45.32801" lon="5.65976">
        <ele>616.4</ele>
        <time>2010-12-04T16:55:21Z</time>
      </trkpt>
      <trkpt lat="45.32803" lon="5.65975">
        <ele>616.2</ele>
        <time>2010-12-04T16:55:22Z</time>
      </trkpt>
      <trkpt lat="45.32811" lon="5.65969">
        <ele>615.2</ele>
        <time>2010-12-04T16:55:26Z</time>
      </trkpt>
      <trkpt lat="45.32813" lon="5.65968">
        <ele>615</ele>
        <time>2010-12-04T16:55:27Z</time>
      </trkpt>
      <trkpt lat="45.32818" lon="5.65964">
        <ele>614.2</ele>
        <time>2010-12-04T16:55:30Z</time>
      </trkpt>
      <trkpt lat="45.32823" lon="5.65959">
        <ele>613.4</ele>
        <time>2010-12-04T16:55:33Z</time>
      </trkpt>
      <trkpt lat="45.32826" lon="5.65956">
        <ele>613</ele>
        <time>2010-12-04T16:55:36Z</time>
      </trkpt>
      <trkpt lat="45.32831" lon="5.65951">
        <ele>611.8</ele>
        <time>2010-12-04T16:55:41Z</time>
      </trkpt>
      <trkpt lat="45.32831" lon="5.65951">
        <ele>611.6</ele>
        <time>2010-12-04T16:55:42Z</time>
      </trkpt>
      <trkpt lat="45.32831" lon="5.65951">
        <ele>610</ele>
        <time>2010-12-04T16:55:50Z</time>
      </trkpt>
      <trkpt lat="45.32831" lon="5.65951">
        <ele>608.2</ele>
        <time>2010-12-04T16:56:00Z</time>
      </trkpt>
      <trkpt lat="45.32832" lon="5.6595">
        <ele>607.2</ele>
        <time>2010-12-04T16:56:06Z</time>
      </trkpt>
      <trkpt lat="45.32834" lon="5.65949">
        <ele>607</ele>
        <time>2010-12-04T16:56:08Z</time>
      </trkpt>
      <trkpt lat="45.3284" lon="5.65944">
        <ele>606.2</ele>
        <time>2010-12-04T16:56:14Z</time>
      </trkpt>
      <trkpt lat="45.32841" lon="5.65943">
        <ele>606</ele>
        <time>2010-12-04T16:56:15Z</time>
      </trkpt>
      <trkpt lat="45.32844" lon="5.65938">
        <ele>605.6</ele>
        <time>2010-12-04T16:56:19Z</time>
      </trkpt>
      <trkpt lat="45.32847" lon="5.65936">
        <ele>605.2</ele>
        <time>2010-12-04T16:56:22Z</time>
      </trkpt>
      <trkpt lat="45.32848" lon="5.65935">
        <ele>605</ele>
        <time>2010-12-04T16:56:23Z</time>
      </trkpt>
      <trkpt lat="45.3285" lon="5.65933">
        <ele>604.8</ele>
        <time>2010-12-04T16:56:25Z</time>
      </trkpt>
      <trkpt lat="45.32854" lon="5.6593">
        <ele>604.4</ele>
        <time>2010-12-04T16:56:29Z</time>
      </trkpt>
      <trkpt lat="45.32858" lon="5.65925">
        <ele>603.8</ele>
        <time>2010-12-04T16:56:33Z</time>
      </trkpt>
      <trkpt lat="45.32862" lon="5.65921">
        <ele>603.4</ele>
        <time>2010-12-04T16:56:37Z</time>
      </trkpt>
      <trkpt lat="45.32866" lon="5.65919">
        <ele>603</ele>
        <time>2010-12-04T16:56:40Z</time>
      </trkpt>
      <trkpt lat="45.32874" lon="5.65912">
        <ele>602.2</ele>
        <time>2010-12-04T16:56:47Z</time>
      </trkpt>
      <trkpt lat="45.32879" lon="5.65908">
        <ele>601.6</ele>
        <time>2010-12-04T16:56:51Z</time>
      </trkpt>
      <trkpt lat="45.32881" lon="5.65904">
        <ele>601.4</ele>
        <time>2010-12-04T16:56:54Z</time>
      </trkpt>
      <trkpt lat="45.32888" lon="5.65897">
        <ele>600.6</ele>
        <time>2010-12-04T16:57:01Z</time>
      </trkpt>
      <trkpt lat="45.32894" lon="5.65892">
        <ele>600</ele>
        <time>2010-12-04T16:57:06Z</time>
      </trkpt>
      <trkpt lat="45.32897" lon="5.65889">
        <ele>599.8</ele>
        <time>2010-12-04T16:57:09Z</time>
      </trkpt>
      <trkpt lat="45.32903" lon="5.65881">
        <ele>599</ele>
        <time>2010-12-04T16:57:16Z</time>
      </trkpt>
      <trkpt lat="45.32907" lon="5.65875">
        <ele>598.4</ele>
        <time>2010-12-04T16:57:22Z</time>
      </trkpt>
      <trkpt lat="45.32907" lon="5.65874">
        <ele>598.4</ele>
        <time>2010-12-04T16:57:23Z</time>
      </trkpt>
      <trkpt lat="45.32912" lon="5.65868">
        <ele>598</ele>
        <time>2010-12-04T16:57:29Z</time>
      </trkpt>
      <trkpt lat="45.3292" lon="5.65859">
        <ele>597.2</ele>
        <time>2010-12-04T16:57:38Z</time>
      </trkpt>
      <trkpt lat="45.32921" lon="5.65858">
        <ele>597.2</ele>
        <time>2010-12-04T16:57:39Z</time>
      </trkpt>
      <trkpt lat="45.32927" lon="5.65848">
        <ele>596.8</ele>
        <time>2010-12-04T16:57:47Z</time>
      </trkpt>
      <trkpt lat="45.32932" lon="5.65836">
        <ele>596.6</ele>
        <time>2010-12-04T16:57:54Z</time>
      </trkpt>
      <trkpt lat="45.32937" lon="5.65826">
        <ele>597</ele>
        <time>2010-12-04T16:58:01Z</time>
      </trkpt>
      <trkpt lat="45.32948" lon="5.65827">
        <ele>596.6</ele>
        <time>2010-12-04T16:58:08Z</time>
      </trkpt>
      <trkpt lat="45.32957" lon="5.65827">
        <ele>596</ele>
        <time>2010-12-04T16:58:16Z</time>
      </trkpt>
      <trkpt lat="45.32965" lon="5.65825">
        <ele>595.6</ele>
        <time>2010-12-04T16:58:22Z</time>
      </trkpt>
      <trkpt lat="45.32967" lon="5.65823">
        <ele>595.4</ele>
        <time>2010-12-04T16:58:24Z</time>
      </trkpt>
      <trkpt lat="45.32974" lon="5.65822">
        <ele>595.2</ele>
        <time>2010-12-04T16:58:29Z</time>
      </trkpt>
      <trkpt lat="45.32979" lon="5.6582">
        <ele>594.8</ele>
        <time>2010-12-04T16:58:36Z</time>
      </trkpt>
      <trkpt lat="45.32985" lon="5.65816">
        <ele>594.6</ele>
        <time>2010-12-04T16:58:40Z</time>
      </trkpt>
      <trkpt lat="45.32987" lon="5.65815">
        <ele>594.6</ele>
        <time>2010-12-04T16:58:42Z</time>
      </trkpt>
      <trkpt lat="45.32999" lon="5.65811">
        <ele>594</ele>
        <time>2010-12-04T16:58:51Z</time>
      </trkpt>
      <trkpt lat="45.33002" lon="5.65805">
        <ele>593.8</ele>
        <time>2010-12-04T16:58:56Z</time>
      </trkpt>
      <trkpt lat="45.33003" lon="5.658">
        <ele>593.8</ele>
        <time>2010-12-04T16:58:59Z</time>
      </trkpt>
      <trkpt lat="45.33002" lon="5.65797">
        <ele>593.6</ele>
        <time>2010-12-04T16:59:01Z</time>
      </trkpt>
      <trkpt lat="45.33002" lon="5.65795">
        <ele>593.4</ele>
        <time>2010-12-04T16:59:05Z</time>
      </trkpt>
      <trkpt lat="45.32999" lon="5.65797">
        <ele>593.2</ele>
        <time>2010-12-04T16:59:09Z</time>
      </trkpt>
      <trkpt lat="45.32998" lon="5.65797">
        <ele>592.8</ele>
        <time>2010-12-04T16:59:27Z</time>
      </trkpt>
      <trkpt lat="45.32997" lon="5.65798">
        <ele>592.6</ele>
        <time>2010-12-04T16:59:36Z</time>
      </trkpt>
      <trkpt lat="45.32998" lon="5.65798">
        <ele>592.6</ele>
        <time>2010-12-04T16:59:43Z</time>
      </trkpt>
      <trkpt lat="45.33001" lon="5.65795">
        <ele>592.2</ele>
        <time>2010-12-04T17:00:01Z</time>
      </trkpt>
      <trkpt lat="45.33003" lon="5.65796">
        <ele>591.8</ele>
        <time>2010-12-04T17:00:16Z</time>
      </trkpt>
      <trkpt lat="45.33003" lon="5.65797">
        <ele>591.6</ele>
        <time>2010-12-04T17:00:19Z</time>
      </trkpt>
      <trkpt lat="45.33001" lon="5.65797">
        <ele>591.6</ele>
        <time>2010-12-04T17:00:23Z</time>
      </trkpt>
      <trkpt lat="45.32999" lon="5.65798">
        <ele>588.4</ele>
        <time>2010-12-04T17:01:27Z</time>
      </trkpt>
      <trkpt lat="45.32999" lon="5.65802">
        <ele>591</ele>
        <time>2010-12-04T17:01:54Z</time>
      </trkpt>
      <trkpt lat="45.32999" lon="5.65801">
        <ele>591.2</ele>
        <time>2010-12-04T17:02:01Z</time>
      </trkpt>
      <trkpt lat="45.32999" lon="5.65794">
        <ele>591.6</ele>
        <time>2010-12-04T17:02:47Z</time>
      </trkpt>
      <trkpt lat="45.33" lon="5.65794">
        <ele>591.2</ele>
        <time>2010-12-04T17:02:59Z</time>
      </trkpt>
      <trkpt lat="45.33002" lon="5.65797">
        <ele>589.8</ele>
        <time>2010-12-04T17:03:29Z</time>
      </trkpt>
      <trkpt lat="45.33002" lon="5.65795">
        <ele>590.2</ele>
        <time>2010-12-04T17:03:41Z</time>
      </trkpt>
      <trkpt lat="45.33002" lon="5.65796">
        <ele>590.6</ele>
        <time>2010-12-04T17:03:49Z</time>
      </trkpt>
      <trkpt lat="45.33002" lon="5.65796">
        <ele>591.6</ele>
        <time>2010-12-04T17:04:09Z</time>
      </trkpt>
      <trkpt lat="45.33004" lon="5.65795">
        <ele>592.6</ele>
        <time>2010-12-04T17:04:27Z</time>
      </trkpt>
      <trkpt lat="45.33002" lon="5.65795">
        <ele>593.4</ele>
        <time>2010-12-04T17:04:38Z</time>
      </trkpt>
      <trkpt lat="45.33004" lon="5.65792">
        <ele>594.6</ele>
        <time>2010-12-04T17:05:04Z</time>
      </trkpt>
      <trkpt lat="45.33003" lon="5.65791">
        <ele>594.6</ele>
        <time>2010-12-04T17:05:13Z</time>
      </trkpt>
      <trkpt lat="45.33003" lon="5.65794">
        <ele>595</ele>
        <time>2010-12-04T17:05:40Z</time>
      </trkpt>
      <trkpt lat="45.33" lon="5.65797">
        <ele>594.8</ele>
        <time>2010-12-04T17:05:46Z</time>
      </trkpt>
      <trkpt lat="45.32999" lon="5.658">
        <ele>594.6</ele>
        <time>2010-12-04T17:05:55Z</time>
      </trkpt>
      <trkpt lat="45.33001" lon="5.65799">
        <ele>594.2</ele>
        <time>2010-12-04T17:06:02Z</time>
      </trkpt>
      <trkpt lat="45.32999" lon="5.65797">
        <ele>594</ele>
        <time>2010-12-04T17:06:13Z</time>
      </trkpt>
      <trkpt lat="45.33001" lon="5.65797">
        <ele>593.8</ele>
        <time>2010-12-04T17:06:43Z</time>
      </trkpt>
      <trkpt lat="45.33002" lon="5.65794">
        <ele>593.6</ele>
        <time>2010-12-04T17:06:49Z</time>
      </trkpt>
      <trkpt lat="45.33001" lon="5.65795">
        <ele>593.4</ele>
        <time>2010-12-04T17:06:54Z</time>
      </trkpt>
      <trkpt lat="45.33001" lon="5.65796">
        <ele>592.8</ele>
        <time>2010-12-04T17:07:06Z</time>
      </trkpt>
      <trkpt lat="45.33003" lon="5.65793">
        <ele>592</ele>
        <time>2010-12-04T17:07:24Z</time>
      </trkpt>
      <trkpt lat="45.33005" lon="5.65794">
        <ele>591.2</ele>
        <time>2010-12-04T17:07:53Z</time>
      </trkpt>
      <trkpt lat="45.33008" lon="5.65795">
        <ele>591</ele>
        <time>2010-12-04T17:07:55Z</time>
      </trkpt>
      <trkpt lat="45.33011" lon="5.658">
        <ele>591</ele>
        <time>2010-12-04T17:07:58Z</time>
      </trkpt>
      <trkpt lat="45.33011" lon="5.65802">
        <ele>590.8</ele>
        <time>2010-12-04T17:07:59Z</time>
      </trkpt>
      <trkpt lat="45.33012" lon="5.65804">
        <ele>590.8</ele>
        <time>2010-12-04T17:08:00Z</time>
      </trkpt>
      <trkpt lat="45.33016" lon="5.65814">
        <ele>590.8</ele>
        <time>2010-12-04T17:08:03Z</time>
      </trkpt>
      <trkpt lat="45.33022" lon="5.65819">
        <ele>590.8</ele>
        <time>2010-12-04T17:08:05Z</time>
      </trkpt>
      <trkpt lat="45.33026" lon="5.65819">
        <ele>590.8</ele>
        <time>2010-12-04T17:08:06Z</time>
      </trkpt>
      <trkpt lat="45.33042" lon="5.65821">
        <ele>590.6</ele>
        <time>2010-12-04T17:08:09Z</time>
      </trkpt>
      <trkpt lat="45.33048" lon="5.65822">
        <ele>590.6</ele>
        <time>2010-12-04T17:08:10Z</time>
      </trkpt>
      <trkpt lat="45.33061" lon="5.65826">
        <ele>590.6</ele>
        <time>2010-12-04T17:08:12Z</time>
      </trkpt>
      <trkpt lat="45.33082" lon="5.65832">
        <ele>590.6</ele>
        <time>2010-12-04T17:08:15Z</time>
      </trkpt>
      <trkpt lat="45.33089" lon="5.65835">
        <ele>590.4</ele>
        <time>2010-12-04T17:08:16Z</time>
      </trkpt>
      <trkpt lat="45.33103" lon="5.6584">
        <ele>590.4</ele>
        <time>2010-12-04T17:08:18Z</time>
      </trkpt>
      <trkpt lat="45.33125" lon="5.65844">
        <ele>590.4</ele>
        <time>2010-12-04T17:08:21Z</time>
      </trkpt>
      <trkpt lat="45.33132" lon="5.65844">
        <ele>590.2</ele>
        <time>2010-12-04T17:08:22Z</time>
      </trkpt>
      <trkpt lat="45.33146" lon="5.65844">
        <ele>590.2</ele>
        <time>2010-12-04T17:08:24Z</time>
      </trkpt>
      <trkpt lat="45.33168" lon="5.65845">
        <ele>590.2</ele>
        <time>2010-12-04T17:08:27Z</time>
      </trkpt>
      <trkpt lat="45.33177" lon="5.65846">
        <ele>590.2</ele>
        <time>2010-12-04T17:08:28Z</time>
      </trkpt>
      <trkpt lat="45.33185" lon="5.65849">
        <ele>590.2</ele>
        <time>2010-12-04T17:08:29Z</time>
      </trkpt>
      <trkpt lat="45.33194" lon="5.65852">
        <ele>590.2</ele>
        <time>2010-12-04T17:08:30Z</time>
      </trkpt>
      <trkpt lat="45.33212" lon="5.6586">
        <ele>590</ele>
        <time>2010-12-04T17:08:32Z</time>
      </trkpt>
      <trkpt lat="45.3323" lon="5.65868">
        <ele>590</ele>
        <time>2010-12-04T17:08:34Z</time>
      </trkpt>
      <trkpt lat="45.3324" lon="5.65873">
        <ele>590</ele>
        <time>2010-12-04T17:08:35Z</time>
      </trkpt>
      <trkpt lat="45.33249" lon="5.65877">
        <ele>589.8</ele>
        <time>2010-12-04T17:08:36Z</time>
      </trkpt>
      <trkpt lat="45.33268" lon="5.65886">
        <ele>589.8</ele>
        <time>2010-12-04T17:08:38Z</time>
      </trkpt>
      <trkpt lat="45.33287" lon="5.65894">
        <ele>589.6</ele>
        <time>2010-12-04T17:08:40Z</time>
      </trkpt>
      <trkpt lat="45.33307" lon="5.65901">
        <ele>589.4</ele>
        <time>2010-12-04T17:08:42Z</time>
      </trkpt>
      <trkpt lat="45.33317" lon="5.65904">
        <ele>589.2</ele>
        <time>2010-12-04T17:08:43Z</time>
      </trkpt>
      <trkpt lat="45.33327" lon="5.65907">
        <ele>589</ele>
        <time>2010-12-04T17:08:44Z</time>
      </trkpt>
      <trkpt lat="45.33347" lon="5.65912">
        <ele>589</ele>
        <time>2010-12-04T17:08:46Z</time>
      </trkpt>
      <trkpt lat="45.33368" lon="5.65915">
        <ele>588.6</ele>
        <time>2010-12-04T17:08:48Z</time>
      </trkpt>
      <trkpt lat="45.33389" lon="5.65917">
        <ele>588.6</ele>
        <time>2010-12-04T17:08:50Z</time>
      </trkpt>
      <trkpt lat="45.33412" lon="5.65918">
        <ele>588.2</ele>
        <time>2010-12-04T17:08:52Z</time>
      </trkpt>
      <trkpt lat="45.33435" lon="5.6592">
        <ele>588</ele>
        <time>2010-12-04T17:08:54Z</time>
      </trkpt>
      <trkpt lat="45.33457" lon="5.65922">
        <ele>587.8</ele>
        <time>2010-12-04T17:08:56Z</time>
      </trkpt>
      <trkpt lat="45.33479" lon="5.65927">
        <ele>587.6</ele>
        <time>2010-12-04T17:08:58Z</time>
      </trkpt>
      <trkpt lat="45.33489" lon="5.65929">
        <ele>587.6</ele>
        <time>2010-12-04T17:08:59Z</time>
      </trkpt>
      <trkpt lat="45.33499" lon="5.65931">
        <ele>587.6</ele>
        <time>2010-12-04T17:09:00Z</time>
      </trkpt>
      <trkpt lat="45.33519" lon="5.65935">
        <ele>587.4</ele>
        <time>2010-12-04T17:09:02Z</time>
      </trkpt>
      <trkpt lat="45.33539" lon="5.65942">
        <ele>587.2</ele>
        <time>2010-12-04T17:09:04Z</time>
      </trkpt>
      <trkpt lat="45.3356" lon="5.65949">
        <ele>587</ele>
        <time>2010-12-04T17:09:06Z</time>
      </trkpt>
      <trkpt lat="45.33581" lon="5.65956">
        <ele>587</ele>
        <time>2010-12-04T17:09:08Z</time>
      </trkpt>
      <trkpt lat="45.33603" lon="5.65965">
        <ele>586.8</ele>
        <time>2010-12-04T17:09:10Z</time>
      </trkpt>
      <trkpt lat="45.33623" lon="5.65974">
        <ele>586.4</ele>
        <time>2010-12-04T17:09:12Z</time>
      </trkpt>
    </trkseg>
  </trk>
</gpx>